ftp/pub/mcmurdo/arrivalheights/2023/08072023.txt
Download
Temp Hi Low Out Dew Wind Wind Wind Hi Hi Wind Heat THW Heat Cool In In In In In In Air Wind Wind ISS Arc.
Date Time Out Temp Temp Hum Pt. Speed Dir Run Speed Dir Chill Index Index Bar D-D D-D Temp Hum Dew Heat EMC Density Samp Tx Recept Int.
08/06/23 0:01 -31.4 -31.4 -31.5 66 -35.7 19.1 E 0.32 20.9 E -48.5 -31.5 -48.6 733.1 0.035 0.000 17.2 2 -32.8 13.7 0.49 .0732 21 1 91.3 1
08/06/23 0:02 -31.4 -31.4 -31.4 65 -35.8 15.7 E 0.26 19.1 E -47.1 -31.4 -47.2 733.1 0.035 0.000 17.2 2 -32.8 13.7 0.49 .0732 24 1 100.0 1
08/06/23 0:03 -31.4 -31.4 -31.4 65 -35.9 13.9 E 0.23 18.3 E -46.4 -31.5 -46.4 733.1 0.035 0.000 17.2 2 -32.8 13.6 0.49 .0732 23 1 100.0 1
08/06/23 0:04 -31.7 -31.4 -31.7 65 -36.1 20.9 E 0.35 26.1 E -49.4 -31.7 -49.4 733.0 0.035 0.000 17.2 2 -32.8 13.6 0.49 .0732 24 1 100.0 1
08/06/23 0:05 -31.9 -31.7 -31.9 65 -36.3 24.3 E 0.41 26.1 E -50.8 -31.9 -50.8 732.8 0.035 0.000 17.2 2 -32.8 13.6 0.49 .0732 23 1 100.0 1
08/06/23 0:06 -32.1 -31.9 -32.1 64 -36.6 25.2 E 0.42 26.1 E -51.2 -32.1 -51.3 732.8 0.035 0.000 17.2 2 -32.8 13.6 0.49 .0732 23 1 100.0 1
08/06/23 0:07 -32.2 -32.1 -32.2 64 -36.7 24.3 E 0.41 26.1 E -51.2 -32.2 -51.2 732.9 0.035 0.000 17.2 2 -32.8 13.6 0.49 .0732 24 1 100.0 1
08/06/23 0:08 -32.1 -32.1 -32.2 64 -36.6 21.7 E 0.36 24.3 E -50.3 -32.2 -50.3 732.9 0.035 0.000 17.2 2 -32.8 13.6 0.49 .0732 23 1 100.0 1
08/06/23 0:09 -32.2 -32.1 -32.2 64 -36.7 20.9 E 0.35 22.6 E -50.1 -32.2 -50.1 733.0 0.035 0.000 17.2 2 -32.8 13.6 0.49 .0732 24 1 100.0 1
08/06/23 0:10 -32.2 -32.2 -32.2 65 -36.6 22.6 E 0.38 23.5 E -50.7 -32.3 -50.7 732.9 0.035 0.000 17.2 2 -32.8 13.6 0.49 .0732 23 1 100.0 1
08/06/23 0:11 -32.3 -32.2 -32.3 65 -36.7 21.7 E 0.36 23.5 ESE -50.5 -32.3 -50.6 732.9 0.035 0.000 17.2 2 -32.8 13.6 0.49 .0732 23 1 100.0 1
08/06/23 0:12 -32.3 -32.3 -32.3 65 -36.7 24.3 ESE 0.41 25.2 ESE -51.4 -32.4 -51.4 732.8 0.035 0.000 17.2 2 -32.8 13.6 0.49 .0732 24 1 100.0 1
08/06/23 0:13 -32.3 -32.3 -32.3 65 -36.7 24.3 E 0.41 27.0 E -51.4 -32.4 -51.4 732.8 0.035 0.000 17.2 2 -32.8 13.6 0.49 .0732 23 1 100.0 1
08/06/23 0:14 -32.3 -32.3 -32.3 65 -36.7 24.3 E 0.41 27.0 E -51.4 -32.4 -51.4 732.7 0.035 0.000 17.2 2 -32.8 13.6 0.49 .0732 24 1 100.0 1
08/06/23 0:15 -32.3 -32.3 -32.3 65 -36.7 22.6 E 0.38 23.5 E -50.8 -32.4 -50.9 733.0 0.035 0.000 17.2 2 -32.8 13.6 0.49 .0732 23 1 100.0 1
08/06/23 0:16 -32.3 -32.3 -32.3 65 -36.7 22.6 E 0.38 23.5 E -50.8 -32.3 -50.8 733.0 0.035 0.000 17.2 2 -32.8 13.6 0.49 .0732 24 1 100.0 1
08/06/23 0:17 -32.3 -32.2 -32.3 65 -36.7 20.9 E 0.35 22.6 E -50.2 -32.3 -50.3 733.0 0.035 0.000 17.2 2 -32.8 13.6 0.49 .0732 23 1 100.0 1
08/06/23 0:18 -32.3 -32.3 -32.3 65 -36.7 21.7 E 0.36 25.2 ESE -50.6 -32.4 -50.6 733.0 0.035 0.000 17.2 2 -32.8 13.6 0.49 .0732 23 1 100.0 1
08/06/23 0:19 -32.4 -32.3 -32.4 65 -36.8 23.5 E 0.39 25.2 ESE -51.2 -32.4 -51.2 732.9 0.035 0.000 17.2 2 -32.8 13.6 0.49 .0732 24 1 100.0 1
08/06/23 0:20 -32.4 -32.4 -32.4 65 -36.8 22.6 E 0.38 23.5 E -50.9 -32.4 -51.0 733.0 0.035 0.000 17.2 2 -32.8 13.6 0.49 .0732 23 1 100.0 1
08/06/23 0:21 -32.4 -32.4 -32.4 65 -36.8 22.6 E 0.38 23.5 E -51.0 -32.5 -51.1 733.0 0.035 0.000 17.2 2 -32.8 13.6 0.49 .0732 24 1 100.0 1
08/06/23 0:22 -32.5 -32.4 -32.5 65 -36.9 20.9 E 0.35 22.6 E -50.5 -32.6 -50.6 733.1 0.035 0.000 17.2 2 -32.8 13.6 0.49 .0732 23 1 100.0 1
08/06/23 0:23 -32.5 -32.5 -32.5 65 -36.9 20.0 E 0.33 21.7 E -50.2 -32.6 -50.3 733.1 0.035 0.000 17.2 2 -32.8 13.6 0.49 .0732 23 1 100.0 1
08/06/23 0:24 -32.6 -32.6 -32.6 65 -37.0 20.9 E 0.35 22.6 E -50.7 -32.7 -50.7 733.0 0.035 0.000 17.2 2 -32.8 13.6 0.49 .0732 24 1 100.0 1
08/06/23 0:25 -32.7 -32.6 -32.7 65 -37.0 22.6 E 0.38 23.5 ESE -51.3 -32.7 -51.3 732.9 0.035 0.000 17.2 2 -32.8 13.6 0.49 .0732 23 1 100.0 1
08/06/23 0:26 -32.7 -32.7 -32.7 65 -37.0 21.7 E 0.36 23.5 ESE -51.0 -32.7 -51.1 733.0 0.035 0.000 17.2 2 -32.8 13.6 0.49 .0732 24 1 100.0 1
08/06/23 0:27 -32.7 -32.7 -32.7 65 -37.0 23.5 E 0.39 24.3 E -51.6 -32.7 -51.6 732.9 0.035 0.000 17.2 2 -32.8 13.6 0.49 .0732 23 1 100.0 1
08/06/23 0:28 -32.7 -32.7 -32.7 65 -37.0 22.6 E 0.38 23.5 E -51.3 -32.7 -51.3 732.9 0.035 0.000 17.2 2 -32.8 13.6 0.49 .0732 24 1 100.0 1
08/06/23 0:29 -32.6 -32.6 -32.7 65 -37.0 20.9 E 0.35 22.6 E -50.7 -32.7 -50.7 733.0 0.035 0.000 17.2 2 -32.8 13.6 0.49 .0732 23 1 100.0 1
08/06/23 0:30 -32.6 -32.6 -32.6 66 -36.8 23.5 E 0.39 25.2 E -51.5 -32.7 -51.6 732.9 0.035 0.000 17.2 2 -32.8 13.6 0.49 .0732 23 1 100.0 1
08/06/23 0:31 -32.6 -32.6 -32.7 66 -36.8 22.6 E 0.38 23.5 E -51.2 -32.6 -51.2 732.9 0.035 0.000 17.2 2 -32.8 13.6 0.49 .0732 24 1 100.0 1
08/06/23 0:32 -32.6 -32.6 -32.6 66 -36.8 20.0 E 0.33 22.6 E -50.3 -32.6 -50.3 733.0 0.035 0.000 17.2 2 -32.8 13.6 0.49 .0732 23 1 100.0 1
08/06/23 0:33 -32.6 -32.6 -32.6 66 -36.8 23.5 E 0.39 24.3 E -51.5 -32.7 -51.6 732.8 0.035 0.000 17.1 2 -32.9 13.6 0.49 .0732 24 1 100.0 1
08/06/23 0:34 -32.7 -32.6 -32.7 66 -36.9 22.6 E 0.38 25.2 ESE -51.3 -32.7 -51.3 732.7 0.035 0.000 17.1 2 -32.9 13.6 0.49 .0732 23 1 100.0 1
08/06/23 0:35 -32.7 -32.7 -32.7 66 -36.9 24.3 E 0.41 26.1 E -51.8 -32.7 -51.9 732.7 0.035 0.000 17.1 2 -32.9 13.6 0.49 .0732 23 1 100.0 1
08/06/23 0:36 -32.6 -32.6 -32.7 66 -36.8 23.5 E 0.39 25.2 E -51.5 -32.7 -51.6 732.7 0.035 0.000 17.1 2 -32.9 13.6 0.49 .0732 24 1 100.0 1
08/06/23 0:37 -32.6 -32.6 -32.7 66 -36.8 20.9 E 0.35 22.6 E -50.7 -32.7 -50.7 732.8 0.035 0.000 17.1 2 -32.9 13.6 0.49 .0732 23 1 100.0 1
08/06/23 0:38 -32.7 -32.6 -32.7 66 -36.9 21.7 E 0.36 23.5 E -51.0 -32.7 -51.1 732.8 0.035 0.000 17.1 2 -32.9 13.6 0.49 .0732 24 1 100.0 1
08/06/23 0:39 -32.7 -32.7 -32.7 66 -36.9 23.5 E 0.39 25.2 E -51.6 -32.8 -51.7 732.7 0.035 0.000 17.1 2 -32.9 13.6 0.49 .0732 23 1 100.0 1
08/06/23 0:40 -32.8 -32.7 -32.8 66 -37.0 24.3 E 0.41 26.1 ESE -51.9 -32.8 -52.0 732.7 0.035 0.000 17.1 2 -32.9 13.6 0.49 .0732 23 1 100.0 1
08/06/23 0:41 -32.7 -32.7 -32.8 66 -36.9 26.1 E 0.43 27.0 E -52.4 -32.8 -52.4 732.6 0.035 0.000 17.1 2 -32.9 13.6 0.49 .0732 24 1 100.0 1
08/06/23 0:42 -32.7 -32.7 -32.7 66 -36.9 24.3 E 0.41 27.0 E -51.8 -32.7 -51.9 732.7 0.035 0.000 17.1 2 -32.9 13.5 0.50 .0732 23 1 100.0 1
08/06/23 0:43 -32.6 -32.6 -32.7 66 -36.8 22.6 E 0.38 24.3 E -51.2 -32.7 -51.3 732.9 0.035 0.000 17.1 2 -32.9 13.5 0.50 .0732 24 1 100.0 1
08/06/23 0:44 -32.6 -32.6 -32.7 66 -36.8 23.5 E 0.39 24.3 E -51.5 -32.7 -51.6 732.8 0.035 0.000 17.1 2 -32.9 13.5 0.50 .0732 23 1 100.0 1
08/06/23 0:45 -32.7 -32.7 -32.7 66 -36.9 25.2 E 0.42 27.0 E -52.1 -32.7 -52.1 732.7 0.035 0.000 17.1 2 -32.9 13.5 0.50 .0732 24 1 100.0 1
08/06/23 0:46 -32.6 -32.6 -32.7 66 -36.8 25.2 E 0.42 27.8 E -52.0 -32.7 -52.1 732.7 0.035 0.000 17.1 2 -32.9 13.5 0.50 .0732 23 1 100.0 1
08/06/23 0:47 -32.6 -32.6 -32.6 66 -36.8 22.6 E 0.38 25.2 E -51.2 -32.6 -51.2 732.9 0.035 0.000 17.1 2 -32.9 13.5 0.50 .0732 23 1 100.0 1
08/06/23 0:48 -32.6 -32.6 -32.6 66 -36.8 26.1 E 0.43 27.8 E -52.2 -32.6 -52.2 732.7 0.035 0.000 17.1 2 -32.9 13.5 0.50 .0732 24 1 100.0 1
08/06/23 0:49 -32.6 -32.6 -32.6 66 -36.8 24.3 E 0.41 27.0 E -51.7 -32.6 -51.7 732.7 0.035 0.000 17.1 2 -32.9 13.5 0.50 .0732 23 1 100.0 1
08/06/23 0:50 -32.6 -32.6 -32.6 66 -36.8 25.2 E 0.42 27.0 E -51.9 -32.6 -52.0 732.7 0.035 0.000 17.1 2 -32.9 13.5 0.50 .0732 24 1 100.0 1
08/06/23 0:51 -32.6 -32.6 -32.6 66 -36.8 23.5 E 0.39 24.3 E -51.4 -32.6 -51.4 732.7 0.035 0.000 17.1 2 -32.9 13.5 0.50 .0732 23 1 100.0 1
08/06/23 0:52 -32.5 -32.5 -32.6 66 -36.7 22.6 E 0.38 25.2 E -51.1 -32.6 -51.1 732.8 0.035 0.000 17.1 2 -32.9 13.5 0.50 .0732 23 1 100.0 1
08/06/23 0:53 -32.4 -32.4 -32.5 66 -36.7 24.3 E 0.41 26.1 E -51.5 -32.5 -51.6 732.7 0.035 0.000 17.1 2 -32.9 13.5 0.50 .0732 24 1 100.0 1
08/06/23 0:54 -32.4 -32.4 -32.4 66 -36.7 26.1 E 0.43 28.7 E -52.0 -32.5 -52.1 732.7 0.035 0.000 17.1 2 -32.9 13.5 0.50 .0732 23 1 100.0 1
08/06/23 0:55 -32.4 -32.4 -32.4 66 -36.6 25.2 E 0.42 27.0 E -51.7 -32.4 -51.7 732.7 0.035 0.000 17.0 2 -32.9 13.5 0.50 .0732 24 1 100.0 1
08/06/23 0:56 -32.4 -32.4 -32.4 66 -36.6 24.3 E 0.41 28.7 E -51.4 -32.4 -51.5 732.8 0.035 0.000 17.0 2 -32.9 13.5 0.50 .0732 23 1 100.0 1
08/06/23 0:57 -32.4 -32.4 -32.4 66 -36.7 24.3 E 0.41 25.2 E -51.5 -32.5 -51.6 732.8 0.035 0.000 17.1 2 -32.9 13.5 0.50 .0732 24 1 100.0 1
08/06/23 0:58 -32.4 -32.4 -32.4 65 -36.8 24.3 E 0.41 26.1 E -51.4 -32.4 -51.5 732.7 0.035 0.000 17.1 2 -32.9 13.5 0.50 .0732 23 1 100.0 1
08/06/23 0:59 -32.4 -32.4 -32.4 65 -36.8 24.3 E 0.41 27.0 E -51.5 -32.5 -51.6 732.7 0.035 0.000 17.0 2 -32.9 13.5 0.50 .0732 23 1 100.0 1
08/06/23 1:00 -32.5 -32.4 -32.5 65 -36.9 26.1 E 0.43 28.7 ESE -52.1 -32.6 -52.2 732.6 0.035 0.000 17.0 2 -32.9 13.5 0.50 .0732 24 1 100.0 1
08/06/23 1:01 -32.4 -32.4 -32.4 65 -36.8 24.3 E 0.41 27.0 E -51.5 -32.5 -51.6 732.7 0.035 0.000 17.0 2 -32.9 13.5 0.50 .0732 23 1 100.0 1
08/06/23 1:02 -32.4 -32.4 -32.4 65 -36.8 22.6 E 0.38 25.2 ESE -51.0 -32.5 -51.1 732.7 0.035 0.000 17.1 2 -32.9 13.5 0.50 .0732 24 1 100.0 1
08/06/23 1:03 -32.4 -32.4 -32.4 65 -36.8 25.2 E 0.42 27.8 E -51.8 -32.5 -51.8 732.7 0.035 0.000 17.0 2 -32.9 13.5 0.50 .0732 23 1 100.0 1
08/06/23 1:04 -32.4 -32.4 -32.5 65 -36.8 26.1 E 0.43 27.8 E -52.0 -32.5 -52.1 732.5 0.035 0.000 17.0 2 -32.9 13.5 0.50 .0732 23 1 100.0 1
08/06/23 1:05 -32.4 -32.4 -32.4 65 -36.8 27.0 E 0.45 28.7 E -52.2 -32.4 -52.2 732.5 0.035 0.000 17.0 2 -32.9 13.5 0.50 .0732 24 1 100.0 1
08/06/23 1:06 -32.3 -32.3 -32.3 65 -36.7 24.3 ESE 0.41 26.1 ESE -51.3 -32.3 -51.3 732.6 0.035 0.000 17.0 2 -32.9 13.5 0.50 .0732 23 1 100.0 1
08/06/23 1:07 -32.3 -32.3 -32.3 65 -36.7 23.5 E 0.39 24.3 E -51.1 -32.3 -51.1 732.6 0.035 0.000 17.0 2 -32.9 13.5 0.50 .0732 24 1 100.0 1
08/06/23 1:08 -32.3 -32.3 -32.3 65 -36.7 22.6 E 0.38 24.3 E -50.8 -32.3 -50.8 732.6 0.035 0.000 17.0 2 -32.9 13.5 0.50 .0732 23 1 100.0 1
08/06/23 1:09 -32.3 -32.3 -32.3 65 -36.7 21.7 E 0.36 24.3 E -50.5 -32.3 -50.6 732.6 0.035 0.000 17.0 2 -32.9 13.5 0.50 .0732 23 1 100.0 1
08/06/23 1:10 -32.3 -32.3 -32.3 65 -36.7 24.3 ESE 0.41 27.0 E -51.3 -32.3 -51.3 732.5 0.035 0.000 17.0 2 -32.9 13.5 0.50 .0732 24 1 100.0 1
08/06/23 1:11 -32.3 -32.3 -32.3 65 -36.7 23.5 E 0.39 26.1 E -51.1 -32.4 -51.2 732.6 0.035 0.000 17.0 2 -32.9 13.5 0.50 .0732 23 1 100.0 1
08/06/23 1:12 -32.3 -32.3 -32.3 65 -36.7 26.1 E 0.43 27.0 E -51.8 -32.4 -51.9 732.5 0.035 0.000 17.0 2 -32.9 13.5 0.50 .0732 24 1 100.0 1
08/06/23 1:13 -32.3 -32.3 -32.3 65 -36.7 20.9 E 0.35 24.3 E -50.2 -32.3 -50.3 732.7 0.035 0.000 17.0 2 -32.9 13.5 0.50 .0732 23 1 100.0 1
08/06/23 1:14 -32.3 -32.3 -32.3 65 -36.7 20.0 E 0.33 28.7 E -49.9 -32.3 -49.9 732.9 0.035 0.000 17.0 2 -32.9 13.5 0.50 .0733 24 1 100.0 1
08/06/23 1:15 -32.3 -32.3 -32.3 65 -36.7 25.2 E 0.42 29.6 E -51.6 -32.3 -51.6 732.5 0.035 0.000 17.0 2 -32.9 13.5 0.50 .0732 23 1 100.0 1
08/06/23 1:16 -32.3 -32.3 -32.3 65 -36.7 20.0 E 0.33 22.6 E -49.9 -32.3 -49.9 732.9 0.035 0.000 17.0 2 -32.9 13.5 0.50 .0733 23 1 100.0 1
08/06/23 1:17 -32.3 -32.3 -32.3 65 -36.7 23.5 E 0.39 26.1 E -51.1 -32.4 -51.2 732.8 0.035 0.000 17.0 2 -32.9 13.5 0.50 .0732 24 1 100.0 1
08/06/23 1:18 -32.4 -32.3 -32.4 65 -36.8 24.3 E 0.41 27.8 ESE -51.5 -32.5 -51.6 732.8 0.035 0.000 17.0 2 -32.9 13.5 0.50 .0732 23 1 100.0 1
08/06/23 1:19 -32.5 -32.4 -32.5 64 -37.0 26.1 E 0.43 27.8 E -52.1 -32.6 -52.2 732.7 0.035 0.000 16.9 2 -33.0 13.4 0.50 .0732 24 1 100.0 1
08/06/23 1:20 -32.5 -32.5 -32.5 64 -37.0 25.2 E 0.42 27.0 E -51.8 -32.6 -51.9 732.7 0.035 0.000 16.9 2 -33.0 13.4 0.50 .0732 23 1 100.0 1
08/06/23 1:21 -32.6 -32.5 -32.6 64 -37.1 27.8 ESE 0.46 31.3 ESE -52.6 -32.6 -52.7 732.6 0.035 0.000 16.9 2 -33.0 13.4 0.50 .0732 23 1 100.0 1
08/06/23 1:22 -32.6 -32.6 -32.6 65 -36.9 23.5 ESE 0.39 31.3 ESE -51.4 -32.6 -51.4 732.7 0.035 0.000 16.9 2 -33.0 13.4 0.50 .0732 24 1 100.0 1
08/06/23 1:23 -32.6 -32.6 -32.6 65 -36.9 22.6 ESE 0.38 23.5 ESE -51.2 -32.6 -51.2 732.9 0.035 0.000 16.9 2 -33.0 13.4 0.50 .0733 23 1 100.0 1
08/06/23 1:24 -32.6 -32.6 -32.6 65 -37.0 27.0 E 0.45 30.4 ESE -52.5 -32.7 -52.6 732.6 0.035 0.000 16.9 2 -33.0 13.4 0.50 .0732 24 1 100.0 1
08/06/23 1:25 -32.6 -32.6 -32.7 65 -37.0 26.1 E 0.43 28.7 ESE -52.2 -32.7 -52.3 732.5 0.035 0.000 16.9 2 -33.0 13.4 0.50 .0732 23 1 100.0 1
08/06/23 1:26 -32.7 -32.6 -32.7 65 -37.0 23.5 E 0.39 26.1 ESE -51.6 -32.7 -51.6 732.7 0.035 0.000 16.9 2 -33.0 13.4 0.50 .0733 23 1 100.0 1
08/06/23 1:27 -32.7 -32.6 -32.7 65 -37.0 26.1 E 0.43 29.6 ESE -52.3 -32.7 -52.4 732.6 0.035 0.000 16.9 2 -33.0 13.4 0.50 .0732 24 1 100.0 1
08/06/23 1:28 -32.7 -32.7 -32.7 65 -37.0 26.1 E 0.43 28.7 ESE -52.3 -32.7 -52.4 732.4 0.035 0.000 16.9 2 -33.0 13.4 0.50 .0732 23 1 100.0 1
08/06/23 1:29 -32.7 -32.7 -32.7 65 -37.0 25.2 ESE 0.42 27.0 ESE -52.1 -32.7 -52.1 732.6 0.035 0.000 16.9 2 -33.0 13.4 0.50 .0732 24 1 100.0 1
08/06/23 1:30 -32.7 -32.7 -32.7 65 -37.1 27.8 E 0.46 31.3 E -52.8 -32.8 -52.9 732.5 0.035 0.000 16.9 2 -33.0 13.4 0.50 .0732 23 1 100.0 1
08/06/23 1:31 -32.8 -32.8 -32.8 65 -37.1 27.8 E 0.46 30.4 E -52.9 -32.8 -53.0 732.4 0.035 0.000 16.9 2 -33.0 13.4 0.50 .0732 24 1 100.0 1
08/06/23 1:32 -32.8 -32.8 -32.8 65 -37.1 24.3 E 0.41 27.0 E -51.9 -32.8 -52.0 732.8 0.035 0.000 16.9 2 -33.0 13.4 0.50 .0733 23 1 100.0 1
08/06/23 1:33 -32.8 -32.8 -32.8 65 -37.1 22.6 ESE 0.38 26.1 ESE -51.4 -32.8 -51.5 732.7 0.035 0.000 16.9 2 -33.0 13.4 0.50 .0733 23 1 100.0 1
08/06/23 1:34 -32.7 -32.7 -32.8 65 -37.1 13.0 ESE 0.22 17.4 ESE -47.7 -32.8 -47.7 732.9 0.035 0.000 16.9 2 -33.0 13.4 0.50 .0733 24 1 100.0 1
08/06/23 1:35 -32.8 -32.7 -32.8 65 -37.1 18.3 E 0.30 25.2 E -49.9 -32.8 -50.0 732.8 0.035 0.000 16.9 2 -33.0 13.4 0.50 .0733 23 1 100.0 1
08/06/23 1:36 -32.8 -32.8 -32.8 65 -37.1 29.6 E 0.49 33.9 E -53.4 -32.8 -53.4 732.8 0.035 0.000 16.9 2 -33.0 13.4 0.50 .0733 24 1 100.0 1
08/06/23 1:37 -32.7 -32.7 -32.7 65 -37.1 28.7 E 0.48 33.9 E -53.1 -32.8 -53.2 732.3 0.035 0.000 16.9 2 -33.0 13.4 0.50 .0732 23 1 100.0 1
08/06/23 1:38 -32.7 -32.7 -32.7 66 -36.9 29.6 E 0.49 31.3 E -53.3 -32.8 -53.3 732.2 0.035 0.000 16.9 2 -33.0 13.4 0.50 .0732 23 1 100.0 1
08/06/23 1:39 -32.7 -32.7 -32.7 66 -36.9 28.7 E 0.48 30.4 E -53.0 -32.7 -53.1 732.4 0.035 0.000 16.9 2 -33.0 13.4 0.50 .0732 24 1 100.0 1
08/06/23 1:40 -32.7 -32.7 -32.7 66 -36.9 27.0 E 0.45 29.6 E -52.6 -32.7 -52.6 732.4 0.035 0.000 16.9 2 -33.0 13.4 0.50 .0732 23 1 100.0 1
08/06/23 1:41 -32.6 -32.6 -32.7 66 -36.8 24.3 E 0.41 27.0 ESE -51.7 -32.7 -51.8 732.5 0.035 0.000 16.9 2 -33.0 13.4 0.50 .0732 24 1 100.0 1
08/06/23 1:42 -32.6 -32.6 -32.6 66 -36.8 24.3 ESE 0.41 27.0 ESE -51.7 -32.6 -51.7 732.6 0.035 0.000 16.9 2 -33.0 13.4 0.50 .0732 23 1 100.0 1
08/06/23 1:43 -32.6 -32.6 -32.6 66 -36.8 25.2 E 0.42 27.8 ESE -52.0 -32.7 -52.1 732.5 0.035 0.000 16.9 2 -33.0 13.4 0.50 .0732 24 1 100.0 1
08/06/23 1:44 -32.7 -32.6 -32.7 66 -36.9 24.3 E 0.41 27.0 E -51.8 -32.7 -51.9 732.6 0.035 0.000 16.9 2 -33.0 13.4 0.50 .0732 23 1 100.0 1
08/06/23 1:45 -32.7 -32.7 -32.7 65 -37.1 18.3 E 0.30 20.9 E -49.9 -32.8 -49.9 732.9 0.035 0.000 16.9 2 -33.0 13.4 0.50 .0733 23 1 100.0 1
08/06/23 1:46 -32.8 -32.7 -32.8 65 -37.1 19.1 E 0.32 21.7 E -50.3 -32.8 -50.3 733.0 0.035 0.000 16.9 2 -33.0 13.4 0.50 .0733 24 1 100.0 1
08/06/23 1:47 -32.8 -32.8 -32.8 65 -37.2 22.6 E 0.38 26.1 E -51.5 -32.9 -51.6 732.8 0.036 0.000 16.9 2 -33.0 13.4 0.50 .0733 23 1 100.0 1
08/06/23 1:48 -32.9 -32.8 -32.9 65 -37.2 26.1 E 0.43 27.0 E -52.6 -32.9 -52.7 732.6 0.036 0.000 16.8 2 -33.0 13.3 0.50 .0733 24 1 100.0 1
08/06/23 1:49 -32.9 -32.9 -32.9 65 -37.3 28.7 E 0.48 30.4 E -53.4 -33.0 -53.4 732.5 0.036 0.000 16.9 2 -33.0 13.4 0.50 .0732 23 1 100.0 1
08/06/23 1:50 -32.9 -32.9 -32.9 65 -37.3 27.0 E 0.45 28.7 E -52.9 -33.0 -53.0 732.5 0.036 0.000 16.8 2 -33.0 13.3 0.50 .0733 23 1 100.0 1
08/06/23 1:51 -33.0 -32.9 -33.0 65 -37.3 24.3 E 0.41 27.8 E -52.3 -33.1 -52.3 732.6 0.036 0.000 16.8 2 -33.0 13.3 0.50 .0733 24 1 100.0 1
08/06/23 1:52 -33.0 -33.0 -33.1 65 -37.3 23.5 E 0.39 25.2 E -52.0 -33.1 -52.1 732.7 0.036 0.000 16.8 2 -33.0 13.3 0.50 .0733 23 1 100.0 1
08/06/23 1:53 -33.1 -33.0 -33.1 65 -37.4 22.6 E 0.38 23.5 E -51.8 -33.1 -51.9 732.8 0.036 0.000 16.8 2 -33.0 13.3 0.50 .0733 24 1 100.0 1
08/06/23 1:54 -33.1 -33.0 -33.1 65 -37.5 23.5 E 0.39 25.2 E -52.2 -33.2 -52.2 732.7 0.036 0.000 16.8 2 -33.0 13.3 0.50 .0733 23 1 100.0 1
08/06/23 1:55 -33.1 -33.1 -33.1 65 -37.5 25.2 E 0.42 28.7 E -52.7 -33.2 -52.7 732.6 0.036 0.000 16.8 2 -33.0 13.3 0.50 .0733 23 1 100.0 1
08/06/23 1:56 -33.1 -33.1 -33.2 65 -37.5 26.1 E 0.43 28.7 E -52.9 -33.2 -53.0 732.5 0.036 0.000 16.8 2 -33.0 13.3 0.50 .0733 24 1 100.0 1
08/06/23 1:57 -33.1 -33.1 -33.2 66 -37.3 28.7 E 0.48 30.4 E -53.6 -33.2 -53.7 732.5 0.036 0.000 16.8 2 -33.0 13.3 0.50 .0732 23 1 100.0 1
08/06/23 1:58 -33.1 -33.1 -33.1 66 -37.3 24.3 E 0.41 27.0 E -52.4 -33.2 -52.5 732.7 0.036 0.000 16.8 2 -33.0 13.3 0.50 .0733 24 1 100.0 1
08/06/23 1:59 -33.2 -33.1 -33.2 66 -37.4 21.7 E 0.36 23.5 E -51.7 -33.2 -51.7 732.8 0.036 0.000 16.8 2 -33.1 13.3 0.51 .0733 23 1 100.0 1
08/06/23 2:00 -33.2 -33.2 -33.2 66 -37.4 20.0 ESE 0.33 21.7 E -51.2 -33.3 -51.2 732.9 0.036 0.000 16.8 2 -33.1 13.3 0.51 .0733 24 1 100.0 1
08/06/23 2:01 -33.2 -33.2 -33.2 66 -37.4 24.3 E 0.41 27.8 E -52.6 -33.3 -52.6 732.7 0.036 0.000 16.8 2 -33.1 13.3 0.51 .0733 23 1 100.0 1
08/06/23 2:02 -33.1 -33.1 -33.2 66 -37.3 27.8 E 0.46 30.4 E -53.4 -33.2 -53.4 732.5 0.036 0.000 16.8 2 -33.1 13.3 0.51 .0733 23 1 100.0 1
08/06/23 2:03 -33.0 -33.0 -33.1 66 -37.2 25.2 E 0.42 29.6 E -52.5 -33.1 -52.6 732.6 0.036 0.000 16.8 2 -33.1 13.3 0.51 .0733 24 1 100.0 1
08/06/23 2:04 -33.0 -33.0 -33.0 66 -37.2 24.3 E 0.41 31.3 ESE -52.3 -33.1 -52.3 732.8 0.036 0.000 16.8 2 -33.1 13.3 0.51 .0733 23 1 100.0 1
08/06/23 2:05 -32.9 -32.9 -33.0 66 -37.1 28.7 E 0.48 30.4 E -53.4 -33.0 -53.4 732.4 0.036 0.000 16.8 2 -33.1 13.3 0.51 .0733 24 1 100.0 1
08/06/23 2:06 -32.9 -32.9 -32.9 66 -37.1 25.2 E 0.42 28.7 E -52.4 -33.0 -52.5 732.6 0.036 0.000 16.7 2 -33.1 13.2 0.51 .0733 23 1 100.0 1
08/06/23 2:07 -32.9 -32.9 -32.9 66 -37.1 19.1 E 0.32 22.6 E -50.5 -33.0 -50.6 732.9 0.036 0.000 16.7 2 -33.1 13.2 0.51 .0733 23 1 100.0 1
08/06/23 2:08 -33.0 -32.9 -33.0 66 -37.2 15.7 E 0.26 17.4 E -49.2 -33.1 -49.3 733.0 0.036 0.000 16.7 2 -33.1 13.2 0.51 .0733 24 1 100.0 1
08/06/23 2:09 -33.1 -33.0 -33.1 66 -37.3 14.8 E 0.25 18.3 E -48.9 -33.1 -48.9 732.9 0.036 0.000 16.7 2 -33.1 13.2 0.51 .0733 23 1 100.0 1
08/06/23 2:10 -33.2 -33.1 -33.2 66 -37.4 24.3 E 0.41 26.1 E -52.5 -33.2 -52.6 732.7 0.036 0.000 16.7 2 -33.1 13.2 0.51 .0733 24 1 100.0 1
08/06/23 2:11 -33.2 -33.2 -33.2 65 -37.5 26.1 E 0.43 28.7 E -53.0 -33.2 -53.1 732.5 0.036 0.000 16.7 2 -33.1 13.2 0.51 .0733 23 1 100.0 1
08/06/23 2:12 -33.1 -33.1 -33.2 66 -37.3 23.5 E 0.39 25.2 E -52.2 -33.2 -52.2 732.6 0.036 0.000 16.7 2 -33.1 13.2 0.51 .0733 24 1 100.0 1
08/06/23 2:13 -33.2 -33.2 -33.2 66 -37.4 26.1 E 0.43 27.0 E -53.0 -33.2 -53.1 732.6 0.036 0.000 16.7 2 -33.1 13.2 0.51 .0733 23 1 100.0 1
08/06/23 2:14 -33.2 -33.2 -33.2 66 -37.4 23.5 E 0.39 25.2 E -52.3 -33.3 -52.4 732.7 0.036 0.000 16.7 2 -33.1 13.2 0.51 .0733 23 1 100.0 1
08/06/23 2:15 -33.3 -33.2 -33.3 66 -37.5 18.3 E 0.30 21.7 E -50.6 -33.3 -50.7 732.8 0.036 0.000 16.7 2 -33.1 13.2 0.51 .0733 24 1 100.0 1
08/06/23 2:16 -33.3 -33.3 -33.3 66 -37.5 20.9 E 0.35 21.7 E -51.6 -33.4 -51.7 732.8 0.036 0.000 16.7 2 -33.1 13.2 0.51 .0733 23 1 100.0 1
08/06/23 2:17 -33.4 -33.3 -33.4 65 -37.8 22.6 E 0.38 24.3 E -52.3 -33.5 -52.4 732.7 0.036 0.000 16.7 2 -33.1 13.2 0.51 .0733 24 1 100.0 1
08/06/23 2:18 -33.4 -33.4 -33.4 66 -37.6 22.6 E 0.38 24.3 E -52.3 -33.5 -52.4 732.7 0.036 0.000 16.7 2 -33.1 13.2 0.51 .0733 23 1 100.0 1
08/06/23 2:19 -33.5 -33.4 -33.5 65 -37.8 23.5 E 0.39 25.2 E -52.7 -33.6 -52.7 732.7 0.036 0.000 16.7 2 -33.1 13.2 0.51 .0733 23 1 100.0 1
08/06/23 2:20 -33.4 -33.4 -33.5 66 -37.6 25.2 E 0.42 27.0 E -53.1 -33.5 -53.2 732.7 0.036 0.000 16.7 2 -33.1 13.2 0.51 .0733 24 1 100.0 1
08/06/23 2:21 -33.3 -33.3 -33.4 66 -37.5 20.9 E 0.35 25.2 E -51.6 -33.3 -51.6 732.8 0.036 0.000 16.7 2 -33.1 13.2 0.51 .0733 23 1 100.0 1
08/06/23 2:22 -33.3 -33.3 -33.3 66 -37.5 20.0 E 0.33 22.6 E -51.2 -33.3 -51.3 732.9 0.036 0.000 16.7 2 -33.1 13.2 0.51 .0733 24 1 100.0 1
08/06/23 2:23 -33.3 -33.3 -33.3 66 -37.5 24.3 E 0.41 26.1 ESE -52.7 -33.4 -52.8 732.8 0.036 0.000 16.7 2 -33.1 13.2 0.51 .0733 23 1 100.0 1
08/06/23 2:24 -33.3 -33.3 -33.3 66 -37.5 25.2 E 0.42 27.0 E -52.9 -33.4 -53.0 732.6 0.036 0.000 16.7 2 -33.1 13.2 0.51 .0733 23 1 100.0 1
08/06/23 2:25 -33.3 -33.3 -33.3 66 -37.5 23.5 E 0.39 26.1 E -52.4 -33.4 -52.5 732.7 0.036 0.000 16.7 2 -33.1 13.2 0.51 .0733 24 1 100.0 1
08/06/23 2:26 -33.3 -33.3 -33.3 66 -37.5 22.6 E 0.38 25.2 E -52.1 -33.3 -52.2 732.7 0.036 0.000 16.7 2 -33.1 13.2 0.51 .0733 23 1 100.0 1
08/06/23 2:27 -33.3 -33.3 -33.3 66 -37.5 19.1 E 0.32 21.7 E -50.9 -33.3 -51.0 732.9 0.036 0.000 16.7 2 -33.1 13.2 0.51 .0733 24 1 100.0 1
08/06/23 2:28 -33.3 -33.3 -33.3 66 -37.5 18.3 E 0.30 20.9 E -50.6 -33.3 -50.7 732.9 0.036 0.000 16.7 2 -33.1 13.2 0.51 .0733 23 1 100.0 1
08/06/23 2:29 -33.3 -33.3 -33.3 66 -37.5 22.6 E 0.38 24.3 E -52.2 -33.4 -52.2 732.8 0.036 0.000 16.7 2 -33.1 13.2 0.51 .0733 24 1 100.0 1
08/06/23 2:30 -33.4 -33.3 -33.4 66 -37.6 22.6 E 0.38 24.3 E -52.3 -33.4 -52.3 732.7 0.036 0.000 16.7 2 -33.1 13.2 0.51 .0733 23 1 100.0 1
08/06/23 2:31 -33.4 -33.4 -33.4 66 -37.6 22.6 E 0.38 24.3 E -52.3 -33.4 -52.3 732.7 0.036 0.000 16.7 2 -33.1 13.2 0.51 .0733 23 1 100.0 1
08/06/23 2:32 -33.4 -33.4 -33.4 66 -37.6 23.5 E 0.39 25.2 E -52.6 -33.5 -52.7 732.7 0.036 0.000 16.7 2 -33.1 13.2 0.51 .0733 24 1 100.0 1
08/06/23 2:33 -33.4 -33.4 -33.4 66 -37.6 21.7 E 0.36 24.3 E -52.1 -33.5 -52.1 732.8 0.036 0.000 16.7 2 -33.1 13.2 0.51 .0733 23 1 100.0 1
08/06/23 2:34 -33.4 -33.4 -33.4 66 -37.6 22.6 E 0.38 27.0 E -52.3 -33.5 -52.4 732.8 0.036 0.000 16.7 2 -33.1 13.2 0.51 .0733 24 1 100.0 1
08/06/23 2:35 -33.4 -33.4 -33.5 66 -37.6 22.6 E 0.38 27.8 E -52.3 -33.5 -52.4 732.7 0.036 0.000 16.7 2 -33.1 13.2 0.51 .0733 23 1 100.0 1
08/06/23 2:36 -33.4 -33.4 -33.4 67 -37.5 26.1 E 0.43 28.7 E -53.4 -33.5 -53.4 732.5 0.036 0.000 16.7 2 -33.1 13.2 0.51 .0733 23 1 100.0 1
08/06/23 2:37 -33.5 -33.4 -33.5 67 -37.5 21.7 E 0.36 26.1 E -52.1 -33.6 -52.2 732.8 0.036 0.000 16.7 2 -33.1 13.2 0.51 .0733 24 1 100.0 1
08/06/23 2:38 -33.6 -33.5 -33.6 66 -37.7 23.5 E 0.39 26.1 E -52.8 -33.6 -52.8 732.9 0.036 0.000 16.7 2 -33.1 13.2 0.51 .0733 23 1 100.0 1
08/06/23 2:39 -33.6 -33.6 -33.6 66 -37.7 25.2 E 0.42 27.0 E -53.3 -33.6 -53.3 732.7 0.036 0.000 16.7 2 -33.1 13.2 0.51 .0733 24 1 100.0 1
08/06/23 2:40 -33.6 -33.6 -33.6 66 -37.7 19.1 E 0.32 23.5 E -51.3 -33.6 -51.3 733.0 0.036 0.000 16.7 2 -33.1 13.2 0.51 .0733 23 1 100.0 1
08/06/23 2:41 -33.6 -33.6 -33.6 66 -37.7 14.8 E 0.25 18.3 E -49.6 -33.6 -49.6 733.2 0.036 0.000 16.7 2 -33.1 13.2 0.51 .0734 24 1 100.0 1
08/06/23 2:42 -33.6 -33.6 -33.6 67 -37.6 23.5 E 0.39 27.8 E -52.8 -33.7 -52.9 732.9 0.036 0.000 16.7 2 -33.1 13.2 0.51 .0733 23 1 100.0 1
08/06/23 2:43 -33.7 -33.7 -33.7 67 -37.7 21.7 E 0.36 24.3 E -52.4 -33.8 -52.5 732.8 0.036 0.000 16.7 2 -33.1 13.2 0.51 .0733 23 1 100.0 1
08/06/23 2:44 -33.8 -33.7 -33.8 66 -37.9 20.0 E 0.33 24.3 E -51.9 -33.8 -51.9 732.9 0.036 0.000 16.6 2 -33.2 13.2 0.51 .0733 24 1 100.0 1
08/06/23 2:45 -33.8 -33.8 -33.8 66 -38.0 27.0 E 0.45 28.7 E -54.2 -33.9 -54.2 732.6 0.036 0.000 16.7 2 -33.1 13.2 0.51 .0733 23 1 100.0 1
08/06/23 2:46 -33.8 -33.8 -33.8 66 -38.0 23.5 E 0.39 27.0 E -53.1 -33.9 -53.2 732.6 0.036 0.000 16.6 2 -33.2 13.2 0.51 .0733 24 1 100.0 1
08/06/23 2:47 -33.8 -33.8 -33.8 67 -37.8 18.3 E 0.30 20.0 E -51.3 -33.9 -51.4 733.0 0.036 0.000 16.6 2 -33.2 13.2 0.51 .0734 23 1 100.0 1
08/06/23 2:48 -33.8 -33.8 -33.8 67 -37.8 18.3 E 0.30 23.5 E -51.3 -33.8 -51.3 733.0 0.036 0.000 16.6 2 -33.2 13.2 0.51 .0734 23 1 100.0 1
08/06/23 2:49 -33.8 -33.8 -33.8 67 -37.8 24.3 E 0.41 27.8 E -53.3 -33.8 -53.4 732.8 0.036 0.000 16.6 2 -33.2 13.2 0.51 .0733 24 1 100.0 1
08/06/23 2:50 -33.7 -33.7 -33.8 67 -37.7 24.3 E 0.41 27.0 E -53.2 -33.8 -53.3 732.8 0.036 0.000 16.6 2 -33.2 13.2 0.51 .0733 23 1 100.0 1
08/06/23 2:51 -33.7 -33.7 -33.7 67 -37.7 23.5 E 0.39 25.2 E -53.0 -33.8 -53.1 732.9 0.036 0.000 16.6 2 -33.2 13.1 0.51 .0734 24 1 100.0 1
08/06/23 2:52 -33.8 -33.7 -33.8 67 -37.8 23.5 E 0.39 26.1 E -53.1 -33.8 -53.1 732.9 0.036 0.000 16.6 2 -33.2 13.1 0.51 .0734 23 1 100.0 1
08/06/23 2:53 -33.8 -33.8 -33.8 67 -37.8 23.5 E 0.39 26.1 E -53.1 -33.9 -53.2 732.8 0.036 0.000 16.6 2 -33.2 13.1 0.51 .0734 23 1 100.0 1
08/06/23 2:54 -33.9 -33.9 -33.9 67 -38.0 21.7 E 0.36 23.5 E -52.7 -34.0 -52.8 732.9 0.036 0.000 16.6 2 -33.2 13.1 0.51 .0734 24 1 100.0 1
08/06/23 2:55 -33.9 -33.9 -33.9 67 -38.0 21.7 E 0.36 24.3 E -52.7 -34.0 -52.8 732.8 0.036 0.000 16.6 2 -33.2 13.1 0.51 .0734 23 1 100.0 1
08/06/23 2:56 -34.0 -33.9 -34.0 67 -38.0 23.5 E 0.39 26.1 E -53.3 -34.1 -53.4 732.8 0.036 0.000 16.6 2 -33.2 13.1 0.51 .0733 24 1 100.0 1
08/06/23 2:57 -34.0 -34.0 -34.0 67 -38.0 23.5 E 0.39 25.2 E -53.3 -34.1 -53.4 732.8 0.036 0.000 16.6 2 -33.2 13.1 0.51 .0733 23 1 100.0 1
08/06/23 2:58 -34.1 -34.0 -34.1 67 -38.1 20.9 E 0.35 22.6 E -52.6 -34.1 -52.6 732.9 0.036 0.000 16.6 2 -33.2 13.1 0.51 .0734 24 1 100.0 1
08/06/23 2:59 -34.2 -34.1 -34.2 67 -38.2 19.1 E 0.32 21.7 E -52.1 -34.2 -52.2 733.0 0.036 0.000 16.6 2 -33.2 13.1 0.51 .0734 23 1 100.0 1
08/06/23 3:00 -34.2 -34.2 -34.2 67 -38.2 24.3 E 0.41 26.1 E -53.9 -34.3 -54.0 733.0 0.036 0.000 16.5 2 -33.3 13.1 0.52 .0734 23 1 100.0 1
08/06/23 3:01 -34.2 -34.2 -34.2 67 -38.2 24.3 ENE 0.41 25.2 ENE -53.8 -34.2 -53.9 732.9 0.036 0.000 16.6 2 -33.2 13.1 0.51 .0734 24 1 100.0 1
08/06/23 3:02 -34.2 -34.2 -34.2 67 -38.2 21.7 E 0.36 23.5 E -53.0 -34.2 -53.1 732.9 0.036 0.000 16.6 2 -33.2 13.1 0.51 .0734 23 1 100.0 1
08/06/23 3:03 -34.2 -34.2 -34.2 67 -38.2 21.7 E 0.36 24.3 E -53.1 -34.3 -53.2 733.1 0.036 0.000 16.6 2 -33.2 13.1 0.51 .0734 24 1 100.0 1
08/06/23 3:04 -34.3 -34.3 -34.3 67 -38.3 23.5 E 0.39 25.2 E -53.8 -34.4 -53.8 733.0 0.037 0.000 16.6 2 -33.2 13.1 0.51 .0734 23 1 100.0 1
08/06/23 3:05 -34.3 -34.3 -34.3 67 -38.3 21.7 E 0.36 25.2 E -53.2 -34.4 -53.3 733.1 0.037 0.000 16.6 2 -33.2 13.1 0.51 .0734 23 1 100.0 1
08/06/23 3:06 -34.4 -34.3 -34.4 67 -38.4 27.0 E 0.45 27.8 E -54.9 -34.4 -54.9 732.9 0.037 0.000 16.5 2 -33.3 13.1 0.52 .0734 24 1 100.0 1
08/06/23 3:07 -34.4 -34.3 -34.4 67 -38.4 23.5 E 0.39 25.2 E -53.9 -34.4 -53.9 733.0 0.037 0.000 16.5 2 -33.3 13.1 0.52 .0734 23 1 100.0 1
08/06/23 3:08 -34.4 -34.4 -34.4 67 -38.4 20.0 E 0.33 22.6 E -52.7 -34.4 -52.8 733.3 0.037 0.000 16.5 2 -33.3 13.1 0.52 .0734 24 1 100.0 1
08/06/23 3:09 -34.4 -34.4 -34.4 67 -38.4 20.0 E 0.33 22.6 E -52.7 -34.4 -52.8 733.2 0.037 0.000 16.5 2 -33.3 13.1 0.52 .0734 23 1 100.0 1
08/06/23 3:10 -34.4 -34.4 -34.4 67 -38.4 23.5 E 0.39 25.2 E -53.9 -34.5 -54.0 733.0 0.037 0.000 16.5 2 -33.3 13.1 0.52 .0734 23 1 100.0 1
08/06/23 3:11 -34.5 -34.4 -34.5 67 -38.5 21.7 E 0.36 24.3 E -53.4 -34.6 -53.5 733.0 0.037 0.000 16.5 2 -33.3 13.1 0.52 .0734 24 1 100.0 1
08/06/23 3:12 -34.5 -34.5 -34.5 67 -38.5 20.9 E 0.35 24.3 E -53.2 -34.6 -53.2 733.1 0.037 0.000 16.5 2 -33.3 13.1 0.52 .0734 23 1 100.0 1
08/06/23 3:13 -34.4 -34.4 -34.5 68 -38.3 23.5 E 0.39 25.2 E -53.9 -34.4 -53.9 733.1 0.037 0.000 16.5 2 -33.3 13.1 0.52 .0734 24 1 100.0 1
08/06/23 3:14 -34.4 -34.4 -34.4 68 -38.2 22.6 E 0.38 25.2 E -53.6 -34.4 -53.6 733.1 0.037 0.000 16.5 2 -33.3 13.1 0.52 .0734 23 1 100.0 1
08/06/23 3:15 -34.4 -34.3 -34.4 68 -38.2 24.3 E 0.41 26.1 E -54.2 -34.4 -54.2 733.1 0.037 0.000 16.5 2 -33.3 13.1 0.52 .0734 24 1 100.0 1
08/06/23 3:16 -34.3 -34.3 -34.4 68 -38.2 23.5 E 0.39 25.2 E -53.8 -34.3 -53.8 733.1 0.037 0.000 16.5 2 -33.3 13.1 0.52 .0734 23 1 100.0 1
08/06/23 3:17 -34.4 -34.3 -34.4 68 -38.2 22.6 E 0.38 26.1 E -53.6 -34.4 -53.6 733.2 0.037 0.000 16.5 2 -33.3 13.1 0.52 .0734 23 1 100.0 1
08/06/23 3:18 -34.3 -34.3 -34.3 68 -38.1 23.5 E 0.39 26.1 E -53.7 -34.3 -53.7 733.0 0.037 0.000 16.5 2 -33.3 13.1 0.52 .0734 24 1 100.0 1
08/06/23 3:19 -34.3 -34.3 -34.3 68 -38.1 22.6 E 0.38 24.3 E -53.4 -34.3 -53.4 733.1 0.037 0.000 16.5 2 -33.3 13.1 0.52 .0734 23 1 100.0 1
08/06/23 3:20 -34.3 -34.3 -34.3 68 -38.1 23.5 E 0.39 25.2 E -53.7 -34.3 -53.7 733.0 0.037 0.000 16.5 2 -33.3 13.1 0.52 .0734 24 1 100.0 1
08/06/23 3:21 -34.3 -34.3 -34.3 68 -38.1 23.5 E 0.39 25.2 E -53.7 -34.3 -53.7 733.1 0.037 0.000 16.5 2 -33.3 13.1 0.52 .0734 23 1 100.0 1
08/06/23 3:22 -34.2 -34.2 -34.2 68 -38.1 24.3 E 0.41 26.1 E -53.9 -34.2 -53.9 733.1 0.036 0.000 16.5 2 -33.3 13.1 0.52 .0734 23 1 100.0 1
08/06/23 3:23 -34.2 -34.2 -34.2 68 -38.1 25.2 E 0.42 27.8 E -54.2 -34.2 -54.2 733.1 0.036 0.000 16.5 2 -33.3 13.1 0.52 .0734 24 1 100.0 1
08/06/23 3:24 -34.3 -34.2 -34.3 68 -38.1 23.5 E 0.39 25.2 E -53.7 -34.3 -53.7 733.1 0.037 0.000 16.4 2 -33.3 13.0 0.52 .0734 23 1 100.0 1
08/06/23 3:25 -34.3 -34.3 -34.3 68 -38.2 22.6 E 0.38 26.1 E -53.5 -34.3 -53.5 733.1 0.037 0.000 16.4 2 -33.3 13.0 0.52 .0734 24 1 100.0 1
08/06/23 3:26 -34.4 -34.3 -34.4 68 -38.2 23.5 E 0.39 26.1 E -53.9 -34.4 -53.9 733.1 0.037 0.000 16.4 2 -33.3 13.0 0.52 .0734 23 1 100.0 1
08/06/23 3:27 -34.4 -34.4 -34.4 68 -38.3 24.3 E 0.41 26.1 E -54.2 -34.4 -54.2 733.1 0.037 0.000 16.4 2 -33.3 13.0 0.52 .0734 24 1 100.0 1
08/06/23 3:28 -34.4 -34.4 -34.4 68 -38.2 24.3 E 0.41 27.0 E -54.2 -34.4 -54.2 733.0 0.037 0.000 16.4 2 -33.3 13.0 0.52 .0734 23 1 100.0 1
08/06/23 3:29 -34.3 -34.3 -34.4 68 -38.2 20.9 E 0.35 22.6 E -52.9 -34.3 -52.9 733.3 0.037 0.000 16.4 2 -33.3 13.0 0.52 .0734 23 1 100.0 1
08/06/23 3:30 -34.4 -34.3 -34.4 68 -38.2 24.3 E 0.41 27.8 E -54.2 -34.4 -54.2 733.2 0.037 0.000 16.4 2 -33.3 13.0 0.52 .0734 24 1 100.0 1
08/06/23 3:31 -34.3 -34.3 -34.4 68 -38.2 24.3 E 0.41 26.1 E -54.1 -34.3 -54.1 733.0 0.037 0.000 16.4 2 -33.3 13.0 0.52 .0734 23 1 100.0 1
08/06/23 3:32 -34.3 -34.3 -34.3 68 -38.1 25.2 E 0.42 27.8 E -54.3 -34.3 -54.3 733.0 0.037 0.000 16.4 2 -33.3 13.0 0.52 .0734 24 1 100.0 1
08/06/23 3:33 -34.2 -34.2 -34.2 68 -38.0 24.3 E 0.41 26.1 E -53.8 -34.2 -53.8 733.1 0.036 0.000 16.4 2 -33.3 13.0 0.52 .0734 23 1 100.0 1
08/06/23 3:34 -34.1 -34.1 -34.2 68 -38.0 24.3 E 0.41 26.1 E -53.8 -34.1 -53.8 733.0 0.036 0.000 16.4 2 -33.3 13.0 0.52 .0734 23 1 100.0 1
08/06/23 3:35 -34.1 -34.1 -34.1 68 -37.9 24.3 E 0.41 27.0 E -53.7 -34.1 -53.7 733.0 0.036 0.000 16.4 2 -33.3 13.0 0.52 .0734 24 1 100.0 1
08/06/23 3:36 -33.9 -33.9 -34.0 68 -37.8 26.1 E 0.43 27.0 E -54.1 -33.9 -54.1 733.1 0.036 0.000 16.4 2 -33.3 13.0 0.52 .0734 23 1 100.0 1
08/06/23 3:37 -33.9 -33.9 -33.9 68 -37.8 23.5 E 0.39 25.2 E -53.3 -33.9 -53.3 733.0 0.036 0.000 16.4 2 -33.3 13.0 0.52 .0734 24 1 100.0 1
08/06/23 3:38 -34.0 -34.0 -34.0 68 -37.9 22.6 E 0.38 24.3 E -53.1 -34.0 -53.1 733.2 0.036 0.000 16.4 2 -33.3 13.0 0.52 .0734 23 1 100.0 1
08/06/23 3:39 -34.1 -34.0 -34.1 68 -38.0 21.7 E 0.36 24.3 E -52.9 -34.1 -52.9 733.2 0.036 0.000 16.4 2 -33.3 13.0 0.52 .0734 23 1 100.0 1
08/06/23 3:40 -34.2 -34.1 -34.2 68 -38.0 23.5 E 0.39 27.0 E -53.6 -34.2 -53.6 733.1 0.036 0.000 16.4 2 -33.3 13.0 0.52 .0734 24 1 100.0 1
08/06/23 3:41 -34.2 -34.2 -34.2 68 -38.1 21.7 E 0.36 24.3 ENE -53.1 -34.2 -53.1 733.1 0.036 0.000 16.4 2 -33.3 13.0 0.52 .0734 23 1 100.0 1
08/06/23 3:42 -34.3 -34.2 -34.3 68 -38.1 21.7 E 0.36 25.2 E -53.2 -34.3 -53.2 733.1 0.037 0.000 16.4 2 -33.3 13.0 0.52 .0734 24 1 100.0 1
08/06/23 3:43 -34.2 -34.2 -34.3 68 -38.1 23.5 E 0.39 25.2 E -53.7 -34.2 -53.7 733.1 0.036 0.000 16.4 2 -33.3 13.0 0.52 .0734 23 1 100.0 1
08/06/23 3:44 -34.2 -34.2 -34.2 68 -38.0 24.3 E 0.41 25.2 E -53.8 -34.2 -53.8 733.1 0.036 0.000 16.4 2 -33.3 13.0 0.52 .0734 24 1 100.0 1
08/06/23 3:45 -34.1 -34.1 -34.2 68 -38.0 24.3 ENE 0.41 25.2 ENE -53.8 -34.1 -53.8 733.2 0.036 0.000 16.4 2 -33.3 13.0 0.52 .0734 23 1 100.0 1
08/06/23 3:46 -34.1 -34.1 -34.1 68 -38.0 24.3 E 0.41 26.1 E -53.8 -34.1 -53.8 733.2 0.036 0.000 16.4 2 -33.3 13.0 0.52 .0734 23 1 100.0 1
08/06/23 3:47 -34.1 -34.1 -34.1 68 -38.0 24.3 E 0.41 26.1 ENE -53.8 -34.1 -53.8 733.2 0.036 0.000 16.4 2 -33.3 13.0 0.52 .0734 24 1 100.0 1
08/06/23 3:48 -34.1 -34.1 -34.2 68 -38.0 25.2 E 0.42 27.8 ENE -54.0 -34.1 -54.0 733.3 0.036 0.000 16.4 2 -33.3 13.0 0.52 .0734 23 1 100.0 1
08/06/23 3:49 -34.1 -34.1 -34.1 68 -37.9 25.2 ENE 0.42 27.0 E -53.9 -34.1 -53.9 733.1 0.036 0.000 16.4 2 -33.3 13.0 0.52 .0734 24 1 100.0 1
08/06/23 3:50 -34.1 -34.1 -34.1 68 -37.9 22.6 ENE 0.38 26.1 ENE -53.2 -34.1 -53.2 733.3 0.036 0.000 16.4 2 -33.3 13.0 0.52 .0734 23 1 100.0 1
08/06/23 3:51 -34.2 -34.1 -34.2 68 -38.0 26.1 ENE 0.43 27.8 ENE -54.3 -34.2 -54.3 733.1 0.036 0.000 16.4 2 -33.3 13.0 0.52 .0734 23 1 100.0 1
08/06/23 3:52 -34.1 -34.1 -34.2 68 -37.9 23.5 ENE 0.39 27.0 ENE -53.4 -34.1 -53.4 733.2 0.036 0.000 16.4 2 -33.3 13.0 0.52 .0734 24 1 100.0 1
08/06/23 3:53 -34.2 -34.1 -34.2 68 -38.0 20.9 ENE 0.35 23.5 E -52.7 -34.2 -52.7 733.4 0.036 0.000 16.3 2 -33.4 12.9 0.52 .0735 23 1 100.0 1
08/06/23 3:54 -34.2 -34.2 -34.2 68 -38.0 25.2 ENE 0.42 27.0 E -54.1 -34.2 -54.1 733.2 0.036 0.000 16.3 2 -33.4 12.9 0.52 .0734 24 1 100.0 1
08/06/23 3:55 -34.2 -34.2 -34.2 68 -38.0 24.3 ENE 0.41 25.2 E -53.8 -34.2 -53.8 733.2 0.036 0.000 16.3 2 -33.4 12.9 0.52 .0734 23 1 100.0 1
08/06/23 3:56 -34.2 -34.2 -34.2 68 -38.0 22.6 ENE 0.38 25.2 ENE -53.3 -34.2 -53.3 733.2 0.036 0.000 16.3 2 -33.4 12.9 0.52 .0735 24 1 100.0 1
08/06/23 3:57 -34.2 -34.2 -34.2 68 -38.0 23.5 ENE 0.39 25.2 E -53.6 -34.2 -53.6 733.3 0.036 0.000 16.3 2 -33.4 12.9 0.52 .0735 23 1 100.0 1
08/06/23 3:58 -34.2 -34.2 -34.2 68 -38.1 21.7 ENE 0.36 23.5 E -53.1 -34.2 -53.1 733.2 0.036 0.000 16.3 2 -33.4 12.9 0.52 .0735 23 1 100.0 1
08/06/23 3:59 -34.3 -34.2 -34.3 68 -38.2 21.7 ENE 0.36 23.5 ENE -53.2 -34.3 -53.2 733.2 0.037 0.000 16.3 2 -33.4 12.9 0.52 .0735 24 1 100.0 1
08/06/23 4:00 -34.3 -34.3 -34.3 68 -38.2 22.6 E 0.38 24.3 E -53.5 -34.3 -53.5 733.2 0.037 0.000 16.3 2 -33.4 12.9 0.52 .0735 23 1 100.0 1
08/06/23 4:01 -34.3 -34.3 -34.3 68 -38.2 24.3 E 0.41 26.1 E -54.1 -34.3 -54.1 733.2 0.037 0.000 16.3 2 -33.4 12.9 0.52 .0735 24 1 100.0 1
08/06/23 4:02 -34.3 -34.3 -34.3 68 -38.2 23.5 E 0.39 25.2 E -53.8 -34.3 -53.8 733.0 0.037 0.000 16.3 2 -33.4 12.9 0.52 .0734 23 1 100.0 1
08/06/23 4:03 -34.3 -34.3 -34.3 68 -38.1 20.9 E 0.35 23.5 ENE -52.9 -34.3 -52.9 733.2 0.037 0.000 16.3 2 -33.4 12.9 0.52 .0735 23 1 100.0 1
08/06/23 4:04 -34.3 -34.3 -34.3 68 -38.1 22.6 E 0.38 24.3 E -53.4 -34.3 -53.4 733.2 0.037 0.000 16.3 2 -33.4 12.9 0.52 .0735 24 1 100.0 1
08/06/23 4:05 -34.3 -34.3 -34.3 68 -38.1 21.7 E 0.36 22.6 E -53.2 -34.3 -53.2 733.1 0.037 0.000 16.3 2 -33.4 12.9 0.52 .0735 23 1 100.0 1
08/06/23 4:06 -34.3 -34.3 -34.3 68 -38.2 22.6 E 0.38 26.1 E -53.5 -34.3 -53.5 733.1 0.037 0.000 16.2 2 -33.4 12.8 0.53 .0735 24 1 100.0 1
08/06/23 4:07 -34.3 -34.3 -34.3 68 -38.2 21.7 E 0.36 23.5 E -53.2 -34.3 -53.2 733.1 0.037 0.000 16.3 2 -33.4 12.9 0.52 .0735 23 1 100.0 1
08/06/23 4:08 -34.3 -34.3 -34.3 68 -38.1 21.7 E 0.36 22.6 ENE -53.2 -34.3 -53.2 733.2 0.037 0.000 16.3 2 -33.4 12.9 0.52 .0735 23 1 100.0 1
08/06/23 4:09 -34.3 -34.3 -34.3 69 -38.0 22.6 E 0.38 24.3 E -53.4 -34.3 -53.4 733.2 0.037 0.000 16.3 2 -33.4 12.9 0.52 .0735 24 1 100.0 1
08/06/23 4:10 -34.2 -34.2 -34.3 68 -38.1 23.5 ENE 0.39 25.2 E -53.7 -34.2 -53.7 733.1 0.036 0.000 16.2 2 -33.4 12.8 0.53 .0735 23 1 100.0 1
08/06/23 4:11 -34.3 -34.2 -34.3 68 -38.1 21.7 ENE 0.36 24.3 ENE -53.2 -34.3 -53.2 733.2 0.037 0.000 16.2 2 -33.4 12.8 0.53 .0735 24 1 100.0 1
08/06/23 4:12 -34.3 -34.3 -34.3 69 -38.0 22.6 ENE 0.38 24.3 ENE -53.5 -34.3 -53.5 733.2 0.037 0.000 16.2 2 -33.4 12.8 0.53 .0735 23 1 100.0 1
08/06/23 4:13 -34.4 -34.3 -34.4 69 -38.1 23.5 E 0.39 26.1 E -53.9 -34.4 -53.9 733.1 0.037 0.000 16.2 2 -33.4 12.8 0.53 .0735 24 1 100.0 1
08/06/23 4:14 -34.4 -34.4 -34.4 69 -38.1 22.6 ENE 0.38 23.5 ENE -53.7 -34.4 -53.7 733.1 0.037 0.000 16.2 2 -33.4 12.8 0.53 .0735 23 1 100.0 1
08/06/23 4:15 -34.4 -34.4 -34.4 69 -38.1 22.6 ENE 0.38 24.3 ENE -53.7 -34.4 -53.7 733.2 0.037 0.000 16.2 2 -33.4 12.8 0.53 .0735 23 1 100.0 1
08/06/23 4:16 -34.4 -34.4 -34.4 69 -38.1 20.9 E 0.35 23.5 E -53.1 -34.4 -53.1 733.2 0.037 0.000 16.2 2 -33.4 12.8 0.53 .0735 24 1 100.0 1
08/06/23 4:17 -34.4 -34.4 -34.4 69 -38.1 23.5 E 0.39 26.1 ENE -53.9 -34.4 -53.9 733.0 0.037 0.000 16.2 2 -33.4 12.8 0.53 .0735 23 1 100.0 1
08/06/23 4:18 -34.6 -34.4 -34.6 69 -38.3 21.7 E 0.36 24.3 E -53.6 -34.6 -53.6 733.2 0.037 0.000 16.2 2 -33.4 12.8 0.53 .0735 24 1 100.0 1
08/06/23 4:19 -34.5 -34.5 -34.6 69 -38.2 20.0 E 0.33 22.6 ENE -52.9 -34.5 -52.9 733.3 0.037 0.000 16.2 2 -33.4 12.8 0.53 .0735 23 1 100.0 1
08/06/23 4:20 -34.5 -34.5 -34.5 69 -38.2 18.3 E 0.30 20.0 E -52.2 -34.5 -52.2 733.5 0.037 0.000 16.2 2 -33.4 12.8 0.53 .0735 23 1 100.0 1
08/06/23 4:21 -34.5 -34.5 -34.6 69 -38.2 21.7 E 0.36 23.5 E -53.4 -34.5 -53.4 733.4 0.037 0.000 16.2 2 -33.4 12.8 0.53 .0735 24 1 100.0 1
08/06/23 4:22 -34.4 -34.4 -34.6 69 -38.1 24.3 E 0.41 27.0 E -54.2 -34.4 -54.2 733.2 0.037 0.000 16.2 2 -33.4 12.8 0.53 .0735 23 1 100.0 1
08/06/23 4:23 -34.3 -34.3 -34.4 69 -38.0 21.7 E 0.36 25.2 E -53.2 -34.3 -53.2 733.3 0.037 0.000 16.2 2 -33.4 12.8 0.53 .0735 24 1 100.0 1
08/06/23 4:24 -34.3 -34.3 -34.4 69 -38.0 18.3 E 0.30 20.0 E -52.0 -34.3 -52.0 733.5 0.037 0.000 16.2 2 -33.4 12.8 0.53 .0735 23 1 100.0 1
08/06/23 4:25 -34.4 -34.4 -34.4 69 -38.1 18.3 E 0.30 21.7 ENE -52.2 -34.4 -52.2 733.5 0.037 0.000 16.2 2 -33.4 12.8 0.53 .0735 23 1 100.0 1
08/06/23 4:26 -34.3 -34.3 -34.4 69 -38.0 20.0 ENE 0.33 22.6 ENE -52.7 -34.3 -52.7 733.5 0.037 0.000 16.2 2 -33.4 12.8 0.53 .0735 24 1 100.0 1
08/06/23 4:27 -34.3 -34.3 -34.3 69 -38.0 18.3 E 0.30 20.9 ENE -52.0 -34.3 -52.0 733.5 0.037 0.000 16.2 2 -33.4 12.8 0.53 .0735 23 1 100.0 1
08/06/23 4:28 -34.3 -34.3 -34.4 69 -38.0 20.9 E 0.35 23.5 ENE -52.9 -34.3 -52.9 733.6 0.037 0.000 16.2 2 -33.4 12.8 0.53 .0735 24 1 100.0 1
08/06/23 4:29 -34.1 -34.1 -34.3 69 -37.8 21.7 ENE 0.36 22.6 ENE -52.9 -34.1 -52.9 733.5 0.036 0.000 16.2 2 -33.4 12.8 0.53 .0735 23 1 100.0 1
08/06/23 4:30 -33.8 -33.8 -34.0 69 -37.6 20.0 ENE 0.33 22.6 ENE -52.0 -33.8 -52.0 733.6 0.036 0.000 16.2 2 -33.5 12.8 0.53 .0735 24 1 100.0 1
08/06/23 4:31 -33.8 -33.8 -33.8 70 -37.4 22.6 ENE 0.38 24.3 ENE -52.8 -33.8 -52.8 733.5 0.036 0.000 16.2 2 -33.4 12.8 0.53 .0735 23 1 100.0 1
08/06/23 4:32 -33.9 -33.8 -33.9 69 -37.6 20.9 ENE 0.35 23.5 ENE -52.3 -33.9 -52.3 733.5 0.036 0.000 16.2 2 -33.5 12.8 0.53 .0735 23 1 100.0 1
08/06/23 4:33 -33.9 -33.9 -33.9 69 -37.6 21.7 E 0.36 24.3 E -52.7 -33.9 -52.7 733.5 0.036 0.000 16.2 2 -33.5 12.8 0.53 .0735 24 1 100.0 1
08/06/23 4:34 -33.8 -33.8 -33.8 69 -37.6 21.7 ENE 0.36 23.5 ENE -52.6 -33.8 -52.6 733.5 0.036 0.000 16.2 2 -33.5 12.8 0.53 .0735 23 1 100.0 1
08/06/23 4:35 -33.9 -33.8 -33.9 69 -37.6 20.9 E 0.35 22.6 ENE -52.3 -33.9 -52.3 733.5 0.036 0.000 16.2 2 -33.5 12.8 0.53 .0735 24 1 100.0 1
08/06/23 4:36 -33.9 -33.9 -33.9 69 -37.7 22.6 E 0.38 24.3 E -53.0 -33.9 -53.0 733.5 0.036 0.000 16.2 2 -33.5 12.8 0.53 .0735 23 1 100.0 1
08/06/23 4:37 -33.9 -33.9 -33.9 69 -37.6 21.7 E 0.36 25.2 E -52.7 -33.9 -52.7 733.4 0.036 0.000 16.2 2 -33.5 12.8 0.53 .0735 23 1 100.0 1
08/06/23 4:38 -33.4 -33.4 -33.8 69 -37.1 20.9 E 0.35 24.3 ENE -51.7 -33.4 -51.7 733.4 0.036 0.000 16.2 2 -33.5 12.8 0.53 .0735 24 1 100.0 1
08/06/23 4:39 -33.2 -33.2 -33.3 69 -36.9 19.1 E 0.32 20.9 E -50.8 -33.2 -50.8 733.5 0.036 0.000 16.2 2 -33.5 12.8 0.53 .0735 23 1 100.0 1
08/06/23 4:40 -33.3 -33.2 -33.3 69 -37.0 19.1 E 0.32 20.9 E -50.9 -33.2 -50.9 733.5 0.036 0.000 16.2 2 -33.5 12.8 0.53 .0735 24 1 100.0 1
08/06/23 4:41 -33.3 -33.3 -33.3 69 -37.0 21.7 E 0.36 23.5 E -51.8 -33.2 -51.8 733.5 0.036 0.000 16.2 2 -33.5 12.8 0.53 .0735 23 1 100.0 1
08/06/23 4:42 -33.1 -33.1 -33.3 69 -36.9 22.6 ENE 0.38 23.5 ENE -51.9 -33.1 -51.9 733.5 0.036 0.000 16.2 2 -33.5 12.8 0.53 .0735 24 1 100.0 1
08/06/23 4:43 -33.1 -33.1 -33.1 69 -36.8 20.0 ENE 0.33 21.7 ENE -50.9 -33.1 -50.9 733.6 0.036 0.000 16.2 2 -33.5 12.8 0.53 .0735 23 1 100.0 1
08/06/23 4:44 -33.3 -33.1 -33.3 69 -37.0 20.0 ENE 0.33 21.7 ENE -51.2 -33.2 -51.2 733.6 0.036 0.000 16.2 2 -33.5 12.8 0.53 .0735 23 1 100.0 1
08/06/23 4:45 -33.3 -33.3 -33.4 68 -37.2 21.7 E 0.36 22.6 E -51.9 -33.3 -51.9 733.6 0.036 0.000 16.2 2 -33.5 12.8 0.53 .0735 24 1 100.0 1
08/06/23 4:46 -33.2 -33.2 -33.3 68 -37.1 20.0 ENE 0.33 21.7 E -51.2 -33.2 -51.2 733.6 0.036 0.000 16.1 2 -33.5 12.8 0.53 .0735 23 1 100.0 1
08/06/23 4:47 -33.2 -33.2 -33.2 68 -37.1 20.9 ENE 0.35 21.7 ENE -51.4 -33.2 -51.4 733.6 0.036 0.000 16.1 2 -33.5 12.8 0.53 .0735 24 1 100.0 1
08/06/23 4:48 -33.2 -33.2 -33.2 68 -37.1 20.9 ENE 0.35 21.7 ENE -51.4 -33.2 -51.4 733.6 0.036 0.000 16.1 2 -33.5 12.8 0.53 .0735 23 1 100.0 1
08/06/23 4:49 -33.3 -33.2 -33.3 68 -37.2 22.6 E 0.38 25.2 E -52.1 -33.3 -52.1 733.6 0.036 0.000 16.1 2 -33.5 12.8 0.53 .0735 23 1 100.0 1
08/06/23 4:50 -33.3 -33.3 -33.3 68 -37.2 21.7 ENE 0.36 23.5 E -51.9 -33.3 -51.9 733.5 0.036 0.000 16.1 2 -33.5 12.8 0.53 .0735 24 1 100.0 1
08/06/23 4:51 -33.4 -33.3 -33.4 68 -37.3 20.0 ENE 0.33 20.9 ENE -51.4 -33.4 -51.4 733.6 0.036 0.000 16.1 2 -33.5 12.8 0.53 .0735 23 1 100.0 1
08/06/23 4:52 -33.4 -33.3 -33.4 68 -37.3 22.6 ENE 0.38 24.3 ENE -52.3 -33.4 -52.3 733.6 0.036 0.000 16.1 2 -33.5 12.8 0.53 .0735 24 1 100.0 1
08/06/23 4:53 -33.3 -33.3 -33.4 68 -37.2 22.6 ENE 0.38 24.3 ENE -52.2 -33.3 -52.2 733.6 0.036 0.000 16.1 2 -33.5 12.8 0.53 .0735 23 1 100.0 1
08/06/23 4:54 -33.3 -33.3 -33.3 68 -37.2 20.0 ENE 0.33 21.7 ENE -51.3 -33.3 -51.3 733.7 0.036 0.000 16.1 2 -33.5 12.8 0.53 .0736 23 1 100.0 1
08/06/23 4:55 -33.3 -33.3 -33.3 68 -37.2 20.9 ENE 0.35 21.7 ENE -51.6 -33.3 -51.6 733.7 0.036 0.000 16.1 2 -33.5 12.8 0.53 .0736 24 1 100.0 1
08/06/23 4:56 -33.3 -33.3 -33.3 68 -37.2 20.9 ENE 0.35 22.6 ENE -51.6 -33.3 -51.6 733.6 0.036 0.000 16.1 2 -33.5 12.7 0.53 .0736 23 1 100.0 1
08/06/23 4:57 -33.4 -33.3 -33.4 68 -37.3 20.0 ENE 0.33 22.6 ENE -51.4 -33.4 -51.4 733.6 0.036 0.000 16.1 2 -33.5 12.7 0.53 .0736 24 1 100.0 1
08/06/23 4:58 -33.3 -33.3 -33.4 68 -37.2 20.9 ENE 0.35 22.6 ENE -51.6 -33.3 -51.6 733.7 0.036 0.000 16.1 2 -33.5 12.7 0.53 .0736 23 1 100.0 1
08/06/23 4:59 -33.2 -33.2 -33.3 68 -37.1 20.9 ENE 0.35 22.6 ENE -51.4 -33.2 -51.4 733.7 0.036 0.000 16.1 2 -33.5 12.7 0.53 .0736 24 1 100.0 1
08/06/23 5:00 -33.2 -33.1 -33.2 68 -37.1 18.3 ENE 0.30 20.9 ENE -50.4 -33.2 -50.4 733.7 0.036 0.000 16.1 2 -33.5 12.7 0.53 .0736 23 1 100.0 1
08/06/23 5:01 -33.3 -33.2 -33.3 68 -37.2 19.1 ENE 0.32 20.0 ENE -50.9 -33.3 -50.9 733.7 0.036 0.000 16.0 2 -33.6 12.7 0.53 .0736 23 1 100.0 1
08/06/23 5:02 -33.3 -33.3 -33.3 68 -37.2 20.9 E 0.35 23.5 E -51.6 -33.3 -51.6 733.6 0.036 0.000 16.0 2 -33.6 12.7 0.53 .0736 24 1 100.0 1
08/06/23 5:03 -33.3 -33.2 -33.3 67 -37.3 19.1 E 0.32 20.9 E -50.9 -33.3 -50.9 733.5 0.036 0.000 16.1 2 -33.5 12.7 0.53 .0735 23 1 100.0 1
08/06/23 5:04 -33.4 -33.3 -33.4 67 -37.4 20.9 ENE 0.35 22.6 ENE -51.7 -33.4 -51.7 733.5 0.036 0.000 16.0 2 -33.6 12.7 0.53 .0736 24 1 100.0 1
08/06/23 5:05 -33.3 -33.3 -33.3 67 -37.4 20.9 ENE 0.35 22.6 ENE -51.6 -33.4 -51.7 733.6 0.036 0.000 16.0 2 -33.6 12.7 0.53 .0736 23 1 100.0 1
08/06/23 5:06 -33.5 -33.3 -33.5 67 -37.5 18.3 ENE 0.30 21.7 ENE -50.9 -33.6 -50.9 733.7 0.036 0.000 16.0 2 -33.6 12.7 0.53 .0736 23 1 100.0 1
08/06/23 5:07 -33.5 -33.5 -33.5 67 -37.5 20.0 E 0.33 21.7 E -51.6 -33.6 -51.6 733.6 0.036 0.000 16.0 2 -33.6 12.7 0.53 .0736 24 1 100.0 1
08/06/23 5:08 -33.7 -33.6 -33.7 67 -37.7 19.1 E 0.32 23.5 E -51.4 -33.7 -51.5 733.6 0.036 0.000 16.0 2 -33.6 12.7 0.53 .0736 23 1 100.0 1
08/06/23 5:09 -33.6 -33.6 -33.7 67 -37.6 22.6 E 0.38 25.2 E -52.5 -33.6 -52.6 733.4 0.036 0.000 16.0 2 -33.6 12.7 0.53 .0736 24 1 100.0 1
08/06/23 5:10 -33.4 -33.4 -33.6 67 -37.5 22.6 E 0.38 23.5 ENE -52.3 -33.5 -52.4 733.4 0.036 0.000 16.0 2 -33.6 12.7 0.53 .0736 23 1 100.0 1
08/06/23 5:11 -33.3 -33.3 -33.4 68 -37.2 20.0 E 0.33 21.7 ENE -51.3 -33.3 -51.3 733.5 0.036 0.000 16.0 2 -33.6 12.7 0.53 .0736 24 1 100.0 1
08/06/23 5:12 -33.4 -33.3 -33.4 68 -37.3 17.4 ENE 0.29 19.1 ENE -50.4 -33.4 -50.4 733.6 0.036 0.000 16.0 2 -33.6 12.7 0.53 .0736 23 1 100.0 1
08/06/23 5:13 -33.4 -33.4 -33.4 68 -37.3 19.1 E 0.32 23.5 E -51.2 -33.4 -51.2 733.6 0.036 0.000 16.0 2 -33.6 12.7 0.53 .0736 23 1 100.0 1
08/06/23 5:14 -33.4 -33.4 -33.5 67 -37.4 24.3 E 0.41 25.2 E -52.8 -33.4 -52.8 733.4 0.036 0.000 16.0 2 -33.6 12.7 0.53 .0736 24 1 100.0 1
08/06/23 5:15 -33.1 -33.1 -33.3 67 -37.1 21.7 E 0.36 24.3 ENE -51.6 -33.1 -51.6 733.5 0.036 0.000 15.9 2 -33.6 12.6 0.54 .0736 23 1 100.0 1
08/06/23 5:16 -32.9 -32.9 -33.1 68 -36.8 16.5 E 0.28 20.0 E -49.5 -32.9 -49.5 733.7 0.036 0.000 15.9 2 -33.6 12.6 0.54 .0736 24 1 100.0 1
08/06/23 5:17 -33.0 -32.9 -33.0 68 -36.9 13.9 E 0.23 19.1 E -48.4 -33.0 -48.4 733.8 0.036 0.000 16.0 2 -33.6 12.7 0.53 .0736 23 1 100.0 1
08/06/23 5:18 -33.0 -33.0 -33.0 67 -37.0 20.9 E 0.35 22.6 E -51.2 -33.0 -51.2 733.6 0.036 0.000 15.9 2 -33.6 12.6 0.54 .0736 23 1 100.0 1
08/06/23 5:19 -32.9 -32.9 -33.0 67 -36.9 21.7 E 0.36 23.5 ENE -51.3 -32.9 -51.4 733.5 0.036 0.000 15.9 2 -33.6 12.6 0.54 .0736 24 1 100.0 1
08/06/23 5:20 -32.6 -32.6 -32.8 67 -36.7 20.9 ENE 0.35 21.7 E -50.7 -32.7 -50.7 733.6 0.035 0.000 15.9 2 -33.6 12.6 0.54 .0736 23 1 100.0 1
08/06/23 5:21 -32.5 -32.5 -32.6 67 -36.6 18.3 ENE 0.30 20.0 ENE -49.6 -32.6 -49.7 733.7 0.035 0.000 15.9 2 -33.6 12.6 0.54 .0736 24 1 100.0 1
08/06/23 5:22 -32.4 -32.4 -32.5 67 -36.5 13.9 ENE 0.23 17.4 ENE -47.7 -32.5 -47.8 733.8 0.035 0.000 15.9 2 -33.6 12.6 0.54 .0736 23 1 100.0 1
08/06/23 5:23 -32.5 -32.4 -32.5 67 -36.6 16.5 E 0.28 21.7 E -48.9 -32.6 -48.9 733.8 0.035 0.000 15.9 2 -33.6 12.6 0.54 .0736 23 1 100.0 1
08/06/23 5:24 -32.6 -32.6 -32.6 66 -36.8 20.9 ENE 0.35 22.6 ENE -50.7 -32.7 -50.7 733.6 0.035 0.000 15.9 2 -33.6 12.6 0.54 .0736 24 1 100.0 1
08/06/23 5:25 -32.6 -32.6 -32.6 66 -36.8 20.0 ENE 0.33 21.7 ENE -50.3 -32.7 -50.4 733.6 0.035 0.000 15.9 2 -33.6 12.6 0.54 .0736 23 1 100.0 1
08/06/23 5:26 -32.6 -32.6 -32.6 66 -36.8 16.5 ENE 0.28 19.1 ENE -49.1 -32.7 -49.1 733.8 0.035 0.000 15.9 2 -33.6 12.6 0.54 .0736 24 1 100.0 1
08/06/23 5:27 -32.7 -32.7 -32.7 66 -36.9 13.9 ENE 0.23 17.4 ENE -48.1 -32.8 -48.1 733.9 0.035 0.000 15.9 2 -33.6 12.6 0.54 .0736 23 1 100.0 1
08/06/23 5:28 -32.6 -32.6 -32.7 66 -36.8 20.0 E 0.33 23.5 E -50.3 -32.7 -50.4 733.7 0.035 0.000 15.9 2 -33.6 12.6 0.54 .0736 24 1 100.0 1
08/06/23 5:29 -32.1 -32.1 -32.6 66 -36.3 23.5 E 0.39 25.2 E -50.8 -32.2 -50.9 733.5 0.035 0.000 15.9 2 -33.6 12.6 0.54 .0736 23 1 100.0 1
08/06/23 5:30 -31.8 -31.8 -32.0 66 -36.0 20.9 E 0.35 22.6 ENE -49.6 -31.8 -49.6 733.5 0.035 0.000 15.9 2 -33.6 12.6 0.54 .0736 23 1 100.0 1
08/06/23 5:31 -31.7 -31.7 -31.8 67 -35.8 17.4 ENE 0.29 20.0 ENE -48.2 -31.7 -48.2 733.8 0.035 0.000 15.9 2 -33.6 12.6 0.54 .0736 24 1 100.0 1
08/06/23 5:32 -31.7 -31.7 -31.7 66 -35.9 12.2 ENE 0.20 13.9 ENE -45.8 -31.7 -45.9 733.9 0.035 0.000 15.9 2 -33.6 12.6 0.54 .0736 23 1 100.0 1
08/06/23 5:33 -31.8 -31.7 -31.8 66 -36.1 13.9 E 0.23 17.4 E -46.9 -31.9 -46.9 733.9 0.035 0.000 15.9 2 -33.6 12.6 0.54 .0736 24 1 100.0 1
08/06/23 5:34 -32.1 -31.9 -32.1 65 -36.4 18.3 E 0.30 20.9 E -49.0 -32.1 -49.1 733.8 0.035 0.000 15.9 2 -33.6 12.6 0.54 .0736 23 1 100.0 1
08/06/23 5:35 -31.9 -31.9 -32.1 65 -36.3 22.6 E 0.38 23.5 E -50.3 -32.0 -50.4 733.6 0.035 0.000 15.9 2 -33.6 12.6 0.54 .0736 23 1 100.0 1
08/06/23 5:36 -31.7 -31.7 -31.9 65 -36.1 22.6 E 0.38 24.3 E -49.9 -31.7 -50.0 733.6 0.035 0.000 15.9 2 -33.6 12.6 0.54 .0736 24 1 100.0 1
08/06/23 5:37 -31.4 -31.4 -31.6 65 -35.8 20.0 ENE 0.33 22.6 ENE -48.7 -31.4 -48.8 733.8 0.035 0.000 15.9 2 -33.6 12.6 0.54 .0736 23 1 100.0 1
08/06/23 5:38 -31.2 -31.2 -31.3 65 -35.6 16.5 ENE 0.28 18.3 ENE -47.2 -31.2 -47.2 734.0 0.034 0.000 15.9 2 -33.6 12.6 0.54 .0736 24 1 100.0 1
08/06/23 5:39 -31.2 -31.1 -31.2 65 -35.6 13.0 ENE 0.22 15.7 ENE -45.7 -31.2 -45.7 734.0 0.034 0.000 15.9 2 -33.6 12.6 0.54 .0736 23 1 100.0 1
08/06/23 5:40 -31.3 -31.2 -31.3 64 -35.9 14.8 E 0.25 18.3 E -46.7 -31.4 -46.7 734.0 0.034 0.000 15.9 2 -33.6 12.6 0.54 .0736 24 1 100.0 1
08/06/23 5:41 -31.5 -31.3 -31.5 63 -36.2 18.3 E 0.30 20.9 E -48.3 -31.6 -48.3 733.8 0.035 0.000 15.9 2 -33.7 12.6 0.54 .0736 23 1 100.0 1
08/06/23 5:42 -31.4 -31.4 -31.5 63 -36.1 20.0 E 0.33 21.7 E -48.7 -31.4 -48.8 733.8 0.035 0.000 15.9 2 -33.7 12.6 0.54 .0736 23 1 100.0 1
08/06/23 5:43 -31.2 -31.2 -31.4 63 -35.9 19.1 E 0.32 20.9 E -48.2 -31.2 -48.2 733.8 0.034 0.000 15.9 2 -33.7 12.6 0.54 .0736 24 1 100.0 1
08/06/23 5:44 -31.1 -31.1 -31.2 63 -35.8 16.5 ENE 0.28 18.3 ENE -47.0 -31.1 -47.1 734.0 0.034 0.000 15.9 2 -33.7 12.6 0.54 .0736 23 1 100.0 1
08/06/23 5:45 -31.0 -31.0 -31.1 63 -35.7 14.8 ENE 0.25 16.5 ENE -46.2 -31.1 -46.3 734.1 0.034 0.000 15.9 2 -33.7 12.6 0.54 .0737 24 1 100.0 1
08/06/23 5:46 -31.1 -31.0 -31.1 63 -35.9 11.3 ENE 0.19 13.0 ENE -44.7 -31.2 -44.7 734.1 0.034 0.000 15.9 2 -33.7 12.6 0.54 .0737 23 1 100.0 1
08/06/23 5:47 -31.4 -31.2 -31.4 62 -36.3 18.3 E 0.30 21.7 E -48.1 -31.4 -48.2 733.9 0.035 0.000 15.9 2 -33.7 12.6 0.54 .0736 23 1 100.0 1
08/06/23 5:48 -31.7 -31.4 -31.7 62 -36.6 20.9 E 0.35 22.6 E -49.4 -31.8 -49.5 733.8 0.035 0.000 15.9 2 -33.7 12.6 0.54 .0736 24 1 100.0 1
08/06/23 5:49 -31.9 -31.7 -31.9 62 -36.8 20.0 E 0.33 20.9 E -49.5 -32.0 -49.6 733.8 0.035 0.000 15.9 2 -33.7 12.6 0.54 .0736 23 1 100.0 1
08/06/23 5:50 -32.0 -31.9 -32.1 62 -36.9 20.0 E 0.33 21.7 E -49.6 -32.1 -49.6 733.9 0.035 0.000 15.9 2 -33.6 12.6 0.54 .0736 24 1 100.0 1
08/06/23 5:51 -32.0 -32.0 -32.1 62 -36.9 20.0 E 0.33 20.9 E -49.6 -32.1 -49.6 733.9 0.035 0.000 15.9 2 -33.7 12.6 0.54 .0736 23 1 100.0 1
08/06/23 5:52 -32.0 -32.0 -32.0 62 -36.9 18.3 E 0.30 20.0 E -48.9 -32.1 -49.0 734.0 0.035 0.000 15.9 2 -33.7 12.6 0.54 .0736 23 1 100.0 1
08/06/23 5:53 -32.0 -32.0 -32.0 63 -36.7 16.5 E 0.28 18.3 E -48.3 -32.1 -48.3 734.0 0.035 0.000 15.9 2 -33.7 12.6 0.54 .0736 24 1 100.0 1
08/06/23 5:54 -32.1 -32.0 -32.1 62 -37.0 19.1 E 0.32 20.9 E -49.4 -32.2 -49.4 734.0 0.035 0.000 15.9 2 -33.7 12.6 0.54 .0736 23 1 100.0 1
08/06/23 5:55 -32.2 -32.2 -32.2 62 -37.0 21.7 E 0.36 22.6 E -50.3 -32.2 -50.4 733.9 0.035 0.000 15.9 2 -33.7 12.6 0.54 .0736 24 1 100.0 1
08/06/23 5:56 -32.1 -32.1 -32.2 62 -36.9 20.9 E 0.35 22.6 E -49.9 -32.1 -49.9 733.8 0.035 0.000 15.9 2 -33.7 12.6 0.54 .0736 23 1 100.0 1
08/06/23 5:57 -32.0 -32.0 -32.1 63 -36.7 20.0 E 0.33 20.9 ENE -49.6 -32.1 -49.6 733.9 0.035 0.000 15.9 2 -33.7 12.6 0.54 .0736 24 1 100.0 1
08/06/23 5:58 -31.9 -31.9 -31.9 63 -36.6 18.3 E 0.30 20.0 E -48.8 -32.0 -48.9 733.9 0.035 0.000 15.9 2 -33.7 12.6 0.54 .0736 23 1 100.0 1
08/06/23 5:59 -32.1 -31.9 -32.1 63 -36.8 19.1 E 0.32 20.0 E -49.3 -32.1 -49.4 733.9 0.035 0.000 15.9 2 -33.7 12.6 0.54 .0736 23 1 100.0 1
08/06/23 6:00 -32.2 -32.1 -32.2 62 -37.1 19.1 E 0.32 20.9 E -49.6 -32.3 -49.6 733.9 0.035 0.000 15.9 2 -33.7 12.6 0.54 .0736 24 1 100.0 1
08/06/23 6:01 -32.4 -32.3 -32.4 62 -37.3 18.3 E 0.30 19.1 E -49.5 -32.5 -49.6 734.0 0.035 0.000 15.9 2 -33.7 12.6 0.54 .0736 23 1 100.0 1
08/06/23 6:02 -32.5 -32.4 -32.5 62 -37.3 18.3 E 0.30 19.1 E -49.6 -32.6 -49.7 734.0 0.035 0.000 15.8 2 -33.7 12.6 0.54 .0737 24 1 100.0 1
08/06/23 6:03 -32.6 -32.4 -32.6 62 -37.4 17.4 E 0.29 20.0 E -49.3 -32.6 -49.4 734.0 0.035 0.000 15.9 2 -33.7 12.6 0.54 .0736 23 1 100.0 1
08/06/23 6:04 -32.6 -32.6 -32.6 62 -37.4 20.0 E 0.33 21.7 E -50.3 -32.6 -50.3 733.9 0.035 0.000 15.8 2 -33.7 12.6 0.54 .0736 23 1 100.0 1
08/06/23 6:05 -32.7 -32.6 -32.7 62 -37.5 20.0 E 0.33 21.7 E -50.4 -32.7 -50.5 733.8 0.035 0.000 15.8 2 -33.7 12.6 0.54 .0736 24 1 100.0 1
08/06/23 6:06 -32.6 -32.6 -32.7 62 -37.4 19.1 E 0.32 20.0 E -50.0 -32.6 -50.1 734.0 0.035 0.000 15.8 2 -33.7 12.6 0.54 .0737 23 1 100.0 1
08/06/23 6:07 -32.4 -32.4 -32.6 63 -37.1 17.4 E 0.29 19.1 ENE -49.2 -32.5 -49.2 734.0 0.035 0.000 15.8 2 -33.7 12.6 0.54 .0737 24 1 100.0 1
08/06/23 6:08 -32.3 -32.3 -32.4 63 -37.0 19.1 E 0.32 21.7 E -49.7 -32.4 -49.7 734.0 0.035 0.000 15.8 2 -33.7 12.6 0.54 .0737 23 1 100.0 1
08/06/23 6:09 -32.3 -32.3 -32.3 63 -37.0 19.1 E 0.32 20.0 E -49.6 -32.3 -49.7 734.0 0.035 0.000 15.8 2 -33.7 12.6 0.54 .0737 24 1 100.0 1
08/06/23 6:10 -32.3 -32.3 -32.3 63 -37.0 17.4 E 0.29 19.1 E -49.1 -32.4 -49.1 734.1 0.035 0.000 15.8 2 -33.7 12.6 0.54 .0737 23 1 100.0 1
08/06/23 6:11 -32.3 -32.3 -32.3 63 -37.0 17.4 E 0.29 19.1 E -49.1 -32.4 -49.1 734.2 0.035 0.000 15.8 2 -33.7 12.6 0.54 .0737 23 1 100.0 1
08/06/23 6:12 -32.3 -32.3 -32.3 63 -37.0 18.3 E 0.30 19.1 E -49.4 -32.4 -49.4 734.1 0.035 0.000 15.8 2 -33.7 12.6 0.54 .0737 24 1 100.0 1
08/06/23 6:13 -32.3 -32.3 -32.3 62 -37.1 18.3 E 0.30 20.0 E -49.3 -32.3 -49.3 734.1 0.035 0.000 15.8 2 -33.7 12.6 0.54 .0737 23 1 100.0 1
08/06/23 6:14 -32.4 -32.3 -32.4 62 -37.2 19.1 E 0.32 20.9 E -49.8 -32.4 -49.8 734.1 0.035 0.000 15.8 2 -33.7 12.6 0.54 .0737 24 1 100.0 1
08/06/23 6:15 -32.5 -32.4 -32.5 62 -37.3 19.1 E 0.32 20.9 E -49.9 -32.6 -49.9 734.1 0.035 0.000 15.8 2 -33.7 12.6 0.54 .0737 23 1 100.0 1
08/06/23 6:16 -32.5 -32.5 -32.5 62 -37.3 19.1 E 0.32 20.9 E -49.9 -32.6 -49.9 734.2 0.035 0.000 15.8 2 -33.7 12.6 0.54 .0737 23 1 100.0 1
08/06/23 6:17 -32.6 -32.5 -32.6 62 -37.4 17.4 E 0.29 20.0 E -49.3 -32.6 -49.4 734.2 0.035 0.000 15.8 2 -33.7 12.6 0.54 .0737 24 1 100.0 1
08/06/23 6:18 -32.6 -32.6 -32.6 62 -37.4 20.9 E 0.35 21.7 E -50.6 -32.6 -50.6 734.1 0.035 0.000 15.8 2 -33.7 12.6 0.54 .0737 23 1 100.0 1
08/06/23 6:19 -32.7 -32.6 -32.7 62 -37.5 20.0 E 0.33 21.7 E -50.4 -32.7 -50.5 734.2 0.035 0.000 15.8 2 -33.7 12.6 0.54 .0737 24 1 100.0 1
08/06/23 6:20 -32.7 -32.7 -32.7 62 -37.5 20.0 E 0.33 21.7 E -50.5 -32.8 -50.6 734.2 0.035 0.000 15.8 2 -33.7 12.6 0.54 .0737 23 1 100.0 1
08/06/23 6:21 -32.7 -32.7 -32.7 62 -37.5 20.9 E 0.35 21.7 E -50.8 -32.8 -50.8 734.2 0.035 0.000 15.8 2 -33.7 12.6 0.54 .0737 23 1 100.0 1
08/06/23 6:22 -32.7 -32.7 -32.7 62 -37.5 17.4 E 0.29 19.1 E -49.6 -32.8 -49.6 734.3 0.035 0.000 15.8 2 -33.7 12.6 0.54 .0737 24 1 100.0 1
08/06/23 6:23 -32.8 -32.7 -32.8 62 -37.6 17.4 E 0.29 18.3 E -49.6 -32.8 -49.7 734.3 0.035 0.000 15.8 2 -33.7 12.6 0.54 .0737 23 1 100.0 1
08/06/23 6:24 -32.8 -32.8 -32.8 63 -37.4 17.4 E 0.29 18.3 E -49.6 -32.8 -49.7 734.3 0.035 0.000 15.8 2 -33.7 12.6 0.54 .0737 24 1 100.0 1
08/06/23 6:25 -32.8 -32.8 -32.8 63 -37.5 16.5 E 0.28 18.3 E -49.3 -32.9 -49.4 734.3 0.036 0.000 15.8 2 -33.7 12.6 0.54 .0737 23 1 100.0 1
08/06/23 6:26 -32.9 -32.8 -32.9 63 -37.6 18.3 E 0.30 19.1 ESE -50.1 -32.9 -50.2 734.2 0.036 0.000 15.8 2 -33.7 12.5 0.54 .0737 24 1 100.0 1
08/06/23 6:27 -32.9 -32.9 -32.9 63 -37.6 16.5 E 0.28 18.3 E -49.4 -32.9 -49.5 734.2 0.036 0.000 15.8 2 -33.7 12.5 0.54 .0737 23 1 100.0 1
08/06/23 6:28 -32.9 -32.8 -32.9 63 -37.6 18.3 E 0.30 21.7 E -50.1 -32.9 -50.2 734.2 0.036 0.000 15.8 2 -33.7 12.5 0.54 .0737 23 1 100.0 1
08/06/23 6:29 -32.8 -32.8 -32.8 63 -37.5 20.9 E 0.35 21.7 E -50.9 -32.9 -51.0 734.0 0.036 0.000 15.8 2 -33.7 12.5 0.54 .0737 24 1 100.0 1
08/06/23 6:30 -32.7 -32.7 -32.8 63 -37.4 19.1 E 0.32 20.9 E -50.2 -32.8 -50.3 734.1 0.035 0.000 15.8 2 -33.7 12.5 0.54 .0737 23 1 100.0 1
08/06/23 6:31 -32.7 -32.7 -32.7 63 -37.3 16.5 E 0.28 17.4 E -49.1 -32.7 -49.2 734.2 0.035 0.000 15.8 2 -33.7 12.5 0.54 .0737 24 1 100.0 1
08/06/23 6:32 -32.7 -32.7 -32.7 63 -37.3 16.5 E 0.28 17.4 E -49.1 -32.7 -49.2 734.2 0.035 0.000 15.8 2 -33.7 12.5 0.54 .0737 23 1 100.0 1
08/06/23 6:33 -32.7 -32.7 -32.7 63 -37.3 17.4 E 0.29 18.3 E -49.5 -32.7 -49.6 734.2 0.035 0.000 15.8 2 -33.7 12.5 0.54 .0737 23 1 100.0 1
08/06/23 6:34 -32.7 -32.7 -32.7 63 -37.4 18.3 E 0.30 20.0 E -49.9 -32.8 -49.9 734.2 0.035 0.000 15.8 2 -33.7 12.5 0.54 .0737 24 1 100.0 1
08/06/23 6:35 -32.8 -32.7 -32.8 63 -37.4 20.0 E 0.33 21.7 E -50.6 -32.8 -50.6 734.1 0.035 0.000 15.8 2 -33.7 12.5 0.54 .0737 23 1 100.0 1
08/06/23 6:36 -32.8 -32.7 -32.8 63 -37.4 19.1 E 0.32 20.9 E -50.3 -32.8 -50.3 734.2 0.035 0.000 15.8 2 -33.7 12.5 0.54 .0737 24 1 100.0 1
08/06/23 6:37 -32.8 -32.8 -32.8 63 -37.4 17.4 E 0.29 19.1 E -49.6 -32.8 -49.7 734.2 0.035 0.000 15.8 2 -33.7 12.5 0.54 .0737 23 1 100.0 1
08/06/23 6:38 -32.9 -32.8 -32.9 63 -37.6 18.3 E 0.30 19.1 E -50.1 -32.9 -50.2 734.2 0.036 0.000 15.8 2 -33.7 12.5 0.54 .0737 23 1 100.0 1
08/06/23 6:39 -33.0 -32.9 -33.0 63 -37.7 18.3 E 0.30 19.1 E -50.2 -33.1 -50.3 734.2 0.036 0.000 15.8 2 -33.7 12.5 0.54 .0737 24 1 100.0 1
08/06/23 6:40 -33.0 -33.0 -33.0 63 -37.7 17.4 E 0.29 18.3 E -49.9 -33.1 -49.9 734.2 0.036 0.000 15.8 2 -33.7 12.5 0.54 .0737 23 1 100.0 1
08/06/23 6:41 -33.1 -33.1 -33.1 63 -37.7 18.3 E 0.30 20.0 E -50.3 -33.1 -50.4 734.3 0.036 0.000 15.7 2 -33.8 12.4 0.54 .0737 24 1 100.0 1
08/06/23 6:42 -33.1 -33.1 -33.1 63 -37.8 17.4 E 0.29 19.1 ENE -50.1 -33.2 -50.1 734.2 0.036 0.000 15.8 2 -33.7 12.5 0.54 .0737 23 1 100.0 1
08/06/23 6:43 -33.2 -33.1 -33.2 63 -37.8 17.4 E 0.29 18.3 E -50.1 -33.2 -50.2 734.4 0.036 0.000 15.7 2 -33.8 12.4 0.54 .0737 24 1 100.0 1
08/06/23 6:44 -33.2 -33.2 -33.2 63 -37.9 18.3 E 0.30 19.1 E -50.6 -33.3 -50.6 734.4 0.036 0.000 15.7 2 -33.8 12.4 0.54 .0737 23 1 100.0 1
08/06/23 6:45 -33.3 -33.3 -33.3 63 -37.9 17.4 E 0.29 19.1 E -50.3 -33.3 -50.3 734.4 0.036 0.000 15.7 2 -33.8 12.4 0.54 .0737 23 1 100.0 1
08/06/23 6:46 -33.3 -33.3 -33.3 63 -38.0 18.3 E 0.30 20.0 E -50.7 -33.4 -50.7 734.3 0.036 0.000 15.7 2 -33.8 12.4 0.54 .0737 24 1 100.0 1
08/06/23 6:47 -33.4 -33.3 -33.4 64 -37.9 18.3 E 0.30 20.0 E -50.8 -33.4 -50.8 734.2 0.036 0.000 15.7 2 -33.8 12.4 0.54 .0737 23 1 100.0 1
08/06/23 6:48 -33.4 -33.4 -33.4 64 -37.9 18.3 E 0.30 20.0 E -50.8 -33.4 -50.8 734.2 0.036 0.000 15.7 2 -33.8 12.4 0.54 .0737 24 1 100.0 1
08/06/23 6:49 -33.3 -33.3 -33.4 64 -37.8 18.3 E 0.30 20.0 E -50.7 -33.4 -50.7 734.1 0.036 0.000 15.7 2 -33.8 12.4 0.54 .0737 23 1 100.0 1
08/06/23 6:50 -33.3 -33.3 -33.3 64 -37.8 17.4 E 0.29 18.3 E -50.3 -33.3 -50.3 734.2 0.036 0.000 15.7 2 -33.8 12.4 0.54 .0737 23 1 100.0 1
08/06/23 6:51 -33.3 -33.3 -33.3 64 -37.8 17.4 E 0.29 19.1 E -50.3 -33.4 -50.4 734.1 0.036 0.000 15.7 2 -33.8 12.4 0.54 .0737 24 1 100.0 1
08/06/23 6:52 -33.4 -33.4 -33.4 64 -37.9 19.1 E 0.32 20.0 E -51.2 -33.5 -51.2 734.1 0.036 0.000 15.7 2 -33.8 12.4 0.54 .0737 23 1 100.0 1
08/06/23 6:53 -33.5 -33.4 -33.5 64 -38.0 19.1 E 0.32 20.0 E -51.2 -33.6 -51.3 734.1 0.036 0.000 15.7 2 -33.8 12.4 0.54 .0737 24 1 100.0 1
08/06/23 6:54 -33.6 -33.5 -33.6 64 -38.0 17.4 E 0.29 20.0 E -50.7 -33.6 -50.7 734.2 0.036 0.000 15.7 2 -33.8 12.4 0.54 .0737 23 1 100.0 1
08/06/23 6:55 -33.4 -33.4 -33.6 64 -37.9 19.1 E 0.32 20.0 E -51.2 -33.5 -51.2 734.2 0.036 0.000 15.7 2 -33.8 12.4 0.54 .0737 24 1 100.0 1
08/06/23 6:56 -33.3 -33.3 -33.4 64 -37.8 18.3 E 0.30 19.1 ENE -50.6 -33.3 -50.7 734.3 0.036 0.000 15.7 2 -33.8 12.4 0.54 .0737 23 1 100.0 1
08/06/23 6:57 -33.2 -33.2 -33.3 64 -37.7 19.1 E 0.32 19.1 E -50.8 -33.2 -50.8 734.2 0.036 0.000 15.7 2 -33.8 12.4 0.54 .0737 23 1 100.0 1
08/06/23 6:58 -33.2 -33.2 -33.2 65 -37.5 18.3 E 0.30 19.1 E -50.4 -33.2 -50.5 734.2 0.036 0.000 15.7 2 -33.8 12.4 0.54 .0737 24 1 100.0 1
08/06/23 6:59 -33.1 -33.1 -33.2 65 -37.5 17.4 E 0.29 19.1 E -50.1 -33.2 -50.1 734.2 0.036 0.000 15.7 2 -33.8 12.4 0.54 .0737 23 1 100.0 1
08/06/23 7:00 -33.2 -33.1 -33.2 65 -37.6 16.5 E 0.28 18.3 ENE -49.8 -33.3 -49.9 734.2 0.036 0.000 15.7 2 -33.8 12.4 0.54 .0737 24 1 100.0 1
08/06/23 7:01 -33.3 -33.2 -33.3 64 -37.8 16.5 E 0.28 18.3 E -50.0 -33.4 -50.1 734.2 0.036 0.000 15.7 2 -33.8 12.4 0.54 .0737 23 1 100.0 1
08/06/23 7:02 -33.5 -33.3 -33.5 64 -38.0 17.4 E 0.29 18.3 E -50.6 -33.6 -50.6 734.3 0.036 0.000 15.7 2 -33.8 12.4 0.54 .0737 23 1 100.0 1
08/06/23 7:03 -33.6 -33.5 -33.6 64 -38.0 17.4 E 0.29 18.3 E -50.7 -33.6 -50.7 734.3 0.036 0.000 15.7 2 -33.8 12.4 0.54 .0737 24 1 100.0 1
08/06/23 7:04 -33.6 -33.6 -33.6 64 -38.0 18.3 E 0.30 19.1 E -51.0 -33.6 -51.1 734.2 0.036 0.000 15.7 2 -33.8 12.4 0.54 .0737 23 1 100.0 1
08/06/23 7:05 -33.6 -33.6 -33.6 64 -38.0 17.4 E 0.29 18.3 E -50.7 -33.6 -50.7 734.3 0.036 0.000 15.7 2 -33.8 12.4 0.54 .0737 24 1 100.0 1
08/06/23 7:06 -33.6 -33.6 -33.6 64 -38.1 17.4 E 0.29 18.3 E -50.7 -33.7 -50.8 734.3 0.036 0.000 15.7 2 -33.8 12.4 0.55 .0737 23 1 100.0 1
08/06/23 7:07 -33.6 -33.6 -33.6 64 -38.0 17.4 E 0.29 18.3 E -50.7 -33.6 -50.7 734.3 0.036 0.000 15.7 2 -33.8 12.4 0.54 .0737 23 1 100.0 1
08/06/23 7:08 -33.6 -33.5 -33.6 64 -38.0 16.5 E 0.28 17.4 E -50.3 -33.6 -50.3 734.3 0.036 0.000 15.7 2 -33.8 12.4 0.54 .0737 24 1 100.0 1
08/06/23 7:09 -33.5 -33.5 -33.6 64 -38.0 16.5 E 0.28 17.4 E -50.2 -33.6 -50.3 734.4 0.036 0.000 15.7 2 -33.8 12.4 0.54 .0737 23 1 100.0 1
08/06/23 7:10 -33.6 -33.6 -33.6 64 -38.0 16.5 E 0.28 17.4 E -50.3 -33.6 -50.3 734.3 0.036 0.000 15.7 2 -33.8 12.4 0.55 .0737 24 1 100.0 1
08/06/23 7:11 -33.6 -33.6 -33.6 64 -38.1 16.5 E 0.28 17.4 E -50.4 -33.7 -50.4 734.3 0.036 0.000 15.7 2 -33.8 12.4 0.55 .0737 23 1 100.0 1
08/06/23 7:12 -33.6 -33.6 -33.6 64 -38.0 15.7 E 0.26 17.4 E -49.9 -33.6 -50.0 734.3 0.036 0.000 15.7 2 -33.8 12.4 0.55 .0737 24 1 100.0 1
08/06/23 7:13 -33.5 -33.5 -33.6 65 -37.8 16.5 E 0.28 18.3 E -50.2 -33.6 -50.3 734.3 0.036 0.000 15.7 2 -33.8 12.4 0.54 .0737 23 1 100.0 1
08/06/23 7:14 -33.4 -33.4 -33.5 65 -37.7 17.4 E 0.29 18.3 E -50.4 -33.4 -50.5 734.3 0.036 0.000 15.7 2 -33.8 12.4 0.55 .0737 23 1 100.0 1
08/06/23 7:15 -33.3 -33.3 -33.3 65 -37.6 16.5 E 0.28 17.4 E -49.9 -33.3 -50.0 734.3 0.036 0.000 15.7 2 -33.8 12.4 0.55 .0737 24 1 100.0 1
08/06/23 7:16 -33.3 -33.3 -33.3 65 -37.6 14.8 E 0.25 15.7 E -49.2 -33.3 -49.2 734.3 0.036 0.000 15.7 2 -33.8 12.4 0.55 .0737 23 1 100.0 1
08/06/23 7:17 -33.3 -33.3 -33.3 65 -37.7 15.7 E 0.26 16.5 E -49.6 -33.4 -49.7 734.3 0.036 0.000 15.7 2 -33.8 12.4 0.55 .0737 24 1 100.0 1
08/06/23 7:18 -33.4 -33.3 -33.4 65 -37.8 15.7 ENE 0.26 16.5 ENE -49.8 -33.5 -49.8 734.3 0.036 0.000 15.7 2 -33.8 12.4 0.55 .0737 23 1 100.0 1
08/06/23 7:19 -33.5 -33.4 -33.5 64 -38.0 14.8 ENE 0.25 15.7 ENE -49.4 -33.6 -49.5 734.3 0.036 0.000 15.7 2 -33.8 12.4 0.55 .0737 23 1 100.0 1
08/06/23 7:20 -33.6 -33.6 -33.6 64 -38.1 15.7 E 0.26 17.4 E -50.0 -33.7 -50.1 734.3 0.036 0.000 15.7 2 -33.8 12.4 0.55 .0737 24 1 100.0 1
08/06/23 7:21 -33.7 -33.6 -33.7 64 -38.1 15.7 ENE 0.26 17.4 ENE -50.1 -33.7 -50.1 734.3 0.036 0.000 15.7 2 -33.8 12.4 0.55 .0737 23 1 100.0 1
08/06/23 7:22 -33.7 -33.7 -33.7 64 -38.1 16.5 E 0.28 18.3 E -50.4 -33.7 -50.5 734.3 0.036 0.000 15.7 2 -33.8 12.4 0.55 .0737 24 1 100.0 1
08/06/23 7:23 -33.6 -33.6 -33.7 64 -38.0 17.4 E 0.29 18.3 ENE -50.7 -33.6 -50.7 734.3 0.036 0.000 15.7 2 -33.8 12.4 0.55 .0737 23 1 100.0 1
08/06/23 7:24 -33.5 -33.5 -33.6 64 -38.0 16.5 E 0.28 17.4 E -50.2 -33.6 -50.3 734.3 0.036 0.000 15.7 2 -33.8 12.4 0.55 .0737 24 1 100.0 1
08/06/23 7:25 -33.6 -33.5 -33.6 65 -37.9 18.3 E 0.30 20.0 E -51.0 -33.6 -51.1 734.3 0.036 0.000 15.7 2 -33.8 12.4 0.55 .0737 23 1 100.0 1
08/06/23 7:26 -33.6 -33.6 -33.6 65 -37.9 18.3 ENE 0.30 19.1 ENE -51.0 -33.6 -51.1 734.3 0.036 0.000 15.7 2 -33.8 12.4 0.55 .0737 23 1 100.0 1
08/06/23 7:27 -33.5 -33.5 -33.5 65 -37.8 15.7 ENE 0.26 17.4 E -49.8 -33.6 -49.9 734.3 0.036 0.000 15.7 2 -33.8 12.4 0.55 .0737 24 1 100.0 1
08/06/23 7:28 -33.4 -33.4 -33.5 65 -37.8 17.4 E 0.29 19.1 ENE -50.5 -33.5 -50.6 734.3 0.036 0.000 15.7 2 -33.8 12.4 0.55 .0737 23 1 100.0 1
08/06/23 7:29 -33.4 -33.4 -33.4 65 -37.8 17.4 E 0.29 19.1 E -50.5 -33.5 -50.6 734.3 0.036 0.000 15.7 2 -33.8 12.4 0.55 .0737 24 1 100.0 1
08/06/23 7:30 -33.4 -33.4 -33.4 65 -37.7 17.4 E 0.29 19.1 E -50.4 -33.4 -50.5 734.4 0.036 0.000 15.7 2 -33.8 12.4 0.55 .0737 23 1 100.0 1
08/06/23 7:31 -33.3 -33.3 -33.4 65 -37.7 17.4 E 0.29 18.3 E -50.3 -33.4 -50.4 734.4 0.036 0.000 15.7 2 -33.8 12.4 0.55 .0737 23 1 100.0 1
08/06/23 7:32 -33.4 -33.3 -33.4 65 -37.7 17.4 E 0.29 19.1 E -50.4 -33.4 -50.5 734.5 0.036 0.000 15.7 2 -33.8 12.4 0.55 .0737 24 1 100.0 1
08/06/23 7:33 -33.4 -33.4 -33.4 65 -37.8 16.5 ENE 0.28 17.4 ENE -50.2 -33.5 -50.2 734.5 0.036 0.000 15.7 2 -33.8 12.4 0.55 .0737 23 1 100.0 1
08/06/23 7:34 -33.5 -33.5 -33.5 65 -37.8 17.4 ENE 0.29 18.3 ENE -50.6 -33.6 -50.6 734.4 0.036 0.000 15.7 2 -33.8 12.4 0.55 .0737 24 1 100.0 1
08/06/23 7:35 -33.6 -33.5 -33.6 65 -37.9 16.5 ENE 0.28 17.4 ENE -50.3 -33.6 -50.3 734.4 0.036 0.000 15.7 2 -33.8 12.4 0.55 .0737 23 1 100.0 1
08/06/23 7:36 -33.6 -33.6 -33.6 65 -37.9 16.5 ENE 0.28 17.4 ENE -50.3 -33.6 -50.3 734.4 0.036 0.000 15.7 2 -33.8 12.4 0.55 .0737 24 1 100.0 1
08/06/23 7:37 -33.7 -33.6 -33.7 65 -38.0 16.5 ENE 0.28 18.3 ENE -50.4 -33.7 -50.5 734.3 0.036 0.000 15.7 2 -33.8 12.4 0.55 .0737 23 1 100.0 1
08/06/23 7:38 -33.8 -33.7 -33.8 66 -37.9 17.4 ENE 0.29 18.3 ENE -50.9 -33.8 -51.0 734.3 0.036 0.000 15.7 2 -33.8 12.4 0.55 .0737 23 1 100.0 1
08/06/23 7:39 -33.8 -33.7 -33.8 66 -37.9 17.4 ENE 0.29 18.3 ENE -50.9 -33.8 -51.0 734.3 0.036 0.000 15.7 2 -33.8 12.4 0.55 .0737 24 1 100.0 1
08/06/23 7:40 -33.8 -33.8 -33.8 66 -38.0 16.5 ENE 0.28 18.3 ENE -50.7 -33.9 -50.7 734.3 0.036 0.000 15.7 2 -33.8 12.4 0.55 .0737 23 1 100.0 1
08/06/23 7:41 -33.9 -33.9 -33.9 66 -38.1 15.7 ENE 0.26 17.4 ENE -50.4 -34.0 -50.5 734.4 0.036 0.000 15.6 2 -33.8 12.3 0.55 .0738 24 1 100.0 1
08/06/23 7:42 -34.1 -33.9 -34.1 66 -38.2 16.5 ENE 0.28 18.3 ENE -50.9 -34.1 -51.0 734.3 0.036 0.000 15.7 2 -33.8 12.4 0.55 .0737 23 1 100.0 1
08/06/23 7:43 -34.1 -34.1 -34.1 66 -38.3 17.4 ENE 0.29 18.3 ENE -51.4 -34.2 -51.4 734.3 0.036 0.000 15.7 2 -33.8 12.4 0.55 .0737 23 1 100.0 1
08/06/23 7:44 -34.1 -34.1 -34.1 67 -38.1 16.5 ENE 0.28 17.4 ENE -50.9 -34.1 -51.0 734.3 0.036 0.000 15.7 2 -33.8 12.4 0.55 .0737 24 1 100.0 1
08/06/23 7:45 -34.2 -34.1 -34.2 67 -38.2 15.7 ENE 0.26 17.4 ENE -50.7 -34.2 -50.8 734.4 0.036 0.000 15.6 2 -33.8 12.3 0.55 .0738 23 1 100.0 1
08/06/23 7:46 -34.2 -34.2 -34.2 67 -38.2 17.4 ENE 0.29 19.1 ENE -51.5 -34.3 -51.6 734.4 0.036 0.000 15.6 2 -33.8 12.3 0.55 .0738 24 1 100.0 1
08/06/23 7:47 -34.1 -34.1 -34.2 67 -38.1 16.5 ENE 0.28 18.3 ENE -51.0 -34.2 -51.1 734.4 0.036 0.000 15.6 2 -33.8 12.3 0.55 .0738 23 1 100.0 1
08/06/23 7:48 -34.1 -34.1 -34.1 67 -38.1 16.5 ENE 0.28 18.3 ENE -50.9 -34.1 -51.0 734.4 0.036 0.000 15.6 2 -33.8 12.3 0.55 .0738 23 1 100.0 1
08/06/23 7:49 -34.0 -34.0 -34.1 66 -38.2 17.4 ENE 0.29 19.1 ENE -51.2 -34.1 -51.3 734.4 0.036 0.000 15.6 2 -33.8 12.3 0.55 .0738 24 1 100.0 1
08/06/23 7:50 -33.8 -33.8 -33.9 66 -38.0 18.3 ENE 0.30 20.0 ENE -51.3 -33.9 -51.4 734.4 0.036 0.000 15.6 2 -33.8 12.3 0.55 .0737 23 1 100.0 1
08/06/23 7:51 -33.8 -33.8 -33.8 66 -38.0 16.5 ENE 0.28 18.3 ENE -50.7 -33.9 -50.7 734.4 0.036 0.000 15.6 2 -33.8 12.3 0.55 .0738 24 1 100.0 1
08/06/23 7:52 -34.0 -33.9 -34.0 66 -38.2 18.3 ENE 0.30 20.9 ENE -51.6 -34.1 -51.6 734.4 0.036 0.000 15.6 2 -33.8 12.3 0.55 .0738 23 1 100.0 1
08/06/23 7:53 -34.1 -34.0 -34.1 66 -38.2 18.3 ENE 0.30 20.0 ENE -51.6 -34.1 -51.7 734.4 0.036 0.000 15.6 2 -33.8 12.3 0.55 .0738 24 1 100.0 1
08/06/23 7:54 -34.1 -34.1 -34.2 66 -38.3 17.4 ENE 0.29 20.0 ENE -51.4 -34.2 -51.4 734.4 0.036 0.000 15.6 2 -33.8 12.3 0.55 .0738 23 1 100.0 1
08/06/23 7:55 -34.2 -34.2 -34.2 66 -38.4 15.7 ENE 0.26 17.4 ENE -50.8 -34.3 -50.8 734.4 0.036 0.000 15.6 2 -33.8 12.3 0.55 .0738 23 1 100.0 1
08/06/23 7:56 -34.3 -34.3 -34.3 66 -38.5 15.7 ENE 0.26 17.4 ENE -50.9 -34.4 -51.0 734.4 0.037 0.000 15.6 2 -33.8 12.3 0.55 .0737 24 1 100.0 1
08/06/23 7:57 -34.4 -34.4 -34.4 66 -38.6 16.5 ENE 0.28 18.3 ENE -51.4 -34.5 -51.5 734.4 0.037 0.000 15.6 2 -33.8 12.3 0.55 .0738 23 1 100.0 1
08/06/23 7:58 -34.4 -34.4 -34.4 66 -38.6 16.5 ENE 0.28 19.1 ENE -51.4 -34.5 -51.5 734.4 0.037 0.000 15.6 2 -33.8 12.3 0.55 .0738 24 1 100.0 1
08/06/23 7:59 -34.4 -34.4 -34.4 66 -38.5 18.3 ENE 0.30 20.0 ENE -52.1 -34.4 -52.1 734.4 0.037 0.000 15.6 2 -33.8 12.3 0.55 .0737 23 1 100.0 1
08/06/23 8:00 -34.3 -34.3 -34.4 66 -38.4 19.1 ENE 0.32 20.0 ENE -52.3 -34.3 -52.3 734.3 0.037 0.000 15.6 2 -33.8 12.3 0.55 .0737 23 1 100.0 1
08/06/23 8:01 -34.1 -34.1 -34.3 66 -38.3 17.4 ENE 0.29 20.0 ENE -51.4 -34.2 -51.4 734.4 0.036 0.000 15.6 2 -33.8 12.3 0.55 .0737 24 1 100.0 1
08/06/23 8:02 -34.0 -34.0 -34.1 67 -38.0 17.4 ENE 0.29 19.1 ENE -51.2 -34.1 -51.3 734.4 0.036 0.000 15.6 2 -33.8 12.3 0.55 .0738 23 1 100.0 1
08/06/23 8:03 -33.8 -33.8 -34.0 67 -37.8 17.4 ENE 0.29 20.0 ENE -51.0 -33.9 -51.1 734.4 0.036 0.000 15.6 2 -33.8 12.3 0.55 .0738 24 1 100.0 1
08/06/23 8:04 -33.8 -33.8 -33.8 67 -37.8 16.5 ENE 0.28 19.1 ENE -50.6 -33.8 -50.6 734.4 0.036 0.000 15.6 2 -33.8 12.3 0.55 .0738 23 1 100.0 1
08/06/23 8:05 -33.8 -33.8 -33.8 67 -37.8 15.7 ENE 0.26 17.4 ENE -50.2 -33.8 -50.3 734.5 0.036 0.000 15.6 2 -33.8 12.3 0.55 .0738 23 1 100.0 1
08/06/23 8:06 -33.8 -33.8 -33.8 66 -37.9 16.5 ENE 0.28 17.4 ENE -50.6 -33.8 -50.6 734.5 0.036 0.000 15.6 2 -33.8 12.3 0.55 .0738 24 1 100.0 1
08/06/23 8:07 -33.7 -33.7 -33.8 66 -37.9 15.7 ENE 0.26 17.4 ENE -50.2 -33.8 -50.2 734.5 0.036 0.000 15.6 2 -33.8 12.3 0.55 .0738 23 1 100.0 1
08/06/23 8:08 -33.6 -33.6 -33.7 66 -37.8 16.5 ENE 0.28 18.3 ENE -50.4 -33.7 -50.4 734.5 0.036 0.000 15.6 2 -33.8 12.3 0.55 .0738 24 1 100.0 1
08/06/23 8:09 -33.5 -33.5 -33.6 66 -37.7 17.4 ENE 0.29 18.3 ENE -50.6 -33.6 -50.6 734.5 0.036 0.000 15.6 2 -33.8 12.3 0.55 .0738 23 1 100.0 1
08/06/23 8:10 -33.5 -33.5 -33.5 66 -37.7 17.4 ENE 0.29 18.3 ENE -50.6 -33.6 -50.6 734.5 0.036 0.000 15.6 2 -33.8 12.3 0.55 .0738 24 1 100.0 1
08/06/23 8:11 -33.5 -33.5 -33.5 66 -37.7 15.7 ENE 0.26 17.4 ENE -49.8 -33.6 -49.9 734.5 0.036 0.000 15.6 2 -33.8 12.3 0.55 .0738 23 1 100.0 1
08/06/23 8:12 -33.5 -33.5 -33.5 66 -37.7 16.5 ENE 0.28 18.3 ENE -50.2 -33.6 -50.3 734.5 0.036 0.000 15.6 2 -33.8 12.3 0.55 .0738 23 1 100.0 1
08/06/23 8:13 -33.4 -33.4 -33.5 66 -37.6 16.5 ENE 0.28 18.3 ENE -50.2 -33.5 -50.2 734.5 0.036 0.000 15.6 2 -33.8 12.3 0.55 .0738 24 1 100.0 1
08/06/23 8:14 -33.4 -33.4 -33.4 65 -37.8 16.5 ENE 0.28 17.4 ENE -50.2 -33.5 -50.2 734.5 0.036 0.000 15.6 2 -33.8 12.3 0.55 .0738 23 1 100.0 1
08/06/23 8:15 -33.4 -33.4 -33.4 65 -37.7 16.5 ENE 0.28 18.3 ENE -50.1 -33.4 -50.1 734.5 0.036 0.000 15.6 2 -33.9 12.3 0.55 .0738 24 1 100.0 1
08/06/23 8:16 -33.3 -33.3 -33.4 65 -37.7 16.5 ENE 0.28 18.3 ENE -50.0 -33.4 -50.1 734.5 0.036 0.000 15.6 2 -33.8 12.3 0.55 .0738 23 1 100.0 1
08/06/23 8:17 -33.4 -33.3 -33.4 65 -37.8 16.5 ENE 0.28 18.3 ENE -50.2 -33.5 -50.2 734.6 0.036 0.000 15.6 2 -33.9 12.3 0.55 .0738 23 1 100.0 1
08/06/23 8:18 -33.4 -33.4 -33.4 65 -37.8 16.5 ENE 0.28 18.3 ENE -50.2 -33.5 -50.2 734.6 0.036 0.000 15.6 2 -33.8 12.3 0.55 .0738 24 1 100.0 1
08/06/23 8:19 -33.5 -33.4 -33.5 65 -37.8 17.4 ENE 0.29 18.3 ENE -50.6 -33.6 -50.6 734.6 0.036 0.000 15.6 2 -33.8 12.3 0.55 .0738 23 1 100.0 1
08/06/23 8:20 -33.4 -33.4 -33.4 65 -37.8 16.5 ENE 0.28 19.1 ENE -50.2 -33.5 -50.2 734.6 0.036 0.000 15.6 2 -33.9 12.3 0.55 .0738 24 1 100.0 1
08/06/23 8:21 -33.4 -33.4 -33.4 65 -37.8 16.5 ENE 0.28 18.3 ENE -50.2 -33.5 -50.2 734.7 0.036 0.000 15.6 2 -33.9 12.3 0.55 .0738 23 1 100.0 1
08/06/23 8:22 -33.4 -33.4 -33.4 65 -37.8 15.7 ENE 0.26 17.4 ENE -49.8 -33.5 -49.8 734.7 0.036 0.000 15.6 2 -33.9 12.3 0.55 .0738 23 1 100.0 1
08/06/23 8:23 -33.5 -33.4 -33.5 65 -37.8 16.5 ENE 0.28 17.4 ENE -50.2 -33.6 -50.3 734.7 0.036 0.000 15.6 2 -33.9 12.3 0.55 .0738 24 1 100.0 1
08/06/23 8:24 -33.5 -33.5 -33.5 65 -37.8 17.4 ENE 0.29 19.1 ENE -50.6 -33.6 -50.6 734.6 0.036 0.000 15.6 2 -33.9 12.3 0.55 .0738 23 1 100.0 1
08/06/23 8:25 -33.6 -33.5 -33.6 65 -37.9 18.3 ENE 0.30 19.1 ENE -51.0 -33.6 -51.1 734.6 0.036 0.000 15.6 2 -33.9 12.3 0.55 .0738 24 1 100.0 1
08/06/23 8:26 -33.6 -33.6 -33.6 65 -37.9 17.4 ENE 0.29 18.3 ENE -50.7 -33.6 -50.7 734.6 0.036 0.000 15.6 2 -33.9 12.3 0.55 .0738 23 1 100.0 1
08/06/23 8:27 -33.5 -33.5 -33.6 65 -37.8 17.4 ENE 0.29 18.3 ENE -50.6 -33.6 -50.6 734.7 0.036 0.000 15.6 2 -33.9 12.3 0.55 .0738 24 1 100.0 1
08/06/23 8:28 -33.5 -33.5 -33.6 65 -37.8 15.7 ENE 0.26 16.5 ENE -49.8 -33.6 -49.9 734.7 0.036 0.000 15.6 2 -33.9 12.3 0.55 .0738 23 1 100.0 1
08/06/23 8:29 -33.6 -33.6 -33.6 65 -37.9 16.5 ENE 0.28 17.4 ENE -50.4 -33.7 -50.4 734.7 0.036 0.000 15.6 2 -33.9 12.3 0.55 .0738 23 1 100.0 1
08/06/23 8:30 -33.7 -33.6 -33.7 65 -38.0 16.5 ENE 0.28 17.4 ENE -50.5 -33.8 -50.6 734.7 0.036 0.000 15.6 2 -33.9 12.3 0.55 .0738 24 1 100.0 1
08/06/23 8:31 -33.7 -33.7 -33.7 65 -38.0 17.4 ENE 0.29 17.4 ENE -50.8 -33.8 -50.9 734.7 0.036 0.000 15.6 2 -33.9 12.3 0.55 .0738 23 1 100.0 1
08/06/23 8:32 -33.7 -33.7 -33.7 65 -38.0 16.5 ENE 0.28 18.3 ENE -50.5 -33.8 -50.6 734.7 0.036 0.000 15.6 2 -33.9 12.3 0.55 .0738 24 1 100.0 1
08/06/23 8:33 -33.6 -33.6 -33.7 65 -37.9 16.5 ENE 0.28 17.4 ENE -50.4 -33.7 -50.4 734.8 0.036 0.000 15.6 2 -33.8 12.3 0.55 .0738 23 1 100.0 1
08/06/23 8:34 -33.6 -33.6 -33.6 65 -37.9 15.7 ENE 0.26 17.4 ENE -50.0 -33.7 -50.1 734.8 0.036 0.000 15.6 2 -33.9 12.3 0.55 .0738 23 1 100.0 1
08/06/23 8:35 -33.6 -33.6 -33.6 66 -37.8 16.5 ENE 0.28 17.4 ENE -50.4 -33.7 -50.4 734.7 0.036 0.000 15.6 2 -33.9 12.3 0.55 .0738 24 1 100.0 1
08/06/23 8:36 -33.6 -33.6 -33.6 65 -37.9 16.5 ENE 0.28 17.4 ENE -50.4 -33.7 -50.4 734.8 0.036 0.000 15.6 2 -33.9 12.3 0.55 .0738 23 1 100.0 1
08/06/23 8:37 -33.5 -33.5 -33.6 65 -37.8 15.7 ENE 0.26 16.5 ENE -49.8 -33.6 -49.9 734.8 0.036 0.000 15.6 2 -33.9 12.3 0.55 .0738 24 1 100.0 1
08/06/23 8:38 -33.3 -33.3 -33.4 65 -37.7 15.7 ENE 0.26 16.5 ENE -49.6 -33.4 -49.7 734.8 0.036 0.000 15.6 2 -33.9 12.3 0.55 .0738 23 1 100.0 1
08/06/23 8:39 -33.2 -33.2 -33.3 65 -37.6 14.8 ENE 0.25 15.7 ENE -49.1 -33.3 -49.2 734.9 0.036 0.000 15.6 2 -33.9 12.3 0.55 .0738 24 1 100.0 1
08/06/23 8:40 -33.1 -33.1 -33.2 65 -37.5 15.7 ENE 0.26 16.5 E -49.3 -33.2 -49.4 734.8 0.036 0.000 15.6 2 -33.9 12.3 0.55 .0738 23 1 100.0 1
08/06/23 8:41 -32.9 -32.9 -33.1 65 -37.3 14.8 ENE 0.25 16.5 ENE -48.7 -33.0 -48.8 734.8 0.036 0.000 15.6 2 -33.9 12.3 0.55 .0738 23 1 100.0 1
08/06/23 8:42 -32.8 -32.8 -32.9 65 -37.2 14.8 ENE 0.25 15.7 ENE -48.6 -32.9 -48.7 734.9 0.036 0.000 15.6 2 -33.9 12.3 0.55 .0738 24 1 100.0 1
08/06/23 8:43 -32.8 -32.8 -32.8 65 -37.2 14.8 ENE 0.25 15.7 ENE -48.6 -32.9 -48.7 734.9 0.036 0.000 15.6 2 -33.9 12.3 0.55 .0738 23 1 100.0 1
08/06/23 8:44 -32.7 -32.7 -32.8 65 -37.1 14.8 ENE 0.25 15.7 ENE -48.4 -32.8 -48.5 734.8 0.035 0.000 15.6 2 -33.9 12.3 0.55 .0738 24 1 100.0 1
08/06/23 8:45 -32.7 -32.7 -32.7 64 -37.2 14.8 ENE 0.25 15.7 ENE -48.4 -32.8 -48.5 734.8 0.035 0.000 15.6 2 -33.9 12.3 0.55 .0738 23 1 100.0 1
08/06/23 8:46 -32.7 -32.7 -32.7 64 -37.2 14.8 ENE 0.25 15.7 ENE -48.4 -32.8 -48.5 734.8 0.035 0.000 15.6 2 -33.9 12.3 0.55 .0738 23 1 100.0 1
08/06/23 8:47 -33.0 -32.8 -33.0 64 -37.5 14.8 ENE 0.25 16.5 ENE -48.8 -33.1 -48.9 734.9 0.036 0.000 15.6 2 -33.9 12.3 0.55 .0738 24 1 100.0 1
08/06/23 8:48 -33.2 -33.1 -33.2 63 -37.9 14.8 ENE 0.25 16.5 ENE -49.1 -33.3 -49.2 734.9 0.036 0.000 15.6 2 -33.9 12.3 0.55 .0738 23 1 100.0 1
08/06/23 8:49 -33.4 -33.3 -33.4 63 -38.1 16.5 ENE 0.28 17.4 ENE -50.2 -33.5 -50.2 734.9 0.036 0.000 15.6 2 -33.9 12.3 0.55 .0738 24 1 100.0 1
08/06/23 8:50 -33.6 -33.5 -33.6 63 -38.2 15.7 ENE 0.26 17.4 ENE -50.0 -33.7 -50.1 735.0 0.036 0.000 15.6 2 -33.9 12.3 0.55 .0738 23 1 100.0 1
08/06/23 8:51 -33.8 -33.7 -33.8 63 -38.4 15.7 ENE 0.26 16.5 ENE -50.2 -33.8 -50.3 734.9 0.036 0.000 15.6 2 -33.9 12.3 0.55 .0738 23 1 100.0 1
08/06/23 8:52 -33.8 -33.8 -33.8 63 -38.5 16.5 ENE 0.28 17.4 ENE -50.7 -33.9 -50.7 734.9 0.036 0.000 15.6 2 -33.9 12.3 0.55 .0738 24 1 100.0 1
08/06/23 8:53 -33.9 -33.8 -33.9 63 -38.5 16.5 ENE 0.28 18.3 ENE -50.7 -33.9 -50.8 734.9 0.036 0.000 15.6 2 -33.9 12.3 0.55 .0738 23 1 100.0 1
08/06/23 8:54 -33.9 -33.9 -33.9 64 -38.4 15.7 ENE 0.26 17.4 ENE -50.4 -34.0 -50.5 734.9 0.036 0.000 15.6 2 -33.9 12.3 0.55 .0738 24 1 100.0 1
08/06/23 8:55 -33.9 -33.9 -33.9 64 -38.4 15.7 ENE 0.26 17.4 ENE -50.4 -34.0 -50.5 734.9 0.036 0.000 15.6 2 -33.9 12.3 0.55 .0738 23 1 100.0 1
08/06/23 8:56 -33.9 -33.9 -33.9 64 -38.4 16.5 ENE 0.28 18.3 ENE -50.8 -34.0 -50.8 734.9 0.036 0.000 15.6 2 -33.9 12.3 0.55 .0738 24 1 100.0 1
08/06/23 8:57 -33.9 -33.9 -33.9 64 -38.4 16.5 ENE 0.28 17.4 ENE -50.7 -33.9 -50.8 734.8 0.036 0.000 15.5 2 -33.9 12.3 0.55 .0738 23 1 100.0 1
08/06/23 8:58 -33.8 -33.8 -33.9 65 -38.1 17.4 ENE 0.29 18.3 ENE -51.0 -33.9 -51.1 734.9 0.036 0.000 15.5 2 -33.9 12.3 0.55 .0738 23 1 100.0 1
08/06/23 8:59 -33.7 -33.7 -33.8 65 -38.0 17.4 ENE 0.29 17.4 ENE -50.8 -33.8 -50.9 734.9 0.036 0.000 15.5 2 -33.9 12.3 0.55 .0738 24 1 100.0 1
08/06/23 9:00 -33.4 -33.4 -33.7 65 -37.8 17.4 ENE 0.29 19.1 ENE -50.5 -33.5 -50.6 734.9 0.036 0.000 15.5 2 -33.9 12.3 0.55 .0738 23 1 100.0 1
08/06/23 9:01 -33.2 -33.2 -33.3 65 -37.6 16.5 ENE 0.28 18.3 ENE -49.8 -33.3 -49.9 734.9 0.036 0.000 15.5 2 -33.9 12.3 0.55 .0738 24 1 100.0 1
08/06/23 9:02 -33.0 -33.0 -33.2 66 -37.2 16.5 ENE 0.28 17.4 ENE -49.6 -33.1 -49.6 734.9 0.036 0.000 15.5 2 -33.9 12.3 0.55 .0738 23 1 100.0 1
08/06/23 9:03 -33.1 -32.9 -33.1 66 -37.3 15.7 ENE 0.26 16.5 ENE -49.3 -33.1 -49.3 734.9 0.036 0.000 15.5 2 -33.9 12.3 0.55 .0738 23 1 100.0 1
08/06/23 9:04 -33.2 -33.1 -33.2 65 -37.6 16.5 ENE 0.28 17.4 ENE -49.8 -33.3 -49.9 734.9 0.036 0.000 15.5 2 -33.9 12.3 0.55 .0738 24 1 100.0 1
08/06/23 9:05 -33.1 -33.1 -33.2 65 -37.5 16.5 ENE 0.28 17.4 ENE -49.7 -33.2 -49.8 734.9 0.036 0.000 15.5 2 -33.9 12.3 0.55 .0738 23 1 100.0 1
08/06/23 9:06 -32.9 -32.9 -33.1 64 -37.4 15.7 ENE 0.26 15.7 ENE -49.1 -33.0 -49.2 734.9 0.036 0.000 15.5 2 -33.9 12.3 0.55 .0738 24 1 100.0 1
08/06/23 9:07 -32.9 -32.9 -32.9 64 -37.4 15.7 ENE 0.26 16.5 ENE -49.1 -32.9 -49.1 734.9 0.036 0.000 15.5 2 -33.9 12.3 0.55 .0738 23 1 100.0 1
08/06/23 9:08 -32.9 -32.8 -32.9 64 -37.4 14.8 ENE 0.25 15.7 ENE -48.7 -33.0 -48.8 734.9 0.036 0.000 15.5 2 -33.9 12.3 0.55 .0738 24 1 100.0 1
08/06/23 9:09 -33.0 -32.9 -33.0 64 -37.5 13.9 NE 0.23 15.7 ENE -48.4 -33.1 -48.5 734.9 0.036 0.000 15.5 2 -33.9 12.3 0.55 .0738 23 1 100.0 1
08/06/23 9:10 -33.1 -33.0 -33.1 64 -37.6 13.0 NE 0.22 15.7 NE -48.1 -33.1 -48.1 734.9 0.036 0.000 15.5 2 -33.9 12.3 0.55 .0738 23 1 100.0 1
08/06/23 9:11 -33.1 -33.1 -33.1 63 -37.8 13.0 ENE 0.22 14.8 ENE -48.1 -33.2 -48.2 734.9 0.036 0.000 15.5 2 -33.9 12.3 0.55 .0738 24 1 100.0 1
08/06/23 9:12 -33.1 -33.1 -33.1 63 -37.8 12.2 ENE 0.20 13.9 ENE -47.7 -33.2 -47.7 735.0 0.036 0.000 15.6 2 -33.9 12.3 0.55 .0738 23 1 100.0 1
08/06/23 9:13 -33.2 -33.2 -33.2 63 -37.8 12.2 ENE 0.20 13.9 ENE -47.8 -33.2 -47.8 735.0 0.036 0.000 15.5 2 -33.9 12.3 0.55 .0738 24 1 100.0 1
08/06/23 9:14 -32.8 -32.8 -33.2 63 -37.5 15.7 ENE 0.26 16.5 ENE -49.0 -32.9 -49.1 735.0 0.036 0.000 15.5 2 -33.9 12.3 0.55 .0738 23 1 100.0 1
08/06/23 9:15 -32.6 -32.6 -32.8 64 -37.1 14.8 ENE 0.25 15.7 ENE -48.2 -32.6 -48.3 735.0 0.035 0.000 15.5 2 -33.9 12.3 0.55 .0738 23 1 100.0 1
08/06/23 9:16 -32.3 -32.3 -32.5 64 -36.9 13.9 ENE 0.23 15.7 ENE -47.6 -32.4 -47.6 735.0 0.035 0.000 15.5 2 -33.9 12.3 0.55 .0738 24 1 100.0 1
08/06/23 9:17 -32.3 -32.3 -32.3 64 -36.9 12.2 ENE 0.20 14.8 ENE -46.7 -32.4 -46.8 735.0 0.035 0.000 15.5 2 -33.9 12.3 0.55 .0738 23 1 100.0 1
08/06/23 9:18 -32.3 -32.3 -32.3 64 -36.9 12.2 ENE 0.20 13.9 ENE -46.7 -32.4 -46.8 735.1 0.035 0.000 15.5 2 -33.9 12.3 0.55 .0738 24 1 100.0 1
08/06/23 9:19 -32.4 -32.4 -32.4 63 -37.1 12.2 ENE 0.20 13.0 ENE -46.8 -32.5 -46.9 735.1 0.035 0.000 15.5 2 -33.9 12.3 0.55 .0738 23 1 100.0 1
08/06/23 9:20 -32.4 -32.4 -32.4 63 -37.1 11.3 ENE 0.19 13.0 ENE -46.4 -32.5 -46.4 735.1 0.035 0.000 15.5 2 -33.9 12.3 0.55 .0738 23 1 100.0 1
08/06/23 9:21 -32.4 -32.4 -32.5 63 -37.1 13.0 ENE 0.22 15.7 ENE -47.3 -32.5 -47.3 735.1 0.035 0.000 15.5 2 -33.9 12.3 0.55 .0738 24 1 100.0 1
08/06/23 9:22 -32.3 -32.3 -32.4 63 -37.0 12.2 ENE 0.20 13.9 ENE -46.7 -32.4 -46.8 735.1 0.035 0.000 15.5 2 -33.9 12.3 0.55 .0738 23 1 100.0 1
08/06/23 9:23 -32.3 -32.3 -32.3 63 -37.0 12.2 ENE 0.20 13.9 ENE -46.6 -32.3 -46.7 735.1 0.035 0.000 15.5 2 -33.9 12.3 0.55 .0739 24 1 100.0 1
08/06/23 9:24 -32.3 -32.3 -32.3 63 -37.0 12.2 ENE 0.20 16.5 NE -46.6 -32.3 -46.7 735.1 0.035 0.000 15.5 2 -33.9 12.3 0.55 .0739 23 1 100.0 1
08/06/23 9:25 -31.8 -31.8 -32.2 63 -36.5 13.9 NE 0.23 16.5 ENE -46.9 -31.9 -46.9 735.2 0.035 0.000 15.5 2 -33.9 12.3 0.55 .0739 24 1 100.0 1
08/06/23 9:26 -31.3 -31.3 -31.7 63 -36.0 15.7 ENE 0.26 17.4 NE -46.9 -31.3 -47.0 735.1 0.034 0.000 15.5 2 -33.9 12.3 0.55 .0739 23 1 100.0 1
08/06/23 9:27 -30.8 -30.8 -31.2 64 -35.4 15.7 ENE 0.26 18.3 NE -46.3 -30.8 -46.4 735.1 0.034 0.000 15.5 2 -33.9 12.3 0.55 .0738 23 1 100.0 1
08/06/23 9:28 -30.6 -30.6 -30.8 64 -35.2 14.8 NE 0.25 16.5 NE -45.7 -30.6 -45.7 735.1 0.034 0.000 15.5 2 -33.9 12.3 0.55 .0739 24 1 100.0 1
08/06/23 9:29 -30.4 -30.4 -30.5 64 -35.1 14.8 NE 0.25 15.7 NE -45.5 -30.5 -45.6 735.1 0.034 0.000 15.5 2 -33.9 12.3 0.55 .0738 23 1 100.0 1
08/06/23 9:30 -30.2 -30.2 -30.4 63 -35.0 17.4 NE 0.29 20.0 NE -46.3 -30.3 -46.3 735.1 0.034 0.000 15.5 2 -33.9 12.3 0.55 .0738 24 1 100.0 1
08/06/23 9:31 -30.1 -30.1 -30.2 63 -34.8 15.7 NE 0.26 18.3 NE -45.4 -30.1 -45.4 735.1 0.034 0.000 15.5 2 -33.9 12.3 0.55 .0739 23 1 100.0 1
08/06/23 9:32 -29.9 -29.9 -30.0 62 -34.9 15.7 NE 0.26 17.4 NE -45.2 -30.0 -45.3 735.1 0.034 0.000 15.5 2 -33.9 12.3 0.55 .0739 23 1 100.0 1
08/06/23 9:33 -29.8 -29.8 -29.9 62 -34.7 17.4 NE 0.29 20.0 NE -45.7 -29.8 -45.7 735.1 0.033 0.000 15.5 2 -33.9 12.3 0.55 .0739 24 1 100.0 1
08/06/23 9:34 -29.7 -29.7 -29.8 61 -34.9 15.7 NE 0.26 17.4 NE -44.9 -29.8 -45.0 735.1 0.033 0.000 15.5 2 -33.9 12.3 0.55 .0739 23 1 100.0 1
08/06/23 9:35 -29.7 -29.7 -29.7 61 -34.8 15.7 NE 0.26 17.4 ENE -44.9 -29.7 -44.9 735.1 0.033 0.000 15.5 2 -33.9 12.3 0.55 .0739 24 1 100.0 1
08/06/23 9:36 -29.7 -29.7 -29.7 60 -35.0 13.9 NE 0.23 15.7 ENE -44.1 -29.7 -44.2 735.2 0.033 0.000 15.5 2 -33.9 12.3 0.55 .0739 23 1 100.0 1
08/06/23 9:37 -29.7 -29.7 -29.7 60 -35.0 14.8 NE 0.25 16.5 NE -44.5 -29.7 -44.6 735.2 0.033 0.000 15.5 2 -33.9 12.3 0.55 .0739 24 1 100.0 1
08/06/23 9:38 -29.7 -29.7 -29.7 60 -35.0 16.5 NE 0.28 18.3 NE -45.3 -29.8 -45.3 735.2 0.033 0.000 15.5 2 -33.9 12.3 0.55 .0739 23 1 100.0 1
08/06/23 9:39 -29.7 -29.7 -29.7 59 -35.2 15.7 ENE 0.26 17.4 ENE -44.9 -29.8 -45.0 735.2 0.033 0.000 15.5 2 -33.9 12.3 0.55 .0739 23 1 100.0 1
08/06/23 9:40 -29.7 -29.7 -29.8 59 -35.1 17.4 NE 0.29 18.3 NE -45.6 -29.7 -45.6 735.1 0.033 0.000 15.5 2 -33.9 12.3 0.55 .0739 24 1 100.0 1
08/06/23 9:41 -29.6 -29.6 -29.7 59 -35.1 14.8 NE 0.25 16.5 ENE -44.4 -29.7 -44.5 735.2 0.033 0.000 15.5 2 -33.9 12.3 0.55 .0739 23 1 100.0 1
08/06/23 9:42 -29.6 -29.6 -29.6 59 -35.0 14.8 NE 0.25 17.4 NE -44.3 -29.6 -44.4 735.2 0.033 0.000 15.5 2 -33.9 12.3 0.55 .0739 24 1 100.0 1
08/06/23 9:43 -29.6 -29.6 -29.6 59 -35.1 14.8 NE 0.25 17.4 ENE -44.4 -29.7 -44.5 735.2 0.033 0.000 15.5 2 -33.9 12.3 0.55 .0739 23 1 100.0 1
08/06/23 9:44 -29.6 -29.6 -29.6 59 -35.1 14.8 NE 0.25 17.4 NE -44.4 -29.7 -44.5 735.2 0.033 0.000 15.5 2 -33.9 12.3 0.55 .0739 23 1 100.0 1
08/06/23 9:45 -29.6 -29.6 -29.6 59 -35.0 15.7 NE 0.26 18.3 NE -44.7 -29.6 -44.8 735.2 0.033 0.000 15.5 2 -33.9 12.3 0.55 .0739 24 1 100.0 1
08/06/23 9:46 -29.6 -29.6 -29.6 59 -35.0 15.7 NE 0.26 17.4 NE -44.7 -29.6 -44.8 735.2 0.033 0.000 15.5 2 -33.9 12.3 0.55 .0739 23 1 100.0 1
08/06/23 9:47 -29.5 -29.5 -29.6 59 -35.0 16.5 NE 0.28 17.4 NE -45.0 -29.6 -45.1 735.2 0.033 0.000 15.5 2 -33.9 12.3 0.55 .0739 24 1 100.0 1
08/06/23 9:48 -29.5 -29.4 -29.5 59 -35.0 15.7 NE 0.26 18.3 NE -44.7 -29.6 -44.7 735.3 0.033 0.000 15.5 2 -33.9 12.3 0.55 .0739 23 1 100.0 1
08/06/23 9:49 -29.5 -29.5 -29.5 59 -35.0 15.7 NE 0.26 17.4 NE -44.7 -29.6 -44.7 735.3 0.033 0.000 15.5 2 -33.9 12.3 0.55 .0739 23 1 100.0 1
08/06/23 9:50 -29.6 -29.6 -29.6 58 -35.2 15.7 NE 0.26 18.3 NE -44.7 -29.6 -44.8 735.3 0.033 0.000 15.5 2 -33.9 12.3 0.55 .0739 24 1 100.0 1
08/06/23 9:51 -29.5 -29.5 -29.6 58 -35.1 15.7 NE 0.26 17.4 NE -44.7 -29.6 -44.7 735.3 0.033 0.000 15.5 2 -33.9 12.3 0.55 .0739 23 1 100.0 1
08/06/23 9:52 -29.4 -29.4 -29.5 58 -35.1 14.8 NE 0.25 18.3 NE -44.2 -29.5 -44.3 735.3 0.033 0.000 15.5 2 -33.9 12.3 0.55 .0739 24 1 100.0 1
08/06/23 9:53 -29.3 -29.3 -29.4 59 -34.8 15.7 NE 0.26 17.4 NE -44.3 -29.3 -44.4 735.3 0.033 0.000 15.5 2 -33.9 12.3 0.55 .0739 23 1 100.0 1
08/06/23 9:54 -29.3 -29.3 -29.3 59 -34.8 14.8 NE 0.25 17.4 NE -44.0 -29.3 -44.1 735.3 0.033 0.000 15.5 2 -33.9 12.3 0.55 .0739 24 1 100.0 1
08/06/23 9:55 -29.3 -29.3 -29.3 58 -34.9 13.9 NE 0.23 16.5 NE -43.6 -29.3 -43.7 735.3 0.033 0.000 15.5 2 -33.9 12.3 0.55 .0739 23 1 100.0 1
08/06/23 9:56 -29.3 -29.3 -29.3 58 -35.0 15.7 NE 0.26 16.5 ENE -44.4 -29.4 -44.5 735.3 0.033 0.000 15.5 2 -33.9 12.3 0.55 .0739 23 1 100.0 1
08/06/23 9:57 -29.5 -29.4 -29.5 58 -35.1 15.7 NE 0.26 17.4 NE -44.7 -29.6 -44.7 735.3 0.033 0.000 15.5 2 -33.9 12.3 0.55 .0739 24 1 100.0 1
08/06/23 9:58 -29.6 -29.5 -29.6 58 -35.2 16.5 NE 0.28 18.3 NE -45.1 -29.6 -45.1 735.3 0.033 0.000 15.5 2 -33.9 12.3 0.55 .0739 23 1 100.0 1
08/06/23 9:59 -29.5 -29.5 -29.6 58 -35.1 15.7 NE 0.26 16.5 ENE -44.7 -29.6 -44.7 735.3 0.033 0.000 15.5 2 -33.9 12.3 0.55 .0739 24 1 100.0 1
08/06/23 10:00 -29.4 -29.4 -29.5 58 -35.1 16.5 NE 0.28 18.3 NE -44.9 -29.5 -45.0 735.3 0.033 0.000 15.5 2 -33.9 12.3 0.55 .0739 23 1 100.0 1
08/06/23 10:01 -29.3 -29.3 -29.4 58 -35.0 16.5 NE 0.28 18.3 NE -44.8 -29.4 -44.8 735.3 0.033 0.000 15.5 2 -33.9 12.3 0.55 .0739 23 1 100.0 1
08/06/23 10:02 -29.3 -29.3 -29.3 58 -34.9 15.7 NE 0.26 17.4 NE -44.3 -29.3 -44.4 735.3 0.033 0.000 15.5 2 -33.9 12.3 0.55 .0739 24 1 100.0 1
08/06/23 10:03 -29.2 -29.2 -29.3 58 -34.9 14.8 NE 0.25 15.7 NE -43.9 -29.3 -44.0 735.3 0.033 0.000 15.5 2 -33.9 12.3 0.55 .0739 23 1 100.0 1
08/06/23 10:04 -29.1 -29.1 -29.2 58 -34.8 14.8 NE 0.25 15.7 NE -43.8 -29.2 -43.8 735.3 0.033 0.000 15.5 2 -33.9 12.3 0.55 .0739 24 1 100.0 1
08/06/23 10:05 -29.1 -29.1 -29.1 58 -34.7 15.7 NE 0.26 17.4 NE -44.1 -29.1 -44.1 735.4 0.033 0.000 15.5 2 -33.9 12.3 0.55 .0739 23 1 100.0 1
08/06/23 10:06 -29.0 -29.0 -29.1 58 -34.7 14.8 NE 0.25 16.5 NE -43.7 -29.1 -43.7 735.4 0.033 0.000 15.5 2 -33.9 12.3 0.55 .0739 23 1 100.0 1
08/06/23 10:07 -29.0 -29.0 -29.0 58 -34.7 14.8 NE 0.25 17.4 NE -43.7 -29.1 -43.7 735.3 0.033 0.000 15.4 2 -33.9 12.2 0.55 .0739 24 1 100.0 1
08/06/23 10:08 -28.9 -28.9 -29.0 58 -34.6 14.8 NE 0.25 15.7 ENE -43.6 -29.0 -43.6 735.3 0.033 0.000 15.5 2 -33.9 12.3 0.55 .0739 23 1 100.0 1
08/06/23 10:09 -28.9 -28.9 -28.9 58 -34.6 13.9 NE 0.23 15.7 NE -43.2 -29.0 -43.3 735.4 0.033 0.000 15.5 2 -33.9 12.3 0.55 .0739 24 1 100.0 1
08/06/23 10:10 -28.9 -28.9 -28.9 58 -34.6 13.0 NE 0.22 14.8 NE -42.8 -29.0 -42.8 735.4 0.033 0.000 15.5 2 -33.9 12.3 0.55 .0739 23 1 100.0 1
08/06/23 10:11 -28.9 -28.9 -28.9 58 -34.6 14.8 NE 0.25 15.7 NE -43.6 -29.0 -43.6 735.3 0.033 0.000 15.5 2 -33.9 12.3 0.55 .0739 24 1 100.0 1
08/06/23 10:12 -28.9 -28.9 -28.9 58 -34.6 14.8 NE 0.25 15.7 NE -43.5 -28.9 -43.6 735.3 0.033 0.000 15.5 2 -33.9 12.3 0.55 .0739 23 1 100.0 1
08/06/23 10:13 -28.8 -28.8 -28.8 58 -34.5 13.9 NE 0.23 15.7 NE -43.1 -28.9 -43.1 735.3 0.033 0.000 15.5 2 -33.9 12.3 0.55 .0739 23 1 100.0 1
08/06/23 10:14 -28.8 -28.8 -28.8 58 -34.5 13.0 NE 0.22 14.8 NE -42.7 -28.9 -42.7 735.3 0.033 0.000 15.5 2 -33.9 12.3 0.55 .0739 24 1 100.0 1
08/06/23 10:15 -28.7 -28.7 -28.8 59 -34.2 12.2 NE 0.20 13.0 NE -42.1 -28.8 -42.2 735.3 0.033 0.000 15.5 2 -33.9 12.3 0.55 .0739 23 1 100.0 1
08/06/23 10:16 -28.7 -28.7 -28.7 59 -34.2 12.2 NE 0.20 13.9 NE -42.1 -28.7 -42.1 735.3 0.033 0.000 15.4 2 -33.9 12.2 0.55 .0739 24 1 100.0 1
08/06/23 10:17 -28.7 -28.7 -28.7 59 -34.2 13.0 NE 0.22 13.9 NE -42.5 -28.8 -42.6 735.4 0.033 0.000 15.5 2 -33.9 12.3 0.55 .0739 23 1 100.0 1
08/06/23 10:18 -28.8 -28.7 -28.8 59 -34.3 13.0 NE 0.22 13.9 NE -42.6 -28.8 -42.7 735.3 0.033 0.000 15.5 2 -33.9 12.3 0.55 .0739 24 1 100.0 1
08/06/23 10:19 -28.8 -28.8 -28.8 58 -34.5 13.0 NE 0.22 13.9 NE -42.6 -28.8 -42.7 735.4 0.033 0.000 15.5 2 -33.9 12.3 0.55 .0739 23 1 100.0 1
08/06/23 10:20 -28.7 -28.7 -28.8 58 -34.4 12.2 NE 0.20 13.9 NNE -42.1 -28.7 -42.1 735.4 0.033 0.000 15.5 2 -33.9 12.3 0.55 .0739 23 1 100.0 1
08/06/23 10:21 -28.6 -28.6 -28.7 59 -34.1 12.2 NE 0.20 13.9 NE -41.9 -28.7 -42.0 735.4 0.033 0.000 15.5 2 -33.9 12.3 0.55 .0739 24 1 100.0 1
08/06/23 10:22 -28.6 -28.6 -28.6 59 -34.1 13.0 NE 0.22 14.8 NE -42.4 -28.7 -42.4 735.4 0.033 0.000 15.5 2 -33.9 12.3 0.55 .0739 23 1 100.0 1
08/06/23 10:23 -28.7 -28.6 -28.7 59 -34.2 13.0 NE 0.22 14.8 NE -42.4 -28.7 -42.5 735.4 0.033 0.000 15.5 2 -33.9 12.3 0.55 .0739 24 1 100.0 1
08/06/23 10:24 -28.7 -28.7 -28.7 59 -34.2 12.2 NE 0.20 13.0 NE -42.1 -28.8 -42.2 735.4 0.033 0.000 15.5 2 -33.9 12.3 0.55 .0739 23 1 100.0 1
08/06/23 10:25 -28.8 -28.7 -28.8 59 -34.3 12.2 NE 0.20 13.9 NE -42.2 -28.8 -42.2 735.4 0.033 0.000 15.5 2 -33.9 12.3 0.55 .0739 23 1 100.0 1
08/06/23 10:26 -28.8 -28.8 -28.8 59 -34.3 13.0 NE 0.22 14.8 NE -42.7 -28.9 -42.7 735.4 0.033 0.000 15.5 2 -33.9 12.3 0.55 .0739 24 1 100.0 1
08/06/23 10:27 -28.9 -28.8 -28.9 59 -34.4 13.9 NE 0.23 15.7 NE -43.1 -28.9 -43.2 735.4 0.033 0.000 15.5 2 -33.9 12.3 0.55 .0739 23 1 100.0 1
08/06/23 10:28 -28.9 -28.8 -28.9 59 -34.4 14.8 NE 0.25 15.7 NE -43.5 -28.9 -43.6 735.4 0.033 0.000 15.5 2 -33.9 12.3 0.55 .0739 24 1 100.0 1
08/06/23 10:29 -28.9 -28.9 -28.9 59 -34.4 13.9 NE 0.23 14.8 NE -43.2 -29.0 -43.3 735.4 0.033 0.000 15.5 2 -33.9 12.3 0.55 .0739 23 1 100.0 1
08/06/23 10:30 -28.9 -28.9 -28.9 59 -34.4 13.9 NE 0.23 15.7 NE -43.2 -29.0 -43.3 735.4 0.033 0.000 15.4 2 -33.9 12.2 0.55 .0739 23 1 100.0 1
08/06/23 10:31 -29.0 -28.9 -29.0 59 -34.5 14.8 NE 0.25 15.7 NE -43.7 -29.1 -43.7 735.4 0.033 0.000 15.5 2 -33.9 12.3 0.55 .0739 24 1 100.0 1
08/06/23 10:32 -29.0 -29.0 -29.0 59 -34.5 14.8 NE 0.25 15.7 NE -43.7 -29.1 -43.7 735.5 0.033 0.000 15.5 2 -33.9 12.3 0.55 .0739 23 1 100.0 1
08/06/23 10:33 -29.1 -29.0 -29.1 59 -34.6 13.0 NE 0.22 14.8 NE -42.9 -29.1 -43.0 735.5 0.033 0.000 15.5 2 -33.9 12.3 0.55 .0739 24 1 100.0 1
08/06/23 10:34 -29.2 -29.1 -29.2 59 -34.7 13.0 NE 0.22 13.9 NE -43.1 -29.2 -43.2 735.5 0.033 0.000 15.5 2 -33.9 12.3 0.55 .0739 23 1 100.0 1
08/06/23 10:35 -29.2 -29.2 -29.2 59 -34.7 12.2 NE 0.20 13.9 NE -42.7 -29.2 -42.7 735.5 0.033 0.000 15.5 2 -33.9 12.3 0.55 .0739 24 1 100.0 1
08/06/23 10:36 -29.2 -29.2 -29.2 59 -34.7 13.0 NE 0.22 14.8 NE -43.1 -29.2 -43.2 735.5 0.033 0.000 15.5 2 -33.9 12.3 0.55 .0739 23 1 100.0 1
08/06/23 10:37 -29.1 -29.1 -29.2 59 -34.6 12.2 NE 0.20 13.9 NE -42.5 -29.1 -42.6 735.5 0.033 0.000 15.4 2 -33.9 12.2 0.55 .0739 23 1 100.0 1
08/06/23 10:38 -29.0 -29.0 -29.1 60 -34.3 12.2 NE 0.20 13.0 NE -42.4 -29.1 -42.5 735.5 0.033 0.000 15.4 2 -33.9 12.2 0.55 .0739 24 1 100.0 1
08/06/23 10:39 -28.9 -28.9 -29.0 61 -34.1 11.3 NE 0.19 13.0 NE -41.9 -28.9 -41.9 735.5 0.033 0.000 15.5 2 -33.9 12.3 0.55 .0739 23 1 100.0 1
08/06/23 10:40 -28.8 -28.8 -28.8 61 -34.0 13.0 NE 0.22 13.9 NE -42.7 -28.9 -42.7 735.5 0.033 0.000 15.5 2 -33.9 12.3 0.55 .0739 24 1 100.0 1
08/06/23 10:41 -28.8 -28.8 -28.8 62 -33.8 13.0 NE 0.22 13.9 NE -42.6 -28.8 -42.7 735.4 0.033 0.000 15.5 2 -33.9 12.3 0.55 .0739 23 1 100.0 1
08/06/23 10:42 -28.8 -28.8 -28.8 62 -33.8 13.9 NE 0.23 14.8 NE -43.1 -28.9 -43.1 735.5 0.033 0.000 15.5 2 -33.9 12.3 0.55 .0739 23 1 100.0 1
08/06/23 10:43 -28.8 -28.8 -28.8 62 -33.8 13.0 NE 0.22 14.8 NE -42.6 -28.8 -42.7 735.5 0.033 0.000 15.5 2 -33.9 12.3 0.55 .0739 24 1 100.0 1
08/06/23 10:44 -28.8 -28.8 -28.8 62 -33.8 13.0 NE 0.22 14.8 NE -42.6 -28.8 -42.7 735.5 0.033 0.000 15.5 2 -33.9 12.3 0.55 .0739 23 1 100.0 1
08/06/23 10:45 -28.8 -28.8 -28.8 62 -33.8 13.0 NE 0.22 14.8 NE -42.7 -28.9 -42.7 735.5 0.033 0.000 15.5 2 -33.9 12.3 0.55 .0739 24 1 100.0 1
08/06/23 10:46 -28.8 -28.8 -28.8 62 -33.8 13.0 NE 0.22 13.9 NE -42.7 -28.9 -42.7 735.5 0.033 0.000 15.5 2 -33.9 12.3 0.55 .0739 23 1 100.0 1
08/06/23 10:47 -28.9 -28.8 -28.9 62 -33.9 13.0 NE 0.22 15.7 NE -42.7 -28.9 -42.8 735.5 0.033 0.000 15.5 2 -33.9 12.3 0.55 .0739 23 1 100.0 1
08/06/23 10:48 -28.9 -28.9 -28.9 62 -33.9 13.0 NE 0.22 13.9 NE -42.8 -29.0 -42.8 735.5 0.033 0.000 15.5 2 -33.9 12.3 0.55 .0739 24 1 100.0 1
08/06/23 10:49 -29.0 -28.9 -29.0 62 -34.0 13.0 NE 0.22 14.8 NE -42.9 -29.1 -42.9 735.5 0.033 0.000 15.5 2 -33.9 12.3 0.55 .0739 23 1 100.0 1
08/06/23 10:50 -29.1 -29.0 -29.1 61 -34.2 12.2 NE 0.20 13.0 NE -42.5 -29.1 -42.6 735.5 0.033 0.000 15.5 2 -33.9 12.3 0.55 .0739 24 1 100.0 1
08/06/23 10:51 -29.1 -29.1 -29.1 61 -34.3 13.0 NE 0.22 14.8 ENE -43.0 -29.2 -43.1 735.6 0.033 0.000 15.5 2 -33.9 12.3 0.55 .0739 23 1 100.0 1
08/06/23 10:52 -29.0 -29.0 -29.1 61 -34.2 12.2 NE 0.20 13.9 NE -42.4 -29.1 -42.5 735.5 0.033 0.000 15.5 2 -33.9 12.3 0.55 .0739 24 1 100.0 1
08/06/23 10:53 -29.0 -29.0 -29.0 61 -34.2 12.2 NE 0.20 13.9 NE -42.4 -29.1 -42.5 735.6 0.033 0.000 15.5 2 -33.9 12.3 0.55 .0739 23 1 100.0 1
08/06/23 10:54 -29.1 -29.0 -29.1 61 -34.2 13.0 NE 0.22 13.9 NE -42.9 -29.1 -43.0 735.6 0.033 0.000 15.5 2 -33.9 12.3 0.55 .0739 23 1 100.0 1
08/06/23 10:55 -29.2 -29.1 -29.2 61 -34.3 12.2 NE 0.20 13.9 NE -42.7 -29.2 -42.7 735.6 0.033 0.000 15.5 2 -33.9 12.3 0.55 .0739 24 1 100.0 1
08/06/23 10:56 -29.2 -29.2 -29.2 61 -34.4 12.2 NE 0.20 13.9 NE -42.7 -29.3 -42.8 735.6 0.033 0.000 15.5 2 -33.9 12.3 0.55 .0739 23 1 100.0 1
08/06/23 10:57 -29.3 -29.3 -29.3 61 -34.4 13.9 NE 0.23 14.8 NE -43.6 -29.3 -43.7 735.6 0.033 0.000 15.5 2 -33.9 12.3 0.55 .0739 24 1 100.0 1
08/06/23 10:58 -29.2 -29.2 -29.3 61 -34.4 13.0 NE 0.22 14.8 NE -43.2 -29.3 -43.2 735.6 0.033 0.000 15.5 2 -33.9 12.3 0.55 .0739 23 1 100.0 1
08/06/23 10:59 -29.2 -29.2 -29.2 61 -34.3 12.2 NE 0.20 13.9 NE -42.7 -29.2 -42.7 735.6 0.033 0.000 15.5 2 -33.9 12.3 0.55 .0739 23 1 100.0 1
08/06/23 11:00 -29.2 -29.2 -29.2 62 -34.2 13.0 NE 0.22 13.0 NE -43.1 -29.2 -43.2 735.6 0.033 0.000 15.5 2 -33.9 12.3 0.55 .0739 24 1 100.0 1
08/06/23 11:01 -29.2 -29.2 -29.2 62 -34.2 11.3 NE 0.19 13.0 NE -42.2 -29.2 -42.3 735.6 0.033 0.000 15.5 2 -33.9 12.3 0.55 .0739 23 1 100.0 1
08/06/23 11:02 -29.2 -29.2 -29.2 62 -34.2 12.2 NE 0.20 13.9 NE -42.7 -29.2 -42.7 735.6 0.033 0.000 15.5 2 -33.9 12.3 0.55 .0739 24 1 100.0 1
08/06/23 11:03 -29.2 -29.2 -29.2 62 -34.2 13.0 NE 0.22 13.9 NE -43.2 -29.3 -43.2 735.6 0.033 0.000 15.5 2 -33.9 12.3 0.55 .0739 23 1 100.0 1
08/06/23 11:04 -29.2 -29.2 -29.2 62 -34.2 12.2 NE 0.20 13.0 NE -42.7 -29.3 -42.8 735.6 0.033 0.000 15.5 2 -33.9 12.3 0.55 .0739 23 1 100.0 1
08/06/23 11:05 -29.2 -29.2 -29.2 62 -34.2 12.2 NE 0.20 13.9 NE -42.7 -29.3 -42.8 735.6 0.033 0.000 15.5 2 -33.9 12.3 0.55 .0739 24 1 100.0 1
08/06/23 11:06 -29.2 -29.2 -29.2 62 -34.2 12.2 NE 0.20 13.9 NE -42.7 -29.2 -42.7 735.7 0.033 0.000 15.5 2 -33.9 12.3 0.55 .0739 23 1 100.0 1
08/06/23 11:07 -29.2 -29.2 -29.2 61 -34.3 12.2 NE 0.20 13.9 NE -42.7 -29.2 -42.7 735.7 0.033 0.000 15.5 2 -33.9 12.3 0.55 .0739 24 1 100.0 1
08/06/23 11:08 -29.1 -29.1 -29.2 62 -34.1 12.2 NE 0.20 13.9 NE -42.6 -29.2 -42.7 735.7 0.033 0.000 15.5 2 -33.9 12.3 0.55 .0739 23 1 100.0 1
08/06/23 11:09 -29.1 -29.1 -29.1 62 -34.0 12.2 NE 0.20 13.0 NE -42.5 -29.1 -42.6 735.8 0.033 0.000 15.5 2 -33.9 12.3 0.55 .0739 24 1 100.0 1
08/06/23 11:10 -29.1 -29.1 -29.1 62 -34.0 11.3 NE 0.19 12.2 NE -42.1 -29.1 -42.1 735.8 0.033 0.000 15.5 2 -33.9 12.3 0.55 .0739 23 1 100.0 1
08/06/23 11:11 -29.1 -29.1 -29.1 62 -34.0 10.4 NE 0.17 11.3 NE -41.6 -29.1 -41.7 735.8 0.033 0.000 15.5 2 -33.9 12.3 0.55 .0739 23 1 100.0 1
08/06/23 11:12 -29.0 -29.0 -29.1 63 -33.8 10.4 NE 0.17 11.3 NE -41.6 -29.1 -41.6 735.8 0.033 0.000 15.5 2 -33.9 12.3 0.55 .0739 24 1 100.0 1
08/06/23 11:13 -29.1 -29.0 -29.1 63 -33.9 10.4 NE 0.17 11.3 NE -41.6 -29.1 -41.7 735.8 0.033 0.000 15.5 2 -33.9 12.3 0.55 .0739 23 1 100.0 1
08/06/23 11:14 -29.1 -29.1 -29.1 63 -33.9 10.4 NE 0.17 11.3 NE -41.6 -29.1 -41.7 735.9 0.033 0.000 15.5 2 -33.9 12.3 0.55 .0739 24 1 100.0 1
08/06/23 11:15 -29.1 -29.1 -29.1 63 -33.9 9.6 NE 0.16 10.4 NE -41.1 -29.1 -41.2 735.9 0.033 0.000 15.5 2 -33.9 12.3 0.55 .0739 23 1 100.0 1
08/06/23 11:16 -29.1 -29.1 -29.1 63 -33.9 9.6 NE 0.16 10.4 NE -41.1 -29.1 -41.2 735.9 0.033 0.000 15.5 2 -33.9 12.3 0.55 .0739 23 1 100.0 1
08/06/23 11:17 -29.1 -29.1 -29.1 63 -33.9 9.6 NE 0.16 10.4 NE -41.2 -29.2 -41.2 735.9 0.033 0.000 15.5 2 -33.9 12.3 0.55 .0739 24 1 100.0 1
08/06/23 11:18 -29.1 -29.1 -29.1 63 -33.9 8.7 NE 0.14 9.6 NE -40.6 -29.2 -40.7 735.9 0.033 0.000 15.5 2 -33.9 12.3 0.55 .0739 23 1 100.0 1
08/06/23 11:19 -29.1 -29.1 -29.1 63 -33.9 8.7 NE 0.14 9.6 NE -40.6 -29.2 -40.7 735.9 0.033 0.000 15.5 2 -33.9 12.3 0.55 .0739 24 1 100.0 1
08/06/23 11:20 -29.0 -29.0 -29.1 64 -33.7 8.7 NE 0.14 9.6 NE -40.5 -29.1 -40.6 735.9 0.033 0.000 15.5 2 -33.9 12.3 0.55 .0739 23 1 100.0 1
08/06/23 11:21 -28.9 -28.9 -29.0 64 -33.6 8.7 NE 0.14 9.6 NE -40.4 -29.0 -40.4 735.9 0.033 0.000 15.5 2 -33.9 12.3 0.55 .0739 24 1 100.0 1
08/06/23 11:22 -28.8 -28.8 -28.9 64 -33.5 7.8 NE 0.13 8.7 NE -39.7 -28.9 -39.7 736.0 0.033 0.000 15.5 2 -33.9 12.3 0.55 .0739 23 1 100.0 1
08/06/23 11:23 -28.7 -28.7 -28.8 64 -33.4 7.0 NE 0.12 7.8 NE -38.9 -28.8 -38.9 735.9 0.033 0.000 15.5 2 -33.9 12.3 0.55 .0739 23 1 100.0 1
08/06/23 11:24 -28.6 -28.6 -28.7 65 -33.1 6.1 NNE 0.10 7.8 NNE -38.1 -28.7 -38.1 735.9 0.033 0.000 15.5 2 -33.9 12.3 0.55 .0739 24 1 100.0 1
08/06/23 11:25 -28.6 -28.6 -28.6 65 -33.1 7.0 NNE 0.12 7.8 NNE -38.7 -28.6 -38.7 735.9 0.033 0.000 15.5 2 -33.9 12.3 0.55 .0739 23 1 100.0 1
08/06/23 11:26 -28.5 -28.5 -28.6 65 -33.0 7.0 N 0.12 7.8 NNE -38.6 -28.6 -38.7 735.9 0.033 0.000 15.6 2 -33.9 12.3 0.55 .0739 24 1 100.0 1
08/06/23 11:27 -28.4 -28.4 -28.5 66 -32.8 7.0 N 0.12 7.8 N -38.6 -28.5 -38.6 735.8 0.032 0.000 15.5 2 -33.9 12.3 0.55 .0739 23 1 100.0 1
08/06/23 11:28 -28.4 -28.4 -28.5 66 -32.8 6.1 N 0.10 7.8 N -37.8 -28.5 -37.9 735.9 0.032 0.000 15.5 2 -33.9 12.3 0.55 .0739 23 1 100.0 1
08/06/23 11:29 -28.4 -28.4 -28.4 66 -32.8 6.1 N 0.10 7.0 N -37.8 -28.5 -37.9 735.8 0.032 0.000 15.5 2 -33.9 12.3 0.55 .0739 24 1 100.0 1
08/06/23 11:30 -28.4 -28.4 -28.4 66 -32.8 7.0 N 0.12 7.8 N -38.6 -28.5 -38.6 735.9 0.032 0.000 15.5 2 -33.9 12.3 0.55 .0739 23 1 100.0 1
08/06/23 11:31 -28.5 -28.4 -28.5 67 -32.7 6.1 NNE 0.10 7.0 N -37.9 -28.6 -37.9 735.9 0.033 0.000 15.5 2 -33.9 12.3 0.55 .0739 24 1 100.0 1
08/06/23 11:32 -28.5 -28.5 -28.5 67 -32.7 7.0 NNE 0.12 7.8 N -38.6 -28.6 -38.7 735.9 0.033 0.000 15.6 2 -33.9 12.3 0.55 .0739 23 1 100.0 1
08/06/23 11:33 -28.6 -28.6 -28.6 67 -32.8 7.0 N 0.12 7.8 N -38.7 -28.6 -38.7 735.9 0.033 0.000 15.5 2 -33.9 12.3 0.55 .0739 23 1 100.0 1
08/06/23 11:34 -28.6 -28.6 -28.6 67 -32.8 6.1 N 0.10 7.8 N -37.9 -28.6 -38.0 735.9 0.033 0.000 15.5 2 -33.9 12.3 0.55 .0739 24 1 100.0 1
08/06/23 11:35 -28.6 -28.6 -28.6 67 -32.8 7.0 N 0.12 7.0 N -38.7 -28.6 -38.7 735.9 0.033 0.000 15.6 2 -33.9 12.3 0.55 .0739 23 1 100.0 1
08/06/23 11:36 -28.6 -28.6 -28.6 68 -32.6 6.1 N 0.10 7.8 N -37.9 -28.6 -38.0 735.9 0.033 0.000 15.6 2 -33.9 12.3 0.55 .0739 24 1 100.0 1
08/06/23 11:37 -28.6 -28.6 -28.6 68 -32.7 6.1 N 0.10 7.0 N -38.1 -28.7 -38.1 735.9 0.033 0.000 15.6 2 -33.9 12.3 0.55 .0739 23 1 100.0 1
08/06/23 11:38 -28.6 -28.6 -28.6 68 -32.7 7.0 N 0.12 7.8 N -38.8 -28.7 -38.8 736.0 0.033 0.000 15.5 2 -33.9 12.3 0.55 .0739 24 1 100.0 1
08/06/23 11:39 -28.6 -28.6 -28.6 68 -32.7 7.0 N 0.12 7.8 N -38.8 -28.7 -38.8 736.1 0.033 0.000 15.6 2 -33.9 12.3 0.55 .0739 23 1 100.0 1
08/06/23 11:40 -28.6 -28.6 -28.7 68 -32.7 5.2 N 0.09 7.8 N -37.2 -28.7 -37.3 736.1 0.033 0.000 15.6 2 -33.9 12.3 0.55 .0739 23 1 100.0 1
08/06/23 11:41 -28.6 -28.6 -28.6 68 -32.7 6.1 N 0.10 7.0 N -38.1 -28.7 -38.1 736.0 0.033 0.000 15.6 2 -33.9 12.3 0.55 .0739 24 1 100.0 1
08/06/23 11:42 -28.6 -28.6 -28.6 68 -32.7 7.0 NNE 0.12 8.7 N -38.8 -28.7 -38.8 736.0 0.033 0.000 15.6 2 -33.9 12.3 0.55 .0739 23 1 100.0 1
08/06/23 11:43 -28.7 -28.6 -28.7 68 -32.7 5.2 N 0.09 7.0 NNW -37.3 -28.7 -37.3 736.0 0.033 0.000 15.6 2 -33.9 12.3 0.55 .0739 24 1 100.0 1
08/06/23 11:44 -28.7 -28.7 -28.7 69 -32.6 6.1 NNE 0.10 7.0 NNE -38.1 -28.7 -38.2 736.0 0.033 0.000 15.6 2 -33.9 12.3 0.55 .0739 23 1 100.0 1
08/06/23 11:45 -28.7 -28.7 -28.7 69 -32.6 5.2 NNE 0.09 7.8 NNE -37.3 -28.7 -37.3 736.0 0.033 0.000 15.6 2 -33.9 12.3 0.55 .0739 23 1 100.0 1
08/06/23 11:46 -28.7 -28.7 -28.7 69 -32.6 3.5 NNE 0.06 4.3 NNE -35.2 -28.7 -35.3 736.0 0.033 0.000 15.6 2 -33.9 12.3 0.55 .0739 24 1 100.0 1
08/06/23 11:47 -28.7 -28.7 -28.7 69 -32.6 3.5 NNE 0.06 4.3 NNE -35.3 -28.8 -35.3 736.0 0.033 0.000 15.6 2 -33.9 12.3 0.55 .0739 23 1 100.0 1
08/06/23 11:48 -28.7 -28.7 -28.7 69 -32.6 4.3 NNE 0.07 6.1 NNE -36.4 -28.8 -36.4 736.0 0.033 0.000 15.6 2 -33.9 12.3 0.55 .0739 24 1 100.0 1
08/06/23 11:49 -28.7 -28.7 -28.7 69 -32.6 4.3 NNE 0.07 4.3 NNE -36.4 -28.8 -36.4 736.1 0.033 0.000 15.6 2 -33.9 12.3 0.55 .0739 23 1 100.0 1
08/06/23 11:50 -28.7 -28.7 -28.7 69 -32.6 4.3 NNE 0.07 6.1 NNE -36.4 -28.8 -36.4 736.1 0.033 0.000 15.6 2 -33.9 12.3 0.55 .0739 24 1 100.0 1
08/06/23 11:51 -28.8 -28.7 -28.8 69 -32.7 5.2 N 0.09 7.0 N -37.4 -28.8 -37.5 736.1 0.033 0.000 15.6 2 -33.9 12.3 0.55 .0739 23 1 100.0 1
08/06/23 11:52 -28.8 -28.8 -28.8 69 -32.7 4.3 N 0.07 6.1 N -36.5 -28.8 -36.6 736.1 0.033 0.000 15.6 2 -33.9 12.3 0.55 .0739 23 1 100.0 1
08/06/23 11:53 -28.8 -28.8 -28.8 70 -32.5 3.5 NNE 0.06 6.1 NNE -35.4 -28.8 -35.4 736.2 0.033 0.000 15.6 2 -33.9 12.3 0.55 .0739 24 1 100.0 1
08/06/23 11:54 -28.9 -28.8 -28.9 70 -32.6 6.1 ENE 0.10 9.6 ENE -38.4 -28.9 -38.4 736.2 0.033 0.000 15.6 2 -33.9 12.3 0.55 .0740 23 1 100.0 1
08/06/23 11:55 -29.2 -28.9 -29.2 70 -33.0 7.0 ENE 0.12 8.7 ENE -39.5 -29.3 -39.6 736.2 0.033 0.000 15.6 2 -33.9 12.3 0.55 .0740 24 1 100.0 1
08/06/23 11:56 -29.5 -29.3 -29.5 69 -33.4 6.1 ENE 0.10 7.8 ENE -39.1 -29.6 -39.2 736.2 0.033 0.000 15.6 2 -33.9 12.3 0.55 .0740 23 1 100.0 1
08/06/23 11:57 -29.6 -29.6 -29.6 68 -33.6 6.1 NNE 0.10 7.8 NNE -39.2 -29.7 -39.3 736.3 0.033 0.000 15.6 2 -33.9 12.3 0.55 .0740 23 1 100.0 1
08/06/23 11:58 -29.6 -29.6 -29.6 68 -33.6 7.0 NE 0.12 8.7 NE -39.9 -29.6 -39.9 736.3 0.033 0.000 15.6 2 -33.9 12.3 0.55 .0740 24 1 100.0 1
08/06/23 11:59 -29.6 -29.6 -29.6 68 -33.6 7.0 NE 0.12 8.7 NE -40.0 -29.7 -40.1 736.3 0.033 0.000 15.6 2 -33.9 12.3 0.55 .0740 23 1 100.0 1
08/06/23 12:00 -29.7 -29.6 -29.7 69 -33.5 7.8 ENE 0.13 9.6 ENE -40.7 -29.7 -40.8 736.3 0.033 0.000 15.6 2 -33.9 12.3 0.55 .0740 24 1 100.0 1
08/06/23 12:01 -29.8 -29.7 -29.8 69 -33.6 9.6 NE 0.16 11.3 NE -42.0 -29.8 -42.1 736.3 0.033 0.000 15.6 2 -33.9 12.3 0.55 .0740 23 1 100.0 1
08/06/23 12:02 -29.9 -29.8 -29.9 68 -34.0 9.6 ENE 0.16 10.4 NE -42.2 -30.0 -42.3 736.4 0.034 0.000 15.6 2 -33.9 12.3 0.55 .0740 24 1 100.0 1
08/06/23 12:03 -30.0 -29.9 -30.0 68 -34.0 7.8 ENE 0.13 8.7 NE -41.1 -30.1 -41.2 736.4 0.034 0.000 15.6 2 -33.8 12.3 0.55 .0740 23 1 100.0 1
08/06/23 12:04 -30.1 -30.1 -30.1 68 -34.1 8.7 ENE 0.14 11.3 ENE -41.8 -30.1 -41.8 736.4 0.034 0.000 15.6 2 -33.9 12.3 0.55 .0740 23 1 100.0 1
08/06/23 12:05 -30.1 -30.1 -30.1 67 -34.2 9.6 ENE 0.16 12.2 ENE -42.3 -30.1 -42.4 736.3 0.034 0.000 15.6 2 -33.8 12.3 0.55 .0739 24 1 100.0 1
08/06/23 12:06 -30.1 -30.1 -30.1 67 -34.3 6.1 ENE 0.10 9.6 ENE -39.8 -30.2 -39.9 736.4 0.034 0.000 15.6 2 -33.8 12.3 0.55 .0740 23 1 100.0 1
08/06/23 12:07 -30.1 -30.1 -30.1 67 -34.3 7.8 NNE 0.13 9.6 NE -41.3 -30.2 -41.3 736.4 0.034 0.000 15.6 2 -33.8 12.3 0.55 .0740 24 1 100.0 1
08/06/23 12:08 -30.1 -30.1 -30.1 67 -34.3 6.1 NNE 0.10 7.8 NNE -39.8 -30.2 -39.9 736.4 0.034 0.000 15.6 2 -33.8 12.3 0.55 .0740 23 1 100.0 1
08/06/23 12:09 -30.2 -30.1 -30.2 67 -34.3 5.2 NE 0.09 7.8 NE -39.1 -30.2 -39.1 736.5 0.034 0.000 15.6 2 -33.8 12.3 0.55 .0740 23 1 100.0 1
08/06/23 12:10 -30.3 -30.2 -30.3 66 -34.6 8.7 NE 0.14 10.4 NE -42.1 -30.3 -42.1 736.6 0.034 0.000 15.6 2 -33.8 12.3 0.55 .0740 24 1 100.0 1
08/06/23 12:11 -30.4 -30.3 -30.4 66 -34.7 8.7 NE 0.14 9.6 NE -42.3 -30.5 -42.3 736.6 0.034 0.000 15.6 2 -33.8 12.3 0.55 .0740 23 1 100.0 1
08/06/23 12:12 -30.5 -30.4 -30.5 66 -34.8 8.7 NE 0.14 9.6 NE -42.3 -30.6 -42.4 736.6 0.034 0.000 15.6 2 -33.8 12.3 0.55 .0740 24 1 100.0 1
08/06/23 12:13 -30.5 -30.5 -30.5 66 -34.8 7.8 NE 0.13 9.6 NE -41.7 -30.6 -41.8 736.6 0.034 0.000 15.6 2 -33.8 12.3 0.55 .0740 23 1 100.0 1
08/06/23 12:14 -30.6 -30.6 -30.6 66 -34.8 7.8 NE 0.13 9.6 NE -41.8 -30.6 -41.8 736.6 0.034 0.000 15.6 2 -33.8 12.3 0.55 .0740 23 1 100.0 1
08/06/23 12:15 -30.6 -30.6 -30.6 66 -34.9 7.8 NE 0.13 9.6 NE -41.9 -30.7 -41.9 736.6 0.034 0.000 15.6 2 -33.8 12.3 0.55 .0740 24 1 100.0 1
08/06/23 12:16 -30.5 -30.5 -30.6 66 -34.8 7.0 NE 0.12 8.7 NE -41.1 -30.6 -41.1 736.7 0.034 0.000 15.6 2 -33.8 12.3 0.55 .0740 23 1 100.0 1
08/06/23 12:17 -30.4 -30.4 -30.5 66 -34.7 5.2 NNE 0.09 7.0 NNE -39.4 -30.5 -39.4 736.7 0.034 0.000 15.6 2 -33.8 12.3 0.55 .0740 24 1 100.0 1
08/06/23 12:18 -30.4 -30.4 -30.4 67 -34.5 7.0 ENE 0.12 9.6 ENE -40.9 -30.4 -41.0 736.7 0.034 0.000 15.6 2 -33.8 12.3 0.55 .0740 23 1 100.0 1
08/06/23 12:19 -30.4 -30.4 -30.4 67 -34.6 8.7 NE 0.14 9.6 ENE -42.3 -30.5 -42.3 736.6 0.034 0.000 15.6 2 -33.8 12.3 0.55 .0740 24 1 100.0 1
08/06/23 12:20 -30.6 -30.4 -30.6 67 -34.7 7.8 ENE 0.13 8.7 ENE -41.8 -30.6 -41.8 736.6 0.034 0.000 15.6 2 -33.8 12.3 0.55 .0740 23 1 100.0 1
08/06/23 12:21 -30.6 -30.5 -30.6 67 -34.8 7.0 ENE 0.12 8.7 ENE -41.2 -30.7 -41.3 736.5 0.034 0.000 15.6 2 -33.8 12.3 0.55 .0740 23 1 100.0 1
08/06/23 12:22 -30.6 -30.6 -30.6 67 -34.8 7.0 ENE 0.12 8.7 NE -41.2 -30.7 -41.3 736.5 0.034 0.000 15.6 2 -33.8 12.3 0.55 .0740 24 1 100.0 1
08/06/23 12:23 -30.7 -30.7 -30.7 67 -34.9 6.1 ENE 0.10 7.8 ENE -40.6 -30.8 -40.6 736.5 0.034 0.000 15.6 2 -33.8 12.3 0.55 .0740 23 1 100.0 1
08/06/23 12:24 -30.7 -30.7 -30.7 67 -34.9 7.8 NE 0.13 9.6 NE -42.0 -30.8 -42.1 736.5 0.034 0.000 15.6 2 -33.8 12.3 0.55 .0740 24 1 100.0 1
08/06/23 12:25 -30.7 -30.7 -30.7 67 -34.9 8.7 NE 0.14 9.6 NE -42.6 -30.8 -42.7 736.5 0.034 0.000 15.6 2 -33.8 12.3 0.55 .0740 23 1 100.0 1
08/06/23 12:26 -30.7 -30.7 -30.7 67 -34.9 7.8 ENE 0.13 9.6 ENE -42.0 -30.8 -42.1 736.4 0.034 0.000 15.6 2 -33.8 12.3 0.55 .0740 23 1 100.0 1
08/06/23 12:27 -30.7 -30.7 -30.7 67 -34.8 7.8 ENE 0.13 8.7 NE -41.9 -30.7 -42.0 736.5 0.034 0.000 15.6 2 -33.8 12.3 0.55 .0740 24 1 100.0 1
08/06/23 12:28 -30.7 -30.7 -30.7 67 -34.8 8.7 NE 0.14 9.6 NE -42.6 -30.7 -42.6 736.5 0.034 0.000 15.6 2 -33.8 12.3 0.55 .0740 23 1 100.0 1
08/06/23 12:29 -30.6 -30.6 -30.6 67 -34.7 7.8 NE 0.13 8.7 NE -41.8 -30.6 -41.8 736.5 0.034 0.000 15.6 2 -33.8 12.3 0.55 .0740 24 1 100.0 1
08/06/23 12:30 -30.5 -30.5 -30.6 68 -34.5 6.1 ENE 0.10 7.8 NE -40.3 -30.6 -40.4 736.5 0.034 0.000 15.6 2 -33.8 12.3 0.55 .0740 23 1 100.0 1
08/06/23 12:31 -30.4 -30.4 -30.4 68 -34.4 5.2 ENE 0.09 6.1 ENE -39.3 -30.4 -39.4 736.5 0.034 0.000 15.7 2 -33.8 12.4 0.55 .0739 23 1 100.0 1
08/06/23 12:32 -30.3 -30.3 -30.3 68 -34.3 6.1 ENE 0.10 7.0 ENE -40.1 -30.3 -40.1 736.5 0.034 0.000 15.7 2 -33.8 12.4 0.55 .0739 24 1 100.0 1
08/06/23 12:33 -30.2 -30.2 -30.3 69 -34.1 5.2 ENE 0.09 7.0 ENE -39.2 -30.3 -39.2 736.5 0.034 0.000 15.7 2 -33.8 12.4 0.55 .0740 23 1 100.0 1
08/06/23 12:34 -30.1 -30.1 -30.2 69 -34.0 5.2 ENE 0.09 7.8 ENE -39.0 -30.2 -39.1 736.6 0.034 0.000 15.7 2 -33.8 12.4 0.55 .0740 24 1 100.0 1
08/06/23 12:35 -30.1 -30.1 -30.1 69 -33.9 6.1 NE 0.10 7.8 NE -39.8 -30.1 -39.8 736.6 0.034 0.000 15.7 2 -33.8 12.4 0.55 .0740 23 1 100.0 1
08/06/23 12:36 -29.9 -29.9 -30.1 69 -33.8 5.2 NE 0.09 6.1 NE -38.8 -30.0 -38.9 736.6 0.034 0.000 15.7 2 -33.8 12.4 0.55 .0740 24 1 100.0 1
08/06/23 12:37 -29.8 -29.8 -29.9 69 -33.7 5.2 NE 0.09 6.1 NE -38.7 -29.9 -38.7 736.6 0.033 0.000 15.7 2 -33.8 12.4 0.55 .0740 23 1 100.0 1
08/06/23 12:38 -29.7 -29.7 -29.8 70 -33.4 5.2 NE 0.09 6.1 NE -38.6 -29.8 -38.6 736.6 0.033 0.000 15.7 2 -33.8 12.4 0.55 .0740 23 1 100.0 1
08/06/23 12:39 -29.7 -29.7 -29.7 70 -33.4 5.2 NE 0.09 7.8 NE -38.5 -29.7 -38.6 736.6 0.033 0.000 15.7 2 -33.8 12.4 0.55 .0740 24 1 100.0 1
08/06/23 12:40 -29.6 -29.6 -29.7 70 -33.3 6.1 NE 0.10 7.8 NE -39.2 -29.7 -39.3 736.6 0.033 0.000 15.7 2 -33.8 12.4 0.55 .0740 23 1 100.0 1
08/06/23 12:41 -29.5 -29.5 -29.6 70 -33.2 7.0 NE 0.12 8.7 NE -39.8 -29.6 -39.9 736.6 0.033 0.000 15.7 2 -33.8 12.4 0.55 .0740 24 1 100.0 1
08/06/23 12:42 -29.4 -29.4 -29.5 70 -33.2 7.0 NE 0.12 7.8 NE -39.8 -29.5 -39.8 736.6 0.033 0.000 15.7 2 -33.8 12.4 0.55 .0740 23 1 100.0 1
08/06/23 12:43 -29.3 -29.3 -29.4 71 -32.9 6.1 NE 0.10 7.8 NE -38.9 -29.4 -38.9 736.6 0.033 0.000 15.7 2 -33.8 12.4 0.55 .0740 23 1 100.0 1
08/06/23 12:44 -29.2 -29.2 -29.3 71 -32.8 6.1 NNE 0.10 7.0 NE -38.8 -29.3 -38.8 736.6 0.033 0.000 15.7 2 -33.8 12.4 0.55 .0740 24 1 100.0 1
08/06/23 12:45 -29.2 -29.2 -29.2 71 -32.8 6.1 NNE 0.10 7.0 NNE -38.7 -29.2 -38.8 736.6 0.033 0.000 15.7 2 -33.8 12.4 0.55 .0740 23 1 100.0 1
08/06/23 12:46 -29.2 -29.2 -29.2 71 -32.8 7.0 NNE 0.12 7.8 NNE -39.4 -29.2 -39.5 736.7 0.033 0.000 15.7 2 -33.8 12.4 0.55 .0740 24 1 100.0 1
08/06/23 12:47 -29.2 -29.2 -29.2 72 -32.6 6.1 NNE 0.10 7.0 NNE -38.7 -29.2 -38.8 736.6 0.033 0.000 15.7 2 -33.8 12.4 0.55 .0740 23 1 100.0 1
08/06/23 12:48 -29.2 -29.2 -29.2 72 -32.6 6.1 NNE 0.10 7.0 NNE -38.7 -29.2 -38.8 736.7 0.033 0.000 15.7 2 -33.8 12.4 0.55 .0740 24 1 100.0 1
08/06/23 12:49 -29.1 -29.1 -29.1 72 -32.6 5.2 NNE 0.09 7.0 NNE -37.8 -29.2 -37.9 736.7 0.033 0.000 15.7 2 -33.8 12.4 0.55 .0740 23 1 100.0 1
08/06/23 12:50 -29.1 -29.1 -29.1 72 -32.6 6.1 NNE 0.10 7.0 NNE -38.7 -29.2 -38.7 736.7 0.033 0.000 15.7 2 -33.8 12.4 0.55 .0740 23 1 100.0 1
08/06/23 12:51 -29.1 -29.1 -29.1 72 -32.6 7.8 NNE 0.13 8.7 NNE -40.0 -29.2 -40.1 736.7 0.033 0.000 15.7 2 -33.8 12.4 0.55 .0740 24 1 100.0 1
08/06/23 12:52 -29.1 -29.1 -29.1 72 -32.6 7.8 NNE 0.13 8.7 NNE -40.0 -29.2 -40.1 736.7 0.033 0.000 15.7 2 -33.8 12.4 0.55 .0740 23 1 100.0 1
08/06/23 12:53 -29.1 -29.1 -29.1 72 -32.6 8.7 N 0.14 8.7 NNE -40.6 -29.2 -40.7 736.6 0.033 0.000 15.7 2 -33.8 12.4 0.55 .0740 24 1 100.0 1
08/06/23 12:54 -29.1 -29.1 -29.1 72 -32.6 7.8 N 0.13 8.7 N -40.0 -29.2 -40.1 736.6 0.033 0.000 15.7 2 -33.8 12.4 0.55 .0740 23 1 100.0 1
08/06/23 12:55 -29.1 -29.1 -29.2 72 -32.6 8.7 N 0.14 10.4 N -40.6 -29.2 -40.7 736.6 0.033 0.000 15.7 2 -33.8 12.4 0.55 .0740 23 1 100.0 1
08/06/23 12:56 -29.2 -29.2 -29.2 72 -32.6 10.4 N 0.17 11.3 N -41.7 -29.2 -41.8 736.6 0.033 0.000 15.7 2 -33.8 12.4 0.55 .0740 24 1 100.0 1
08/06/23 12:57 -29.2 -29.2 -29.2 72 -32.7 9.6 N 0.16 10.4 N -41.3 -29.3 -41.4 736.6 0.033 0.000 15.7 2 -33.8 12.4 0.55 .0740 23 1 100.0 1
08/06/23 12:58 -29.2 -29.2 -29.2 72 -32.7 9.6 N 0.16 9.6 N -41.3 -29.3 -41.4 736.6 0.033 0.000 15.7 2 -33.8 12.4 0.55 .0740 24 1 100.0 1
08/06/23 12:59 -29.2 -29.2 -29.3 72 -32.7 8.7 N 0.14 9.6 N -40.8 -29.3 -40.8 736.6 0.033 0.000 15.7 2 -33.8 12.4 0.55 .0740 23 1 100.0 1
08/06/23 13:00 -29.3 -29.3 -29.3 72 -32.7 8.7 N 0.14 8.7 N -40.8 -29.3 -40.9 736.7 0.033 0.000 15.7 2 -33.8 12.4 0.55 .0740 23 1 100.0 1
08/06/23 13:01 -29.3 -29.3 -29.3 72 -32.8 8.7 N 0.14 8.7 N -40.9 -29.4 -40.9 736.7 0.033 0.000 15.7 2 -33.8 12.4 0.55 .0740 24 1 100.0 1
08/06/23 13:02 -29.3 -29.3 -29.3 72 -32.8 7.8 N 0.13 8.7 N -40.3 -29.4 -40.3 736.7 0.033 0.000 15.7 2 -33.8 12.4 0.55 .0740 23 1 100.0 1
08/06/23 13:03 -29.3 -29.3 -29.4 72 -32.8 7.8 N 0.13 8.7 N -40.3 -29.4 -40.3 736.7 0.033 0.000 15.7 2 -33.8 12.4 0.55 .0740 24 1 100.0 1
08/06/23 13:04 -29.3 -29.3 -29.3 72 -32.8 8.7 N 0.14 8.7 N -40.9 -29.4 -40.9 736.7 0.033 0.000 15.7 2 -33.8 12.4 0.55 .0740 23 1 100.0 1
08/06/23 13:05 -29.3 -29.3 -29.3 73 -32.6 7.8 N 0.13 8.7 N -40.3 -29.4 -40.3 736.7 0.033 0.000 15.7 2 -33.8 12.4 0.55 .0740 24 1 100.0 1
08/06/23 13:06 -29.3 -29.3 -29.3 73 -32.6 7.8 N 0.13 8.7 N -40.3 -29.4 -40.3 736.7 0.033 0.000 15.7 2 -33.8 12.4 0.55 .0740 23 1 100.0 1
08/06/23 13:07 -29.3 -29.3 -29.3 73 -32.6 7.8 NNE 0.13 8.7 NNE -40.2 -29.3 -40.3 736.7 0.033 0.000 15.7 2 -33.8 12.4 0.55 .0740 23 1 100.0 1
08/06/23 13:08 -29.3 -29.3 -29.3 73 -32.6 9.6 NNE 0.16 10.4 NNE -41.4 -29.3 -41.4 736.7 0.033 0.000 15.7 2 -33.8 12.4 0.55 .0740 24 1 100.0 1
08/06/23 13:09 -29.2 -29.2 -29.3 73 -32.5 8.7 NNE 0.14 10.4 NNE -40.8 -29.3 -40.8 736.7 0.033 0.000 15.7 2 -33.8 12.4 0.55 .0740 23 1 100.0 1
08/06/23 13:10 -29.2 -29.2 -29.2 73 -32.5 9.6 N 0.16 10.4 N -41.3 -29.3 -41.4 736.7 0.033 0.000 15.7 2 -33.8 12.4 0.55 .0740 24 1 100.0 1
08/06/23 13:11 -29.2 -29.2 -29.2 73 -32.5 8.7 N 0.14 10.4 N -40.7 -29.2 -40.7 736.7 0.033 0.000 15.7 2 -33.8 12.4 0.55 .0740 23 1 100.0 1
08/06/23 13:12 -29.2 -29.2 -29.2 73 -32.5 9.6 N 0.16 9.6 N -41.3 -29.3 -41.4 736.6 0.033 0.000 15.7 2 -33.8 12.4 0.55 .0740 23 1 100.0 1
08/06/23 13:13 -29.2 -29.2 -29.2 73 -32.5 8.7 N 0.14 10.4 N -40.8 -29.3 -40.8 736.7 0.033 0.000 15.7 2 -33.8 12.4 0.55 .0740 24 1 100.0 1
08/06/23 13:14 -29.3 -29.3 -29.3 73 -32.6 9.6 N 0.16 10.4 N -41.4 -29.3 -41.4 736.7 0.033 0.000 15.7 2 -33.8 12.4 0.55 .0740 23 1 100.0 1
08/06/23 13:15 -29.3 -29.3 -29.3 73 -32.6 8.7 N 0.14 9.6 N -40.8 -29.3 -40.9 736.7 0.033 0.000 15.7 2 -33.8 12.4 0.54 .0740 24 1 100.0 1
08/06/23 13:16 -29.3 -29.3 -29.3 73 -32.6 8.7 N 0.14 10.4 N -40.8 -29.3 -40.9 736.7 0.033 0.000 15.7 2 -33.8 12.4 0.54 .0740 23 1 100.0 1
08/06/23 13:17 -29.3 -29.3 -29.3 73 -32.6 9.6 N 0.16 10.4 N -41.4 -29.3 -41.4 736.7 0.033 0.000 15.7 2 -33.8 12.4 0.54 .0740 24 1 100.0 1
08/06/23 13:18 -29.2 -29.2 -29.3 74 -32.4 9.6 N 0.16 11.3 N -41.3 -29.3 -41.4 736.7 0.033 0.000 15.7 2 -33.8 12.4 0.54 .0740 23 1 100.0 1
08/06/23 13:19 -29.2 -29.2 -29.2 74 -32.4 10.4 N 0.17 12.2 N -41.8 -29.3 -41.9 736.7 0.033 0.000 15.7 2 -33.8 12.4 0.54 .0740 23 1 100.0 1
08/06/23 13:20 -29.2 -29.2 -29.2 74 -32.4 10.4 N 0.17 11.3 N -41.8 -29.3 -41.9 736.6 0.033 0.000 15.7 2 -33.8 12.4 0.54 .0739 24 1 100.0 1
08/06/23 13:21 -29.3 -29.2 -29.3 74 -32.4 9.6 N 0.16 11.3 N -41.4 -29.3 -41.4 736.6 0.033 0.000 15.7 2 -33.8 12.4 0.54 .0739 23 1 100.0 1
08/06/23 13:22 -29.3 -29.2 -29.3 74 -32.4 10.4 N 0.17 12.2 N -41.9 -29.3 -41.9 736.6 0.033 0.000 15.8 2 -33.7 12.5 0.54 .0739 24 1 100.0 1
08/06/23 13:23 -29.2 -29.2 -29.3 74 -32.4 10.4 N 0.17 11.3 N -41.8 -29.3 -41.9 736.7 0.033 0.000 15.8 2 -33.7 12.5 0.54 .0739 23 1 100.0 1
08/06/23 13:24 -29.3 -29.3 -29.3 74 -32.4 9.6 N 0.16 11.3 N -41.4 -29.3 -41.4 736.7 0.033 0.000 15.8 2 -33.7 12.5 0.54 .0739 23 1 100.0 1
08/06/23 13:25 -29.3 -29.3 -29.3 74 -32.4 10.4 N 0.17 11.3 N -41.9 -29.3 -41.9 736.7 0.033 0.000 15.8 2 -33.7 12.5 0.54 .0739 24 1 100.0 1
08/06/23 13:26 -29.2 -29.2 -29.3 74 -32.4 9.6 N 0.16 10.4 N -41.3 -29.3 -41.4 736.7 0.033 0.000 15.8 2 -33.7 12.5 0.54 .0739 23 1 100.0 1
08/06/23 13:27 -29.2 -29.2 -29.2 74 -32.4 10.4 N 0.17 12.2 N -41.8 -29.3 -41.9 736.6 0.033 0.000 15.8 2 -33.7 12.5 0.54 .0739 24 1 100.0 1
08/06/23 13:28 -29.2 -29.2 -29.2 74 -32.4 10.4 N 0.17 11.3 N -41.8 -29.3 -41.9 736.6 0.033 0.000 15.8 2 -33.7 12.6 0.54 .0739 23 1 100.0 1
08/06/23 13:29 -29.3 -29.2 -29.3 74 -32.4 10.4 N 0.17 11.3 N -41.9 -29.3 -41.9 736.6 0.033 0.000 15.8 2 -33.7 12.6 0.54 .0739 23 1 100.0 1
08/06/23 13:30 -29.3 -29.2 -29.3 74 -32.4 10.4 N 0.17 11.3 N -41.9 -29.3 -41.9 736.6 0.033 0.000 15.8 2 -33.7 12.6 0.54 .0739 24 1 100.0 1
08/06/23 13:31 -29.3 -29.3 -29.3 74 -32.4 10.4 N 0.17 11.3 N -41.9 -29.3 -41.9 736.6 0.033 0.000 15.8 2 -33.7 12.6 0.54 .0739 23 1 100.0 1
08/06/23 13:32 -29.3 -29.3 -29.3 74 -32.5 10.4 N 0.17 11.3 N -41.9 -29.4 -42.0 736.5 0.033 0.000 15.8 2 -33.7 12.6 0.54 .0739 24 1 100.0 1
08/06/23 13:33 -29.3 -29.3 -29.3 74 -32.5 9.6 N 0.16 10.4 N -41.4 -29.4 -41.5 736.5 0.033 0.000 15.8 2 -33.7 12.6 0.54 .0739 23 1 100.0 1
08/06/23 13:34 -29.3 -29.3 -29.3 74 -32.5 9.6 N 0.16 10.4 N -41.4 -29.4 -41.5 736.5 0.033 0.000 15.8 2 -33.7 12.6 0.54 .0739 24 1 100.0 1
08/06/23 13:35 -29.3 -29.3 -29.3 74 -32.4 8.7 N 0.14 9.6 N -40.8 -29.3 -40.9 736.5 0.033 0.000 15.9 2 -33.7 12.6 0.54 .0739 23 1 100.0 1
08/06/23 13:36 -29.3 -29.3 -29.3 74 -32.4 8.7 N 0.14 9.6 N -40.8 -29.3 -40.9 736.5 0.033 0.000 15.9 2 -33.7 12.6 0.54 .0739 23 1 100.0 1
08/06/23 13:37 -29.3 -29.3 -29.3 74 -32.4 9.6 N 0.16 10.4 N -41.4 -29.3 -41.4 736.6 0.033 0.000 15.9 2 -33.7 12.6 0.54 .0739 24 1 100.0 1
08/06/23 13:38 -29.3 -29.3 -29.3 74 -32.4 9.6 N 0.16 11.3 N -41.4 -29.3 -41.4 736.5 0.033 0.000 15.9 2 -33.7 12.6 0.54 .0739 23 1 100.0 1
08/06/23 13:39 -29.2 -29.2 -29.3 74 -32.4 9.6 N 0.16 10.4 N -41.3 -29.3 -41.4 736.5 0.033 0.000 15.9 2 -33.7 12.6 0.54 .0739 24 1 100.0 1
08/06/23 13:40 -29.3 -29.2 -29.3 74 -32.4 9.6 N 0.16 11.3 N -41.4 -29.3 -41.4 736.5 0.033 0.000 15.9 2 -33.7 12.6 0.54 .0739 23 1 100.0 1
08/06/23 13:41 -29.2 -29.2 -29.2 74 -32.4 11.3 N 0.19 13.0 N -42.3 -29.3 -42.3 736.4 0.033 0.000 15.9 2 -33.7 12.6 0.54 .0739 23 1 100.0 1
08/06/23 13:42 -29.2 -29.2 -29.2 74 -32.4 10.4 N 0.17 11.3 N -41.8 -29.3 -41.9 736.4 0.033 0.000 15.9 2 -33.7 12.6 0.54 .0739 24 1 100.0 1
08/06/23 13:43 -29.3 -29.2 -29.3 74 -32.4 10.4 N 0.17 11.3 N -41.9 -29.3 -41.9 736.4 0.033 0.000 15.9 2 -33.7 12.6 0.54 .0739 23 1 100.0 1
08/06/23 13:44 -29.3 -29.3 -29.3 74 -32.4 10.4 N 0.17 11.3 N -41.9 -29.3 -41.9 736.4 0.033 0.000 15.9 2 -33.7 12.6 0.54 .0739 24 1 100.0 1
08/06/23 13:45 -29.3 -29.3 -29.3 74 -32.4 11.3 N 0.19 12.2 N -42.4 -29.3 -42.4 736.4 0.033 0.000 15.9 2 -33.7 12.6 0.54 .0739 23 1 100.0 1
08/06/23 13:46 -29.3 -29.3 -29.3 74 -32.5 11.3 N 0.19 13.0 N -42.4 -29.4 -42.5 736.5 0.033 0.000 15.9 2 -33.7 12.6 0.54 .0739 24 1 100.0 1
08/06/23 13:47 -29.3 -29.3 -29.3 74 -32.5 11.3 N 0.19 12.2 N -42.4 -29.4 -42.5 736.5 0.033 0.000 15.9 2 -33.7 12.6 0.54 .0739 23 1 100.0 1
08/06/23 13:48 -29.4 -29.3 -29.4 74 -32.6 10.4 N 0.17 11.3 N -42.1 -29.4 -42.1 736.5 0.033 0.000 15.9 2 -33.7 12.6 0.54 .0739 23 1 100.0 1
08/06/23 13:49 -29.4 -29.4 -29.4 74 -32.6 10.4 N 0.17 11.3 N -42.1 -29.5 -42.2 736.5 0.033 0.000 15.9 2 -33.7 12.6 0.54 .0739 24 1 100.0 1
08/06/23 13:50 -29.4 -29.4 -29.4 75 -32.5 10.4 N 0.17 11.3 N -42.1 -29.5 -42.2 736.5 0.033 0.000 15.9 2 -33.7 12.6 0.54 .0739 23 1 100.0 1
08/06/23 13:51 -29.4 -29.4 -29.4 75 -32.5 11.3 N 0.19 12.2 N -42.6 -29.5 -42.6 736.5 0.033 0.000 15.9 2 -33.7 12.6 0.54 .0739 24 1 100.0 1
08/06/23 13:52 -29.4 -29.4 -29.4 74 -32.6 11.3 N 0.19 11.3 N -42.6 -29.5 -42.6 736.6 0.033 0.000 15.9 2 -33.7 12.6 0.54 .0739 23 1 100.0 1
08/06/23 13:53 -29.4 -29.4 -29.4 74 -32.6 11.3 N 0.19 12.2 N -42.6 -29.5 -42.6 736.6 0.033 0.000 15.9 2 -33.7 12.6 0.54 .0739 23 1 100.0 1
08/06/23 13:54 -29.5 -29.4 -29.5 74 -32.7 12.2 N 0.20 13.0 N -43.1 -29.6 -43.2 736.6 0.033 0.000 15.9 2 -33.7 12.6 0.54 .0739 24 1 100.0 1
08/06/23 13:55 -29.6 -29.5 -29.6 74 -32.7 12.2 N 0.20 13.0 N -43.2 -29.6 -43.2 736.6 0.033 0.000 15.9 2 -33.7 12.6 0.54 .0739 23 1 100.0 1
08/06/23 13:56 -29.6 -29.6 -29.6 74 -32.7 12.2 N 0.20 13.0 N -43.2 -29.6 -43.2 736.6 0.033 0.000 15.9 2 -33.7 12.6 0.54 .0739 24 1 100.0 1
08/06/23 13:57 -29.6 -29.6 -29.6 75 -32.6 10.4 N 0.17 11.3 N -42.2 -29.6 -42.3 736.7 0.033 0.000 15.9 2 -33.7 12.6 0.54 .0739 23 1 100.0 1
08/06/23 13:58 -29.6 -29.6 -29.6 75 -32.6 11.3 N 0.19 12.2 N -42.7 -29.6 -42.8 736.6 0.033 0.000 15.9 2 -33.7 12.6 0.54 .0739 24 1 100.0 1
08/06/23 13:59 -29.6 -29.6 -29.6 75 -32.6 11.3 N 0.19 12.2 N -42.7 -29.6 -42.8 736.7 0.033 0.000 15.9 2 -33.7 12.6 0.54 .0739 23 1 100.0 1
08/06/23 14:00 -29.6 -29.6 -29.6 75 -32.6 10.4 N 0.17 11.3 N -42.2 -29.6 -42.3 736.7 0.033 0.000 15.9 2 -33.7 12.6 0.54 .0739 23 1 100.0 1
08/06/23 14:01 -29.6 -29.6 -29.6 75 -32.6 10.4 N 0.17 11.3 N -42.3 -29.7 -42.4 736.6 0.033 0.000 15.9 2 -33.7 12.6 0.54 .0739 24 1 100.0 1
08/06/23 14:02 -29.6 -29.6 -29.6 75 -32.6 11.3 N 0.19 12.2 N -42.7 -29.6 -42.8 736.6 0.033 0.000 15.9 2 -33.7 12.6 0.54 .0739 23 1 100.0 1
08/06/23 14:03 -29.6 -29.6 -29.6 75 -32.6 10.4 N 0.17 11.3 N -42.3 -29.7 -42.4 736.7 0.033 0.000 15.9 2 -33.7 12.6 0.54 .0739 24 1 100.0 1
08/06/23 14:04 -29.6 -29.6 -29.6 75 -32.6 10.4 NNE 0.17 11.3 NNE -42.2 -29.6 -42.3 736.7 0.033 0.000 15.9 2 -33.7 12.6 0.54 .0739 23 1 100.0 1
08/06/23 14:05 -29.6 -29.6 -29.6 75 -32.6 10.4 NNE 0.17 11.3 NNE -42.2 -29.6 -42.3 736.7 0.033 0.000 15.9 2 -33.7 12.6 0.54 .0739 23 1 100.0 1
08/06/23 14:06 -29.5 -29.5 -29.6 75 -32.5 10.4 NNE 0.17 11.3 NNE -42.2 -29.6 -42.2 736.7 0.033 0.000 15.9 2 -33.7 12.6 0.54 .0739 24 1 100.0 1
08/06/23 14:07 -29.4 -29.4 -29.5 75 -32.5 9.6 NNE 0.16 10.4 NNE -41.6 -29.5 -41.7 736.7 0.033 0.000 15.9 2 -33.7 12.6 0.54 .0739 23 1 100.0 1
08/06/23 14:08 -29.4 -29.4 -29.4 75 -32.5 9.6 NNE 0.16 11.3 NNE -41.6 -29.5 -41.7 736.7 0.033 0.000 15.9 2 -33.7 12.6 0.54 .0739 24 1 100.0 1
08/06/23 14:09 -29.4 -29.4 -29.4 75 -32.5 9.6 NNE 0.16 10.4 NNE -41.6 -29.5 -41.7 736.7 0.033 0.000 15.9 2 -33.7 12.6 0.54 .0739 23 1 100.0 1
08/06/23 14:10 -29.4 -29.4 -29.4 75 -32.4 9.6 NNE 0.16 10.4 NNE -41.5 -29.4 -41.6 736.7 0.033 0.000 15.9 2 -33.7 12.6 0.54 .0739 23 1 100.0 1
08/06/23 14:11 -29.3 -29.3 -29.4 75 -32.4 9.6 NNE 0.16 12.2 NNE -41.4 -29.4 -41.5 736.7 0.033 0.000 15.9 2 -33.7 12.6 0.54 .0739 24 1 100.0 1
08/06/23 14:12 -29.3 -29.3 -29.3 75 -32.4 9.6 N 0.16 10.4 NNE -41.4 -29.4 -41.5 736.7 0.033 0.000 15.9 2 -33.6 12.6 0.54 .0739 23 1 100.0 1
08/06/23 14:13 -29.3 -29.3 -29.3 75 -32.3 10.4 N 0.17 11.3 N -41.9 -29.3 -41.9 736.7 0.033 0.000 15.9 2 -33.7 12.6 0.54 .0739 24 1 100.0 1
08/06/23 14:14 -29.3 -29.3 -29.3 75 -32.3 10.4 N 0.17 11.3 N -41.9 -29.3 -41.9 736.8 0.033 0.000 15.9 2 -33.7 12.6 0.54 .0739 23 1 100.0 1
08/06/23 14:15 -29.2 -29.2 -29.3 75 -32.3 10.4 N 0.17 12.2 N -41.8 -29.3 -41.9 736.8 0.033 0.000 15.9 2 -33.6 12.6 0.54 .0739 24 1 100.0 1
08/06/23 14:16 -29.2 -29.2 -29.2 75 -32.3 10.4 N 0.17 11.3 N -41.8 -29.3 -41.9 736.8 0.033 0.000 15.9 2 -33.6 12.6 0.54 .0739 23 1 100.0 1
08/06/23 14:17 -29.3 -29.2 -29.3 75 -32.3 11.3 N 0.19 12.2 N -42.4 -29.3 -42.4 736.8 0.033 0.000 15.9 2 -33.7 12.6 0.54 .0739 23 1 100.0 1
08/06/23 14:18 -29.3 -29.3 -29.3 75 -32.3 11.3 N 0.19 12.2 N -42.4 -29.3 -42.4 736.9 0.033 0.000 15.9 2 -33.6 12.6 0.54 .0739 24 1 100.0 1
08/06/23 14:19 -29.3 -29.3 -29.3 75 -32.3 11.3 N 0.19 11.3 N -42.4 -29.3 -42.4 736.9 0.033 0.000 15.9 2 -33.6 12.6 0.54 .0739 23 1 100.0 1
08/06/23 14:20 -29.3 -29.3 -29.3 75 -32.3 11.3 N 0.19 11.3 N -42.4 -29.3 -42.4 736.9 0.033 0.000 15.9 2 -33.6 12.6 0.54 .0739 24 1 100.0 1
08/06/23 14:21 -29.2 -29.2 -29.3 75 -32.3 11.3 N 0.19 12.2 N -42.3 -29.3 -42.3 736.8 0.033 0.000 15.9 2 -33.6 12.6 0.54 .0739 23 1 100.0 1
08/06/23 14:22 -29.2 -29.2 -29.2 75 -32.3 11.3 N 0.19 12.2 N -42.3 -29.3 -42.3 736.9 0.033 0.000 15.9 2 -33.6 12.6 0.54 .0739 23 1 100.0 1
08/06/23 14:23 -29.2 -29.2 -29.2 75 -32.3 11.3 N 0.19 12.2 N -42.3 -29.3 -42.3 736.8 0.033 0.000 15.9 2 -33.6 12.6 0.54 .0739 24 1 100.0 1
08/06/23 14:24 -29.2 -29.2 -29.2 75 -32.3 10.4 N 0.17 11.3 N -41.8 -29.3 -41.9 736.9 0.033 0.000 15.9 2 -33.6 12.6 0.54 .0739 23 1 100.0 1
08/06/23 14:25 -29.3 -29.2 -29.3 75 -32.3 11.3 N 0.19 12.2 N -42.4 -29.3 -42.4 736.9 0.033 0.000 15.9 2 -33.6 12.6 0.54 .0739 24 1 100.0 1
08/06/23 14:26 -29.3 -29.3 -29.3 75 -32.3 11.3 N 0.19 11.3 N -42.4 -29.3 -42.4 736.8 0.033 0.000 15.9 2 -33.6 12.6 0.54 .0739 23 1 100.0 1
08/06/23 14:27 -29.3 -29.3 -29.3 75 -32.4 12.2 N 0.20 12.2 N -42.9 -29.4 -42.9 736.8 0.033 0.000 15.9 2 -33.6 12.6 0.54 .0739 23 1 100.0 1
08/06/23 14:28 -29.3 -29.3 -29.3 75 -32.4 12.2 N 0.20 12.2 N -42.9 -29.4 -42.9 736.8 0.033 0.000 15.9 2 -33.6 12.6 0.54 .0739 24 1 100.0 1
08/06/23 14:29 -29.4 -29.3 -29.4 75 -32.5 11.3 N 0.19 12.2 N -42.6 -29.5 -42.6 736.9 0.033 0.000 15.9 2 -33.6 12.6 0.54 .0739 23 1 100.0 1
08/06/23 14:30 -29.4 -29.4 -29.4 75 -32.5 11.3 N 0.19 12.2 N -42.6 -29.5 -42.6 736.9 0.033 0.000 15.9 2 -33.6 12.6 0.54 .0739 24 1 100.0 1
08/06/23 14:31 -29.4 -29.4 -29.5 75 -32.5 11.3 N 0.19 11.3 N -42.6 -29.5 -42.6 736.9 0.033 0.000 15.9 2 -33.6 12.6 0.54 .0739 23 1 100.0 1
08/06/23 14:32 -29.4 -29.4 -29.4 75 -32.5 10.4 N 0.17 10.4 N -42.1 -29.5 -42.2 736.9 0.033 0.000 15.9 2 -33.6 12.6 0.54 .0739 24 1 100.0 1
08/06/23 14:33 -29.4 -29.4 -29.4 75 -32.5 10.4 N 0.17 10.4 N -42.1 -29.5 -42.2 737.0 0.033 0.000 15.9 2 -33.6 12.6 0.54 .0739 23 1 100.0 1
08/06/23 14:34 -29.3 -29.3 -29.4 75 -32.4 9.6 N 0.16 10.4 N -41.4 -29.4 -41.5 736.9 0.033 0.000 15.9 2 -33.6 12.6 0.54 .0739 23 1 100.0 1
08/06/23 14:35 -29.3 -29.3 -29.3 75 -32.4 9.6 N 0.16 10.4 N -41.4 -29.4 -41.5 737.0 0.033 0.000 15.9 2 -33.6 12.6 0.54 .0739 24 1 100.0 1
08/06/23 14:36 -29.3 -29.3 -29.3 75 -32.3 10.4 N 0.17 11.3 N -41.9 -29.3 -41.9 737.0 0.033 0.000 15.9 2 -33.6 12.6 0.54 .0739 23 1 100.0 1
08/06/23 14:37 -29.2 -29.2 -29.3 75 -32.3 10.4 N 0.17 10.4 N -41.8 -29.3 -41.9 737.0 0.033 0.000 15.9 2 -33.6 12.6 0.54 .0739 24 1 100.0 1
08/06/23 14:38 -29.2 -29.2 -29.2 75 -32.3 9.6 N 0.16 10.4 N -41.3 -29.3 -41.4 737.0 0.033 0.000 15.9 2 -33.6 12.6 0.54 .0739 23 1 100.0 1
08/06/23 14:39 -29.2 -29.2 -29.2 75 -32.2 9.6 N 0.16 11.3 N -41.2 -29.2 -41.3 737.0 0.033 0.000 15.9 2 -33.6 12.6 0.54 .0739 23 1 100.0 1
08/06/23 14:40 -29.2 -29.2 -29.2 75 -32.2 9.6 N 0.16 10.4 N -41.2 -29.2 -41.3 737.0 0.033 0.000 15.9 2 -33.6 12.6 0.54 .0739 24 1 100.0 1
08/06/23 14:41 -29.1 -29.1 -29.1 75 -32.1 9.6 N 0.16 10.4 N -41.2 -29.2 -41.2 737.0 0.033 0.000 15.9 2 -33.6 12.6 0.54 .0739 23 1 100.0 1
08/06/23 14:42 -29.1 -29.1 -29.1 75 -32.1 10.4 N 0.17 11.3 N -41.6 -29.1 -41.7 737.0 0.033 0.000 15.9 2 -33.6 12.6 0.54 .0739 24 1 100.0 1
08/06/23 14:43 -29.1 -29.1 -29.1 75 -32.1 10.4 N 0.17 12.2 N -41.6 -29.1 -41.7 737.0 0.033 0.000 15.9 2 -33.6 12.6 0.54 .0739 23 1 100.0 1
08/06/23 14:44 -29.1 -29.1 -29.1 75 -32.1 10.4 N 0.17 11.3 N -41.6 -29.1 -41.7 737.0 0.033 0.000 15.9 2 -33.6 12.6 0.54 .0739 24 1 100.0 1
08/06/23 14:45 -29.1 -29.1 -29.1 75 -32.1 10.4 N 0.17 11.3 N -41.6 -29.1 -41.7 737.0 0.033 0.000 15.9 2 -33.6 12.6 0.54 .0739 23 1 100.0 1
08/06/23 14:46 -29.1 -29.1 -29.1 75 -32.1 9.6 N 0.16 10.4 N -41.2 -29.2 -41.2 737.0 0.033 0.000 15.9 2 -33.7 12.6 0.54 .0739 23 1 100.0 1
08/06/23 14:47 -29.1 -29.1 -29.1 75 -32.1 9.6 N 0.16 10.4 N -41.2 -29.2 -41.2 737.0 0.033 0.000 15.9 2 -33.6 12.6 0.54 .0739 24 1 100.0 1
08/06/23 14:48 -29.2 -29.1 -29.2 75 -32.2 9.6 N 0.16 10.4 N -41.2 -29.2 -41.3 737.0 0.033 0.000 15.9 2 -33.6 12.6 0.54 .0739 23 1 100.0 1
08/06/23 14:49 -29.2 -29.1 -29.2 75 -32.2 10.4 N 0.17 10.4 N -41.7 -29.2 -41.8 737.0 0.033 0.000 15.9 2 -33.6 12.6 0.54 .0739 24 1 100.0 1
08/06/23 14:50 -29.2 -29.2 -29.2 75 -32.2 10.4 N 0.17 11.3 N -41.7 -29.2 -41.8 737.1 0.033 0.000 15.9 2 -33.6 12.6 0.54 .0739 23 1 100.0 1
08/06/23 14:51 -29.2 -29.2 -29.2 75 -32.3 11.3 N 0.19 12.2 N -42.3 -29.3 -42.3 737.1 0.033 0.000 15.9 2 -33.6 12.6 0.54 .0739 23 1 100.0 1
08/06/23 14:52 -29.3 -29.2 -29.3 75 -32.3 10.4 N 0.17 11.3 N -41.9 -29.3 -41.9 737.2 0.033 0.000 15.9 2 -33.6 12.6 0.54 .0739 24 1 100.0 1
08/06/23 14:53 -29.3 -29.3 -29.3 75 -32.3 10.4 N 0.17 12.2 N -41.9 -29.3 -41.9 737.1 0.033 0.000 15.9 2 -33.7 12.6 0.54 .0740 23 1 100.0 1
08/06/23 14:54 -29.3 -29.3 -29.3 75 -32.4 11.3 N 0.19 12.2 N -42.4 -29.4 -42.5 737.1 0.033 0.000 15.9 2 -33.6 12.6 0.54 .0739 24 1 100.0 1
08/06/23 14:55 -29.3 -29.3 -29.3 75 -32.4 11.3 NNW 0.19 12.2 N -42.4 -29.4 -42.5 737.1 0.033 0.000 15.9 2 -33.6 12.6 0.54 .0739 23 1 100.0 1
08/06/23 14:56 -29.3 -29.3 -29.3 75 -32.4 10.4 N 0.17 11.3 N -41.9 -29.4 -42.0 737.0 0.033 0.000 15.9 2 -33.6 12.6 0.54 .0739 23 1 100.0 1
08/06/23 14:57 -29.3 -29.3 -29.3 75 -32.4 9.6 N 0.16 11.3 N -41.4 -29.4 -41.5 737.0 0.033 0.000 15.9 2 -33.6 12.6 0.54 .0739 24 1 100.0 1
08/06/23 14:58 -29.3 -29.3 -29.3 75 -32.4 9.6 N 0.16 12.2 N -41.4 -29.4 -41.5 737.0 0.033 0.000 15.9 2 -33.6 12.6 0.54 .0739 23 1 100.0 1
08/06/23 14:59 -29.3 -29.3 -29.3 75 -32.3 8.7 N 0.14 10.4 N -40.8 -29.3 -40.9 737.0 0.033 0.000 15.9 2 -33.6 12.6 0.54 .0739 24 1 100.0 1
08/06/23 15:00 -29.3 -29.3 -29.3 75 -32.3 8.7 N 0.14 10.4 N -40.8 -29.3 -40.9 737.0 0.033 0.000 15.9 2 -33.6 12.6 0.54 .0739 23 1 100.0 1
08/06/23 15:01 -29.3 -29.3 -29.3 75 -32.3 8.7 N 0.14 10.4 N -40.8 -29.3 -40.9 737.0 0.033 0.000 15.9 2 -33.6 12.6 0.54 .0739 24 1 100.0 1
08/06/23 15:02 -29.3 -29.3 -29.3 75 -32.4 9.6 NNW 0.16 10.4 NNW -41.4 -29.4 -41.5 737.1 0.033 0.000 15.9 2 -33.6 12.6 0.54 .0739 23 1 100.0 1
08/06/23 15:03 -29.3 -29.3 -29.3 75 -32.4 7.8 NNW 0.13 9.6 NNW -40.3 -29.4 -40.3 737.1 0.033 0.000 15.9 2 -33.6 12.6 0.54 .0739 23 1 100.0 1
08/06/23 15:04 -29.4 -29.3 -29.4 75 -32.5 7.8 NNW 0.13 8.7 NNW -40.4 -29.5 -40.5 737.1 0.033 0.000 15.9 2 -33.6 12.6 0.54 .0739 24 1 100.0 1
08/06/23 15:05 -29.5 -29.4 -29.5 75 -32.5 7.8 NNW 0.13 8.7 NNW -40.5 -29.6 -40.6 737.1 0.033 0.000 15.9 2 -33.6 12.6 0.54 .0739 23 1 100.0 1
08/06/23 15:06 -29.5 -29.5 -29.5 75 -32.5 7.0 NNW 0.12 8.7 NNW -39.8 -29.6 -39.9 737.1 0.033 0.000 15.9 2 -33.6 12.6 0.54 .0739 24 1 100.0 1
08/06/23 15:07 -29.6 -29.5 -29.6 75 -32.6 7.0 NNW 0.12 8.7 NNW -39.9 -29.6 -39.9 737.1 0.033 0.000 15.9 2 -33.6 12.6 0.54 .0739 23 1 100.0 1
08/06/23 15:08 -29.6 -29.6 -29.6 75 -32.6 8.7 NNW 0.14 9.6 NNW -41.2 -29.6 -41.2 737.1 0.033 0.000 15.9 2 -33.6 12.6 0.54 .0739 23 1 100.0 1
08/06/23 15:09 -29.6 -29.6 -29.6 75 -32.6 7.8 NNW 0.13 9.6 NNW -40.6 -29.6 -40.6 737.1 0.033 0.000 15.9 2 -33.6 12.6 0.54 .0739 24 1 100.0 1
08/06/23 15:10 -29.6 -29.6 -29.6 75 -32.6 7.8 NNW 0.13 9.6 NNW -40.6 -29.6 -40.6 737.0 0.033 0.000 15.9 2 -33.6 12.6 0.54 .0739 23 1 100.0 1
08/06/23 15:11 -29.6 -29.5 -29.6 75 -32.6 8.7 NNW 0.14 10.4 NNW -41.2 -29.6 -41.2 737.0 0.033 0.000 15.9 2 -33.6 12.6 0.54 .0739 24 1 100.0 1
08/06/23 15:12 -29.5 -29.5 -29.5 75 -32.5 8.7 NNW 0.14 9.6 NNW -41.1 -29.6 -41.2 737.0 0.033 0.000 15.9 2 -33.6 12.6 0.54 .0739 23 1 100.0 1
08/06/23 15:13 -29.6 -29.5 -29.6 75 -32.6 9.6 NNW 0.16 10.4 NNW -41.7 -29.6 -41.8 737.0 0.033 0.000 15.9 2 -33.6 12.6 0.54 .0739 24 1 100.0 1
08/06/23 15:14 -29.5 -29.5 -29.6 75 -32.5 7.0 NNW 0.12 8.7 NW -39.8 -29.6 -39.9 737.0 0.033 0.000 15.9 2 -33.6 12.6 0.54 .0739 23 1 100.0 1
08/06/23 15:15 -29.4 -29.4 -29.5 75 -32.5 8.7 NNW 0.14 10.4 NNW -41.1 -29.5 -41.1 737.0 0.033 0.000 15.9 2 -33.6 12.6 0.54 .0739 23 1 100.0 1
08/06/23 15:16 -29.5 -29.4 -29.5 75 -32.5 7.8 NNW 0.13 8.7 NNW -40.5 -29.6 -40.6 737.0 0.033 0.000 15.9 2 -33.6 12.6 0.54 .0739 24 1 100.0 1
08/06/23 15:17 -29.5 -29.5 -29.5 75 -32.5 8.7 NNW 0.14 9.6 NNW -41.1 -29.6 -41.2 737.0 0.033 0.000 15.9 2 -33.6 12.6 0.54 .0739 23 1 100.0 1
08/06/23 15:18 -29.6 -29.5 -29.6 75 -32.6 7.8 NNW 0.13 8.7 NNW -40.6 -29.6 -40.6 737.0 0.033 0.000 15.9 2 -33.6 12.6 0.54 .0739 24 1 100.0 1
08/06/23 15:19 -29.7 -29.6 -29.7 75 -32.7 7.0 NNW 0.12 7.8 NNW -40.1 -29.7 -40.1 737.0 0.033 0.000 15.9 2 -33.6 12.6 0.54 .0739 23 1 100.0 1
08/06/23 15:20 -29.8 -29.7 -29.8 75 -32.8 5.2 NNW 0.09 7.0 NNW -38.6 -29.8 -38.7 737.0 0.033 0.000 15.9 2 -33.6 12.6 0.54 .0739 23 1 100.0 1
08/06/23 15:21 -29.8 -29.8 -29.8 74 -33.0 6.1 NNW 0.10 8.7 NNW -39.5 -29.9 -39.6 737.0 0.033 0.000 15.9 2 -33.6 12.6 0.54 .0739 24 1 100.0 1
08/06/23 15:22 -29.9 -29.8 -29.9 74 -33.0 7.0 NNW 0.12 8.7 NNW -40.3 -29.9 -40.4 737.0 0.033 0.000 15.9 2 -33.6 12.6 0.54 .0739 23 1 100.0 1
08/06/23 15:23 -29.8 -29.8 -29.8 74 -33.0 6.1 NNW 0.10 7.0 NNW -39.5 -29.9 -39.6 737.0 0.033 0.000 15.9 2 -33.6 12.6 0.54 .0739 24 1 100.0 1
08/06/23 15:24 -29.8 -29.8 -29.8 74 -33.0 7.0 NNW 0.12 7.8 NNW -40.2 -29.9 -40.3 737.1 0.033 0.000 15.9 2 -33.6 12.6 0.54 .0739 23 1 100.0 1
08/06/23 15:25 -29.9 -29.8 -29.9 74 -33.0 6.1 NNW 0.10 7.8 NNW -39.6 -29.9 -39.6 737.1 0.033 0.000 15.9 2 -33.6 12.6 0.54 .0739 23 1 100.0 1
08/06/23 15:26 -29.9 -29.9 -29.9 74 -33.1 5.2 NNW 0.09 7.0 NNW -38.8 -30.0 -38.9 737.1 0.034 0.000 15.9 2 -33.6 12.6 0.54 .0739 24 1 100.0 1
08/06/23 15:27 -30.1 -29.9 -30.1 75 -33.1 7.0 NNW 0.12 8.7 NNW -40.5 -30.1 -40.6 737.1 0.034 0.000 15.9 2 -33.6 12.6 0.54 .0739 23 1 100.0 1
08/06/23 15:28 -30.1 -30.1 -30.1 74 -33.3 8.7 NNW 0.14 9.6 NNW -41.8 -30.2 -41.9 737.1 0.034 0.000 15.9 2 -33.6 12.6 0.54 .0739 24 1 100.0 1
08/06/23 15:29 -30.1 -30.1 -30.1 74 -33.2 9.6 NNW 0.16 10.4 NNW -42.3 -30.1 -42.4 737.1 0.034 0.000 15.9 2 -33.6 12.6 0.54 .0739 23 1 100.0 1
08/06/23 15:30 -30.1 -30.1 -30.1 74 -33.2 9.6 NNW 0.16 10.4 NNW -42.3 -30.1 -42.4 737.1 0.034 0.000 15.9 2 -33.7 12.6 0.54 .0740 24 1 100.0 1
08/06/23 15:31 -29.9 -29.9 -30.0 74 -33.1 8.7 NNW 0.14 9.6 NNW -41.7 -30.0 -41.7 737.1 0.034 0.000 15.9 2 -33.7 12.6 0.54 .0739 23 1 100.0 1
08/06/23 15:32 -29.9 -29.9 -30.0 74 -33.1 8.7 N 0.14 9.6 N -41.7 -30.0 -41.7 737.1 0.034 0.000 15.9 2 -33.7 12.6 0.54 .0740 23 1 100.0 1
08/06/23 15:33 -29.8 -29.8 -29.9 75 -32.8 8.7 N 0.14 9.6 N -41.5 -29.9 -41.6 737.1 0.033 0.000 15.9 2 -33.7 12.6 0.54 .0740 24 1 100.0 1
08/06/23 15:34 -29.8 -29.8 -29.8 75 -32.8 8.7 N 0.14 9.6 N -41.4 -29.8 -41.5 737.0 0.033 0.000 15.9 2 -33.7 12.6 0.54 .0739 23 1 100.0 1
08/06/23 15:35 -29.8 -29.8 -29.8 75 -32.8 8.7 N 0.14 9.6 N -41.4 -29.8 -41.5 737.0 0.033 0.000 15.9 2 -33.7 12.6 0.54 .0739 24 1 100.0 1
08/06/23 15:36 -29.7 -29.7 -29.7 75 -32.7 8.7 N 0.14 11.3 N -41.4 -29.8 -41.4 736.9 0.033 0.000 15.9 2 -33.7 12.6 0.54 .0739 23 1 100.0 1
08/06/23 15:37 -29.7 -29.7 -29.7 75 -32.7 8.7 N 0.14 9.6 N -41.3 -29.7 -41.4 736.9 0.033 0.000 15.9 2 -33.7 12.6 0.54 .0739 23 1 100.0 1
08/06/23 15:38 -29.7 -29.7 -29.7 75 -32.7 8.7 N 0.14 9.6 N -41.3 -29.7 -41.4 736.9 0.033 0.000 15.9 2 -33.7 12.6 0.54 .0739 24 1 100.0 1
08/06/23 15:39 -29.7 -29.7 -29.7 75 -32.7 8.7 N 0.14 9.6 NNW -41.3 -29.7 -41.4 737.0 0.033 0.000 15.9 2 -33.7 12.6 0.54 .0739 23 1 100.0 1
08/06/23 15:40 -29.7 -29.7 -29.7 75 -32.7 9.6 N 0.16 10.4 N -41.9 -29.7 -41.9 737.0 0.033 0.000 15.9 2 -33.7 12.6 0.54 .0739 24 1 100.0 1
08/06/23 15:41 -29.7 -29.7 -29.7 75 -32.7 8.7 NNW 0.14 9.6 NNW -41.3 -29.7 -41.4 737.0 0.033 0.000 15.9 2 -33.7 12.6 0.54 .0739 23 1 100.0 1
08/06/23 15:42 -29.7 -29.7 -29.7 75 -32.7 9.6 NNW 0.16 9.6 NNW -41.9 -29.8 -42.0 737.0 0.033 0.000 15.9 2 -33.7 12.6 0.54 .0739 24 1 100.0 1
08/06/23 15:43 -29.7 -29.7 -29.7 75 -32.7 8.7 NNW 0.14 10.4 NNW -41.4 -29.8 -41.4 737.0 0.033 0.000 15.9 2 -33.7 12.6 0.54 .0739 23 1 100.0 1
08/06/23 15:44 -29.8 -29.8 -29.8 75 -32.8 10.4 N 0.17 11.3 N -42.5 -29.8 -42.6 737.0 0.033 0.000 15.9 2 -33.7 12.6 0.54 .0739 23 1 100.0 1
08/06/23 15:45 -29.8 -29.8 -29.8 75 -32.8 9.6 N 0.16 11.3 N -42.0 -29.8 -42.1 737.0 0.033 0.000 15.9 2 -33.7 12.6 0.54 .0739 24 1 100.0 1
08/06/23 15:46 -29.8 -29.8 -29.8 75 -32.8 9.6 N 0.16 10.4 N -42.1 -29.9 -42.1 736.9 0.033 0.000 15.9 2 -33.7 12.6 0.54 .0739 23 1 100.0 1
08/06/23 15:47 -29.8 -29.8 -29.8 75 -32.8 10.4 N 0.17 11.3 N -42.5 -29.8 -42.6 737.0 0.033 0.000 15.9 2 -33.7 12.6 0.54 .0739 24 1 100.0 1
08/06/23 15:48 -29.8 -29.8 -29.8 74 -33.0 9.6 N 0.16 10.4 N -42.1 -29.9 -42.1 736.9 0.033 0.000 15.9 2 -33.7 12.6 0.54 .0739 23 1 100.0 1
08/06/23 15:49 -29.8 -29.8 -29.8 75 -32.8 8.7 N 0.14 9.6 N -41.5 -29.9 -41.6 737.0 0.033 0.000 15.9 2 -33.7 12.6 0.54 .0739 23 1 100.0 1
08/06/23 15:50 -29.8 -29.8 -29.8 75 -32.8 8.7 N 0.14 9.6 N -41.5 -29.9 -41.6 737.0 0.033 0.000 15.9 2 -33.7 12.6 0.54 .0739 24 1 100.0 1
08/06/23 15:51 -29.8 -29.8 -29.8 75 -32.8 7.8 N 0.13 8.7 N -40.9 -29.9 -40.9 737.0 0.033 0.000 15.9 2 -33.7 12.6 0.54 .0739 23 1 100.0 1
08/06/23 15:52 -29.8 -29.8 -29.8 74 -33.0 8.7 N 0.14 9.6 N -41.5 -29.9 -41.6 736.9 0.033 0.000 15.9 2 -33.7 12.6 0.54 .0739 24 1 100.0 1
08/06/23 15:53 -29.8 -29.8 -29.8 74 -33.0 8.7 N 0.14 9.6 N -41.5 -29.9 -41.6 736.9 0.033 0.000 15.9 2 -33.7 12.6 0.54 .0739 23 1 100.0 1
08/06/23 15:54 -29.8 -29.8 -29.8 74 -33.0 8.7 N 0.14 9.6 N -41.5 -29.9 -41.6 736.9 0.033 0.000 15.9 2 -33.7 12.6 0.54 .0739 23 1 100.0 1
08/06/23 15:55 -29.8 -29.8 -29.8 74 -33.0 9.6 N 0.16 9.6 N -42.1 -29.9 -42.1 736.9 0.033 0.000 15.9 2 -33.7 12.6 0.54 .0739 24 1 100.0 1
08/06/23 15:56 -29.9 -29.8 -29.9 75 -32.9 8.7 N 0.14 9.6 N -41.6 -29.9 -41.7 737.0 0.033 0.000 15.9 2 -33.7 12.6 0.54 .0739 23 1 100.0 1
08/06/23 15:57 -29.8 -29.8 -29.9 75 -32.8 9.6 N 0.16 10.4 N -42.1 -29.9 -42.1 737.0 0.033 0.000 15.9 2 -33.7 12.6 0.54 .0739 24 1 100.0 1
08/06/23 15:58 -29.8 -29.8 -29.9 75 -32.8 9.6 NNW 0.16 9.6 NNW -42.1 -29.9 -42.1 737.0 0.033 0.000 15.9 2 -33.7 12.6 0.54 .0739 23 1 100.0 1
08/06/23 15:59 -29.8 -29.8 -29.9 75 -32.8 9.6 NNW 0.16 10.4 NNW -42.1 -29.9 -42.1 737.0 0.033 0.000 15.9 2 -33.7 12.6 0.54 .0739 24 1 100.0 1
08/06/23 16:00 -29.8 -29.8 -29.9 75 -32.8 8.7 NNW 0.14 10.4 NNW -41.5 -29.9 -41.6 736.9 0.033 0.000 15.9 2 -33.7 12.6 0.54 .0739 23 1 100.0 1
08/06/23 16:01 -29.9 -29.9 -29.9 75 -32.9 9.6 NNW 0.16 10.4 NNW -42.2 -29.9 -42.2 736.9 0.033 0.000 15.9 2 -33.7 12.6 0.54 .0739 23 1 100.0 1
08/06/23 16:02 -29.9 -29.9 -29.9 75 -33.0 9.6 NNW 0.16 10.4 NNW -42.2 -30.0 -42.3 736.9 0.034 0.000 15.9 2 -33.7 12.6 0.54 .0739 24 1 100.0 1
08/06/23 16:03 -29.9 -29.9 -29.9 75 -33.0 8.7 NNW 0.14 9.6 NNW -41.7 -30.0 -41.7 736.9 0.034 0.000 15.9 2 -33.7 12.6 0.54 .0739 23 1 100.0 1
08/06/23 16:04 -30.0 -29.9 -30.0 75 -33.0 9.6 NNW 0.16 9.6 NNW -42.3 -30.1 -42.3 737.0 0.034 0.000 15.9 2 -33.7 12.6 0.54 .0739 24 1 100.0 1
08/06/23 16:05 -30.0 -30.0 -30.0 75 -33.0 9.6 NNW 0.16 10.4 NNW -42.3 -30.1 -42.3 736.9 0.034 0.000 15.9 2 -33.7 12.6 0.54 .0739 23 1 100.0 1
08/06/23 16:06 -30.0 -30.0 -30.1 75 -33.0 9.6 NNW 0.16 10.4 NNW -42.3 -30.1 -42.3 736.9 0.034 0.000 15.9 2 -33.7 12.6 0.54 .0739 23 1 100.0 1
08/06/23 16:07 -30.0 -30.0 -30.1 75 -33.0 10.4 NNW 0.17 13.0 NNW -42.8 -30.1 -42.8 737.0 0.034 0.000 15.9 2 -33.6 12.6 0.54 .0739 24 1 100.0 1
08/06/23 16:08 -30.1 -30.0 -30.1 75 -33.1 9.6 NNW 0.16 11.3 NNW -42.3 -30.1 -42.4 737.0 0.034 0.000 15.9 2 -33.6 12.6 0.54 .0739 23 1 100.0 1
08/06/23 16:09 -30.1 -30.1 -30.1 75 -33.1 9.6 NNW 0.16 10.4 NNW -42.3 -30.1 -42.4 737.0 0.034 0.000 15.9 2 -33.6 12.6 0.54 .0739 24 1 100.0 1
08/06/23 16:10 -30.1 -30.1 -30.1 75 -33.1 9.6 NNW 0.16 11.3 NNW -42.3 -30.1 -42.4 736.9 0.034 0.000 15.9 2 -33.7 12.6 0.54 .0739 23 1 100.0 1
08/06/23 16:11 -30.1 -30.1 -30.1 75 -33.1 9.6 NNW 0.16 11.3 NNW -42.3 -30.1 -42.4 736.9 0.034 0.000 15.9 2 -33.6 12.6 0.54 .0739 24 1 100.0 1
08/06/23 16:12 -30.1 -30.1 -30.1 75 -33.1 9.6 NNW 0.16 11.3 NNW -42.3 -30.1 -42.4 736.9 0.034 0.000 15.9 2 -33.6 12.6 0.54 .0739 23 1 100.0 1
08/06/23 16:13 -30.1 -30.1 -30.1 75 -33.1 9.6 NNW 0.16 10.4 NNW -42.4 -30.2 -42.5 736.9 0.034 0.000 15.9 2 -33.6 12.6 0.54 .0739 23 1 100.0 1
08/06/23 16:14 -30.2 -30.1 -30.2 75 -33.2 10.4 NNW 0.17 12.2 NNW -43.0 -30.2 -43.1 736.9 0.034 0.000 15.9 2 -33.6 12.6 0.54 .0739 24 1 100.0 1
08/06/23 16:15 -30.2 -30.2 -30.2 75 -33.2 9.6 NNW 0.16 10.4 NNW -42.5 -30.2 -42.6 736.9 0.034 0.000 15.9 2 -33.7 12.6 0.54 .0739 23 1 100.0 1
08/06/23 16:16 -30.2 -30.2 -30.2 75 -33.2 9.6 NNW 0.16 10.4 NNW -42.6 -30.3 -42.6 736.9 0.034 0.000 15.9 2 -33.7 12.6 0.54 .0739 24 1 100.0 1
08/06/23 16:17 -30.2 -30.2 -30.2 74 -33.4 10.4 NNW 0.17 11.3 NNW -43.1 -30.3 -43.1 736.9 0.034 0.000 15.9 2 -33.7 12.6 0.54 .0739 23 1 100.0 1
08/06/23 16:18 -30.2 -30.2 -30.2 75 -33.2 10.4 NNW 0.17 11.3 NNW -43.0 -30.2 -43.1 736.9 0.034 0.000 15.9 2 -33.7 12.6 0.54 .0739 23 1 100.0 1
08/06/23 16:19 -30.2 -30.2 -30.2 75 -33.2 11.3 NNW 0.19 12.2 NNW -43.5 -30.2 -43.6 736.9 0.034 0.000 15.9 2 -33.7 12.6 0.54 .0739 24 1 100.0 1
08/06/23 16:20 -30.2 -30.1 -30.2 75 -33.2 11.3 NNW 0.19 13.0 NNW -43.5 -30.2 -43.6 736.9 0.034 0.000 15.9 2 -33.7 12.6 0.54 .0739 23 1 100.0 1
08/06/23 16:21 -30.1 -30.1 -30.1 75 -33.1 10.4 NNW 0.17 11.3 NNW -42.9 -30.2 -43.0 736.9 0.034 0.000 15.9 2 -33.7 12.6 0.54 .0739 24 1 100.0 1
08/06/23 16:22 -30.1 -30.1 -30.1 75 -33.1 10.4 NNW 0.17 12.2 NNW -42.9 -30.2 -43.0 736.9 0.034 0.000 15.9 2 -33.7 12.6 0.54 .0739 23 1 100.0 1
08/06/23 16:23 -30.2 -30.1 -30.2 75 -33.2 11.3 NNW 0.19 12.2 NNW -43.5 -30.2 -43.6 736.9 0.034 0.000 15.9 2 -33.7 12.6 0.54 .0739 23 1 100.0 1
08/06/23 16:24 -30.2 -30.2 -30.2 75 -33.2 10.4 NNW 0.17 12.2 NNW -43.1 -30.3 -43.1 736.9 0.034 0.000 15.8 2 -33.7 12.6 0.54 .0739 24 1 100.0 1
08/06/23 16:25 -30.2 -30.2 -30.2 74 -33.4 9.6 NNW 0.16 11.3 NNW -42.6 -30.3 -42.6 736.8 0.034 0.000 15.9 2 -33.7 12.6 0.54 .0739 23 1 100.0 1
08/06/23 16:26 -30.2 -30.2 -30.2 74 -33.4 9.6 NNW 0.16 10.4 NW -42.6 -30.3 -42.6 736.8 0.034 0.000 15.8 2 -33.7 12.6 0.54 .0739 24 1 100.0 1
08/06/23 16:27 -30.2 -30.2 -30.2 74 -33.4 8.7 NNW 0.14 9.6 NNW -42.0 -30.3 -42.1 736.8 0.034 0.000 15.8 2 -33.7 12.6 0.54 .0739 23 1 100.0 1
08/06/23 16:28 -30.2 -30.2 -30.2 74 -33.4 9.6 NNW 0.16 10.4 NNW -42.6 -30.3 -42.6 736.8 0.034 0.000 15.8 2 -33.7 12.6 0.54 .0739 24 1 100.0 1
08/06/23 16:29 -30.2 -30.2 -30.2 74 -33.3 11.3 NNW 0.19 14.8 NNW -43.5 -30.2 -43.6 736.7 0.034 0.000 15.8 2 -33.7 12.6 0.54 .0739 23 1 100.0 1
08/06/23 16:30 -30.1 -30.1 -30.2 75 -33.1 10.4 NNW 0.17 13.0 NNW -42.9 -30.2 -43.0 736.8 0.034 0.000 15.8 2 -33.7 12.6 0.54 .0739 23 1 100.0 1
08/06/23 16:31 -30.1 -30.1 -30.1 75 -33.1 9.6 NNW 0.16 13.0 NNW -42.3 -30.1 -42.4 736.8 0.034 0.000 15.8 2 -33.7 12.6 0.54 .0739 24 1 100.0 1
08/06/23 16:32 -30.1 -30.1 -30.1 75 -33.1 10.4 NW 0.17 12.2 NNW -42.9 -30.1 -42.9 736.8 0.034 0.000 15.8 2 -33.7 12.6 0.54 .0739 23 1 100.0 1
08/06/23 16:33 -30.1 -30.1 -30.1 75 -33.1 9.6 NNW 0.16 11.3 NNW -42.3 -30.1 -42.4 736.8 0.034 0.000 15.8 2 -33.7 12.6 0.54 .0739 24 1 100.0 1
08/06/23 16:34 -30.1 -30.1 -30.1 75 -33.1 9.6 NNW 0.16 11.3 NNW -42.4 -30.2 -42.5 736.9 0.034 0.000 15.8 2 -33.7 12.6 0.54 .0739 23 1 100.0 1
08/06/23 16:35 -30.2 -30.1 -30.2 75 -33.2 10.4 NNW 0.17 13.0 N -43.0 -30.2 -43.1 736.9 0.034 0.000 15.8 2 -33.7 12.6 0.54 .0739 24 1 100.0 1
08/06/23 16:36 -30.2 -30.2 -30.2 75 -33.2 9.6 NNW 0.16 11.3 NNW -42.6 -30.3 -42.6 736.9 0.034 0.000 15.8 2 -33.7 12.6 0.54 .0739 23 1 100.0 1
08/06/23 16:37 -30.2 -30.2 -30.2 75 -33.2 11.3 N 0.19 12.2 N -43.6 -30.3 -43.6 736.9 0.034 0.000 15.8 2 -33.7 12.6 0.54 .0739 23 1 100.0 1
08/06/23 16:38 -30.3 -30.2 -30.3 74 -33.4 10.4 N 0.17 12.2 N -43.2 -30.3 -43.2 736.8 0.034 0.000 15.8 2 -33.7 12.6 0.54 .0739 24 1 100.0 1
08/06/23 16:39 -30.3 -30.3 -30.3 74 -33.4 11.3 N 0.19 13.0 N -43.6 -30.3 -43.7 736.8 0.034 0.000 15.8 2 -33.7 12.6 0.54 .0739 23 1 100.0 1
08/06/23 16:40 -30.3 -30.3 -30.3 74 -33.4 11.3 NNW 0.19 12.2 NNW -43.6 -30.3 -43.7 736.8 0.034 0.000 15.8 2 -33.7 12.6 0.54 .0739 24 1 100.0 1
08/06/23 16:41 -30.3 -30.3 -30.3 74 -33.5 10.4 NNW 0.17 12.2 NNW -43.2 -30.4 -43.3 736.7 0.034 0.000 15.8 2 -33.7 12.6 0.54 .0739 23 1 100.0 1
08/06/23 16:42 -30.4 -30.4 -30.4 74 -33.6 11.3 NNW 0.19 13.0 NNW -43.8 -30.5 -43.9 736.8 0.034 0.000 15.8 2 -33.7 12.6 0.54 .0739 23 1 100.0 1
08/06/23 16:43 -30.4 -30.4 -30.4 74 -33.6 11.3 NNW 0.19 13.0 NNW -43.8 -30.5 -43.9 736.8 0.034 0.000 15.8 2 -33.7 12.6 0.54 .0739 24 1 100.0 1
08/06/23 16:44 -30.4 -30.4 -30.4 74 -33.6 10.4 N 0.17 12.2 NNW -43.3 -30.5 -43.4 736.8 0.034 0.000 15.8 2 -33.7 12.6 0.54 .0739 23 1 100.0 1
08/06/23 16:45 -30.5 -30.4 -30.5 74 -33.6 10.4 N 0.17 10.4 N -43.4 -30.6 -43.5 736.8 0.034 0.000 15.8 2 -33.7 12.6 0.54 .0739 24 1 100.0 1
08/06/23 16:46 -30.5 -30.5 -30.5 74 -33.6 9.6 NNW 0.16 11.3 NNW -42.9 -30.6 -42.9 736.8 0.034 0.000 15.8 2 -33.7 12.6 0.54 .0739 23 1 100.0 1
08/06/23 16:47 -30.6 -30.5 -30.6 74 -33.7 10.4 NNW 0.17 11.3 NNW -43.5 -30.6 -43.5 736.7 0.034 0.000 15.8 2 -33.7 12.6 0.54 .0739 23 1 100.0 1
08/06/23 16:48 -30.6 -30.6 -30.6 74 -33.7 9.6 NNW 0.16 10.4 NNW -43.1 -30.6 -43.1 736.8 0.034 0.000 15.8 2 -33.7 12.6 0.54 .0739 24 1 100.0 1
08/06/23 16:49 -30.6 -30.6 -30.6 74 -33.7 11.3 NNW 0.19 12.2 NNW -44.1 -30.6 -44.1 736.7 0.034 0.000 15.8 2 -33.7 12.6 0.54 .0739 23 1 100.0 1
08/06/23 16:50 -30.6 -30.6 -30.6 74 -33.7 11.3 NNW 0.19 12.2 NNW -44.1 -30.6 -44.1 736.7 0.034 0.000 15.8 2 -33.7 12.6 0.54 .0739 24 1 100.0 1
08/06/23 16:51 -30.6 -30.6 -30.6 74 -33.7 11.3 N 0.19 12.2 N -44.1 -30.6 -44.1 736.7 0.034 0.000 15.8 2 -33.7 12.6 0.54 .0739 23 1 100.0 1
08/06/23 16:52 -30.6 -30.6 -30.6 74 -33.7 11.3 N 0.19 13.0 NNW -44.1 -30.6 -44.1 736.7 0.034 0.000 15.8 2 -33.7 12.6 0.54 .0739 23 1 100.0 1
08/06/23 16:53 -30.6 -30.6 -30.7 74 -33.7 11.3 N 0.19 12.2 N -44.1 -30.6 -44.1 736.7 0.034 0.000 15.8 2 -33.7 12.6 0.54 .0739 24 1 100.0 1
08/06/23 16:54 -30.7 -30.7 -30.7 74 -33.8 12.2 N 0.20 13.0 N -44.6 -30.7 -44.6 736.7 0.034 0.000 15.8 2 -33.7 12.6 0.54 .0739 23 1 100.0 1
08/06/23 16:55 -30.7 -30.7 -30.7 74 -33.8 12.2 N 0.20 13.0 N -44.7 -30.7 -44.7 736.8 0.034 0.000 15.8 2 -33.7 12.6 0.54 .0739 24 1 100.0 1
08/06/23 16:56 -30.7 -30.7 -30.7 74 -33.8 11.3 N 0.19 12.2 N -44.2 -30.7 -44.2 736.8 0.034 0.000 15.8 2 -33.7 12.6 0.54 .0739 23 1 100.0 1
08/06/23 16:57 -30.8 -30.7 -30.8 74 -33.9 12.2 N 0.20 12.2 N -44.7 -30.8 -44.7 736.8 0.034 0.000 15.8 2 -33.7 12.6 0.54 .0739 24 1 100.0 1
08/06/23 16:58 -30.8 -30.8 -30.8 74 -33.9 11.3 NNW 0.19 12.2 N -44.3 -30.8 -44.3 736.8 0.034 0.000 15.8 2 -33.7 12.6 0.54 .0739 23 1 100.0 1
08/06/23 16:59 -30.8 -30.8 -30.8 74 -34.0 11.3 NNW 0.19 12.2 NNW -44.3 -30.8 -44.3 736.8 0.034 0.000 15.8 2 -33.7 12.6 0.54 .0739 23 1 100.0 1
08/06/23 17:00 -30.8 -30.8 -30.8 74 -33.9 10.4 N 0.17 12.2 N -43.8 -30.8 -43.8 736.8 0.034 0.000 15.8 2 -33.7 12.6 0.54 .0739 24 1 100.0 1
08/06/23 17:01 -30.7 -30.7 -30.8 74 -33.8 9.6 N 0.16 11.3 N -43.2 -30.7 -43.2 736.8 0.034 0.000 15.8 2 -33.7 12.6 0.54 .0739 23 1 100.0 1
08/06/23 17:02 -30.7 -30.7 -30.7 74 -33.8 10.4 N 0.17 10.4 N -43.7 -30.7 -43.7 736.8 0.034 0.000 15.8 2 -33.7 12.6 0.54 .0739 24 1 100.0 1
08/06/23 17:03 -30.8 -30.7 -30.8 74 -33.9 9.6 N 0.16 10.4 N -43.3 -30.8 -43.3 736.8 0.034 0.000 15.8 2 -33.7 12.6 0.54 .0739 23 1 100.0 1
08/06/23 17:04 -30.8 -30.8 -30.8 74 -34.0 10.4 N 0.17 12.2 N -43.8 -30.8 -43.8 736.8 0.034 0.000 15.8 2 -33.7 12.6 0.54 .0739 23 1 100.0 1
08/06/23 17:05 -30.8 -30.8 -30.8 74 -34.0 10.4 N 0.17 10.4 N -43.8 -30.8 -43.8 736.9 0.034 0.000 15.8 2 -33.7 12.6 0.54 .0739 24 1 100.0 1
08/06/23 17:06 -30.9 -30.9 -30.9 74 -34.1 10.4 N 0.17 11.3 N -44.0 -30.9 -44.0 736.8 0.034 0.000 15.8 2 -33.7 12.5 0.54 .0740 23 1 100.0 1
08/06/23 17:07 -30.9 -30.9 -30.9 74 -34.1 10.4 N 0.17 12.2 N -44.0 -30.9 -44.0 736.8 0.034 0.000 15.8 2 -33.7 12.6 0.54 .0739 24 1 100.0 1
08/06/23 17:08 -30.9 -30.9 -30.9 74 -34.1 9.6 NNW 0.16 12.2 NNW -43.4 -30.9 -43.4 736.7 0.034 0.000 15.8 2 -33.7 12.5 0.54 .0739 23 1 100.0 1
08/06/23 17:09 -30.9 -30.9 -30.9 74 -34.0 11.3 NNW 0.19 13.0 NNW -44.4 -30.9 -44.4 736.7 0.034 0.000 15.8 2 -33.7 12.5 0.54 .0739 24 1 100.0 1
08/06/23 17:10 -30.8 -30.8 -30.8 74 -34.0 9.6 NNW 0.16 11.3 N -43.3 -30.8 -43.3 736.7 0.034 0.000 15.8 2 -33.7 12.6 0.54 .0739 23 1 100.0 1
08/06/23 17:11 -30.8 -30.8 -30.8 74 -34.0 9.6 NNW 0.16 11.3 NNW -43.3 -30.8 -43.3 736.7 0.034 0.000 15.8 2 -33.7 12.5 0.54 .0739 23 1 100.0 1
08/06/23 17:12 -30.8 -30.8 -30.8 74 -34.0 9.6 NNW 0.16 11.3 NNW -43.3 -30.8 -43.3 736.7 0.034 0.000 15.8 2 -33.7 12.5 0.54 .0739 24 1 100.0 1
08/06/23 17:13 -30.8 -30.8 -30.8 74 -34.0 11.3 N 0.19 13.0 NNW -44.3 -30.8 -44.3 736.7 0.034 0.000 15.8 2 -33.7 12.5 0.54 .0739 23 1 100.0 1
08/06/23 17:14 -30.8 -30.8 -30.8 74 -34.0 10.4 NNW 0.17 11.3 NNW -43.8 -30.8 -43.8 736.8 0.034 0.000 15.8 2 -33.7 12.5 0.54 .0739 24 1 100.0 1
08/06/23 17:15 -30.8 -30.8 -30.8 74 -33.9 9.6 NNW 0.16 11.3 NNW -43.3 -30.8 -43.3 736.8 0.034 0.000 15.8 2 -33.7 12.5 0.54 .0739 23 1 100.0 1
08/06/23 17:16 -30.8 -30.8 -30.8 74 -33.9 9.6 NNW 0.16 11.3 NNW -43.3 -30.8 -43.3 736.8 0.034 0.000 15.8 2 -33.7 12.5 0.54 .0740 23 1 100.0 1
08/06/23 17:17 -30.7 -30.7 -30.8 74 -33.8 9.6 NW 0.16 12.2 NW -43.2 -30.7 -43.2 736.8 0.034 0.000 15.8 2 -33.7 12.5 0.54 .0740 24 1 100.0 1
08/06/23 17:18 -30.7 -30.7 -30.7 74 -33.8 7.8 NNW 0.13 8.7 NNW -42.0 -30.7 -42.0 736.8 0.034 0.000 15.8 2 -33.7 12.5 0.54 .0739 23 1 100.0 1
08/06/23 17:19 -30.7 -30.7 -30.7 74 -33.8 8.7 NW 0.14 9.6 NW -42.6 -30.7 -42.6 736.8 0.034 0.000 15.8 2 -33.7 12.5 0.54 .0739 24 1 100.0 1
08/06/23 17:20 -30.7 -30.7 -30.7 74 -33.8 8.7 NW 0.14 10.4 NW -42.6 -30.7 -42.6 736.7 0.034 0.000 15.8 2 -33.7 12.5 0.54 .0739 23 1 100.0 1
08/06/23 17:21 -30.7 -30.7 -30.7 74 -33.8 9.6 NW 0.16 11.3 NNW -43.1 -30.7 -43.1 736.8 0.034 0.000 15.8 2 -33.7 12.5 0.54 .0739 23 1 100.0 1
08/06/23 17:22 -30.7 -30.7 -30.7 74 -33.8 8.7 NNW 0.14 11.3 NNW -42.6 -30.7 -42.6 736.7 0.034 0.000 15.8 2 -33.7 12.5 0.54 .0739 24 1 100.0 1
08/06/23 17:23 -30.6 -30.6 -30.7 74 -33.7 9.6 NW 0.16 12.2 NNW -43.1 -30.6 -43.1 736.7 0.034 0.000 15.8 2 -33.7 12.5 0.54 .0739 23 1 100.0 1
08/06/23 17:24 -30.6 -30.6 -30.6 75 -33.6 10.4 NNW 0.17 12.2 NW -43.6 -30.6 -43.6 736.7 0.034 0.000 15.8 2 -33.7 12.5 0.54 .0739 24 1 100.0 1
08/06/23 17:25 -30.6 -30.6 -30.6 74 -33.7 11.3 NNW 0.19 12.2 NNW -44.0 -30.6 -44.0 736.7 0.034 0.000 15.8 2 -33.7 12.5 0.54 .0739 23 1 100.0 1
08/06/23 17:26 -30.6 -30.6 -30.6 75 -33.6 9.6 NNW 0.16 12.2 NNW -43.1 -30.6 -43.1 736.7 0.034 0.000 15.8 2 -33.7 12.5 0.54 .0739 24 1 100.0 1
08/06/23 17:27 -30.6 -30.6 -30.6 75 -33.6 9.6 NNW 0.16 11.3 NNW -43.1 -30.6 -43.1 736.7 0.034 0.000 15.8 2 -33.7 12.5 0.54 .0739 23 1 100.0 1
08/06/23 17:28 -30.7 -30.6 -30.7 75 -33.7 10.4 NNW 0.17 12.2 NNW -43.6 -30.7 -43.6 736.8 0.034 0.000 15.8 2 -33.7 12.5 0.54 .0739 23 1 100.0 1
08/06/23 17:29 -30.7 -30.6 -30.7 74 -33.8 8.7 NNW 0.14 10.4 NNW -42.6 -30.7 -42.6 736.8 0.034 0.000 15.8 2 -33.7 12.5 0.54 .0739 24 1 100.0 1
08/06/23 17:30 -30.7 -30.6 -30.7 74 -33.8 9.6 N 0.16 10.4 N -43.1 -30.7 -43.1 736.8 0.034 0.000 15.8 2 -33.7 12.5 0.54 .0739 23 1 100.0 1
08/06/23 17:31 -30.7 -30.7 -30.7 74 -33.8 9.6 NNW 0.16 11.3 NNW -43.1 -30.7 -43.1 736.7 0.034 0.000 15.8 2 -33.7 12.5 0.54 .0739 24 1 100.0 1
08/06/23 17:32 -30.7 -30.7 -30.7 74 -33.8 9.6 NNW 0.16 12.2 NNW -43.1 -30.7 -43.1 736.7 0.034 0.000 15.8 2 -33.7 12.5 0.54 .0739 23 1 100.0 1
08/06/23 17:33 -30.7 -30.7 -30.7 74 -33.8 8.7 NNW 0.14 10.4 NNW -42.6 -30.7 -42.6 736.7 0.034 0.000 15.8 2 -33.7 12.5 0.54 .0739 23 1 100.0 1
08/06/23 17:34 -30.7 -30.7 -30.7 74 -33.8 7.8 NNW 0.13 9.6 NNW -42.0 -30.7 -42.0 736.7 0.034 0.000 15.8 2 -33.7 12.5 0.54 .0739 24 1 100.0 1
08/06/23 17:35 -30.8 -30.7 -30.8 74 -33.9 8.7 NNW 0.14 10.4 NNW -42.7 -30.8 -42.7 736.7 0.034 0.000 15.8 2 -33.7 12.5 0.54 .0739 23 1 100.0 1
08/06/23 17:36 -30.8 -30.8 -30.8 74 -33.9 8.7 NNW 0.14 10.4 NNW -42.7 -30.8 -42.7 736.8 0.034 0.000 15.8 2 -33.7 12.5 0.54 .0739 24 1 100.0 1
08/06/23 17:37 -30.8 -30.8 -30.8 74 -33.9 8.7 NNW 0.14 10.4 NNW -42.7 -30.8 -42.7 736.8 0.034 0.000 15.8 2 -33.7 12.5 0.54 .0739 23 1 100.0 1
08/06/23 17:38 -30.8 -30.8 -30.8 74 -33.9 9.6 NNW 0.16 10.4 NNW -43.3 -30.8 -43.3 736.8 0.034 0.000 15.8 2 -33.7 12.5 0.54 .0740 24 1 100.0 1
08/06/23 17:39 -30.7 -30.7 -30.8 74 -33.8 9.6 NNW 0.16 10.4 NNW -43.1 -30.7 -43.1 736.8 0.034 0.000 15.8 2 -33.7 12.5 0.54 .0740 23 1 100.0 1
08/06/23 17:40 -30.7 -30.7 -30.7 74 -33.8 8.7 NNW 0.14 10.4 NNW -42.6 -30.7 -42.6 736.8 0.034 0.000 15.8 2 -33.7 12.5 0.54 .0740 23 1 100.0 1
08/06/23 17:41 -30.6 -30.6 -30.6 74 -33.7 9.6 N 0.16 13.0 N -43.0 -30.6 -43.0 736.9 0.034 0.000 15.8 2 -33.7 12.5 0.54 .0740 24 1 100.0 1
08/06/23 17:42 -30.5 -30.5 -30.6 74 -33.6 10.4 NNW 0.17 13.9 N -43.4 -30.6 -43.5 736.9 0.034 0.000 15.8 2 -33.7 12.5 0.54 .0740 23 1 100.0 1
08/06/23 17:43 -30.4 -30.4 -30.5 75 -33.4 7.8 NNW 0.13 8.7 NW -41.7 -30.5 -41.7 736.9 0.034 0.000 15.8 2 -33.7 12.5 0.54 .0740 24 1 100.0 1
08/06/23 17:44 -30.4 -30.4 -30.4 75 -33.4 7.0 NNW 0.12 8.7 NNW -41.0 -30.5 -41.1 736.9 0.034 0.000 15.8 2 -33.7 12.5 0.54 .0740 23 1 100.0 1
08/06/23 17:45 -30.5 -30.4 -30.5 75 -33.5 6.1 NNW 0.10 7.8 NNW -40.3 -30.6 -40.4 737.0 0.034 0.000 15.8 2 -33.7 12.5 0.54 .0740 23 1 100.0 1
08/06/23 17:46 -30.6 -30.5 -30.6 75 -33.5 7.8 NNW 0.13 9.6 NNW -41.8 -30.6 -41.8 737.0 0.034 0.000 15.8 2 -33.7 12.5 0.54 .0740 24 1 100.0 1
08/06/23 17:47 -30.6 -30.6 -30.6 74 -33.7 7.8 NNW 0.13 9.6 NNW -41.8 -30.6 -41.8 737.0 0.034 0.000 15.8 2 -33.7 12.5 0.54 .0740 23 1 100.0 1
08/06/23 17:48 -30.6 -30.6 -30.6 74 -33.7 8.7 NNW 0.14 10.4 NNW -42.5 -30.6 -42.5 737.1 0.034 0.000 15.8 2 -33.7 12.5 0.54 .0740 24 1 100.0 1
08/06/23 17:49 -30.6 -30.6 -30.6 74 -33.7 8.7 NNW 0.14 10.4 NNW -42.5 -30.6 -42.5 737.0 0.034 0.000 15.8 2 -33.7 12.5 0.54 .0740 23 1 100.0 1
08/06/23 17:50 -30.6 -30.6 -30.6 74 -33.7 7.0 NW 0.12 8.7 NW -41.1 -30.6 -41.1 737.0 0.034 0.000 15.8 2 -33.7 12.5 0.54 .0740 23 1 100.0 1
08/06/23 17:51 -30.6 -30.6 -30.6 74 -33.7 7.8 NNW 0.13 8.7 NNW -41.8 -30.6 -41.8 737.0 0.034 0.000 15.8 2 -33.7 12.5 0.54 .0740 24 1 100.0 1
08/06/23 17:52 -30.6 -30.6 -30.6 74 -33.7 7.8 NNW 0.13 8.7 NNW -41.9 -30.6 -41.9 737.0 0.034 0.000 15.8 2 -33.7 12.5 0.54 .0740 23 1 100.0 1
08/06/23 17:53 -30.7 -30.7 -30.7 74 -33.8 7.8 NNW 0.13 8.7 NNW -42.0 -30.7 -42.0 737.0 0.034 0.000 15.8 2 -33.7 12.5 0.54 .0740 24 1 100.0 1
08/06/23 17:54 -30.7 -30.7 -30.7 74 -33.8 7.8 NNW 0.13 9.6 NNW -42.0 -30.7 -42.0 737.0 0.034 0.000 15.7 2 -33.8 12.4 0.54 .0740 23 1 100.0 1
08/06/23 17:55 -30.8 -30.8 -30.8 74 -33.9 8.7 NNW 0.14 9.6 NNW -42.7 -30.8 -42.7 737.0 0.034 0.000 15.7 2 -33.8 12.4 0.54 .0740 24 1 100.0 1
08/06/23 17:56 -30.8 -30.8 -30.8 74 -33.9 7.8 NNW 0.13 9.6 NNW -42.1 -30.8 -42.1 736.9 0.034 0.000 15.7 2 -33.8 12.4 0.54 .0740 23 1 100.0 1
08/06/23 17:57 -30.8 -30.8 -30.8 74 -33.9 7.8 NNW 0.13 8.7 NNW -42.1 -30.8 -42.1 736.9 0.034 0.000 15.7 2 -33.8 12.4 0.54 .0740 23 1 100.0 1
08/06/23 17:58 -30.7 -30.7 -30.8 74 -33.8 7.8 NNW 0.13 8.7 NW -42.0 -30.7 -42.0 736.9 0.034 0.000 15.7 2 -33.8 12.4 0.54 .0740 24 1 100.0 1
08/06/23 17:59 -30.7 -30.7 -30.7 74 -33.8 8.7 NW 0.14 10.4 NW -42.6 -30.7 -42.6 736.9 0.034 0.000 15.7 2 -33.8 12.4 0.54 .0740 23 1 100.0 1
08/06/23 18:00 -30.7 -30.7 -30.7 74 -33.8 9.6 NW 0.16 11.3 NW -43.1 -30.7 -43.1 736.9 0.034 0.000 15.7 2 -33.8 12.4 0.54 .0740 24 1 100.0 1
08/06/23 18:01 -30.6 -30.6 -30.7 74 -33.7 10.4 NW 0.17 10.4 NW -43.6 -30.6 -43.6 736.9 0.034 0.000 15.7 2 -33.8 12.4 0.54 .0740 23 1 100.0 1
08/06/23 18:02 -30.6 -30.6 -30.6 74 -33.7 10.4 NW 0.17 11.3 NW -43.5 -30.6 -43.5 736.9 0.034 0.000 15.7 2 -33.8 12.4 0.54 .0740 23 1 100.0 1
08/06/23 18:03 -30.5 -30.5 -30.5 74 -33.6 8.7 NW 0.14 9.6 NW -42.3 -30.6 -42.4 736.9 0.034 0.000 15.7 2 -33.8 12.4 0.54 .0740 24 1 100.0 1
08/06/23 18:04 -30.5 -30.5 -30.5 75 -33.5 8.7 NNW 0.14 9.6 NNW -42.3 -30.6 -42.4 736.9 0.034 0.000 15.7 2 -33.8 12.4 0.54 .0740 23 1 100.0 1
08/06/23 18:05 -30.6 -30.6 -30.6 75 -33.5 9.6 NNW 0.16 12.2 NNW -43.0 -30.6 -43.0 736.9 0.034 0.000 15.7 2 -33.8 12.4 0.54 .0740 24 1 100.0 1
08/06/23 18:06 -30.6 -30.6 -30.6 74 -33.7 8.7 NNW 0.14 10.4 NNW -42.4 -30.6 -42.4 736.9 0.034 0.000 15.7 2 -33.8 12.4 0.54 .0740 23 1 100.0 1
08/06/23 18:07 -30.5 -30.5 -30.6 74 -33.6 9.6 NW 0.16 11.3 NNW -42.9 -30.6 -42.9 736.9 0.034 0.000 15.7 2 -33.8 12.4 0.54 .0740 24 1 100.0 1
08/06/23 18:08 -30.6 -30.5 -30.6 74 -33.7 7.8 NW 0.13 9.6 NW -41.8 -30.6 -41.8 736.9 0.034 0.000 15.7 2 -33.8 12.4 0.54 .0740 23 1 100.0 1
08/06/23 18:09 -30.6 -30.6 -30.6 74 -33.7 9.6 NNW 0.16 10.4 NNW -43.1 -30.6 -43.1 736.9 0.034 0.000 15.7 2 -33.8 12.4 0.54 .0740 23 1 100.0 1
08/06/23 18:10 -30.6 -30.6 -30.6 74 -33.7 9.6 NNW 0.16 10.4 NNW -43.1 -30.6 -43.1 736.8 0.034 0.000 15.7 2 -33.8 12.4 0.54 .0740 24 1 100.0 1
08/06/23 18:11 -30.6 -30.6 -30.6 74 -33.7 9.6 NNW 0.16 12.2 NNW -43.1 -30.6 -43.1 736.8 0.034 0.000 15.7 2 -33.8 12.4 0.54 .0740 23 1 100.0 1
08/06/23 18:12 -30.6 -30.6 -30.6 74 -33.7 9.6 NNW 0.16 10.4 NNW -43.1 -30.6 -43.1 736.8 0.034 0.000 15.7 2 -33.8 12.4 0.54 .0740 24 1 100.0 1
08/06/23 18:13 -30.6 -30.6 -30.6 74 -33.7 8.7 NNW 0.14 10.4 NNW -42.4 -30.6 -42.4 736.9 0.034 0.000 15.7 2 -33.8 12.4 0.54 .0740 23 1 100.0 1
08/06/23 18:14 -30.6 -30.6 -30.6 74 -33.7 7.8 NNW 0.13 10.4 NNW -41.8 -30.6 -41.8 737.0 0.034 0.000 15.7 2 -33.8 12.4 0.54 .0740 23 1 100.0 1
08/06/23 18:15 -30.6 -30.6 -30.6 74 -33.7 7.8 NNW 0.13 9.6 NNW -41.8 -30.6 -41.8 737.0 0.034 0.000 15.7 2 -33.8 12.4 0.54 .0740 24 1 100.0 1
08/06/23 18:16 -30.6 -30.6 -30.6 74 -33.7 8.7 NNW 0.14 10.4 NNW -42.5 -30.6 -42.5 737.0 0.034 0.000 15.7 2 -33.8 12.4 0.54 .0740 23 1 100.0 1
08/06/23 18:17 -30.6 -30.6 -30.6 74 -33.7 9.6 NNW 0.16 10.4 NW -43.1 -30.6 -43.1 737.0 0.034 0.000 15.7 2 -33.8 12.4 0.54 .0740 24 1 100.0 1
08/06/23 18:18 -30.6 -30.6 -30.6 74 -33.7 8.7 NNW 0.14 9.6 NNW -42.4 -30.6 -42.4 737.0 0.034 0.000 15.7 2 -33.8 12.4 0.54 .0740 23 1 100.0 1
08/06/23 18:19 -30.6 -30.6 -30.6 74 -33.7 8.7 NNW 0.14 9.6 NNW -42.5 -30.6 -42.5 737.0 0.034 0.000 15.7 2 -33.8 12.4 0.54 .0740 24 1 100.0 1
08/06/23 18:20 -30.6 -30.6 -30.6 74 -33.7 8.7 NNW 0.14 9.6 NNW -42.5 -30.6 -42.5 737.0 0.034 0.000 15.7 2 -33.8 12.4 0.54 .0740 23 1 100.0 1
08/06/23 18:21 -30.6 -30.6 -30.7 74 -33.7 9.6 NW 0.16 11.3 NW -43.1 -30.6 -43.1 736.9 0.034 0.000 15.7 2 -33.8 12.4 0.54 .0740 23 1 100.0 1
08/06/23 18:22 -30.6 -30.6 -30.6 74 -33.7 9.6 NW 0.16 10.4 NW -43.0 -30.6 -43.0 736.9 0.034 0.000 15.7 2 -33.8 12.4 0.54 .0740 24 1 100.0 1
08/06/23 18:23 -30.4 -30.4 -30.5 74 -33.6 7.8 NW 0.13 8.7 NW -41.7 -30.5 -41.7 736.9 0.034 0.000 15.7 2 -33.8 12.4 0.54 .0740 23 1 100.0 1
08/06/23 18:24 -30.4 -30.4 -30.4 74 -33.6 7.8 NNW 0.13 10.4 NNW -41.7 -30.5 -41.7 737.0 0.034 0.000 15.7 2 -33.8 12.4 0.54 .0740 24 1 100.0 1
08/06/23 18:25 -30.4 -30.4 -30.4 75 -33.4 8.7 NW 0.14 10.4 NNW -42.3 -30.5 -42.3 737.0 0.034 0.000 15.7 2 -33.8 12.4 0.54 .0740 23 1 100.0 1
08/06/23 18:26 -30.4 -30.4 -30.4 74 -33.5 7.8 NNW 0.13 8.7 NNW -41.6 -30.4 -41.7 737.0 0.034 0.000 15.7 2 -33.8 12.4 0.55 .0740 23 1 100.0 1
08/06/23 18:27 -30.4 -30.4 -30.4 74 -33.5 7.8 NNW 0.13 8.7 NNW -41.6 -30.4 -41.7 737.0 0.034 0.000 15.7 2 -33.8 12.4 0.54 .0740 24 1 100.0 1
08/06/23 18:28 -30.4 -30.4 -30.4 74 -33.5 7.0 NNW 0.12 7.8 NNW -40.9 -30.4 -41.0 737.0 0.034 0.000 15.7 2 -33.8 12.4 0.54 .0740 23 1 100.0 1
08/06/23 18:29 -30.4 -30.4 -30.4 74 -33.5 7.8 NNW 0.13 8.7 NNW -41.6 -30.4 -41.7 737.0 0.034 0.000 15.7 2 -33.8 12.4 0.55 .0740 24 1 100.0 1
08/06/23 18:30 -30.4 -30.4 -30.4 74 -33.5 7.0 NW 0.12 8.7 NW -40.9 -30.4 -41.0 737.0 0.034 0.000 15.7 2 -33.8 12.4 0.54 .0740 23 1 100.0 1
08/06/23 18:31 -30.4 -30.4 -30.4 75 -33.4 7.0 NW 0.12 7.8 NW -41.0 -30.5 -41.1 737.0 0.034 0.000 15.7 2 -33.8 12.4 0.55 .0740 23 1 100.0 1
08/06/23 18:32 -30.4 -30.4 -30.5 74 -33.6 6.1 NW 0.10 7.8 NW -40.2 -30.5 -40.3 737.0 0.034 0.000 15.7 2 -33.8 12.4 0.55 .0740 24 1 100.0 1
08/06/23 18:33 -30.5 -30.5 -30.5 74 -33.6 7.0 NW 0.12 7.8 NW -41.1 -30.6 -41.1 737.0 0.034 0.000 15.7 2 -33.8 12.4 0.55 .0740 23 1 100.0 1
08/06/23 18:34 -30.6 -30.5 -30.6 74 -33.7 7.0 NW 0.12 7.8 NW -41.1 -30.6 -41.1 737.0 0.034 0.000 15.7 2 -33.8 12.4 0.55 .0740 24 1 100.0 1
08/06/23 18:35 -30.6 -30.6 -30.6 74 -33.7 6.1 NW 0.10 7.8 NW -40.4 -30.6 -40.4 737.0 0.034 0.000 15.7 2 -33.8 12.4 0.55 .0740 23 1 100.0 1
08/06/23 18:36 -30.6 -30.6 -30.6 74 -33.7 5.2 NW 0.09 7.0 NW -39.6 -30.6 -39.6 737.0 0.034 0.000 15.7 2 -33.8 12.4 0.55 .0740 24 1 100.0 1
08/06/23 18:37 -30.6 -30.6 -30.6 74 -33.7 4.3 NW 0.07 5.2 NW -38.6 -30.6 -38.6 737.0 0.034 0.000 15.7 2 -33.8 12.4 0.55 .0740 23 1 100.0 1
08/06/23 18:38 -30.6 -30.6 -30.6 74 -33.7 3.5 NW 0.06 4.3 NW -37.4 -30.6 -37.4 737.0 0.034 0.000 15.7 2 -33.8 12.4 0.55 .0740 23 1 100.0 1
08/06/23 18:39 -30.6 -30.6 -30.6 74 -33.7 6.1 NW 0.10 8.7 NW -40.4 -30.6 -40.4 737.0 0.034 0.000 15.7 2 -33.8 12.4 0.55 .0740 24 1 100.0 1
08/06/23 18:40 -30.6 -30.6 -30.6 74 -33.7 5.2 NW 0.09 7.8 NW -39.6 -30.6 -39.6 737.1 0.034 0.000 15.7 2 -33.8 12.4 0.55 .0740 23 1 100.0 1
08/06/23 18:41 -30.5 -30.5 -30.5 74 -33.6 5.2 NW 0.09 6.1 NW -39.5 -30.6 -39.6 737.1 0.034 0.000 15.7 2 -33.8 12.4 0.55 .0740 24 1 100.0 1
08/06/23 18:42 -30.4 -30.4 -30.4 74 -33.6 5.2 NW 0.09 6.1 NW -39.4 -30.5 -39.4 737.0 0.034 0.000 15.7 2 -33.8 12.4 0.55 .0740 23 1 100.0 1
08/06/23 18:43 -30.4 -30.4 -30.4 74 -33.5 3.5 NW 0.06 4.3 NW -37.2 -30.4 -37.3 737.0 0.034 0.000 15.7 2 -33.8 12.4 0.55 .0740 23 1 100.0 1
08/06/23 18:44 -30.3 -30.3 -30.4 74 -33.5 2.6 NW 0.04 2.6 NW -35.7 -30.4 -35.8 737.0 0.034 0.000 15.7 2 -33.8 12.4 0.55 .0740 24 1 100.0 1
08/06/23 18:45 -30.3 -30.3 -30.4 74 -33.5 2.6 NW 0.04 3.5 NW -35.7 -30.4 -35.8 737.0 0.034 0.000 15.7 2 -33.8 12.4 0.55 .0740 23 1 100.0 1
08/06/23 18:46 -30.3 -30.3 -30.3 74 -33.5 2.6 NW 0.04 3.5 NW -35.7 -30.4 -35.8 737.0 0.034 0.000 15.7 2 -33.8 12.4 0.55 .0740 24 1 100.0 1
08/06/23 18:47 -30.3 -30.3 -30.3 75 -33.3 1.7 NW 0.03 2.6 NW -33.8 -30.4 -33.9 737.0 0.034 0.000 15.7 2 -33.8 12.4 0.55 .0740 23 1 100.0 1
08/06/23 18:48 -30.4 -30.3 -30.4 74 -33.5 0.0 NW 0.00 0.9 NW -30.3 -30.4 -30.4 737.0 0.034 0.000 15.7 2 -33.8 12.4 0.55 .0740 23 1 100.0 1
08/06/23 18:49 -30.4 -30.4 -30.4 74 -33.6 0.9 NW 0.01 1.7 NW -31.0 -30.5 -31.1 737.0 0.034 0.000 15.7 2 -33.8 12.4 0.55 .0740 24 1 100.0 1
08/06/23 18:50 -30.4 -30.4 -30.4 75 -33.4 0.0 --- 0.00 0.0 --- -30.4 -30.5 -30.4 737.0 0.034 0.000 15.7 2 -33.8 12.4 0.55 .0740 23 1 100.0 1
08/06/23 18:51 -30.5 -30.4 -30.5 74 -33.6 0.0 --- 0.00 0.0 --- -30.4 -30.6 -30.5 737.0 0.034 0.000 15.7 2 -33.8 12.4 0.55 .0740 24 1 100.0 1
08/06/23 18:52 -30.5 -30.5 -30.5 74 -33.6 0.9 NW 0.01 1.7 NW -31.1 -30.6 -31.1 737.0 0.034 0.000 15.7 2 -33.8 12.4 0.55 .0740 23 1 100.0 1
08/06/23 18:53 -30.6 -30.5 -30.6 74 -33.7 0.9 NW 0.01 1.7 NW -31.1 -30.6 -31.1 737.1 0.034 0.000 15.7 2 -33.8 12.4 0.55 .0740 24 1 100.0 1
08/06/23 18:54 -30.6 -30.5 -30.6 74 -33.7 1.7 NW 0.03 2.6 NW -34.1 -30.6 -34.1 737.1 0.034 0.000 15.7 2 -33.8 12.4 0.55 .0740 23 1 100.0 1
08/06/23 18:55 -30.5 -30.5 -30.5 74 -33.6 0.9 NW 0.01 2.6 NW -31.1 -30.6 -31.1 737.1 0.034 0.000 15.7 2 -33.8 12.4 0.54 .0740 23 1 100.0 1
08/06/23 18:56 -30.5 -30.5 -30.5 74 -33.6 0.9 NW 0.01 2.6 NW -31.1 -30.6 -31.1 737.0 0.034 0.000 15.7 2 -33.8 12.4 0.55 .0740 24 1 100.0 1
08/06/23 18:57 -30.5 -30.5 -30.5 74 -33.6 2.6 NW 0.04 2.6 NW -35.9 -30.6 -36.0 737.0 0.034 0.000 15.7 2 -33.8 12.4 0.54 .0740 23 1 100.0 1
08/06/23 18:58 -30.4 -30.4 -30.5 74 -33.6 1.7 NW 0.03 2.6 NW -34.0 -30.5 -34.1 737.0 0.034 0.000 15.7 2 -33.8 12.4 0.54 .0740 24 1 100.0 1
08/06/23 18:59 -30.4 -30.4 -30.4 74 -33.6 2.6 NW 0.04 2.6 NW -35.9 -30.5 -35.9 737.1 0.034 0.000 15.7 2 -33.8 12.4 0.54 .0740 23 1 100.0 1
08/06/23 19:00 -30.4 -30.4 -30.4 74 -33.6 1.7 NW 0.03 2.6 NW -34.0 -30.5 -34.1 737.1 0.034 0.000 15.7 2 -33.8 12.4 0.54 .0740 24 1 100.0 1
08/06/23 19:01 -30.4 -30.4 -30.4 74 -33.6 1.7 NW 0.03 2.6 NW -34.0 -30.5 -34.1 737.1 0.034 0.000 15.7 2 -33.8 12.4 0.54 .0740 23 1 100.0 1
08/06/23 19:02 -30.4 -30.4 -30.4 74 -33.6 2.6 NW 0.04 2.6 NW -35.9 -30.5 -35.9 737.1 0.034 0.000 15.7 2 -33.8 12.4 0.54 .0740 23 1 100.0 1
08/06/23 19:03 -30.4 -30.4 -30.4 74 -33.6 1.7 NW 0.03 2.6 NW -34.0 -30.5 -34.1 737.1 0.034 0.000 15.7 2 -33.8 12.4 0.54 .0740 24 1 100.0 1
08/06/23 19:04 -30.4 -30.4 -30.4 74 -33.6 0.0 NW 0.00 0.9 NW -30.4 -30.5 -30.4 737.1 0.034 0.000 15.7 2 -33.8 12.4 0.54 .0740 23 1 100.0 1
08/06/23 19:05 -30.4 -30.4 -30.4 74 -33.6 0.0 NW 0.00 0.9 NW -30.4 -30.5 -30.4 737.1 0.034 0.000 15.7 2 -33.8 12.4 0.54 .0740 24 1 100.0 1
08/06/23 19:06 -30.5 -30.4 -30.5 74 -33.6 0.0 --- 0.00 0.0 --- -30.4 -30.6 -30.5 737.1 0.034 0.000 15.7 2 -33.8 12.4 0.54 .0740 23 1 100.0 1
08/06/23 19:07 -30.5 -30.4 -30.5 74 -33.6 0.0 --- 0.00 0.0 --- -30.4 -30.6 -30.5 737.1 0.034 0.000 15.8 2 -33.7 12.5 0.54 .0740 23 1 100.0 1
08/06/23 19:08 -30.5 -30.5 -30.5 74 -33.6 0.0 --- 0.00 0.0 --- -30.4 -30.6 -30.5 737.1 0.034 0.000 15.8 2 -33.7 12.5 0.54 .0740 24 1 100.0 1
08/06/23 19:09 -30.5 -30.5 -30.5 74 -33.6 0.0 --- 0.00 0.0 --- -30.4 -30.6 -30.5 737.2 0.034 0.000 15.8 2 -33.7 12.5 0.54 .0740 23 1 100.0 1
08/06/23 19:10 -30.5 -30.5 -30.5 74 -33.6 0.0 --- 0.00 0.0 --- -30.4 -30.6 -30.5 737.2 0.034 0.000 15.8 2 -33.7 12.5 0.54 .0740 24 1 100.0 1
08/06/23 19:11 -30.6 -30.5 -30.6 74 -33.7 2.6 E 0.04 3.5 E -36.0 -30.6 -36.0 737.1 0.034 0.000 15.8 2 -33.7 12.5 0.54 .0740 23 1 100.0 1
08/06/23 19:12 -30.7 -30.6 -30.7 74 -33.8 2.6 E 0.04 3.5 E -36.2 -30.7 -36.2 737.2 0.034 0.000 15.8 2 -33.7 12.5 0.54 .0740 23 1 100.0 1
08/06/23 19:13 -30.8 -30.7 -30.8 74 -34.0 2.6 ESE 0.04 3.5 ESE -36.3 -30.8 -36.3 737.2 0.034 0.000 15.8 2 -33.7 12.5 0.54 .0740 24 1 100.0 1
08/06/23 19:14 -31.0 -30.9 -31.0 74 -34.1 4.3 E 0.07 5.2 E -39.1 -31.0 -39.1 737.1 0.034 0.000 15.8 2 -33.7 12.5 0.54 .0740 23 1 100.0 1
08/06/23 19:15 -31.2 -31.1 -31.2 74 -34.3 3.5 ENE 0.06 4.3 ENE -38.1 -31.2 -38.1 737.2 0.034 0.000 15.8 2 -33.7 12.5 0.54 .0740 24 1 100.0 1
08/06/23 19:16 -31.2 -31.2 -31.2 74 -34.3 3.5 ENE 0.06 4.3 ENE -38.2 -31.2 -38.2 737.1 0.034 0.000 15.8 2 -33.7 12.5 0.54 .0740 23 1 100.0 1
08/06/23 19:17 -31.3 -31.2 -31.3 73 -34.5 3.5 ENE 0.06 4.3 ENE -38.3 -31.3 -38.3 737.2 0.034 0.000 15.8 2 -33.7 12.5 0.54 .0740 23 1 100.0 1
08/06/23 19:18 -31.3 -31.3 -31.3 73 -34.6 3.5 ENE 0.06 4.3 ENE -38.3 -31.3 -38.3 737.2 0.034 0.000 15.8 2 -33.7 12.5 0.54 .0740 24 1 100.0 1
08/06/23 19:19 -31.3 -31.3 -31.3 73 -34.6 2.6 ENE 0.04 3.5 ENE -36.9 -31.3 -36.9 737.2 0.034 0.000 15.8 2 -33.7 12.5 0.54 .0740 23 1 100.0 1
08/06/23 19:20 -31.3 -31.3 -31.3 73 -34.6 2.6 ENE 0.04 3.5 ENE -36.9 -31.3 -36.9 737.2 0.034 0.000 15.8 2 -33.7 12.5 0.54 .0740 24 1 100.0 1
08/06/23 19:21 -31.4 -31.3 -31.4 73 -34.6 5.2 ENE 0.09 8.7 E -40.6 -31.4 -40.6 737.2 0.035 0.000 15.8 2 -33.7 12.5 0.54 .0740 23 1 100.0 1
08/06/23 19:22 -31.7 -31.4 -31.7 74 -34.8 8.7 ENE 0.14 10.4 ENE -43.8 -31.7 -43.8 737.3 0.035 0.000 15.8 2 -33.7 12.6 0.54 .0740 24 1 100.0 1
08/06/23 19:23 -32.1 -31.8 -32.1 73 -35.3 8.7 ENE 0.14 9.6 ENE -44.3 -32.1 -44.3 737.3 0.035 0.000 15.8 2 -33.7 12.6 0.54 .0740 23 1 100.0 1
08/06/23 19:24 -32.5 -32.2 -32.5 73 -35.7 9.6 ENE 0.16 10.4 ENE -45.4 -32.5 -45.4 737.2 0.035 0.000 15.8 2 -33.7 12.6 0.54 .0740 23 1 100.0 1
08/06/23 19:25 -32.8 -32.6 -32.8 73 -36.0 9.6 ENE 0.16 10.4 ENE -45.8 -32.8 -45.8 737.2 0.036 0.000 15.8 2 -33.7 12.6 0.54 .0740 24 1 100.0 1
08/06/23 19:26 -33.1 -32.9 -33.1 72 -36.4 7.8 ENE 0.13 8.7 ENE -44.9 -33.1 -44.9 737.2 0.036 0.000 15.8 2 -33.7 12.6 0.54 .0740 23 1 100.0 1
08/06/23 19:27 -33.2 -33.1 -33.2 72 -36.5 8.7 NE 0.14 11.3 NE -45.7 -33.2 -45.7 737.2 0.036 0.000 15.8 2 -33.7 12.6 0.54 .0740 24 1 100.0 1
08/06/23 19:28 -33.2 -33.2 -33.2 72 -36.5 7.0 ENE 0.12 8.7 ENE -44.4 -33.2 -44.4 737.2 0.036 0.000 15.8 2 -33.7 12.6 0.54 .0740 23 1 100.0 1
08/06/23 19:29 -33.2 -33.2 -33.2 72 -36.5 8.7 NE 0.14 9.6 NE -45.7 -33.2 -45.7 737.2 0.036 0.000 15.8 2 -33.7 12.6 0.54 .0740 23 1 100.0 1
08/06/23 19:30 -33.2 -33.2 -33.2 72 -36.5 7.8 ENE 0.13 8.7 NE -45.0 -33.2 -45.0 737.2 0.036 0.000 15.8 2 -33.7 12.6 0.54 .0740 24 1 100.0 1
08/06/23 19:31 -33.1 -33.1 -33.2 72 -36.4 7.0 ENE 0.12 8.7 ENE -44.2 -33.1 -44.2 737.2 0.036 0.000 15.8 2 -33.7 12.6 0.54 .0740 23 1 100.0 1
08/06/23 19:32 -32.9 -32.9 -33.0 72 -36.3 7.8 ENE 0.13 8.7 ENE -44.7 -32.9 -44.7 737.2 0.036 0.000 15.8 2 -33.7 12.6 0.54 .0740 24 1 100.0 1
08/06/23 19:33 -32.9 -32.9 -32.9 72 -36.2 7.0 ENE 0.12 7.8 ENE -43.9 -32.9 -43.9 737.2 0.036 0.000 15.8 2 -33.7 12.6 0.54 .0740 23 1 100.0 1
08/06/23 19:34 -32.9 -32.9 -32.9 73 -36.1 7.8 ENE 0.13 8.7 ENE -44.7 -32.9 -44.7 737.2 0.036 0.000 15.8 2 -33.7 12.6 0.54 .0740 23 1 100.0 1
08/06/23 19:35 -32.9 -32.9 -32.9 73 -36.1 7.0 ENE 0.12 8.7 ENE -43.9 -32.9 -43.9 737.2 0.036 0.000 15.8 2 -33.7 12.6 0.54 .0740 24 1 100.0 1
08/06/23 19:36 -32.9 -32.9 -32.9 73 -36.1 6.1 ENE 0.10 7.8 ENE -43.2 -32.9 -43.2 737.2 0.036 0.000 15.9 2 -33.7 12.6 0.54 .0740 23 1 100.0 1
08/06/23 19:37 -32.9 -32.9 -32.9 73 -36.1 7.8 ENE 0.13 9.6 ENE -44.7 -32.9 -44.7 737.2 0.036 0.000 15.9 2 -33.7 12.6 0.54 .0740 24 1 100.0 1
08/06/23 19:38 -32.8 -32.8 -32.9 73 -36.0 8.7 ENE 0.14 9.6 ENE -45.2 -32.8 -45.2 737.2 0.036 0.000 15.9 2 -33.7 12.6 0.54 .0740 23 1 100.0 1
08/06/23 19:39 -32.8 -32.8 -32.8 73 -36.0 8.7 ENE 0.14 9.6 ENE -45.2 -32.8 -45.2 737.2 0.035 0.000 15.9 2 -33.7 12.6 0.54 .0740 24 1 100.0 1
08/06/23 19:40 -32.7 -32.7 -32.8 73 -35.9 7.8 ENE 0.13 7.8 ENE -44.4 -32.7 -44.4 737.2 0.035 0.000 15.9 2 -33.7 12.6 0.54 .0740 23 1 100.0 1
08/06/23 19:41 -32.7 -32.7 -32.7 73 -35.9 7.8 ENE 0.13 8.7 ENE -44.4 -32.7 -44.4 737.1 0.035 0.000 15.9 2 -33.7 12.6 0.54 .0740 23 1 100.0 1
08/06/23 19:42 -32.6 -32.6 -32.7 73 -35.8 7.8 ENE 0.13 8.7 ENE -44.3 -32.6 -44.3 737.1 0.035 0.000 15.9 2 -33.7 12.6 0.54 .0740 24 1 100.0 1
08/06/23 19:43 -32.6 -32.6 -32.6 74 -35.7 7.0 ENE 0.12 8.7 ENE -43.6 -32.6 -43.6 737.1 0.035 0.000 15.9 2 -33.7 12.6 0.54 .0740 23 1 100.0 1
08/06/23 19:44 -32.6 -32.6 -32.6 74 -35.7 7.0 ENE 0.12 7.8 ENE -43.6 -32.6 -43.6 737.1 0.035 0.000 15.9 2 -33.7 12.6 0.54 .0740 24 1 100.0 1
08/06/23 19:45 -32.6 -32.6 -32.6 74 -35.6 6.1 ENE 0.10 7.0 ENE -42.8 -32.6 -42.8 737.1 0.035 0.000 15.9 2 -33.6 12.6 0.54 .0739 23 1 100.0 1
08/06/23 19:46 -32.3 -32.3 -32.5 74 -35.4 5.2 ENE 0.09 5.2 ENE -41.7 -32.3 -41.7 737.1 0.035 0.000 15.9 2 -33.6 12.6 0.54 .0739 24 1 100.0 1
08/06/23 19:47 -32.2 -32.2 -32.3 74 -35.3 4.3 ENE 0.07 5.2 ENE -40.5 -32.2 -40.5 737.1 0.035 0.000 15.9 2 -33.6 12.6 0.54 .0739 23 1 100.0 1
08/06/23 19:48 -32.1 -32.1 -32.2 74 -35.2 2.6 ENE 0.04 3.5 ENE -37.8 -32.1 -37.8 737.1 0.035 0.000 15.9 2 -33.6 12.6 0.54 .0739 23 1 100.0 1
08/06/23 19:49 -32.0 -32.0 -32.1 74 -35.1 2.6 ENE 0.04 3.5 ENE -37.6 -32.0 -37.6 737.1 0.035 0.000 15.9 2 -33.6 12.6 0.54 .0739 24 1 100.0 1
08/06/23 19:50 -31.9 -31.9 -31.9 74 -35.0 2.6 ENE 0.04 3.5 ENE -37.5 -31.9 -37.5 737.1 0.035 0.000 15.9 2 -33.6 12.6 0.54 .0739 23 1 100.0 1
08/06/23 19:51 -31.8 -31.8 -31.9 74 -34.9 5.2 ENE 0.09 7.0 ENE -41.1 -31.8 -41.1 737.1 0.035 0.000 15.9 2 -33.6 12.6 0.54 .0739 24 1 100.0 1
08/06/23 19:52 -31.9 -31.8 -31.9 74 -35.0 6.1 ENE 0.10 7.8 ENE -42.0 -31.9 -42.0 737.1 0.035 0.000 15.9 2 -33.6 12.6 0.54 .0739 23 1 100.0 1
08/06/23 19:53 -31.9 -31.9 -31.9 74 -35.0 6.1 ENE 0.10 7.8 ENE -42.0 -31.9 -42.0 737.2 0.035 0.000 15.9 2 -33.6 12.6 0.54 .0739 23 1 100.0 1
08/06/23 19:54 -32.0 -31.9 -32.0 74 -35.1 7.8 ENE 0.13 8.7 ENE -43.6 -32.0 -43.6 737.2 0.035 0.000 15.9 2 -33.6 12.6 0.54 .0739 24 1 100.0 1
08/06/23 19:55 -32.1 -32.0 -32.1 74 -35.1 7.8 ENE 0.13 8.7 ENE -43.7 -32.1 -43.7 737.2 0.035 0.000 15.9 2 -33.6 12.6 0.54 .0739 23 1 100.0 1
08/06/23 19:56 -32.1 -32.1 -32.1 74 -35.1 7.8 ENE 0.13 9.6 ENE -43.7 -32.1 -43.7 737.2 0.035 0.000 15.9 2 -33.6 12.6 0.54 .0739 24 1 100.0 1
08/06/23 19:57 -32.1 -32.1 -32.1 74 -35.1 7.8 ENE 0.13 9.6 ENE -43.7 -32.1 -43.7 737.1 0.035 0.000 15.9 2 -33.6 12.6 0.54 .0739 23 1 100.0 1
08/06/23 19:58 -32.1 -32.1 -32.1 74 -35.1 7.8 ENE 0.13 8.7 ENE -43.7 -32.1 -43.7 737.1 0.035 0.000 15.9 2 -33.6 12.6 0.54 .0739 23 1 100.0 1
08/06/23 19:59 -31.9 -31.9 -32.0 74 -35.0 7.8 ENE 0.13 9.6 ENE -43.5 -31.9 -43.5 737.2 0.035 0.000 15.9 2 -33.6 12.6 0.54 .0739 24 1 100.0 1
08/06/23 20:00 -32.0 -32.0 -32.0 74 -35.1 7.8 ENE 0.13 8.7 ENE -43.6 -32.0 -43.6 737.1 0.035 0.000 15.9 2 -33.6 12.6 0.54 .0739 23 1 100.0 1
08/06/23 20:01 -32.1 -32.0 -32.1 74 -35.1 7.0 NE 0.12 9.6 ENE -42.9 -32.1 -42.9 737.1 0.035 0.000 15.9 2 -33.6 12.6 0.54 .0739 24 1 100.0 1
08/06/23 20:02 -31.9 -31.9 -32.1 74 -35.0 5.2 NE 0.09 6.1 NE -41.2 -31.9 -41.2 737.1 0.035 0.000 15.9 2 -33.6 12.6 0.54 .0739 23 1 100.0 1
08/06/23 20:03 -31.9 -31.9 -31.9 74 -35.0 5.2 NE 0.09 6.1 NE -41.1 -31.9 -41.1 737.2 0.035 0.000 16.0 2 -33.6 12.7 0.53 .0739 23 1 100.0 1
08/06/23 20:04 -31.8 -31.8 -31.9 74 -34.9 4.3 NE 0.07 5.2 NE -40.0 -31.8 -40.0 737.1 0.035 0.000 16.0 2 -33.6 12.7 0.53 .0739 24 1 100.0 1
08/06/23 20:05 -31.6 -31.6 -31.7 74 -34.7 3.5 NE 0.06 4.3 NE -38.7 -31.6 -38.7 737.1 0.035 0.000 16.0 2 -33.6 12.7 0.53 .0739 23 1 100.0 1
08/06/23 20:06 -31.4 -31.4 -31.6 74 -34.5 4.3 NE 0.07 4.3 NE -39.6 -31.4 -39.6 737.1 0.035 0.000 16.0 2 -33.6 12.7 0.53 .0739 24 1 100.0 1
08/06/23 20:07 -31.3 -31.3 -31.4 74 -34.4 4.3 NNE 0.07 4.3 NNE -39.5 -31.3 -39.5 737.1 0.034 0.000 16.0 2 -33.6 12.7 0.53 .0739 23 1 100.0 1
08/06/23 20:08 -31.2 -31.2 -31.3 74 -34.3 4.3 NNE 0.07 5.2 NNE -39.3 -31.2 -39.3 737.1 0.034 0.000 16.0 2 -33.6 12.7 0.53 .0739 24 1 100.0 1
08/06/23 20:09 -31.1 -31.1 -31.2 75 -34.1 5.2 NNE 0.09 6.1 NNE -40.2 -31.1 -40.2 737.1 0.034 0.000 16.0 2 -33.6 12.7 0.53 .0739 23 1 100.0 1
08/06/23 20:10 -31.0 -31.0 -31.1 75 -34.0 4.3 NNE 0.07 6.1 NNE -39.1 -30.9 -39.1 737.0 0.034 0.000 16.0 2 -33.6 12.7 0.53 .0739 23 1 100.0 1
08/06/23 20:11 -30.9 -30.9 -31.0 75 -33.9 4.3 NNE 0.07 6.1 NNE -38.9 -30.8 -38.9 737.1 0.034 0.000 16.0 2 -33.6 12.7 0.53 .0739 24 1 100.0 1
08/06/23 20:12 -30.8 -30.8 -30.9 75 -33.8 6.1 NNE 0.10 6.1 NNE -40.7 -30.8 -40.7 737.0 0.034 0.000 16.1 2 -33.5 12.7 0.53 .0739 23 1 100.0 1
08/06/23 20:13 -30.7 -30.7 -30.8 75 -33.7 6.1 NNE 0.10 6.1 NNE -40.6 -30.7 -40.6 737.0 0.034 0.000 16.1 2 -33.5 12.7 0.53 .0739 24 1 100.0 1
08/06/23 20:14 -30.7 -30.7 -30.7 75 -33.7 5.2 NNE 0.09 6.1 NNE -39.7 -30.7 -39.7 737.0 0.034 0.000 16.1 2 -33.5 12.7 0.53 .0739 23 1 100.0 1
08/06/23 20:15 -30.6 -30.6 -30.7 75 -33.6 5.2 NNE 0.09 6.1 NNE -39.6 -30.6 -39.6 737.1 0.034 0.000 16.1 2 -33.5 12.7 0.53 .0739 23 1 100.0 1
08/06/23 20:16 -30.6 -30.6 -30.6 75 -33.5 4.3 NNE 0.07 6.1 NNE -38.6 -30.6 -38.6 737.0 0.034 0.000 16.1 2 -33.5 12.7 0.53 .0739 24 1 100.0 1
08/06/23 20:17 -30.6 -30.6 -30.6 75 -33.5 4.3 NNE 0.07 6.1 NNE -38.6 -30.6 -38.6 737.0 0.034 0.000 16.1 2 -33.5 12.7 0.53 .0739 23 1 100.0 1
08/06/23 20:18 -30.6 -30.5 -30.6 75 -33.5 4.3 NNE 0.07 6.1 NNE -38.6 -30.6 -38.6 737.0 0.034 0.000 16.1 2 -33.5 12.7 0.53 .0739 24 1 100.0 1
08/06/23 20:19 -30.5 -30.5 -30.5 75 -33.5 4.3 NNE 0.07 6.1 NNE -38.5 -30.6 -38.6 737.0 0.034 0.000 16.1 2 -33.5 12.7 0.53 .0739 23 1 100.0 1
08/06/23 20:20 -30.5 -30.4 -30.5 75 -33.5 5.2 NNE 0.09 6.1 NNE -39.5 -30.6 -39.6 737.0 0.034 0.000 16.1 2 -33.5 12.7 0.53 .0739 24 1 100.0 1
08/06/23 20:21 -30.4 -30.4 -30.4 75 -33.4 4.3 NNE 0.07 6.1 NNE -38.4 -30.5 -38.5 737.1 0.034 0.000 16.1 2 -33.5 12.7 0.53 .0739 23 1 100.0 1
08/06/23 20:22 -30.4 -30.4 -30.4 75 -33.4 4.3 N 0.07 4.3 NNE -38.4 -30.5 -38.5 737.1 0.034 0.000 16.1 2 -33.5 12.7 0.53 .0739 23 1 100.0 1
08/06/23 20:23 -30.4 -30.4 -30.4 75 -33.4 4.3 N 0.07 6.1 N -38.4 -30.5 -38.5 737.1 0.034 0.000 16.1 2 -33.5 12.7 0.53 .0739 24 1 100.0 1
08/06/23 20:24 -30.4 -30.4 -30.4 75 -33.4 4.3 N 0.07 6.1 N -38.4 -30.5 -38.5 737.0 0.034 0.000 16.1 2 -33.5 12.7 0.53 .0739 23 1 100.0 1
08/06/23 20:25 -30.4 -30.4 -30.4 75 -33.4 4.3 N 0.07 4.3 N -38.4 -30.5 -38.5 737.0 0.034 0.000 16.1 2 -33.5 12.7 0.53 .0739 24 1 100.0 1
08/06/23 20:26 -30.4 -30.4 -30.4 74 -33.6 3.5 N 0.06 4.3 N -37.3 -30.5 -37.3 737.0 0.034 0.000 16.1 2 -33.5 12.7 0.53 .0739 23 1 100.0 1
08/06/23 20:27 -30.4 -30.4 -30.4 75 -33.4 4.3 N 0.07 4.3 N -38.4 -30.5 -38.5 737.1 0.034 0.000 16.1 2 -33.5 12.7 0.53 .0739 23 1 100.0 1
08/06/23 20:28 -30.4 -30.4 -30.4 75 -33.4 4.3 N 0.07 6.1 N -38.4 -30.5 -38.5 737.1 0.034 0.000 16.1 2 -33.5 12.7 0.53 .0739 24 1 100.0 1
08/06/23 20:29 -30.4 -30.4 -30.4 75 -33.4 5.2 N 0.09 6.1 N -39.4 -30.5 -39.4 737.1 0.034 0.000 16.1 2 -33.5 12.7 0.53 .0739 23 1 100.0 1
08/06/23 20:30 -30.4 -30.4 -30.4 75 -33.4 5.2 N 0.09 6.1 N -39.4 -30.5 -39.4 737.1 0.034 0.000 16.1 2 -33.5 12.7 0.53 .0739 24 1 100.0 1
08/06/23 20:31 -30.4 -30.4 -30.4 75 -33.4 5.2 NNE 0.09 6.1 NNE -39.4 -30.5 -39.4 737.0 0.034 0.000 16.1 2 -33.5 12.7 0.53 .0739 23 1 100.0 1
08/06/23 20:32 -30.4 -30.4 -30.4 75 -33.4 5.2 NNE 0.09 7.0 NNE -39.4 -30.5 -39.4 737.0 0.034 0.000 16.1 2 -33.5 12.7 0.53 .0739 23 1 100.0 1
08/06/23 20:33 -30.4 -30.4 -30.4 75 -33.4 4.3 NNE 0.07 5.2 NNE -38.4 -30.5 -38.5 737.0 0.034 0.000 16.1 2 -33.5 12.7 0.53 .0739 24 1 100.0 1
08/06/23 20:34 -30.4 -30.4 -30.4 74 -33.6 5.2 NNE 0.09 7.8 ENE -39.4 -30.5 -39.4 737.0 0.034 0.000 16.1 2 -33.5 12.7 0.53 .0739 23 1 100.0 1
08/06/23 20:35 -30.8 -30.5 -30.8 74 -33.9 7.8 ENE 0.13 9.6 ENE -42.1 -30.8 -42.1 737.0 0.034 0.000 16.1 2 -33.5 12.8 0.53 .0739 24 1 100.0 1
08/06/23 20:36 -31.3 -30.9 -31.3 74 -34.4 8.7 ENE 0.14 9.6 ENE -43.4 -31.3 -43.4 737.0 0.034 0.000 16.1 2 -33.5 12.8 0.53 .0739 23 1 100.0 1
08/06/23 20:37 -31.8 -31.4 -31.8 73 -35.1 9.6 ENE 0.16 10.4 ENE -44.6 -31.8 -44.6 737.0 0.035 0.000 16.1 2 -33.5 12.8 0.53 .0739 24 1 100.0 1
08/06/23 20:38 -32.1 -31.9 -32.1 73 -35.3 9.6 ENE 0.16 10.4 ENE -44.9 -32.1 -44.9 737.0 0.035 0.000 16.1 2 -33.5 12.8 0.53 .0739 23 1 100.0 1
08/06/23 20:39 -32.3 -32.1 -32.3 73 -35.5 7.8 ENE 0.13 9.6 ENE -43.9 -32.3 -43.9 737.0 0.035 0.000 16.1 2 -33.5 12.8 0.53 .0739 23 1 100.0 1
08/06/23 20:40 -32.4 -32.3 -32.4 72 -35.8 9.6 ENE 0.16 10.4 ENE -45.3 -32.5 -45.4 737.1 0.035 0.000 16.1 2 -33.5 12.8 0.53 .0739 24 1 100.0 1
08/06/23 20:41 -32.6 -32.4 -32.6 72 -35.9 9.6 ENE 0.16 9.6 ENE -45.4 -32.6 -45.5 737.0 0.035 0.000 16.1 2 -33.5 12.8 0.53 .0739 23 1 100.0 1
08/06/23 20:42 -32.7 -32.6 -32.7 72 -36.0 8.7 ENE 0.14 9.6 ENE -45.1 -32.7 -45.1 737.0 0.035 0.000 16.1 2 -33.5 12.8 0.53 .0739 24 1 100.0 1
08/06/23 20:43 -32.6 -32.6 -32.7 72 -35.9 8.7 ENE 0.14 8.7 ENE -44.9 -32.6 -44.9 737.0 0.035 0.000 16.1 2 -33.5 12.8 0.53 .0739 23 1 100.0 1
08/06/23 20:44 -32.6 -32.6 -32.6 73 -35.8 8.7 ENE 0.14 10.4 ENE -44.9 -32.6 -44.9 737.0 0.035 0.000 16.1 2 -33.5 12.8 0.53 .0739 23 1 100.0 1
08/06/23 20:45 -32.7 -32.6 -32.7 73 -35.9 9.6 E 0.16 11.3 E -45.6 -32.7 -45.6 737.0 0.035 0.000 16.1 2 -33.5 12.8 0.53 .0739 24 1 100.0 1
08/06/23 20:46 -32.8 -32.7 -32.8 73 -36.0 9.6 ENE 0.16 12.2 ENE -45.8 -32.8 -45.8 737.0 0.036 0.000 16.1 2 -33.5 12.8 0.53 .0739 23 1 100.0 1
08/06/23 20:47 -33.2 -32.9 -33.2 73 -36.4 8.7 ENE 0.14 10.4 ENE -45.7 -33.2 -45.7 737.0 0.036 0.000 16.1 2 -33.5 12.8 0.53 .0739 24 1 100.0 1
08/06/23 20:48 -33.4 -33.2 -33.4 72 -36.8 7.8 ENE 0.13 10.4 ENE -45.3 -33.4 -45.3 737.0 0.036 0.000 16.1 2 -33.5 12.8 0.53 .0739 23 1 100.0 1
08/06/23 20:49 -33.6 -33.5 -33.6 72 -36.9 10.4 ENE 0.17 11.3 ENE -47.3 -33.6 -47.3 737.0 0.036 0.000 16.1 2 -33.5 12.8 0.53 .0739 24 1 100.0 1
08/06/23 20:50 -33.7 -33.7 -33.7 72 -37.0 9.6 ENE 0.16 10.4 ENE -46.8 -33.7 -46.8 737.0 0.036 0.000 16.2 2 -33.5 12.8 0.53 .0739 23 1 100.0 1
08/06/23 20:51 -33.6 -33.6 -33.7 72 -36.9 8.7 ENE 0.14 9.6 ENE -46.2 -33.6 -46.2 737.0 0.036 0.000 16.2 2 -33.5 12.8 0.53 .0739 23 1 100.0 1
08/06/23 20:52 -33.5 -33.5 -33.6 72 -36.8 7.8 ENE 0.13 8.7 ENE -45.4 -33.5 -45.4 737.0 0.036 0.000 16.2 2 -33.5 12.8 0.53 .0739 24 1 100.0 1
08/06/23 20:53 -33.3 -33.3 -33.5 72 -36.7 6.1 ENE 0.10 7.8 ENE -43.7 -33.3 -43.7 737.0 0.036 0.000 16.2 2 -33.5 12.8 0.53 .0739 23 1 100.0 1
08/06/23 20:54 -33.2 -33.2 -33.3 72 -36.5 3.5 ENE 0.06 4.3 ENE -40.4 -33.2 -40.4 737.0 0.036 0.000 16.2 2 -33.5 12.8 0.53 .0739 24 1 100.0 1
08/06/23 20:55 -32.9 -32.9 -33.1 73 -36.1 3.5 ENE 0.06 4.3 ENE -40.1 -32.9 -40.1 737.0 0.036 0.000 16.2 2 -33.5 12.8 0.53 .0739 23 1 100.0 1
08/06/23 20:56 -32.6 -32.6 -32.8 73 -35.8 4.3 ENE 0.07 5.2 ENE -41.0 -32.6 -41.0 737.0 0.035 0.000 16.2 2 -33.5 12.8 0.53 .0739 23 1 100.0 1
08/06/23 20:57 -32.4 -32.4 -32.6 73 -35.6 2.6 ENE 0.04 4.3 ENE -38.1 -32.4 -38.1 737.1 0.035 0.000 16.2 2 -33.5 12.8 0.53 .0739 24 1 100.0 1
08/06/23 20:58 -32.3 -32.3 -32.4 74 -35.4 1.7 ENE 0.03 2.6 ENE -36.0 -32.3 -36.0 737.1 0.035 0.000 16.2 2 -33.5 12.8 0.53 .0739 23 1 100.0 1
08/06/23 20:59 -32.1 -32.1 -32.3 74 -35.2 1.7 ENE 0.03 3.5 ENE -35.8 -32.1 -35.8 737.1 0.035 0.000 16.2 2 -33.5 12.8 0.53 .0739 24 1 100.0 1
08/06/23 21:00 -32.0 -32.0 -32.1 74 -35.1 3.5 E 0.06 6.1 E -39.1 -32.0 -39.1 737.1 0.035 0.000 16.2 2 -33.5 12.8 0.53 .0739 23 1 100.0 1
08/06/23 21:01 -32.0 -32.0 -32.0 75 -35.0 3.5 E 0.06 7.0 ENE -39.1 -32.0 -39.1 737.1 0.035 0.000 16.2 2 -33.5 12.8 0.53 .0739 23 1 100.0 1
08/06/23 21:02 -32.1 -32.0 -32.1 74 -35.2 8.7 ENE 0.14 10.4 ENE -44.3 -32.1 -44.3 737.0 0.035 0.000 16.2 2 -33.5 12.8 0.53 .0739 24 1 100.0 1
08/06/23 21:03 -32.4 -32.2 -32.4 74 -35.5 8.7 ENE 0.14 10.4 ENE -44.8 -32.4 -44.8 737.0 0.035 0.000 16.2 2 -33.5 12.8 0.53 .0739 23 1 100.0 1
08/06/23 21:04 -32.8 -32.5 -32.8 74 -35.8 8.7 ENE 0.14 10.4 ENE -45.2 -32.8 -45.2 737.0 0.035 0.000 16.2 2 -33.5 12.8 0.53 .0739 24 1 100.0 1
08/06/23 21:05 -33.1 -32.8 -33.1 74 -36.1 8.7 ENE 0.14 9.6 ENE -45.5 -33.1 -45.5 737.0 0.036 0.000 16.2 2 -33.5 12.8 0.53 .0739 23 1 100.0 1
08/06/23 21:06 -33.2 -33.1 -33.2 73 -36.4 8.7 ENE 0.14 8.7 ENE -45.7 -33.2 -45.7 737.0 0.036 0.000 16.2 2 -33.5 12.8 0.53 .0739 24 1 100.0 1
08/06/23 21:07 -33.3 -33.2 -33.3 73 -36.5 8.7 ENE 0.14 11.3 ENE -45.8 -33.3 -45.8 737.0 0.036 0.000 16.2 2 -33.5 12.8 0.53 .0739 23 1 100.0 1
08/06/23 21:08 -33.4 -33.3 -33.4 73 -36.6 10.4 ENE 0.17 11.3 ENE -47.1 -33.4 -47.1 737.0 0.036 0.000 16.2 2 -33.5 12.8 0.53 .0739 23 1 100.0 1
08/06/23 21:09 -33.5 -33.4 -33.5 73 -36.7 10.4 ENE 0.17 10.4 ENE -47.2 -33.5 -47.2 737.0 0.036 0.000 16.2 2 -33.5 12.8 0.53 .0739 24 1 100.0 1
08/06/23 21:10 -33.4 -33.4 -33.5 73 -36.6 8.7 ENE 0.14 10.4 ENE -46.0 -33.4 -46.0 737.1 0.036 0.000 16.2 2 -33.5 12.8 0.53 .0739 23 1 100.0 1
08/06/23 21:11 -33.3 -33.3 -33.4 72 -36.6 8.7 ENE 0.14 9.6 ENE -45.8 -33.2 -45.7 737.1 0.036 0.000 16.2 2 -33.5 12.8 0.53 .0739 24 1 100.0 1
08/06/23 21:12 -33.2 -33.2 -33.3 73 -36.4 7.8 ENE 0.13 8.7 ENE -45.0 -33.2 -45.0 737.1 0.036 0.000 16.2 2 -33.5 12.8 0.53 .0739 23 1 100.0 1
08/06/23 21:13 -32.9 -32.9 -33.1 73 -36.1 6.1 ENE 0.10 7.8 ENE -43.3 -32.9 -43.3 737.1 0.036 0.000 16.2 2 -33.5 12.8 0.53 .0739 23 1 100.0 1
08/06/23 21:14 -32.7 -32.7 -32.9 73 -35.9 5.2 NE 0.09 5.2 NE -42.1 -32.7 -42.1 737.1 0.035 0.000 16.2 2 -33.5 12.8 0.53 .0739 24 1 100.0 1
08/06/23 21:15 -32.4 -32.4 -32.7 73 -35.6 4.3 NE 0.07 5.2 NE -40.7 -32.4 -40.7 737.1 0.035 0.000 16.2 2 -33.5 12.8 0.53 .0739 23 1 100.0 1
08/06/23 21:16 -32.2 -32.2 -32.3 73 -35.4 4.3 NE 0.07 5.2 NE -40.4 -32.2 -40.4 737.1 0.035 0.000 16.2 2 -33.4 12.8 0.53 .0739 24 1 100.0 1
08/06/23 21:17 -31.9 -31.9 -32.1 74 -35.0 4.3 ENE 0.07 5.2 ENE -40.2 -31.9 -40.2 737.1 0.035 0.000 16.2 2 -33.4 12.8 0.53 .0739 23 1 100.0 1
08/06/23 21:18 -31.9 -31.9 -31.9 74 -35.0 5.2 ENE 0.09 7.0 ENE -41.2 -31.9 -41.2 737.1 0.035 0.000 16.2 2 -33.4 12.8 0.53 .0739 24 1 100.0 1
08/06/23 21:19 -32.1 -31.9 -32.1 74 -35.1 8.7 ENE 0.14 10.4 ENE -44.3 -32.1 -44.3 737.1 0.035 0.000 16.2 2 -33.4 12.8 0.53 .0739 23 1 100.0 1
08/06/23 21:20 -32.4 -32.1 -32.4 74 -35.5 8.7 ENE 0.14 10.4 ENE -44.8 -32.4 -44.8 737.1 0.035 0.000 16.2 2 -33.4 12.8 0.53 .0739 23 1 100.0 1
08/06/23 21:21 -32.8 -32.5 -32.8 74 -35.9 8.7 ENE 0.14 9.6 ENE -45.2 -32.8 -45.2 737.1 0.036 0.000 16.2 2 -33.4 12.8 0.53 .0739 24 1 100.0 1
08/06/23 21:22 -32.9 -32.8 -32.9 74 -36.0 8.7 ENE 0.14 9.6 ENE -45.4 -32.9 -45.4 737.1 0.036 0.000 16.2 2 -33.4 12.8 0.53 .0739 23 1 100.0 1
08/06/23 21:23 -32.9 -32.9 -32.9 73 -36.1 9.6 ENE 0.16 10.4 ENE -45.9 -32.9 -45.9 737.2 0.036 0.000 16.2 2 -33.4 12.8 0.53 .0739 24 1 100.0 1
08/06/23 21:24 -32.8 -32.8 -32.9 73 -36.0 8.7 ENE 0.14 9.6 NE -45.2 -32.8 -45.2 737.2 0.035 0.000 16.2 2 -33.4 12.8 0.53 .0739 23 1 100.0 1
08/06/23 21:25 -32.7 -32.7 -32.8 73 -35.9 7.8 ENE 0.13 8.7 ENE -44.4 -32.7 -44.4 737.2 0.035 0.000 16.2 2 -33.4 12.8 0.53 .0739 23 1 100.0 1
08/06/23 21:26 -32.4 -32.4 -32.6 73 -35.7 6.1 NE 0.10 7.8 NE -42.7 -32.4 -42.7 737.2 0.035 0.000 16.2 2 -33.4 12.8 0.53 .0739 24 1 100.0 1
08/06/23 21:27 -32.2 -32.2 -32.4 73 -35.4 5.2 NE 0.09 6.1 NE -41.5 -32.2 -41.5 737.2 0.035 0.000 16.2 2 -33.4 12.8 0.53 .0739 23 1 100.0 1
08/06/23 21:28 -32.0 -32.0 -32.2 74 -35.1 4.3 NE 0.07 6.1 NE -40.3 -32.0 -40.3 737.2 0.035 0.000 16.2 2 -33.4 12.8 0.53 .0739 24 1 100.0 1
08/06/23 21:29 -31.8 -31.8 -31.9 74 -34.9 4.3 NE 0.07 4.3 NE -40.0 -31.8 -40.0 737.2 0.035 0.000 16.2 2 -33.4 12.8 0.53 .0739 23 1 100.0 1
08/06/23 21:30 -31.6 -31.6 -31.7 74 -34.7 3.5 NE 0.06 4.3 NE -38.6 -31.6 -38.6 737.2 0.035 0.000 16.2 2 -33.4 12.8 0.53 .0739 23 1 100.0 1
08/06/23 21:31 -31.3 -31.3 -31.6 75 -34.3 2.6 NE 0.04 4.3 NE -36.9 -31.3 -36.9 737.2 0.034 0.000 16.2 2 -33.4 12.8 0.53 .0739 24 1 100.0 1
08/06/23 21:32 -31.2 -31.2 -31.3 75 -34.1 3.5 NE 0.06 4.3 NE -38.1 -31.2 -38.1 737.2 0.034 0.000 16.3 2 -33.4 12.9 0.52 .0739 23 1 100.0 1
08/06/23 21:33 -30.9 -30.9 -31.2 75 -33.9 3.5 NE 0.06 4.3 NE -37.9 -30.9 -37.8 737.2 0.034 0.000 16.3 2 -33.4 12.9 0.52 .0739 24 1 100.0 1
08/06/23 21:34 -30.8 -30.8 -30.9 75 -33.8 3.5 NE 0.06 4.3 NE -37.7 -30.8 -37.7 737.2 0.034 0.000 16.3 2 -33.4 12.9 0.52 .0739 23 1 100.0 1
08/06/23 21:35 -30.7 -30.7 -30.8 75 -33.7 2.6 NE 0.04 2.6 NE -36.2 -30.7 -36.2 737.2 0.034 0.000 16.2 2 -33.4 12.8 0.53 .0739 24 1 100.0 1
08/06/23 21:36 -30.6 -30.6 -30.7 75 -33.6 1.7 NE 0.03 2.6 NE -34.2 -30.6 -34.2 737.2 0.034 0.000 16.3 2 -33.4 12.9 0.52 .0739 23 1 100.0 1
08/06/23 21:37 -30.5 -30.5 -30.6 75 -33.5 2.6 NE 0.04 3.5 NE -35.9 -30.6 -36.0 737.2 0.034 0.000 16.2 2 -33.4 12.8 0.53 .0739 23 1 100.0 1
08/06/23 21:38 -30.4 -30.4 -30.5 75 -33.4 3.5 NE 0.06 4.3 NE -37.3 -30.5 -37.3 737.2 0.034 0.000 16.2 2 -33.4 12.8 0.53 .0739 24 1 100.0 1
08/06/23 21:39 -30.3 -30.3 -30.4 75 -33.3 3.5 NE 0.06 4.3 NE -37.2 -30.4 -37.2 737.2 0.034 0.000 16.2 2 -33.4 12.8 0.53 .0739 23 1 100.0 1
08/06/23 21:40 -30.3 -30.3 -30.3 75 -33.3 4.3 NE 0.07 5.2 NE -38.2 -30.3 -38.3 737.2 0.034 0.000 16.2 2 -33.4 12.8 0.53 .0739 24 1 100.0 1
08/06/23 21:41 -30.2 -30.2 -30.3 75 -33.2 4.3 NNE 0.07 5.2 NE -38.2 -30.3 -38.2 737.2 0.034 0.000 16.2 2 -33.4 12.8 0.53 .0739 23 1 100.0 1
08/06/23 21:42 -30.2 -30.2 -30.2 75 -33.2 4.3 NNE 0.07 6.1 NNE -38.2 -30.3 -38.2 737.2 0.034 0.000 16.2 2 -33.4 12.8 0.53 .0739 23 1 100.0 1
08/06/23 21:43 -30.2 -30.2 -30.2 75 -33.2 4.3 NNE 0.07 6.1 NNE -38.1 -30.2 -38.2 737.2 0.034 0.000 16.2 2 -33.4 12.8 0.53 .0739 24 1 100.0 1
08/06/23 21:44 -30.2 -30.2 -30.2 75 -33.2 5.2 NNE 0.09 6.1 NNE -39.1 -30.2 -39.1 737.2 0.034 0.000 16.2 2 -33.4 12.8 0.53 .0739 23 1 100.0 1
08/06/23 21:45 -30.2 -30.2 -30.2 75 -33.2 4.3 NNE 0.07 4.3 NNE -38.1 -30.2 -38.2 737.2 0.034 0.000 16.2 2 -33.4 12.8 0.53 .0739 24 1 100.0 1
08/06/23 21:46 -30.2 -30.2 -30.2 75 -33.2 3.5 NNE 0.06 4.3 NNE -36.9 -30.2 -37.0 737.3 0.034 0.000 16.3 2 -33.4 12.9 0.52 .0739 23 1 100.0 1
08/06/23 21:47 -30.2 -30.2 -30.2 75 -33.2 3.5 NNE 0.06 6.1 NNE -36.9 -30.2 -37.0 737.2 0.034 0.000 16.2 2 -33.4 12.8 0.53 .0739 23 1 100.0 1
08/06/23 21:48 -30.2 -30.2 -30.2 75 -33.2 3.5 NNE 0.06 4.3 NNE -36.9 -30.2 -37.0 737.2 0.034 0.000 16.3 2 -33.4 12.9 0.52 .0739 24 1 100.0 1
08/06/23 21:49 -30.2 -30.2 -30.2 75 -33.2 2.6 NNE 0.04 3.5 NNE -35.6 -30.2 -35.6 737.3 0.034 0.000 16.3 2 -33.4 12.9 0.52 .0739 23 1 100.0 1
08/06/23 21:50 -30.2 -30.2 -30.2 75 -33.2 2.6 NNE 0.04 3.5 NNE -35.6 -30.2 -35.6 737.3 0.034 0.000 16.3 2 -33.4 12.9 0.52 .0739 24 1 100.0 1
08/06/23 21:51 -30.2 -30.1 -30.2 75 -33.2 2.6 NNE 0.04 3.5 NNE -35.6 -30.2 -35.6 737.3 0.034 0.000 16.3 2 -33.4 12.9 0.52 .0739 23 1 100.0 1
08/06/23 21:52 -30.2 -30.2 -30.2 75 -33.2 2.6 NNE 0.04 4.3 NNE -35.6 -30.2 -35.6 737.3 0.034 0.000 16.3 2 -33.4 12.9 0.52 .0739 24 1 100.0 1
08/06/23 21:53 -30.2 -30.1 -30.2 75 -33.2 0.9 NNE 0.01 1.7 NNE -30.7 -30.2 -30.8 737.3 0.034 0.000 16.3 2 -33.4 12.9 0.52 .0739 23 1 100.0 1
08/06/23 21:54 -30.2 -30.1 -30.2 75 -33.2 2.6 NNE 0.04 9.6 E -35.6 -30.2 -35.6 737.4 0.034 0.000 16.3 2 -33.4 12.9 0.52 .0739 23 1 100.0 1
08/06/23 21:55 -30.6 -30.2 -30.6 75 -33.5 8.7 ENE 0.14 10.4 ENE -42.4 -30.6 -42.4 737.3 0.034 0.000 16.3 2 -33.4 12.9 0.52 .0739 24 1 100.0 1
08/06/23 21:56 -31.3 -30.7 -31.3 75 -34.3 8.7 E 0.14 11.3 ENE -43.4 -31.3 -43.4 737.4 0.034 0.000 16.3 2 -33.4 12.9 0.52 .0739 23 1 100.0 1
08/06/23 21:57 -32.3 -31.5 -32.3 74 -35.4 10.4 ENE 0.17 11.3 ENE -45.7 -32.3 -45.7 737.4 0.035 0.000 16.3 2 -33.4 12.9 0.52 .0739 24 1 100.0 1
08/06/23 21:58 -33.1 -32.4 -33.1 72 -36.4 10.4 ENE 0.17 11.3 E -46.7 -33.1 -46.7 737.3 0.036 0.000 16.3 2 -33.4 12.9 0.52 .0739 23 1 100.0 1
08/06/23 21:59 -33.8 -33.2 -33.8 71 -37.2 11.3 E 0.19 12.2 E -48.1 -33.8 -48.1 737.4 0.036 0.000 16.3 2 -33.4 12.9 0.52 .0739 24 1 100.0 1
08/06/23 22:00 -34.2 -33.8 -34.2 70 -37.7 10.4 ENE 0.17 11.3 E -48.1 -34.2 -48.1 737.4 0.036 0.000 16.3 2 -33.4 12.9 0.52 .0739 23 1 100.0 1
08/06/23 22:01 -34.4 -34.2 -34.4 70 -38.0 10.4 ENE 0.17 11.3 E -48.4 -34.4 -48.4 737.4 0.037 0.000 16.3 2 -33.4 12.9 0.52 .0739 23 1 100.0 1
08/06/23 22:02 -34.6 -34.5 -34.6 70 -38.1 10.4 ENE 0.17 11.3 ENE -48.5 -34.6 -48.5 737.4 0.037 0.000 16.3 2 -33.4 12.9 0.52 .0739 24 1 100.0 1
08/06/23 22:03 -34.7 -34.6 -34.7 70 -38.2 10.4 ENE 0.17 12.2 ENE -48.7 -34.7 -48.7 737.4 0.037 0.000 16.3 2 -33.4 12.9 0.52 .0739 23 1 100.0 1
08/06/23 22:04 -34.6 -34.6 -34.7 70 -38.2 10.4 ENE 0.17 11.3 ENE -48.6 -34.6 -48.6 737.4 0.037 0.000 16.3 2 -33.4 12.9 0.52 .0739 24 1 100.0 1
08/06/23 22:05 -34.6 -34.6 -34.6 70 -38.2 11.3 E 0.19 12.2 ENE -49.1 -34.6 -49.1 737.3 0.037 0.000 16.3 2 -33.4 12.9 0.52 .0739 23 1 100.0 1
08/06/23 22:06 -34.6 -34.6 -34.6 70 -38.1 10.4 E 0.17 11.3 E -48.5 -34.6 -48.5 737.3 0.037 0.000 16.3 2 -33.4 12.9 0.52 .0739 23 1 100.0 1
08/06/23 22:07 -34.6 -34.6 -34.6 71 -38.0 11.3 ENE 0.19 12.2 ENE -49.1 -34.6 -49.1 737.4 0.037 0.000 16.3 2 -33.4 12.9 0.52 .0739 24 1 100.0 1
08/06/23 22:08 -34.7 -34.6 -34.7 71 -38.1 11.3 ENE 0.19 12.2 E -49.3 -34.7 -49.3 737.4 0.037 0.000 16.3 2 -33.4 12.9 0.52 .0739 23 1 100.0 1
08/06/23 22:09 -34.7 -34.7 -34.7 71 -38.1 13.0 ENE 0.22 14.8 ENE -50.2 -34.7 -50.2 737.4 0.037 0.000 16.3 2 -33.4 12.9 0.52 .0739 24 1 100.0 1
08/06/23 22:10 -34.8 -34.8 -34.8 71 -38.2 11.3 ENE 0.19 13.0 ENE -49.3 -34.8 -49.3 737.3 0.037 0.000 16.3 2 -33.4 12.9 0.52 .0739 23 1 100.0 1
08/06/23 22:11 -34.8 -34.8 -34.8 71 -38.2 12.2 ENE 0.20 13.9 ENE -49.9 -34.8 -49.9 737.3 0.037 0.000 16.3 2 -33.4 12.9 0.52 .0739 23 1 100.0 1
08/06/23 22:12 -34.8 -34.8 -34.8 71 -38.2 12.2 ENE 0.20 13.0 ENE -49.9 -34.8 -49.9 737.3 0.037 0.000 16.3 2 -33.4 12.9 0.52 .0739 24 1 100.0 1
08/06/23 22:13 -34.8 -34.8 -34.8 71 -38.2 12.2 ENE 0.20 13.0 ENE -49.9 -34.8 -49.9 737.3 0.037 0.000 16.3 2 -33.4 12.9 0.52 .0739 23 1 100.0 1
08/06/23 22:14 -34.8 -34.8 -34.8 71 -38.2 11.3 ENE 0.19 13.9 ENE -49.4 -34.8 -49.4 737.3 0.037 0.000 16.3 2 -33.4 12.9 0.52 .0739 24 1 100.0 1
08/06/23 22:15 -34.8 -34.8 -34.8 71 -38.2 12.2 ENE 0.20 13.9 ENE -49.9 -34.8 -49.9 737.3 0.037 0.000 16.3 2 -33.4 12.9 0.52 .0739 23 1 100.0 1
08/06/23 22:16 -34.8 -34.8 -34.8 72 -38.1 12.2 ENE 0.20 13.9 ENE -49.8 -34.8 -49.8 737.3 0.037 0.000 16.3 2 -33.4 12.9 0.52 .0739 23 1 100.0 1
08/06/23 22:17 -34.8 -34.8 -34.8 72 -38.1 9.6 ENE 0.16 12.2 ENE -48.3 -34.8 -48.3 737.4 0.037 0.000 16.3 2 -33.4 12.9 0.52 .0739 24 1 100.0 1
08/06/23 22:18 -34.8 -34.8 -34.8 72 -38.1 13.9 ENE 0.23 15.7 ENE -50.8 -34.8 -50.8 737.4 0.037 0.000 16.3 2 -33.4 12.9 0.52 .0739 23 1 100.0 1
08/06/23 22:19 -34.9 -34.8 -34.9 72 -38.2 12.2 ENE 0.20 13.9 ENE -49.9 -34.9 -49.9 737.4 0.037 0.000 16.3 2 -33.4 12.9 0.52 .0739 24 1 100.0 1
08/06/23 22:20 -34.9 -34.9 -34.9 72 -38.2 12.2 ENE 0.20 14.8 ENE -50.0 -34.9 -50.0 737.3 0.037 0.000 16.3 2 -33.4 12.9 0.52 .0739 23 1 100.0 1
08/06/23 22:21 -35.0 -34.9 -35.0 72 -38.3 11.3 ENE 0.19 13.9 ENE -49.6 -35.0 -49.6 737.4 0.037 0.000 16.3 2 -33.4 12.9 0.52 .0739 24 1 100.0 1
08/06/23 22:22 -34.9 -34.9 -35.1 72 -38.2 13.9 ENE 0.23 14.8 ENE -50.9 -34.9 -50.9 737.3 0.037 0.000 16.3 2 -33.4 12.9 0.52 .0739 23 1 100.0 1
08/06/23 22:23 -34.8 -34.8 -34.9 72 -38.1 11.3 ENE 0.19 13.0 ENE -49.4 -34.8 -49.4 737.3 0.037 0.000 16.3 2 -33.4 12.9 0.52 .0739 23 1 100.0 1
08/06/23 22:24 -34.7 -34.7 -34.8 72 -38.0 10.4 ENE 0.17 13.9 E -48.7 -34.7 -48.7 737.3 0.037 0.000 16.3 2 -33.4 12.9 0.52 .0739 24 1 100.0 1
08/06/23 22:25 -34.4 -34.4 -34.7 72 -37.7 13.0 ENE 0.22 14.8 ENE -49.8 -34.4 -49.8 737.3 0.037 0.000 16.3 2 -33.4 12.9 0.52 .0739 23 1 100.0 1
08/06/23 22:26 -34.2 -34.2 -34.4 72 -37.5 10.4 ENE 0.17 12.2 ENE -48.1 -34.2 -48.1 737.3 0.036 0.000 16.3 2 -33.4 12.9 0.52 .0739 24 1 100.0 1
08/06/23 22:27 -34.2 -34.2 -34.2 73 -37.3 11.3 ENE 0.19 12.2 ENE -48.6 -34.2 -48.6 737.3 0.036 0.000 16.3 2 -33.4 12.9 0.52 .0739 23 1 100.0 1
08/06/23 22:28 -34.1 -34.1 -34.2 73 -37.3 11.3 ENE 0.19 13.0 ENE -48.5 -34.1 -48.5 737.3 0.036 0.000 16.3 2 -33.4 12.9 0.52 .0739 23 1 100.0 1
08/06/23 22:29 -33.9 -33.9 -34.1 73 -37.1 10.4 ENE 0.17 12.2 ENE -47.8 -33.9 -47.8 737.3 0.036 0.000 16.3 2 -33.4 12.9 0.52 .0739 24 1 100.0 1
08/06/23 22:30 -33.9 -33.9 -33.9 73 -37.1 11.3 ENE 0.19 13.0 ENE -48.3 -33.9 -48.3 737.3 0.036 0.000 16.3 2 -33.4 12.9 0.52 .0739 23 1 100.0 1
08/06/23 22:31 -33.9 -33.9 -33.9 73 -37.1 11.3 ENE 0.19 13.0 ENE -48.3 -33.9 -48.3 737.2 0.036 0.000 16.3 2 -33.4 12.9 0.52 .0738 24 1 100.0 1
08/06/23 22:32 -33.9 -33.9 -34.0 73 -37.1 11.3 ENE 0.19 12.2 ENE -48.3 -33.9 -48.3 737.2 0.036 0.000 16.4 2 -33.3 13.0 0.52 .0738 23 1 100.0 1
08/06/23 22:33 -33.8 -33.8 -33.9 73 -37.0 10.4 ENE 0.17 11.3 ENE -47.6 -33.8 -47.6 737.2 0.036 0.000 16.3 2 -33.4 12.9 0.52 .0738 24 1 100.0 1
08/06/23 22:34 -33.8 -33.8 -33.8 73 -36.9 9.6 ENE 0.16 12.2 E -47.0 -33.8 -47.0 737.2 0.036 0.000 16.3 2 -33.4 12.9 0.52 .0738 23 1 100.0 1
08/06/23 22:35 -33.7 -33.7 -33.8 73 -36.9 11.3 E 0.19 13.0 E -48.0 -33.7 -48.0 737.1 0.036 0.000 16.4 2 -33.3 13.0 0.52 .0738 23 1 100.0 1
08/06/23 22:36 -33.7 -33.7 -33.7 73 -36.9 12.2 ENE 0.20 13.0 ENE -48.4 -33.7 -48.4 737.2 0.036 0.000 16.4 2 -33.3 13.0 0.52 .0738 24 1 100.0 1
08/06/23 22:37 -33.9 -33.8 -33.9 73 -37.1 12.2 E 0.20 14.8 ENE -48.8 -33.9 -48.8 737.2 0.036 0.000 16.4 2 -33.3 13.0 0.52 .0738 23 1 100.0 1
08/06/23 22:38 -34.1 -33.9 -34.1 73 -37.2 13.9 ENE 0.23 15.7 ENE -49.8 -34.1 -49.8 737.2 0.036 0.000 16.4 2 -33.3 13.0 0.52 .0738 24 1 100.0 1
08/06/23 22:39 -34.2 -34.1 -34.2 73 -37.3 12.2 ENE 0.20 16.5 E -49.1 -34.2 -49.1 737.2 0.036 0.000 16.4 2 -33.3 13.0 0.52 .0738 23 1 100.0 1
08/06/23 22:40 -34.2 -34.2 -34.2 72 -37.5 17.4 E 0.29 19.1 E -51.5 -34.2 -51.5 737.1 0.036 0.000 16.4 2 -33.3 13.0 0.52 .0738 23 1 100.0 1
08/06/23 22:41 -34.3 -34.3 -34.3 72 -37.6 15.7 E 0.26 20.0 ENE -50.9 -34.3 -50.9 737.2 0.037 0.000 16.4 2 -33.3 13.0 0.52 .0738 24 1 100.0 1
08/06/23 22:42 -34.3 -34.3 -34.3 72 -37.6 15.7 ENE 0.26 18.3 ENE -50.9 -34.3 -50.9 737.2 0.037 0.000 16.4 2 -33.3 13.0 0.52 .0738 23 1 100.0 1
08/06/23 22:43 -34.3 -34.3 -34.4 72 -37.6 10.4 ENE 0.17 16.5 ENE -48.2 -34.3 -48.2 737.3 0.037 0.000 16.4 2 -33.3 13.0 0.52 .0738 24 1 100.0 1
08/06/23 22:44 -34.5 -34.4 -34.5 72 -37.8 15.7 ENE 0.26 18.3 ENE -51.2 -34.5 -51.2 737.3 0.037 0.000 16.4 2 -33.3 13.0 0.52 .0738 23 1 100.0 1
08/06/23 22:45 -34.7 -34.5 -34.7 72 -37.9 14.8 E 0.25 16.5 E -51.0 -34.7 -51.0 737.2 0.037 0.000 16.4 2 -33.3 13.0 0.52 .0738 23 1 100.0 1
08/06/23 22:46 -34.7 -34.7 -34.7 72 -37.9 15.7 ENE 0.26 18.3 ENE -51.4 -34.7 -51.4 737.3 0.037 0.000 16.4 2 -33.3 13.0 0.52 .0738 24 1 100.0 1
08/06/23 22:47 -34.6 -34.6 -34.6 72 -37.8 13.9 ENE 0.23 17.4 ENE -50.4 -34.6 -50.4 737.2 0.037 0.000 16.4 2 -33.3 13.0 0.52 .0738 23 1 100.0 1
08/06/23 22:48 -34.5 -34.5 -34.5 72 -37.8 11.3 ENE 0.19 16.5 E -49.0 -34.5 -49.0 737.3 0.037 0.000 16.4 2 -33.3 13.0 0.52 .0738 24 1 100.0 1
08/06/23 22:49 -34.6 -34.5 -34.6 72 -37.8 16.5 ENE 0.28 18.3 ENE -51.6 -34.6 -51.6 737.1 0.037 0.000 16.4 2 -33.3 13.0 0.52 .0738 23 1 100.0 1
08/06/23 22:50 -34.6 -34.6 -34.6 72 -37.9 14.8 ENE 0.25 18.3 ENE -50.9 -34.6 -50.9 737.2 0.037 0.000 16.4 2 -33.3 13.0 0.52 .0738 24 1 100.0 1
08/06/23 22:51 -34.6 -34.6 -34.7 72 -37.9 13.0 ENE 0.22 16.5 ENE -50.1 -34.6 -50.1 737.2 0.037 0.000 16.4 2 -33.3 13.0 0.52 .0738 23 1 100.0 1
08/06/23 22:52 -34.7 -34.7 -34.7 72 -37.9 13.0 ENE 0.22 15.7 ENE -50.1 -34.7 -50.1 737.3 0.037 0.000 16.4 2 -33.3 13.0 0.52 .0738 23 1 100.0 1
08/06/23 22:53 -34.6 -34.6 -34.7 72 -37.9 15.7 ENE 0.26 18.3 ENE -51.3 -34.6 -51.3 737.2 0.037 0.000 16.3 2 -33.4 12.9 0.52 .0738 24 1 100.0 1
08/06/23 22:54 -34.7 -34.7 -34.7 72 -37.9 13.0 ENE 0.22 15.7 ENE -50.1 -34.7 -50.1 737.2 0.037 0.000 16.4 2 -33.3 13.0 0.52 .0738 23 1 100.0 1
08/06/23 22:55 -34.7 -34.7 -34.7 72 -37.9 13.9 ENE 0.23 15.7 ENE -50.6 -34.7 -50.6 737.2 0.037 0.000 16.4 2 -33.3 13.0 0.52 .0738 24 1 100.0 1
08/06/23 22:56 -34.8 -34.7 -34.8 72 -38.1 13.0 ENE 0.22 15.7 ENE -50.3 -34.8 -50.3 737.2 0.037 0.000 16.4 2 -33.3 13.0 0.52 .0738 23 1 100.0 1
08/06/23 22:57 -34.8 -34.7 -34.8 72 -38.1 14.8 ENE 0.25 15.7 NE -51.1 -34.8 -51.1 737.2 0.037 0.000 16.3 2 -33.4 12.9 0.52 .0739 23 1 100.0 1
08/06/23 22:58 -34.7 -34.7 -34.8 72 -38.0 13.0 ENE 0.22 15.7 ENE -50.2 -34.7 -50.2 737.2 0.037 0.000 16.4 2 -33.3 13.0 0.52 .0738 24 1 100.0 1
08/06/23 22:59 -34.6 -34.6 -34.7 72 -37.9 14.8 ENE 0.25 16.5 ENE -50.9 -34.6 -50.9 737.2 0.037 0.000 16.4 2 -33.3 13.0 0.52 .0738 23 1 100.0 1
08/06/23 23:00 -34.4 -34.4 -34.6 72 -37.7 12.2 ENE 0.20 16.5 ENE -49.4 -34.4 -49.4 737.1 0.037 0.000 16.4 2 -33.3 13.0 0.52 .0738 24 1 100.0 1
08/06/23 23:01 -34.4 -34.4 -34.4 72 -37.7 8.7 ENE 0.14 11.3 ENE -47.2 -34.4 -47.2 737.3 0.037 0.000 16.4 2 -33.3 13.0 0.52 .0738 23 1 100.0 1
08/06/23 23:02 -34.4 -34.4 -34.4 72 -37.7 14.8 ENE 0.25 17.4 ENE -50.6 -34.4 -50.6 737.2 0.037 0.000 16.4 2 -33.3 13.0 0.52 .0738 24 1 100.0 1
08/06/23 23:03 -34.5 -34.4 -34.5 72 -37.8 14.8 ENE 0.25 17.4 ENE -50.8 -34.5 -50.8 737.1 0.037 0.000 16.4 2 -33.3 13.0 0.52 .0738 23 1 100.0 1
08/06/23 23:04 -34.7 -34.5 -34.7 72 -37.9 12.2 E 0.20 15.7 ENE -49.7 -34.7 -49.7 737.1 0.037 0.000 16.4 2 -33.3 13.0 0.52 .0738 23 1 100.0 1
08/06/23 23:05 -34.7 -34.7 -34.7 72 -37.9 9.6 ENE 0.16 13.0 ENE -48.1 -34.7 -48.1 737.2 0.037 0.000 16.4 2 -33.3 13.0 0.52 .0738 24 1 100.0 1
08/06/23 23:06 -34.7 -34.7 -34.7 72 -38.0 16.5 ENE 0.28 18.3 ENE -51.8 -34.7 -51.8 737.2 0.037 0.000 16.4 2 -33.3 13.0 0.52 .0738 23 1 100.0 1
08/06/23 23:07 -34.7 -34.7 -34.7 72 -38.0 14.8 ENE 0.25 17.4 ENE -51.1 -34.7 -51.1 737.2 0.037 0.000 16.4 2 -33.3 13.0 0.52 .0738 24 1 100.0 1
08/06/23 23:08 -34.7 -34.7 -34.7 72 -38.0 12.2 ENE 0.20 15.7 ENE -49.7 -34.7 -49.7 737.2 0.037 0.000 16.4 2 -33.3 13.0 0.52 .0738 23 1 100.0 1
08/06/23 23:09 -34.8 -34.7 -34.8 72 -38.1 6.1 ENE 0.10 9.6 ENE -45.4 -34.8 -45.4 737.3 0.037 0.000 16.4 2 -33.3 13.0 0.52 .0738 23 1 100.0 1
08/06/23 23:10 -34.7 -34.7 -34.8 72 -37.9 15.7 ENE 0.26 18.3 ENE -51.4 -34.7 -51.4 737.3 0.037 0.000 16.4 2 -33.3 13.0 0.52 .0738 24 1 100.0 1
08/06/23 23:11 -34.6 -34.6 -34.7 72 -37.9 13.0 ENE 0.22 18.3 E -50.1 -34.6 -50.1 737.3 0.037 0.000 16.4 2 -33.3 13.0 0.52 .0738 23 1 100.0 1
08/06/23 23:12 -34.3 -34.3 -34.6 72 -37.6 11.3 ENE 0.19 17.4 ENE -48.8 -34.3 -48.8 737.3 0.037 0.000 16.4 2 -33.3 13.0 0.52 .0738 24 1 100.0 1
08/06/23 23:13 -34.3 -34.3 -34.3 72 -37.6 12.2 E 0.20 15.7 E -49.2 -34.3 -49.2 737.3 0.037 0.000 16.4 2 -33.3 13.0 0.52 .0738 23 1 100.0 1
08/06/23 23:14 -34.3 -34.3 -34.3 72 -37.6 15.7 ENE 0.26 17.4 ENE -50.9 -34.3 -50.9 737.2 0.037 0.000 16.4 2 -33.3 13.0 0.52 .0738 23 1 100.0 1
08/06/23 23:15 -34.4 -34.3 -34.4 72 -37.7 13.0 ENE 0.22 16.5 ENE -49.8 -34.4 -49.8 737.3 0.037 0.000 16.4 2 -33.3 13.0 0.52 .0738 24 1 100.0 1
08/06/23 23:16 -34.4 -34.4 -34.4 72 -37.7 14.8 E 0.25 15.7 ENE -50.7 -34.4 -50.7 737.2 0.037 0.000 16.4 2 -33.3 13.0 0.52 .0738 23 1 100.0 1
08/06/23 23:17 -34.5 -34.4 -34.5 72 -37.8 11.3 ENE 0.19 14.8 ENE -49.0 -34.5 -49.0 737.2 0.037 0.000 16.4 2 -33.3 13.0 0.52 .0738 24 1 100.0 1
08/06/23 23:18 -34.4 -34.4 -34.5 72 -37.7 16.5 ENE 0.28 18.3 ENE -51.4 -34.4 -51.4 737.2 0.037 0.000 16.4 2 -33.3 13.0 0.52 .0738 23 1 100.0 1
08/06/23 23:19 -34.4 -34.4 -34.4 72 -37.7 12.2 ENE 0.20 16.5 ENE -49.4 -34.4 -49.4 737.2 0.037 0.000 16.4 2 -33.3 13.0 0.52 .0738 24 1 100.0 1
08/06/23 23:20 -34.5 -34.4 -34.5 72 -37.8 11.3 ENE 0.19 16.5 ENE -49.0 -34.5 -49.0 737.3 0.037 0.000 16.4 2 -33.3 13.0 0.52 .0738 23 1 100.0 1
08/06/23 23:21 -34.6 -34.6 -34.6 72 -37.9 14.8 ENE 0.25 16.5 ENE -50.9 -34.6 -50.9 737.3 0.037 0.000 16.4 2 -33.3 13.0 0.52 .0738 23 1 100.0 1
08/06/23 23:22 -34.7 -34.7 -34.7 72 -38.0 13.9 ENE 0.23 16.5 ENE -50.6 -34.7 -50.6 737.3 0.037 0.000 16.4 2 -33.3 13.0 0.52 .0738 24 1 100.0 1
08/06/23 23:23 -34.8 -34.8 -34.8 72 -38.1 15.7 ENE 0.26 16.5 E -51.6 -34.8 -51.6 737.3 0.037 0.000 16.4 2 -33.3 13.0 0.52 .0738 23 1 100.0 1
08/06/23 23:24 -35.0 -34.9 -35.0 72 -38.3 15.7 ENE 0.26 18.3 E -51.8 -35.0 -51.8 737.3 0.037 0.000 16.4 2 -33.3 13.0 0.52 .0738 24 1 100.0 1
08/06/23 23:25 -35.1 -35.0 -35.1 72 -38.3 13.9 ENE 0.23 16.5 E -51.1 -35.1 -51.1 737.4 0.037 0.000 16.4 2 -33.3 13.0 0.52 .0738 23 1 100.0 1
08/06/23 23:26 -35.2 -35.1 -35.2 71 -38.6 17.4 E 0.29 20.0 E -52.8 -35.2 -52.8 737.3 0.037 0.000 16.4 2 -33.3 13.0 0.52 .0738 23 1 100.0 1
08/06/23 23:27 -35.4 -35.3 -35.4 71 -38.8 14.8 ENE 0.25 16.5 E -51.9 -35.4 -51.9 737.4 0.037 0.000 16.4 2 -33.3 13.0 0.52 .0738 24 1 100.0 1
08/06/23 23:28 -35.6 -35.4 -35.6 71 -38.9 15.7 E 0.26 18.3 E -52.5 -35.6 -52.5 737.4 0.037 0.000 16.4 2 -33.3 13.0 0.52 .0739 23 1 100.0 1
08/06/23 23:29 -35.7 -35.6 -35.7 71 -39.1 16.5 E 0.28 18.3 E -53.1 -35.7 -53.1 737.3 0.038 0.000 16.4 2 -33.3 13.0 0.52 .0738 24 1 100.0 1
08/06/23 23:30 -35.8 -35.8 -35.8 71 -39.2 17.4 E 0.29 20.0 ENE -53.6 -35.8 -53.6 737.4 0.038 0.000 16.4 2 -33.3 13.0 0.52 .0739 23 1 100.0 1
08/06/23 23:31 -36.0 -35.9 -36.0 71 -39.4 14.8 ENE 0.25 17.4 ENE -52.7 -36.0 -52.7 737.4 0.038 0.000 16.4 2 -33.3 13.0 0.52 .0739 23 1 100.0 1
08/06/23 23:32 -36.1 -36.0 -36.1 71 -39.4 17.4 E 0.29 20.9 E -53.9 -36.1 -53.9 737.4 0.038 0.000 16.4 2 -33.3 13.0 0.52 .0739 24 1 100.0 1
08/06/23 23:33 -36.2 -36.1 -36.2 71 -39.5 14.8 E 0.25 17.4 E -52.9 -36.2 -52.9 737.4 0.038 0.000 16.4 2 -33.3 13.0 0.52 .0739 23 1 100.0 1
08/06/23 23:34 -36.2 -36.2 -36.2 71 -39.5 17.4 E 0.29 19.1 E -54.1 -36.2 -54.1 737.4 0.038 0.000 16.4 2 -33.3 13.0 0.52 .0738 24 1 100.0 1
08/06/23 23:35 -36.2 -36.2 -36.2 71 -39.6 16.5 E 0.28 18.3 E -53.8 -36.2 -53.8 737.4 0.038 0.000 16.4 2 -33.3 13.0 0.52 .0738 23 1 100.0 1
08/06/23 23:36 -36.2 -36.2 -36.3 71 -39.6 16.5 ENE 0.28 19.1 ENE -53.8 -36.2 -53.8 737.4 0.038 0.000 16.4 2 -33.3 13.0 0.52 .0739 24 1 100.0 1
08/06/23 23:37 -36.3 -36.2 -36.3 71 -39.6 16.5 E 0.28 20.0 ENE -53.8 -36.3 -53.8 737.4 0.038 0.000 16.4 2 -33.3 13.0 0.52 .0739 23 1 100.0 1
08/06/23 23:38 -36.3 -36.3 -36.3 71 -39.6 16.5 ENE 0.28 19.1 ENE -53.8 -36.3 -53.8 737.4 0.038 0.000 16.4 2 -33.3 13.0 0.52 .0738 23 1 100.0 1
08/06/23 23:39 -36.3 -36.3 -36.3 71 -39.7 15.7 ENE 0.26 19.1 ENE -53.6 -36.3 -53.6 737.3 0.038 0.000 16.4 2 -33.3 13.0 0.52 .0738 24 1 100.0 1
08/06/23 23:40 -36.3 -36.3 -36.3 71 -39.7 16.5 ENE 0.28 19.1 ENE -53.9 -36.3 -53.9 737.4 0.038 0.000 16.4 2 -33.3 13.0 0.52 .0739 23 1 100.0 1
08/06/23 23:41 -36.3 -36.3 -36.4 71 -39.7 16.5 E 0.28 18.3 ENE -53.9 -36.3 -53.9 737.3 0.038 0.000 16.4 2 -33.3 13.0 0.52 .0738 24 1 100.0 1
08/06/23 23:42 -36.4 -36.3 -36.4 71 -39.8 15.7 E 0.26 19.1 ENE -53.6 -36.4 -53.6 737.4 0.038 0.000 16.4 2 -33.3 13.0 0.52 .0738 23 1 100.0 1
08/06/23 23:43 -36.3 -36.3 -36.4 71 -39.7 17.4 ENE 0.29 19.1 ENE -54.3 -36.3 -54.3 737.3 0.038 0.000 16.4 2 -33.3 13.0 0.52 .0738 24 1 100.0 1
08/06/23 23:44 -36.3 -36.3 -36.3 71 -39.7 15.7 E 0.26 17.4 ENE -53.6 -36.3 -53.6 737.4 0.038 0.000 16.4 2 -33.3 13.0 0.52 .0738 23 1 100.0 1
08/06/23 23:45 -36.3 -36.3 -36.3 71 -39.7 15.7 ENE 0.26 16.5 E -53.6 -36.3 -53.6 737.4 0.038 0.000 16.4 2 -33.3 13.0 0.52 .0738 23 1 100.0 1
08/06/23 23:46 -36.3 -36.3 -36.3 71 -39.6 16.5 ENE 0.28 18.3 ENE -53.8 -36.3 -53.8 737.5 0.038 0.000 16.4 2 -33.3 13.0 0.52 .0738 24 1 100.0 1
08/06/23 23:47 -36.2 -36.2 -36.3 71 -39.5 18.3 ENE 0.30 19.1 ENE -54.4 -36.2 -54.4 737.4 0.038 0.000 16.4 2 -33.3 13.0 0.52 .0738 23 1 100.0 1
08/06/23 23:48 -36.1 -36.1 -36.2 71 -39.5 16.5 ENE 0.28 18.3 ENE -53.6 -36.1 -53.6 737.5 0.038 0.000 16.4 2 -33.3 13.0 0.52 .0738 24 1 100.0 1
08/06/23 23:49 -36.1 -36.1 -36.1 71 -39.4 18.3 ENE 0.30 19.1 ENE -54.3 -36.1 -54.3 737.5 0.038 0.000 16.4 2 -33.3 13.0 0.52 .0738 23 1 100.0 1
08/06/23 23:50 -36.0 -36.0 -36.1 71 -39.4 18.3 ENE 0.30 19.1 ENE -54.2 -36.0 -54.2 737.5 0.038 0.000 16.4 2 -33.3 13.0 0.52 .0738 23 1 100.0 1
08/06/23 23:51 -35.9 -35.9 -36.0 71 -39.3 17.4 ENE 0.29 19.1 ENE -53.8 -35.9 -53.8 737.4 0.038 0.000 16.4 2 -33.3 13.0 0.52 .0738 24 1 100.0 1
08/06/23 23:52 -35.9 -35.9 -35.9 71 -39.3 17.4 ENE 0.29 19.1 ENE -53.8 -35.9 -53.8 737.5 0.038 0.000 16.4 2 -33.3 13.0 0.52 .0739 23 1 100.0 1
08/06/23 23:53 -35.9 -35.9 -35.9 71 -39.3 16.5 ENE 0.28 18.3 ENE -53.4 -35.9 -53.4 737.5 0.038 0.000 16.4 2 -33.3 13.0 0.52 .0739 24 1 100.0 1
08/06/23 23:54 -36.0 -35.9 -36.0 71 -39.4 17.4 ENE 0.29 20.0 ENE -53.8 -36.0 -53.8 737.5 0.038 0.000 16.4 2 -33.3 13.0 0.52 .0738 23 1 100.0 1
08/06/23 23:55 -36.0 -36.0 -36.0 71 -39.4 17.4 ENE 0.29 19.1 ENE -53.8 -36.0 -53.8 737.5 0.038 0.000 16.4 2 -33.3 13.0 0.52 .0739 23 1 100.0 1
08/06/23 23:56 -36.1 -36.0 -36.1 71 -39.4 15.7 ENE 0.26 18.3 ENE -53.2 -36.1 -53.2 737.5 0.038 0.000 16.4 2 -33.3 13.0 0.52 .0738 24 1 100.0 1
08/06/23 23:57 -36.1 -36.1 -36.1 71 -39.4 16.5 ENE 0.28 18.3 ENE -53.6 -36.1 -53.6 737.5 0.038 0.000 16.4 2 -33.3 13.0 0.52 .0739 23 1 100.0 1
08/06/23 23:58 -36.1 -36.1 -36.1 71 -39.4 16.5 ENE 0.28 18.3 ENE -53.6 -36.1 -53.6 737.5 0.038 0.000 16.4 2 -33.3 13.0 0.52 .0739 24 1 100.0 1
08/06/23 23:59 -35.9 -35.9 -36.0 71 -39.3 17.4 ENE 0.29 19.1 ENE -53.7 -35.9 -53.7 737.5 0.038 0.000 16.4 2 -33.3 13.0 0.52 .0738 23 1 100.0 1
08/07/23 00:00 -35.7 -35.7 -35.8 71 -39.1 15.7 ENE 0.26 16.5 ENE -52.7 -35.7 -52.7 737.5 0.038 0.000 16.4 2 -33.3 13.0 0.52 .0739 23 1 100.0 1
08/07/23 0:01 -35.6 -35.6 -35.7 71 -39.0 17.4 ENE 0.29 18.3 ENE -53.3 -35.6 -53.3 737.5 0.037 0.000 16.4 2 -33.3 13.0 0.52 .0738 21 1 91.3 1
08/07/23 0:02 -35.6 -35.6 -35.7 72 -38.8 16.5 ENE 0.28 18.3 ENE -52.9 -35.6 -52.9 737.5 0.037 0.000 16.4 2 -33.3 13.0 0.52 .0738 24 1 100.0 1
08/07/23 0:03 -35.4 -35.4 -35.5 72 -38.6 14.8 ENE 0.25 18.3 ENE -51.9 -35.4 -51.9 737.5 0.037 0.000 16.4 2 -33.3 13.0 0.52 .0739 23 1 100.0 1
08/07/23 0:04 -35.4 -35.4 -35.4 72 -38.6 16.5 E 0.28 18.3 ENE -52.7 -35.4 -52.7 737.5 0.037 0.000 16.4 2 -33.3 13.0 0.52 .0738 23 1 100.0 1
08/07/23 0:05 -35.4 -35.4 -35.4 72 -38.7 14.8 ENE 0.25 16.5 E -52.0 -35.4 -52.0 737.5 0.037 0.000 16.4 2 -33.3 13.0 0.52 .0739 24 1 100.0 1
08/07/23 0:06 -35.4 -35.4 -35.4 72 -38.7 13.9 ENE 0.23 16.5 ENE -51.6 -35.4 -51.6 737.5 0.037 0.000 16.4 2 -33.3 13.0 0.52 .0738 23 1 100.0 1
08/07/23 0:07 -35.4 -35.3 -35.4 72 -38.6 16.5 ENE 0.28 17.4 ENE -52.7 -35.4 -52.7 737.5 0.037 0.000 16.4 2 -33.3 13.0 0.52 .0739 24 1 100.0 1
08/07/23 0:08 -35.2 -35.2 -35.3 72 -38.4 15.7 ENE 0.26 19.1 ENE -52.0 -35.2 -52.0 737.6 0.037 0.000 16.4 2 -33.3 13.0 0.52 .0739 23 1 100.0 1
08/07/23 0:09 -34.8 -34.8 -35.1 72 -38.1 15.7 ENE 0.26 18.3 ENE -51.6 -34.8 -51.6 737.5 0.037 0.000 16.4 2 -33.3 13.0 0.52 .0739 24 1 100.0 1
08/07/23 0:10 -34.7 -34.7 -34.8 72 -38.0 17.4 ENE 0.29 20.0 ENE -52.2 -34.7 -52.2 737.6 0.037 0.000 16.4 2 -33.3 13.0 0.52 .0739 23 1 100.0 1
08/07/23 0:11 -34.7 -34.7 -34.7 72 -37.9 15.7 ENE 0.26 17.4 ENE -51.4 -34.7 -51.4 737.6 0.037 0.000 16.4 2 -33.3 13.0 0.52 .0739 23 1 100.0 1
08/07/23 0:12 -34.7 -34.7 -34.7 72 -37.9 16.5 ENE 0.28 19.1 ENE -51.7 -34.7 -51.7 737.6 0.037 0.000 16.4 2 -33.3 13.0 0.52 .0739 24 1 100.0 1
08/07/23 0:13 -34.7 -34.7 -34.7 72 -38.0 14.8 ENE 0.25 20.9 ENE -51.1 -34.7 -51.1 737.6 0.037 0.000 16.4 2 -33.3 13.0 0.52 .0739 23 1 100.0 1
08/07/23 0:14 -34.7 -34.7 -34.7 72 -37.9 17.4 ENE 0.29 20.9 ENE -52.1 -34.7 -52.1 737.5 0.037 0.000 16.4 2 -33.3 13.0 0.52 .0739 24 1 100.0 1
08/07/23 0:15 -34.6 -34.6 -34.7 72 -37.8 17.4 ENE 0.29 20.9 ENE -51.9 -34.6 -51.9 737.6 0.037 0.000 16.4 2 -33.3 13.0 0.52 .0739 23 1 100.0 1
08/07/23 0:16 -34.5 -34.5 -34.5 72 -37.8 14.8 ENE 0.25 18.3 ENE -50.8 -34.5 -50.8 737.7 0.037 0.000 16.4 2 -33.3 13.0 0.52 .0739 23 1 100.0 1
08/07/23 0:17 -34.6 -34.5 -34.6 72 -37.8 18.3 ENE 0.30 19.1 ENE -52.3 -34.6 -52.3 737.6 0.037 0.000 16.4 2 -33.3 13.0 0.52 .0739 24 1 100.0 1
08/07/23 0:18 -34.6 -34.5 -34.6 72 -37.8 15.7 ENE 0.26 17.4 ENE -51.2 -34.6 -51.2 737.6 0.037 0.000 16.4 2 -33.3 13.0 0.52 .0739 23 1 100.0 1
08/07/23 0:19 -34.6 -34.6 -34.6 72 -37.9 20.0 ENE 0.33 22.6 ENE -53.0 -34.6 -53.0 737.6 0.037 0.000 16.4 2 -33.3 13.0 0.52 .0739 24 1 100.0 1
08/07/23 0:20 -34.4 -34.4 -34.6 72 -37.7 15.7 ENE 0.26 22.6 ENE -51.1 -34.4 -51.1 737.6 0.037 0.000 16.4 2 -33.3 13.0 0.52 .0739 23 1 100.0 1
08/07/23 0:21 -34.5 -34.4 -34.5 72 -37.8 9.6 ENE 0.16 13.9 ENE -47.9 -34.5 -47.9 737.7 0.037 0.000 16.4 2 -33.3 13.0 0.52 .0739 23 1 100.0 1
08/07/23 0:22 -34.7 -34.5 -34.7 72 -37.9 18.3 ENE 0.30 20.9 ENE -52.4 -34.7 -52.4 737.6 0.037 0.000 16.4 2 -33.3 13.0 0.52 .0739 24 1 100.0 1
08/07/23 0:23 -34.7 -34.7 -34.7 72 -37.9 16.5 ENE 0.28 20.0 ENE -51.7 -34.7 -51.7 737.6 0.037 0.000 16.4 2 -33.3 13.0 0.52 .0739 23 1 100.0 1
08/07/23 0:24 -34.7 -34.7 -34.7 72 -37.9 11.3 ENE 0.19 18.3 ENE -49.2 -34.7 -49.2 737.8 0.037 0.000 16.4 2 -33.3 13.0 0.52 .0739 24 1 100.0 1
08/07/23 0:25 -34.8 -34.7 -34.8 72 -38.1 19.1 ENE 0.32 20.9 ENE -52.9 -34.8 -52.9 737.6 0.037 0.000 16.4 2 -33.3 13.0 0.52 .0739 23 1 100.0 1
08/07/23 0:26 -34.8 -34.8 -34.8 72 -38.1 13.9 ENE 0.23 17.4 ENE -50.8 -34.8 -50.8 737.7 0.037 0.000 16.4 2 -33.3 13.0 0.52 .0739 24 1 100.0 1
08/07/23 0:27 -34.9 -34.8 -34.9 71 -38.3 16.5 ENE 0.28 19.1 ENE -52.1 -34.9 -52.1 737.6 0.037 0.000 16.4 2 -33.3 13.0 0.52 .0739 23 1 100.0 1
08/07/23 0:28 -34.9 -34.9 -34.9 72 -38.2 17.4 ENE 0.29 20.9 ENE -52.4 -34.9 -52.4 737.6 0.037 0.000 16.4 2 -33.3 13.0 0.52 .0739 23 1 100.0 1
08/07/23 0:29 -34.9 -34.9 -34.9 72 -38.2 14.8 ENE 0.25 16.5 ENE -51.3 -34.9 -51.3 737.7 0.037 0.000 16.4 2 -33.3 13.0 0.52 .0739 24 1 100.0 1
08/07/23 0:30 -35.0 -34.9 -35.0 72 -38.3 18.3 ENE 0.30 20.9 ENE -52.9 -35.0 -52.9 737.6 0.037 0.000 16.4 2 -33.3 13.0 0.52 .0739 23 1 100.0 1
08/07/23 0:31 -35.1 -35.1 -35.1 71 -38.5 15.7 NE 0.26 17.4 ENE -51.9 -35.1 -51.9 737.7 0.037 0.000 16.4 2 -33.3 13.0 0.52 .0739 24 1 100.0 1
08/07/23 0:32 -35.1 -35.0 -35.1 71 -38.5 14.8 NE 0.25 17.4 NE -51.5 -35.1 -51.5 737.6 0.037 0.000 16.4 2 -33.3 13.0 0.52 .0739 23 1 100.0 1
08/07/23 0:33 -35.1 -35.1 -35.1 71 -38.5 14.8 ENE 0.25 18.3 ENE -51.5 -35.1 -51.5 737.6 0.037 0.000 16.4 2 -33.3 13.0 0.52 .0739 23 1 100.0 1
08/07/23 0:34 -34.9 -34.9 -35.0 71 -38.3 12.2 ENE 0.20 20.0 ENE -49.9 -34.9 -49.9 737.6 0.037 0.000 16.4 2 -33.3 13.0 0.52 .0739 24 1 100.0 1
08/07/23 0:35 -34.8 -34.8 -34.9 71 -38.2 15.7 ENE 0.26 18.3 ENE -51.5 -34.8 -51.5 737.5 0.037 0.000 16.4 2 -33.3 13.0 0.52 .0739 23 1 100.0 1
08/07/23 0:36 -34.8 -34.8 -34.8 72 -38.1 15.7 ENE 0.26 18.3 ENE -51.5 -34.8 -51.5 737.5 0.037 0.000 16.4 2 -33.3 13.0 0.52 .0739 24 1 100.0 1
08/07/23 0:37 -34.8 -34.8 -34.8 72 -38.1 14.8 ENE 0.25 19.1 ENE -51.2 -34.8 -51.2 737.6 0.037 0.000 16.4 2 -33.3 13.0 0.52 .0739 23 1 100.0 1
08/07/23 0:38 -34.8 -34.8 -34.8 72 -38.1 14.8 ENE 0.25 17.4 ENE -51.1 -34.8 -51.1 737.5 0.037 0.000 16.4 2 -33.3 13.0 0.52 .0738 24 1 100.0 1
08/07/23 0:39 -34.8 -34.8 -34.8 72 -38.1 15.7 ENE 0.26 18.3 ENE -51.5 -34.8 -51.5 737.6 0.037 0.000 16.4 2 -33.3 13.0 0.52 .0739 23 1 100.0 1
08/07/23 0:40 -34.7 -34.7 -34.8 72 -37.9 15.7 ENE 0.26 17.4 ENE -51.4 -34.7 -51.4 737.5 0.037 0.000 16.4 2 -33.3 13.0 0.52 .0739 23 1 100.0 1
08/07/23 0:41 -34.5 -34.5 -34.6 72 -37.8 11.3 ENE 0.19 13.9 NE -49.0 -34.5 -49.0 737.6 0.037 0.000 16.4 2 -33.3 13.0 0.52 .0739 24 1 100.0 1
08/07/23 0:42 -34.4 -34.4 -34.5 72 -37.7 13.0 ENE 0.22 16.5 ENE -49.8 -34.4 -49.8 737.6 0.037 0.000 16.4 2 -33.3 13.0 0.52 .0739 23 1 100.0 1
08/07/23 0:43 -34.2 -34.2 -34.4 72 -37.5 17.4 ENE 0.29 19.1 ENE -51.4 -34.2 -51.4 737.6 0.036 0.000 16.4 2 -33.3 13.0 0.52 .0739 24 1 100.0 1
08/07/23 0:44 -34.1 -34.1 -34.2 72 -37.4 14.8 ENE 0.25 16.5 ENE -50.2 -34.1 -50.2 737.6 0.036 0.000 16.4 2 -33.3 13.0 0.52 .0739 23 1 100.0 1
08/07/23 0:45 -34.1 -34.1 -34.1 72 -37.4 16.5 ENE 0.28 17.4 ENE -50.9 -34.1 -50.9 737.6 0.036 0.000 16.4 2 -33.3 13.0 0.52 .0739 23 1 100.0 1
08/07/23 0:46 -33.9 -33.9 -34.1 72 -37.2 14.8 ENE 0.25 17.4 ENE -50.1 -33.9 -50.1 737.6 0.036 0.000 16.4 2 -33.3 13.0 0.52 .0739 24 1 100.0 1
08/07/23 0:47 -33.8 -33.8 -33.9 73 -37.0 13.0 ENE 0.22 16.5 ENE -49.1 -33.8 -49.1 737.7 0.036 0.000 16.4 2 -33.3 13.0 0.52 .0739 23 1 100.0 1
08/07/23 0:48 -33.8 -33.8 -33.8 72 -37.1 15.7 ENE 0.26 18.3 ENE -50.2 -33.8 -50.2 737.5 0.036 0.000 16.4 2 -33.3 13.0 0.52 .0739 24 1 100.0 1
08/07/23 0:49 -33.8 -33.8 -33.8 72 -37.1 13.0 ENE 0.22 15.7 ENE -49.0 -33.8 -49.0 737.6 0.036 0.000 16.4 2 -33.3 13.0 0.52 .0739 23 1 100.0 1
08/07/23 0:50 -33.7 -33.7 -33.7 73 -36.8 14.8 ENE 0.25 15.7 ENE -49.7 -33.7 -49.7 737.7 0.036 0.000 16.4 2 -33.3 13.0 0.52 .0739 23 1 100.0 1
08/07/23 0:51 -33.6 -33.6 -33.6 73 -36.7 12.2 ENE 0.20 13.9 ENE -48.3 -33.6 -48.3 737.6 0.036 0.000 16.4 2 -33.3 13.0 0.52 .0739 24 1 100.0 1
08/07/23 0:52 -33.6 -33.6 -33.6 73 -36.7 7.8 ENE 0.13 13.0 ENE -45.5 -33.6 -45.5 737.7 0.036 0.000 16.4 2 -33.3 13.0 0.52 .0739 23 1 100.0 1
08/07/23 0:53 -33.4 -33.4 -33.6 73 -36.6 15.7 ENE 0.26 17.4 ENE -49.8 -33.4 -49.8 737.6 0.036 0.000 16.4 2 -33.3 13.0 0.52 .0739 24 1 100.0 1
08/07/23 0:54 -33.4 -33.4 -33.4 73 -36.6 13.9 ENE 0.23 16.5 NE -48.9 -33.4 -48.9 737.6 0.036 0.000 16.4 2 -33.3 13.0 0.52 .0739 23 1 100.0 1
08/07/23 0:55 -33.5 -33.4 -33.5 73 -36.7 13.9 ENE 0.23 14.8 ENE -49.1 -33.5 -49.1 737.6 0.036 0.000 16.4 2 -33.3 13.0 0.52 .0739 24 1 100.0 1
08/07/23 0:56 -33.7 -33.5 -33.7 72 -37.0 14.8 ENE 0.25 16.5 ENE -49.7 -33.7 -49.7 737.6 0.036 0.000 16.4 2 -33.3 13.0 0.52 .0739 23 1 100.0 1
08/07/23 0:57 -33.7 -33.7 -33.7 72 -37.0 13.0 ENE 0.22 14.8 ENE -48.8 -33.7 -48.8 737.6 0.036 0.000 16.4 2 -33.3 13.0 0.52 .0739 23 1 100.0 1
08/07/23 0:58 -33.7 -33.7 -33.7 72 -37.0 9.6 NE 0.16 16.5 ENE -46.9 -33.7 -46.9 737.7 0.036 0.000 16.4 2 -33.3 13.0 0.52 .0739 24 1 100.0 1
08/07/23 0:59 -33.4 -33.4 -33.7 72 -36.8 16.5 ENE 0.28 17.4 ENE -50.2 -33.4 -50.2 737.6 0.036 0.000 16.4 2 -33.3 13.0 0.52 .0739 23 1 100.0 1
08/07/23 1:00 -33.3 -33.3 -33.4 72 -36.6 13.9 ENE 0.23 16.5 ENE -48.8 -33.2 -48.7 737.7 0.036 0.000 16.4 2 -33.3 13.0 0.52 .0739 24 1 100.0 1
08/07/23 1:01 -33.2 -33.2 -33.2 72 -36.5 13.9 ENE 0.23 15.7 ENE -48.6 -33.2 -48.6 737.7 0.036 0.000 16.4 2 -33.3 13.0 0.52 .0739 23 1 100.0 1
08/07/23 1:02 -33.1 -33.1 -33.2 73 -36.3 14.8 ENE 0.25 16.5 ENE -48.9 -33.1 -48.9 737.7 0.036 0.000 16.4 2 -33.3 13.0 0.52 .0739 23 1 100.0 1
08/07/23 1:03 -33.0 -33.0 -33.1 73 -36.2 13.9 ENE 0.23 15.7 ENE -48.4 -33.0 -48.4 737.7 0.036 0.000 16.4 2 -33.3 13.0 0.52 .0739 24 1 100.0 1
08/07/23 1:04 -32.8 -32.8 -33.0 73 -36.0 14.8 ENE 0.25 16.5 ENE -48.6 -32.8 -48.6 737.7 0.036 0.000 16.4 2 -33.3 13.0 0.52 .0739 23 1 100.0 1
08/07/23 1:05 -32.8 -32.8 -32.8 73 -36.0 13.0 ENE 0.22 15.7 NE -47.7 -32.8 -47.7 737.8 0.035 0.000 16.4 2 -33.3 13.0 0.52 .0739 24 1 100.0 1
08/07/23 1:06 -32.9 -32.8 -32.9 73 -36.1 14.8 ENE 0.25 16.5 ENE -48.7 -32.9 -48.7 737.7 0.036 0.000 16.4 2 -33.3 13.0 0.52 .0739 23 1 100.0 1
08/07/23 1:07 -32.8 -32.8 -33.0 73 -36.0 15.7 ENE 0.26 17.4 ENE -49.0 -32.8 -49.0 737.7 0.036 0.000 16.4 2 -33.3 13.0 0.52 .0739 24 1 100.0 1
08/07/23 1:08 -32.8 -32.8 -32.8 73 -36.0 9.6 ENE 0.16 15.7 ENE -45.8 -32.8 -45.8 737.7 0.036 0.000 16.4 2 -33.3 13.0 0.52 .0739 23 1 100.0 1
08/07/23 1:09 -33.0 -32.8 -33.0 73 -36.2 13.0 ENE 0.22 17.4 ENE -48.0 -33.0 -48.0 737.7 0.036 0.000 16.4 2 -33.3 13.0 0.52 .0739 23 1 100.0 1
08/07/23 1:10 -33.2 -33.1 -33.2 73 -36.4 13.9 ENE 0.23 15.7 ENE -48.6 -33.2 -48.6 737.7 0.036 0.000 16.4 2 -33.3 13.0 0.52 .0739 24 1 100.0 1
08/07/23 1:11 -33.2 -33.2 -33.3 72 -36.5 14.8 ENE 0.25 16.5 ENE -49.1 -33.2 -49.1 737.7 0.036 0.000 16.4 2 -33.3 13.0 0.52 .0739 23 1 100.0 1
08/07/23 1:12 -33.1 -33.1 -33.2 72 -36.4 13.9 ENE 0.23 15.7 ENE -48.6 -33.1 -48.6 737.7 0.036 0.000 16.4 2 -33.3 13.0 0.52 .0739 24 1 100.0 1
08/07/23 1:13 -33.1 -33.1 -33.1 72 -36.4 13.0 ENE 0.22 14.8 ENE -48.1 -33.1 -48.1 737.7 0.036 0.000 16.4 2 -33.3 13.0 0.52 .0739 23 1 100.0 1
08/07/23 1:14 -33.1 -33.1 -33.1 72 -36.4 13.9 ENE 0.23 15.7 ENE -48.5 -33.1 -48.5 737.7 0.036 0.000 16.4 2 -33.3 13.0 0.52 .0739 23 1 100.0 1
08/07/23 1:15 -32.9 -32.9 -33.1 72 -36.2 14.8 ENE 0.25 17.4 ENE -48.7 -32.9 -48.7 737.7 0.036 0.000 16.4 2 -33.3 13.0 0.52 .0739 24 1 100.0 1
08/07/23 1:16 -32.8 -32.8 -32.9 72 -36.2 13.9 ENE 0.23 15.7 ENE -48.2 -32.8 -48.2 737.7 0.036 0.000 16.4 2 -33.3 13.0 0.52 .0739 23 1 100.0 1
08/07/23 1:17 -32.9 -32.8 -32.9 72 -36.2 10.4 ENE 0.17 12.2 ENE -46.4 -32.9 -46.4 737.7 0.036 0.000 16.4 2 -33.3 13.0 0.52 .0739 24 1 100.0 1
08/07/23 1:18 -33.0 -32.9 -33.0 72 -36.3 9.6 ENE 0.16 11.3 ENE -46.0 -33.0 -46.0 737.8 0.036 0.000 16.4 2 -33.3 13.0 0.52 .0739 23 1 100.0 1
08/07/23 1:19 -33.2 -33.1 -33.2 72 -36.5 10.4 ENE 0.17 12.2 ENE -46.8 -33.2 -46.8 737.7 0.036 0.000 16.4 2 -33.3 13.0 0.52 .0739 24 1 100.0 1
08/07/23 1:20 -33.2 -33.2 -33.2 72 -36.5 12.2 ENE 0.20 13.0 E -47.8 -33.2 -47.8 737.7 0.036 0.000 16.4 2 -33.3 13.0 0.52 .0739 23 1 100.0 1
08/07/23 1:21 -33.2 -33.2 -33.2 72 -36.5 11.3 E 0.19 12.2 E -47.3 -33.2 -47.3 737.7 0.036 0.000 16.4 2 -33.3 13.0 0.52 .0739 23 1 100.0 1
08/07/23 1:22 -33.2 -33.2 -33.2 72 -36.5 9.6 ENE 0.16 11.3 E -46.3 -33.2 -46.3 737.8 0.036 0.000 16.4 2 -33.3 13.0 0.52 .0739 24 1 100.0 1
08/07/23 1:23 -33.2 -33.2 -33.2 72 -36.5 12.2 E 0.20 13.9 E -47.8 -33.2 -47.8 737.8 0.036 0.000 16.4 2 -33.3 13.0 0.52 .0739 23 1 100.0 1
08/07/23 1:24 -33.1 -33.1 -33.2 72 -36.4 13.9 E 0.23 16.5 E -48.6 -33.1 -48.6 737.8 0.036 0.000 16.4 2 -33.3 13.0 0.52 .0739 24 1 100.0 1
08/07/23 1:25 -32.9 -32.9 -33.1 72 -36.3 12.2 E 0.20 13.9 E -47.5 -32.9 -47.5 737.7 0.036 0.000 16.4 2 -33.3 13.0 0.52 .0739 23 1 100.0 1
08/07/23 1:26 -32.8 -32.8 -32.9 72 -36.2 13.9 E 0.23 15.7 E -48.2 -32.8 -48.2 737.8 0.036 0.000 16.4 2 -33.3 13.0 0.52 .0739 23 1 100.0 1
08/07/23 1:27 -32.6 -32.6 -32.8 72 -36.0 14.8 ENE 0.25 15.7 ENE -48.3 -32.7 -48.4 737.7 0.035 0.000 16.4 2 -33.3 13.0 0.52 .0739 24 1 100.0 1
08/07/23 1:28 -32.6 -32.6 -32.6 72 -35.9 13.0 ENE 0.22 14.8 ENE -47.4 -32.6 -47.5 737.8 0.035 0.000 16.5 2 -33.3 13.1 0.52 .0739 23 1 100.0 1
08/07/23 1:29 -32.6 -32.6 -32.6 73 -35.8 13.0 ENE 0.22 14.8 ENE -47.5 -32.6 -47.5 737.8 0.035 0.000 16.5 2 -33.3 13.1 0.52 .0739 24 1 100.0 1
08/07/23 1:30 -32.8 -32.7 -32.8 72 -36.1 12.2 ENE 0.20 16.5 ENE -47.3 -32.8 -47.3 737.8 0.035 0.000 16.6 2 -33.2 13.1 0.51 .0739 23 1 100.0 1
08/07/23 1:31 -32.8 -32.8 -32.8 72 -36.2 15.7 ENE 0.26 18.3 ENE -49.0 -32.8 -49.0 737.7 0.036 0.000 16.6 2 -33.2 13.1 0.51 .0738 23 1 100.0 1
08/07/23 1:32 -32.8 -32.8 -32.8 72 -36.1 12.2 ENE 0.20 13.9 ENE -47.3 -32.8 -47.3 737.8 0.035 0.000 16.6 2 -33.2 13.1 0.51 .0738 24 1 100.0 1
08/07/23 1:33 -32.8 -32.8 -32.8 72 -36.2 12.2 ENE 0.20 13.9 ENE -47.3 -32.8 -47.3 737.7 0.036 0.000 16.6 2 -33.2 13.2 0.51 .0738 23 1 100.0 1
08/07/23 1:34 -33.0 -32.8 -33.0 72 -36.3 10.4 ENE 0.17 14.8 ENE -46.6 -33.0 -46.6 737.8 0.036 0.000 16.6 2 -33.2 13.2 0.51 .0738 24 1 100.0 1
08/07/23 1:35 -33.2 -33.0 -33.2 71 -36.6 13.0 ENE 0.22 15.7 ENE -48.2 -33.1 -48.2 737.8 0.036 0.000 16.6 2 -33.2 13.2 0.51 .0738 23 1 100.0 1
08/07/23 1:36 -33.3 -33.2 -33.3 71 -36.7 13.9 ENE 0.23 16.5 ENE -48.8 -33.2 -48.7 737.7 0.036 0.000 16.7 2 -33.1 13.2 0.51 .0738 24 1 100.0 1
08/07/23 1:37 -33.4 -33.3 -33.4 71 -36.8 13.0 ENE 0.22 15.7 ENE -48.5 -33.4 -48.5 737.8 0.036 0.000 16.7 2 -33.1 13.2 0.51 .0738 23 1 100.0 1
08/07/23 1:38 -33.4 -33.4 -33.4 71 -36.9 12.2 E 0.20 18.3 E -48.1 -33.4 -48.1 737.8 0.036 0.000 16.7 2 -33.1 13.2 0.51 .0738 23 1 100.0 1
08/07/23 1:39 -33.4 -33.4 -33.4 71 -36.9 17.4 ENE 0.29 18.3 E -50.5 -33.4 -50.5 737.7 0.036 0.000 16.8 2 -33.1 13.3 0.51 .0738 24 1 100.0 1
08/07/23 1:40 -33.5 -33.4 -33.5 71 -37.0 15.7 ENE 0.26 18.3 ENE -49.8 -33.5 -49.8 737.7 0.036 0.000 16.8 2 -33.1 13.3 0.51 .0738 23 1 100.0 1
08/07/23 1:41 -33.6 -33.5 -33.6 71 -37.0 10.4 ENE 0.17 15.7 E -47.3 -33.6 -47.3 737.9 0.036 0.000 16.8 2 -33.0 13.3 0.50 .0738 24 1 100.0 1
08/07/23 1:42 -33.6 -33.6 -33.7 70 -37.2 15.7 ENE 0.26 17.4 ENE -50.0 -33.6 -50.0 737.7 0.036 0.000 16.8 2 -33.0 13.3 0.50 .0738 23 1 100.0 1
08/07/23 1:43 -33.6 -33.6 -33.6 70 -37.1 15.7 ENE 0.26 17.4 ENE -49.9 -33.6 -49.9 737.8 0.036 0.000 16.9 2 -33.0 13.4 0.50 .0738 23 1 100.0 1
08/07/23 1:44 -33.6 -33.6 -33.6 70 -37.2 12.2 ENE 0.20 16.5 ENE -48.3 -33.6 -48.3 737.8 0.036 0.000 16.9 2 -33.0 13.4 0.50 .0738 24 1 100.0 1
08/07/23 1:45 -33.5 -33.5 -33.6 70 -37.1 16.5 ENE 0.28 18.3 ENE -50.2 -33.5 -50.2 737.8 0.036 0.000 16.9 2 -33.0 13.4 0.50 .0738 23 1 100.0 1
08/07/23 1:46 -33.3 -33.3 -33.4 70 -36.9 12.2 ENE 0.20 14.8 ENE -48.0 -33.3 -48.0 737.9 0.036 0.000 16.9 2 -33.0 13.4 0.50 .0738 24 1 100.0 1
08/07/23 1:47 -33.4 -33.3 -33.4 71 -36.8 10.4 ENE 0.17 14.8 ENE -47.1 -33.4 -47.1 737.8 0.036 0.000 16.9 2 -33.0 13.4 0.50 .0738 23 1 100.0 1
08/07/23 1:48 -33.3 -33.3 -33.3 71 -36.7 16.5 ENE 0.28 18.3 ENE -49.9 -33.2 -49.9 737.8 0.036 0.000 16.9 2 -33.0 13.4 0.50 .0738 24 1 100.0 1
08/07/23 1:49 -33.2 -33.2 -33.2 71 -36.6 14.8 ENE 0.25 16.5 ENE -49.1 -33.1 -49.0 737.8 0.036 0.000 16.9 2 -33.0 13.4 0.50 .0737 23 1 100.0 1
08/07/23 1:50 -32.9 -32.9 -33.2 71 -36.4 15.7 ENE 0.26 17.4 ENE -49.1 -32.9 -49.1 737.8 0.036 0.000 16.9 2 -33.0 13.4 0.50 .0738 23 1 100.0 1
08/07/23 1:51 -32.7 -32.7 -32.9 71 -36.2 13.9 ENE 0.23 15.7 ENE -48.1 -32.8 -48.1 737.8 0.035 0.000 16.9 2 -33.0 13.4 0.50 .0737 24 1 100.0 1
08/07/23 1:52 -32.7 -32.7 -32.7 71 -36.1 8.7 ENE 0.14 12.2 ENE -45.1 -32.7 -45.1 737.9 0.035 0.000 16.9 2 -33.0 13.4 0.50 .0738 23 1 100.0 1
08/07/23 1:53 -32.8 -32.7 -32.8 71 -36.3 13.9 ENE 0.23 19.1 ENE -48.1 -32.8 -48.1 737.8 0.035 0.000 16.9 2 -33.0 13.4 0.50 .0738 24 1 100.0 1
08/07/23 1:54 -33.1 -32.8 -33.1 71 -36.5 15.7 E 0.26 17.4 ENE -49.3 -33.1 -49.3 737.7 0.036 0.000 16.9 2 -33.0 13.4 0.50 .0737 23 1 100.0 1
08/07/23 1:55 -33.3 -33.1 -33.3 71 -36.8 14.8 E 0.25 17.4 E -49.3 -33.3 -49.3 737.7 0.036 0.000 16.9 2 -33.0 13.4 0.50 .0737 23 1 100.0 1
08/07/23 1:56 -33.6 -33.4 -33.6 70 -37.2 13.9 ENE 0.23 18.3 ENE -49.2 -33.6 -49.2 737.8 0.036 0.000 16.9 2 -33.0 13.4 0.50 .0738 24 1 100.0 1
08/07/23 1:57 -33.8 -33.7 -33.8 70 -37.4 16.5 ENE 0.28 18.3 ENE -50.6 -33.8 -50.6 737.8 0.036 0.000 16.9 2 -33.0 13.4 0.50 .0738 23 1 100.0 1
08/07/23 1:58 -33.9 -33.8 -33.9 70 -37.5 13.0 E 0.22 14.8 E -49.2 -33.9 -49.2 737.9 0.036 0.000 16.9 2 -33.0 13.4 0.50 .0738 24 1 100.0 1
08/07/23 1:59 -34.1 -33.9 -34.1 69 -37.8 17.4 ENE 0.29 22.6 ENE -51.3 -34.1 -51.3 737.9 0.036 0.000 16.9 2 -33.0 13.4 0.50 .0738 23 1 100.0 1
08/07/23 2:00 -34.2 -34.1 -34.2 69 -37.9 16.5 ENE 0.28 19.1 ENE -51.2 -34.2 -51.2 737.8 0.036 0.000 16.9 2 -33.0 13.4 0.50 .0738 23 1 100.0 1
08/07/23 2:01 -34.3 -34.2 -34.3 69 -38.0 15.7 ENE 0.26 18.3 ENE -50.9 -34.3 -50.9 737.8 0.037 0.000 16.8 2 -33.0 13.3 0.50 .0738 24 1 100.0 1
08/07/23 2:02 -34.4 -34.4 -34.4 69 -38.1 13.9 ENE 0.23 15.7 ENE -50.3 -34.4 -50.3 737.9 0.037 0.000 16.8 2 -33.0 13.3 0.50 .0738 23 1 100.0 1
08/07/23 2:03 -34.6 -34.4 -34.6 69 -38.3 14.8 ENE 0.25 16.5 ENE -50.8 -34.6 -50.8 738.0 0.037 0.000 16.8 2 -33.0 13.3 0.50 .0738 24 1 100.0 1
08/07/23 2:04 -34.7 -34.6 -34.7 68 -38.6 15.7 E 0.26 18.3 ENE -51.4 -34.7 -51.4 737.8 0.037 0.000 16.8 2 -33.0 13.3 0.50 .0738 23 1 100.0 1
08/07/23 2:05 -34.8 -34.7 -34.8 68 -38.6 16.5 ENE 0.28 20.0 ENE -51.9 -34.8 -51.9 737.9 0.037 0.000 16.8 2 -33.0 13.3 0.50 .0738 23 1 100.0 1
08/07/23 2:06 -34.8 -34.8 -34.8 68 -38.7 17.4 ENE 0.29 20.0 ENE -52.3 -34.8 -52.3 737.8 0.037 0.000 16.8 2 -33.0 13.3 0.50 .0738 24 1 100.0 1
08/07/23 2:07 -34.8 -34.8 -34.8 69 -38.5 16.5 E 0.28 19.1 E -51.9 -34.8 -51.9 737.8 0.037 0.000 16.8 2 -33.0 13.3 0.50 .0738 23 1 100.0 1
08/07/23 2:08 -35.0 -34.9 -35.0 68 -38.8 18.3 ENE 0.30 20.9 ENE -52.9 -35.0 -52.9 737.8 0.037 0.000 16.8 2 -33.1 13.3 0.51 .0738 24 1 100.0 1
08/07/23 2:09 -35.0 -35.0 -35.0 68 -38.8 15.7 ENE 0.26 20.0 ENE -51.8 -35.0 -51.8 737.8 0.037 0.000 16.8 2 -33.1 13.3 0.51 .0738 23 1 100.0 1
08/07/23 2:10 -35.1 -35.0 -35.1 68 -38.9 16.5 ENE 0.28 18.3 ENE -52.2 -35.1 -52.2 737.9 0.037 0.000 16.8 2 -33.1 13.3 0.51 .0738 24 1 100.0 1
08/07/23 2:11 -35.2 -35.1 -35.2 68 -39.0 17.4 ENE 0.29 20.0 ENE -52.8 -35.2 -52.8 737.8 0.037 0.000 16.8 2 -33.1 13.3 0.51 .0738 23 1 100.0 1
08/07/23 2:12 -35.3 -35.2 -35.3 68 -39.1 16.5 ENE 0.28 20.0 ENE -52.6 -35.3 -52.6 737.8 0.037 0.000 16.8 2 -33.1 13.3 0.51 .0738 23 1 100.0 1
08/07/23 2:13 -35.3 -35.3 -35.3 68 -39.1 17.4 ENE 0.29 19.1 ENE -53.0 -35.3 -53.0 737.9 0.037 0.000 16.8 2 -33.1 13.3 0.51 .0738 24 1 100.0 1
08/07/23 2:14 -35.4 -35.4 -35.4 68 -39.3 15.7 ENE 0.26 17.4 ENE -52.4 -35.4 -52.4 737.9 0.037 0.000 16.8 2 -33.1 13.3 0.51 .0738 23 1 100.0 1
08/07/23 2:15 -35.5 -35.4 -35.5 68 -39.3 15.7 ENE 0.26 17.4 ENE -52.4 -35.5 -52.4 737.9 0.037 0.000 16.8 2 -33.1 13.3 0.51 .0738 24 1 100.0 1
08/07/23 2:16 -35.5 -35.5 -35.5 68 -39.3 16.5 ENE 0.28 17.4 ENE -52.8 -35.5 -52.8 737.9 0.037 0.000 16.8 2 -33.1 13.3 0.51 .0738 23 1 100.0 1
08/07/23 2:17 -35.4 -35.4 -35.5 68 -39.3 17.4 ENE 0.29 19.1 ENE -53.1 -35.4 -53.1 737.8 0.037 0.000 16.8 2 -33.1 13.3 0.51 .0738 23 1 100.0 1
08/07/23 2:18 -35.4 -35.4 -35.4 68 -39.3 11.3 ENE 0.19 17.4 ENE -50.2 -35.4 -50.2 737.9 0.037 0.000 16.8 2 -33.1 13.3 0.51 .0738 24 1 100.0 1
08/07/23 2:19 -35.4 -35.4 -35.4 68 -39.2 17.4 ENE 0.29 19.1 ENE -53.1 -35.4 -53.1 737.8 0.037 0.000 16.8 2 -33.1 13.3 0.51 .0738 23 1 100.0 1
08/07/23 2:20 -35.3 -35.3 -35.4 68 -39.1 15.7 ENE 0.26 18.3 ENE -52.2 -35.3 -52.2 737.8 0.037 0.000 16.8 2 -33.1 13.3 0.51 .0738 24 1 100.0 1
08/07/23 2:21 -35.2 -35.2 -35.3 69 -38.9 16.5 ENE 0.28 18.3 ENE -52.4 -35.2 -52.4 737.7 0.037 0.000 16.8 2 -33.1 13.3 0.51 .0738 23 1 100.0 1
08/07/23 2:22 -35.1 -35.1 -35.2 69 -38.7 11.3 NE 0.19 13.9 ENE -49.7 -35.1 -49.7 737.8 0.037 0.000 16.8 2 -33.1 13.3 0.51 .0738 24 1 100.0 1
08/07/23 2:23 -34.7 -34.7 -35.0 69 -38.4 19.1 ENE 0.32 20.9 ENE -52.8 -34.7 -52.8 737.7 0.037 0.000 16.8 2 -33.1 13.3 0.51 .0738 23 1 100.0 1
08/07/23 2:24 -34.6 -34.6 -34.7 69 -38.3 17.4 ENE 0.29 18.3 ENE -52.0 -34.6 -52.0 737.7 0.037 0.000 16.8 2 -33.1 13.3 0.51 .0738 23 1 100.0 1
08/07/23 2:25 -34.6 -34.6 -34.6 69 -38.3 14.8 ENE 0.25 15.7 ENE -50.9 -34.6 -50.9 737.7 0.037 0.000 16.8 2 -33.1 13.3 0.51 .0738 24 1 100.0 1
08/07/23 2:26 -34.6 -34.6 -34.6 69 -38.3 16.5 ENE 0.28 18.3 ENE -51.7 -34.6 -51.7 737.8 0.037 0.000 16.7 2 -33.1 13.2 0.51 .0738 23 1 100.0 1
08/07/23 2:27 -34.8 -34.6 -34.8 69 -38.5 17.4 ENE 0.29 18.3 ENE -52.2 -34.8 -52.2 737.7 0.037 0.000 16.7 2 -33.1 13.2 0.51 .0738 24 1 100.0 1
08/07/23 2:28 -34.8 -34.8 -34.8 68 -38.6 16.5 ENE 0.28 19.1 ENE -51.9 -34.8 -51.9 737.8 0.037 0.000 16.7 2 -33.1 13.2 0.51 .0738 23 1 100.0 1
08/07/23 2:29 -34.7 -34.7 -34.8 68 -38.6 15.7 ENE 0.26 19.1 ENE -51.4 -34.7 -51.4 737.7 0.037 0.000 16.7 2 -33.1 13.2 0.51 .0738 23 1 100.0 1
08/07/23 2:30 -34.7 -34.7 -34.7 68 -38.5 14.8 ENE 0.25 16.5 ENE -51.0 -34.7 -51.0 737.8 0.037 0.000 16.7 2 -33.1 13.2 0.51 .0738 24 1 100.0 1
08/07/23 2:31 -34.5 -34.5 -34.6 68 -38.3 18.3 ENE 0.30 21.7 ENE -52.2 -34.5 -52.2 737.8 0.037 0.000 16.7 2 -33.1 13.2 0.51 .0738 23 1 100.0 1
08/07/23 2:32 -34.4 -34.4 -34.5 68 -38.3 17.4 ENE 0.29 20.0 ENE -51.8 -34.4 -51.8 737.7 0.037 0.000 16.7 2 -33.1 13.2 0.51 .0738 24 1 100.0 1
08/07/23 2:33 -34.5 -34.4 -34.5 68 -38.3 14.8 E 0.25 16.5 E -50.8 -34.5 -50.8 737.9 0.037 0.000 16.7 2 -33.1 13.2 0.51 .0738 23 1 100.0 1
08/07/23 2:34 -34.7 -34.6 -34.7 68 -38.5 12.2 ENE 0.20 13.9 ENE -49.7 -34.7 -49.7 737.9 0.037 0.000 16.7 2 -33.1 13.2 0.51 .0738 23 1 100.0 1
08/07/23 2:35 -34.7 -34.7 -34.7 68 -38.5 20.0 ENE 0.33 22.6 ENE -53.1 -34.7 -53.1 737.8 0.037 0.000 16.7 2 -33.1 13.2 0.51 .0738 24 1 100.0 1
08/07/23 2:36 -34.6 -34.6 -34.6 68 -38.5 18.3 ENE 0.30 20.9 ENE -52.4 -34.6 -52.4 737.8 0.037 0.000 16.7 2 -33.1 13.2 0.51 .0738 23 1 100.0 1
08/07/23 2:37 -34.6 -34.6 -34.6 68 -38.5 17.4 E 0.29 20.0 E -52.0 -34.6 -52.0 737.9 0.037 0.000 16.7 2 -33.1 13.2 0.51 .0738 24 1 100.0 1
08/07/23 2:38 -34.7 -34.6 -34.7 68 -38.5 18.3 ENE 0.30 20.9 ENE -52.4 -34.7 -52.4 737.9 0.037 0.000 16.7 2 -33.1 13.2 0.51 .0738 23 1 100.0 1
08/07/23 2:39 -34.7 -34.7 -34.7 67 -38.7 18.3 ENE 0.30 20.0 ENE -52.5 -34.8 -52.6 737.9 0.037 0.000 16.7 2 -33.1 13.2 0.51 .0738 24 1 100.0 1
08/07/23 2:40 -34.7 -34.7 -34.7 67 -38.7 18.3 ENE 0.30 20.0 ENE -52.4 -34.7 -52.5 737.9 0.037 0.000 16.6 2 -33.2 13.2 0.51 .0738 23 1 100.0 1
08/07/23 2:41 -34.7 -34.7 -34.7 67 -38.7 13.0 ENE 0.22 17.4 ENE -50.1 -34.7 -50.2 738.0 0.037 0.000 16.7 2 -33.1 13.2 0.51 .0738 23 1 100.0 1
08/07/23 2:42 -34.7 -34.7 -34.7 67 -38.7 17.4 ENE 0.29 18.3 ENE -52.2 -34.8 -52.2 738.0 0.037 0.000 16.6 2 -33.2 13.2 0.51 .0739 24 1 100.0 1
08/07/23 2:43 -34.8 -34.8 -34.8 67 -38.8 18.3 ENE 0.30 20.0 ENE -52.7 -34.9 -52.7 737.9 0.037 0.000 16.6 2 -33.2 13.2 0.51 .0739 23 1 100.0 1
08/07/23 2:44 -35.0 -34.8 -35.0 66 -39.1 16.5 ENE 0.28 19.1 ENE -52.2 -35.0 -52.2 738.0 0.037 0.000 16.6 2 -33.2 13.2 0.51 .0739 24 1 100.0 1
08/07/23 2:45 -35.0 -35.0 -35.1 66 -39.1 15.7 ENE 0.26 18.3 ENE -51.8 -35.0 -51.8 738.0 0.037 0.000 16.6 2 -33.2 13.2 0.51 .0739 23 1 100.0 1
08/07/23 2:46 -34.7 -34.7 -35.0 66 -38.9 19.1 ENE 0.32 20.0 ENE -52.8 -34.8 -52.9 737.9 0.037 0.000 16.6 2 -33.2 13.2 0.51 .0739 23 1 100.0 1
08/07/23 2:47 -34.4 -34.4 -34.7 67 -38.4 19.1 ENE 0.32 20.9 ENE -52.5 -34.5 -52.6 737.9 0.037 0.000 16.6 2 -33.2 13.2 0.51 .0738 24 1 100.0 1
08/07/23 2:48 -34.2 -34.2 -34.4 67 -38.2 16.5 ENE 0.28 19.1 ENE -51.2 -34.3 -51.2 737.9 0.036 0.000 16.6 2 -33.2 13.2 0.51 .0739 23 1 100.0 1
08/07/23 2:49 -34.2 -34.2 -34.2 67 -38.2 17.4 ENE 0.29 20.0 ENE -51.5 -34.3 -51.6 738.0 0.036 0.000 16.6 2 -33.2 13.2 0.51 .0739 24 1 100.0 1
08/07/23 2:50 -34.2 -34.2 -34.2 67 -38.2 20.0 ENE 0.33 21.7 ENE -52.5 -34.3 -52.6 737.9 0.036 0.000 16.6 2 -33.2 13.2 0.51 .0738 23 1 100.0 1
08/07/23 2:51 -34.1 -34.1 -34.2 67 -38.1 18.3 ENE 0.30 20.0 ENE -51.7 -34.2 -51.8 738.0 0.036 0.000 16.6 2 -33.2 13.2 0.51 .0739 24 1 100.0 1
08/07/23 2:52 -34.1 -34.1 -34.1 67 -38.1 18.3 ENE 0.30 20.9 ENE -51.6 -34.1 -51.7 738.0 0.036 0.000 16.6 2 -33.2 13.2 0.51 .0739 23 1 100.0 1
08/07/23 2:53 -34.1 -34.0 -34.1 66 -38.2 17.4 ENE 0.29 19.1 ENE -51.3 -34.1 -51.3 738.0 0.036 0.000 16.6 2 -33.2 13.2 0.51 .0739 23 1 100.0 1
08/07/23 2:54 -34.2 -34.1 -34.2 66 -38.3 16.5 ENE 0.28 18.3 ENE -51.1 -34.2 -51.2 738.1 0.036 0.000 16.6 2 -33.2 13.2 0.51 .0739 24 1 100.0 1
08/07/23 2:55 -34.4 -34.2 -34.4 66 -38.5 19.1 ENE 0.32 20.9 ENE -52.4 -34.4 -52.4 738.0 0.037 0.000 16.6 2 -33.2 13.2 0.51 .0739 23 1 100.0 1
08/07/23 2:56 -34.5 -34.4 -34.5 66 -38.6 19.1 ENE 0.32 19.1 ENE -52.6 -34.6 -52.6 738.0 0.037 0.000 16.6 2 -33.2 13.2 0.51 .0739 24 1 100.0 1
08/07/23 2:57 -34.7 -34.6 -34.7 65 -38.9 17.4 ENE 0.29 19.1 ENE -52.1 -34.7 -52.2 738.0 0.037 0.000 16.6 2 -33.2 13.2 0.51 .0739 23 1 100.0 1
08/07/23 2:58 -34.8 -34.7 -34.8 65 -39.1 16.5 ENE 0.28 18.3 ENE -51.9 -34.9 -52.0 738.0 0.037 0.000 16.6 2 -33.2 13.2 0.51 .0739 23 1 100.0 1
08/07/23 2:59 -34.9 -34.8 -34.9 65 -39.2 19.1 ENE 0.32 20.9 ENE -53.1 -34.9 -53.1 737.9 0.037 0.000 16.6 2 -33.2 13.2 0.51 .0739 24 1 100.0 1
08/07/23 3:00 -34.8 -34.8 -34.9 65 -39.1 20.0 ENE 0.33 22.6 ENE -53.3 -34.9 -53.4 737.9 0.037 0.000 16.6 2 -33.2 13.2 0.51 .0739 23 1 100.0 1
08/07/23 3:01 -34.9 -34.9 -34.9 65 -39.2 19.1 ENE 0.32 20.0 ENE -53.1 -35.0 -53.2 738.0 0.037 0.000 16.6 2 -33.2 13.2 0.51 .0739 24 1 100.0 1
08/07/23 3:02 -35.1 -35.0 -35.1 65 -39.4 19.1 ENE 0.32 20.9 ENE -53.3 -35.1 -53.3 738.0 0.037 0.000 16.6 2 -33.2 13.2 0.51 .0739 23 1 100.0 1
08/07/23 3:03 -34.9 -34.9 -35.1 66 -39.1 18.3 ENE 0.30 20.9 ENE -52.8 -35.0 -52.9 738.0 0.037 0.000 16.6 2 -33.2 13.2 0.51 .0739 23 1 100.0 1
08/07/23 3:04 -35.0 -34.9 -35.0 66 -39.1 15.7 ENE 0.26 20.0 ENE -51.8 -35.0 -51.8 738.1 0.037 0.000 16.6 2 -33.2 13.2 0.51 .0739 24 1 100.0 1
08/07/23 3:05 -34.8 -34.8 -35.0 66 -39.0 21.7 ENE 0.36 23.5 ENE -53.9 -34.9 -53.9 738.0 0.037 0.000 16.6 2 -33.2 13.2 0.51 .0739 23 1 100.0 1
08/07/23 3:06 -34.8 -34.8 -34.8 66 -38.9 17.4 ENE 0.29 23.5 ENE -52.2 -34.8 -52.3 738.1 0.037 0.000 16.6 2 -33.2 13.2 0.51 .0739 24 1 100.0 1
08/07/23 3:07 -34.9 -34.8 -34.9 66 -39.0 19.1 ENE 0.32 20.9 ENE -53.1 -34.9 -53.1 738.0 0.037 0.000 16.6 2 -33.2 13.2 0.51 .0739 23 1 100.0 1
08/07/23 3:08 -35.1 -34.9 -35.1 66 -39.2 18.3 ENE 0.30 20.0 ENE -52.9 -35.1 -52.9 738.1 0.037 0.000 16.6 2 -33.2 13.2 0.51 .0739 24 1 100.0 1
08/07/23 3:09 -35.2 -35.1 -35.2 66 -39.3 16.5 ENE 0.28 18.3 ENE -52.4 -35.2 -52.4 738.1 0.037 0.000 16.6 2 -33.2 13.2 0.51 .0739 23 1 100.0 1
08/07/23 3:10 -35.3 -35.3 -35.3 66 -39.4 20.0 ENE 0.33 21.7 ENE -54.0 -35.3 -54.0 738.1 0.037 0.000 16.6 2 -33.2 13.2 0.51 .0739 23 1 100.0 1
08/07/23 3:11 -35.4 -35.3 -35.4 66 -39.5 18.3 ENE 0.30 20.0 ENE -53.4 -35.3 -53.3 738.1 0.037 0.000 16.6 2 -33.2 13.2 0.51 .0739 24 1 100.0 1
08/07/23 3:12 -35.4 -35.4 -35.4 66 -39.5 18.3 ENE 0.30 20.9 ENE -53.4 -35.4 -53.4 738.1 0.037 0.000 16.6 2 -33.2 13.1 0.51 .0739 23 1 100.0 1
08/07/23 3:13 -35.5 -35.5 -35.5 66 -39.6 18.3 ENE 0.30 20.0 ENE -53.6 -35.4 -53.5 738.2 0.037 0.000 16.6 2 -33.2 13.1 0.51 .0739 24 1 100.0 1
08/07/23 3:14 -35.6 -35.6 -35.6 66 -39.7 18.3 ENE 0.30 20.9 ENE -53.6 -35.6 -53.6 738.1 0.037 0.000 16.6 2 -33.2 13.1 0.51 .0739 23 1 100.0 1
08/07/23 3:15 -35.6 -35.6 -35.6 66 -39.7 14.8 ENE 0.25 18.3 ENE -52.2 -35.6 -52.2 738.2 0.037 0.000 16.6 2 -33.2 13.1 0.51 .0739 23 1 100.0 1
08/07/23 3:16 -35.6 -35.6 -35.6 66 -39.7 19.1 ENE 0.32 23.5 ENE -53.9 -35.6 -53.9 738.3 0.037 0.000 16.6 2 -33.2 13.1 0.51 .0739 24 1 100.0 1
08/07/23 3:17 -35.4 -35.4 -35.5 67 -39.4 20.0 ENE 0.33 22.6 ENE -54.1 -35.4 -54.1 738.1 0.037 0.000 16.6 2 -33.2 13.1 0.51 .0739 23 1 100.0 1
08/07/23 3:18 -35.4 -35.4 -35.4 67 -39.4 18.3 ENE 0.30 21.7 ENE -53.4 -35.4 -53.4 738.3 0.037 0.000 16.6 2 -33.2 13.1 0.51 .0739 24 1 100.0 1
08/07/23 3:19 -35.4 -35.4 -35.4 67 -39.4 20.0 ENE 0.33 23.5 ENE -54.1 -35.4 -54.1 738.2 0.037 0.000 16.6 2 -33.2 13.1 0.51 .0739 23 1 100.0 1
08/07/23 3:20 -35.4 -35.4 -35.4 67 -39.4 16.5 ENE 0.28 20.0 ENE -52.8 -35.4 -52.8 738.2 0.037 0.000 16.6 2 -33.2 13.1 0.51 .0739 23 1 100.0 1
08/07/23 3:21 -35.5 -35.4 -35.5 67 -39.5 18.3 ENE 0.30 21.7 ENE -53.6 -35.4 -53.5 738.3 0.037 0.000 16.6 2 -33.2 13.1 0.51 .0739 24 1 100.0 1
08/07/23 3:22 -35.2 -35.2 -35.4 68 -39.0 20.0 ENE 0.33 22.6 ENE -53.8 -35.2 -53.8 738.1 0.037 0.000 16.6 2 -33.2 13.1 0.51 .0739 23 1 100.0 1
08/07/23 3:23 -34.8 -34.8 -35.1 68 -38.7 18.3 ENE 0.30 20.9 ENE -52.7 -34.8 -52.7 738.2 0.037 0.000 16.6 2 -33.2 13.1 0.51 .0739 24 1 100.0 1
08/07/23 3:24 -34.9 -34.8 -34.9 68 -38.8 15.7 ENE 0.26 18.3 ENE -51.7 -34.9 -51.7 738.3 0.037 0.000 16.6 2 -33.2 13.1 0.51 .0739 23 1 100.0 1
08/07/23 3:25 -35.1 -34.9 -35.1 69 -38.7 19.1 ENE 0.32 20.9 ENE -53.3 -35.1 -53.3 738.2 0.037 0.000 16.6 2 -33.2 13.1 0.51 .0739 24 1 100.0 1
08/07/23 3:26 -35.1 -35.1 -35.1 68 -38.9 18.3 ENE 0.30 19.1 ENE -52.9 -35.1 -52.9 738.2 0.037 0.000 16.6 2 -33.2 13.1 0.51 .0739 23 1 100.0 1
08/07/23 3:27 -35.2 -35.1 -35.2 68 -39.0 17.4 ENE 0.29 19.1 ENE -52.8 -35.2 -52.8 738.3 0.037 0.000 16.6 2 -33.2 13.1 0.51 .0739 23 1 100.0 1
08/07/23 3:28 -35.2 -35.2 -35.2 68 -39.0 13.0 ENE 0.22 17.4 ENE -50.8 -35.2 -50.8 738.3 0.037 0.000 16.6 2 -33.2 13.1 0.51 .0739 24 1 100.0 1
08/07/23 3:29 -35.2 -35.2 -35.2 68 -39.0 17.4 ENE 0.29 20.0 ENE -52.8 -35.2 -52.8 738.3 0.037 0.000 16.6 2 -33.2 13.1 0.51 .0739 23 1 100.0 1
08/07/23 3:30 -35.2 -35.2 -35.2 68 -39.0 17.4 ENE 0.29 19.1 ENE -52.8 -35.2 -52.8 738.2 0.037 0.000 16.6 2 -33.2 13.1 0.51 .0739 24 1 100.0 1
08/07/23 3:31 -35.2 -35.2 -35.2 68 -39.0 18.3 ENE 0.30 21.7 ENE -53.1 -35.2 -53.1 738.2 0.037 0.000 16.6 2 -33.2 13.1 0.51 .0739 23 1 100.0 1
08/07/23 3:32 -35.2 -35.2 -35.2 68 -39.0 17.4 ENE 0.29 20.0 ENE -52.8 -35.2 -52.8 738.2 0.037 0.000 16.6 2 -33.2 13.1 0.51 .0739 23 1 100.0 1
08/07/23 3:33 -35.2 -35.2 -35.2 68 -39.0 16.5 ENE 0.28 20.0 ENE -52.4 -35.2 -52.4 738.3 0.037 0.000 16.6 2 -33.2 13.1 0.51 .0739 24 1 100.0 1
08/07/23 3:34 -35.2 -35.2 -35.2 68 -39.0 19.1 ENE 0.32 20.9 ENE -53.4 -35.2 -53.4 738.2 0.037 0.000 16.6 2 -33.2 13.1 0.51 .0739 23 1 100.0 1
08/07/23 3:35 -35.2 -35.2 -35.2 68 -39.0 14.8 ENE 0.25 17.4 ENE -51.6 -35.2 -51.6 738.4 0.037 0.000 16.6 2 -33.2 13.1 0.51 .0739 24 1 100.0 1
08/07/23 3:36 -35.2 -35.1 -35.2 68 -39.0 18.3 ENE 0.30 20.0 ENE -53.1 -35.2 -53.1 738.3 0.037 0.000 16.6 2 -33.2 13.1 0.51 .0739 23 1 100.0 1
08/07/23 3:37 -35.1 -35.1 -35.1 68 -38.9 17.4 ENE 0.29 20.0 ENE -52.6 -35.1 -52.6 738.3 0.037 0.000 16.6 2 -33.2 13.1 0.51 .0739 24 1 100.0 1
08/07/23 3:38 -34.9 -34.9 -35.0 69 -38.6 14.8 ENE 0.25 20.0 ENE -51.3 -34.9 -51.3 738.4 0.037 0.000 16.6 2 -33.2 13.1 0.51 .0739 23 1 100.0 1
08/07/23 3:39 -34.9 -34.9 -34.9 69 -38.6 18.3 ENE 0.30 20.0 ENE -52.8 -34.9 -52.8 738.3 0.037 0.000 16.6 2 -33.2 13.1 0.51 .0739 23 1 100.0 1
08/07/23 3:40 -34.9 -34.9 -34.9 69 -38.6 17.4 ENE 0.29 19.1 ENE -52.4 -34.9 -52.4 738.3 0.037 0.000 16.6 2 -33.2 13.1 0.51 .0739 24 1 100.0 1
08/07/23 3:41 -34.9 -34.9 -34.9 69 -38.6 18.3 ENE 0.30 20.0 ENE -52.8 -34.9 -52.8 738.3 0.037 0.000 16.6 2 -33.2 13.1 0.51 .0739 23 1 100.0 1
08/07/23 3:42 -34.9 -34.9 -34.9 69 -38.6 17.4 ENE 0.29 19.1 ENE -52.4 -34.9 -52.4 738.3 0.037 0.000 16.6 2 -33.2 13.1 0.51 .0739 24 1 100.0 1
08/07/23 3:43 -34.9 -34.9 -34.9 69 -38.6 18.3 ENE 0.30 20.0 ENE -52.8 -34.9 -52.8 738.3 0.037 0.000 16.6 2 -33.2 13.1 0.51 .0739 23 1 100.0 1
08/07/23 3:44 -34.9 -34.9 -35.0 69 -38.6 16.5 ENE 0.28 19.1 ENE -52.1 -34.9 -52.1 738.3 0.037 0.000 16.6 2 -33.2 13.1 0.51 .0739 23 1 100.0 1
08/07/23 3:45 -34.9 -34.9 -34.9 69 -38.6 18.3 ENE 0.30 20.0 ENE -52.8 -34.9 -52.8 738.3 0.037 0.000 16.6 2 -33.2 13.1 0.51 .0739 24 1 100.0 1
08/07/23 3:46 -34.8 -34.8 -34.9 69 -38.5 16.5 ENE 0.28 17.4 ENE -51.9 -34.8 -51.9 738.3 0.037 0.000 16.6 2 -33.2 13.1 0.51 .0739 23 1 100.0 1
08/07/23 3:47 -34.7 -34.7 -34.8 69 -38.4 16.5 ENE 0.28 20.0 ENE -51.8 -34.7 -51.8 738.3 0.037 0.000 16.6 2 -33.2 13.1 0.51 .0739 24 1 100.0 1
08/07/23 3:48 -34.6 -34.6 -34.7 69 -38.3 17.4 ENE 0.29 20.0 ENE -51.9 -34.6 -51.9 738.2 0.037 0.000 16.6 2 -33.2 13.1 0.51 .0739 23 1 100.0 1
08/07/23 3:49 -34.7 -34.6 -34.7 69 -38.4 17.4 ENE 0.29 20.0 ENE -52.1 -34.7 -52.1 738.3 0.037 0.000 16.6 2 -33.2 13.1 0.51 .0739 23 1 100.0 1
08/07/23 3:50 -34.7 -34.7 -34.7 69 -38.4 17.4 ENE 0.29 19.1 ENE -52.1 -34.7 -52.1 738.3 0.037 0.000 16.5 2 -33.3 13.1 0.52 .0739 24 1 100.0 1
08/07/23 3:51 -34.6 -34.6 -34.7 69 -38.3 16.5 ENE 0.28 18.3 ENE -51.7 -34.6 -51.7 738.3 0.037 0.000 16.5 2 -33.3 13.1 0.52 .0739 23 1 100.0 1
08/07/23 3:52 -34.7 -34.6 -34.7 69 -38.4 19.1 ENE 0.32 20.9 ENE -52.8 -34.7 -52.8 738.3 0.037 0.000 16.5 2 -33.3 13.1 0.52 .0739 24 1 100.0 1
08/07/23 3:53 -34.8 -34.7 -34.8 69 -38.5 18.3 ENE 0.30 19.1 ENE -52.6 -34.8 -52.6 738.3 0.037 0.000 16.5 2 -33.3 13.1 0.52 .0739 23 1 100.0 1
08/07/23 3:54 -34.8 -34.8 -34.8 69 -38.5 18.3 ENE 0.30 19.1 ENE -52.7 -34.8 -52.7 738.3 0.037 0.000 16.5 2 -33.3 13.1 0.52 .0739 24 1 100.0 1
08/07/23 3:55 -34.9 -34.8 -34.9 69 -38.6 20.0 ENE 0.33 20.9 ENE -53.4 -34.9 -53.4 738.3 0.037 0.000 16.5 2 -33.3 13.1 0.52 .0739 23 1 100.0 1
08/07/23 3:56 -34.9 -34.9 -34.9 69 -38.6 17.4 ENE 0.29 20.0 ENE -52.4 -34.9 -52.4 738.3 0.037 0.000 16.5 2 -33.3 13.1 0.52 .0739 23 1 100.0 1
08/07/23 3:57 -34.9 -34.9 -34.9 69 -38.6 17.4 ENE 0.29 20.0 ENE -52.4 -34.9 -52.4 738.3 0.037 0.000 16.5 2 -33.3 13.1 0.52 .0739 24 1 100.0 1
08/07/23 3:58 -35.0 -34.9 -35.0 69 -38.7 18.3 ENE 0.30 20.9 ENE -52.9 -35.0 -52.9 738.3 0.037 0.000 16.5 2 -33.3 13.1 0.52 .0739 23 1 100.0 1
08/07/23 3:59 -35.0 -35.0 -35.0 69 -38.7 16.5 ENE 0.28 19.1 ENE -52.2 -35.0 -52.2 738.3 0.037 0.000 16.5 2 -33.3 13.1 0.52 .0739 24 1 100.0 1
08/07/23 4:00 -35.0 -35.0 -35.0 69 -38.7 17.4 ENE 0.29 20.0 ENE -52.6 -35.0 -52.6 738.3 0.037 0.000 16.5 2 -33.3 13.1 0.52 .0739 23 1 100.0 1
08/07/23 4:01 -35.0 -35.0 -35.1 69 -38.7 18.3 ENE 0.30 21.7 ENE -52.9 -35.0 -52.9 738.2 0.037 0.000 16.4 2 -33.3 13.0 0.52 .0739 23 1 100.0 1
08/07/23 4:02 -34.9 -34.9 -35.0 69 -38.6 20.0 ENE 0.33 20.9 ENE -53.4 -34.9 -53.4 738.2 0.037 0.000 16.5 2 -33.3 13.1 0.52 .0739 24 1 100.0 1
08/07/23 4:03 -34.9 -34.9 -34.9 69 -38.6 17.4 ENE 0.29 20.0 ENE -52.4 -34.9 -52.4 738.2 0.037 0.000 16.5 2 -33.3 13.1 0.52 .0739 23 1 100.0 1
08/07/23 4:04 -35.0 -34.9 -35.0 69 -38.7 18.3 ENE 0.30 20.0 ENE -52.9 -35.0 -52.9 738.2 0.037 0.000 16.4 2 -33.3 13.0 0.52 .0739 24 1 100.0 1
08/07/23 4:05 -34.9 -34.9 -35.0 69 -38.6 15.7 ENE 0.26 18.3 ENE -51.7 -34.9 -51.7 738.3 0.037 0.000 16.4 2 -33.3 13.0 0.52 .0739 23 1 100.0 1
08/07/23 4:06 -34.8 -34.8 -34.9 69 -38.5 19.1 ENE 0.32 20.9 ENE -52.9 -34.8 -52.9 738.3 0.037 0.000 16.4 2 -33.3 13.0 0.52 .0739 24 1 100.0 1
08/07/23 4:07 -34.7 -34.7 -34.8 69 -38.4 18.3 ENE 0.30 20.9 ENE -52.4 -34.7 -52.4 738.3 0.037 0.000 16.5 2 -33.3 13.1 0.52 .0739 23 1 100.0 1
08/07/23 4:08 -34.6 -34.6 -34.7 69 -38.3 17.4 ENE 0.29 19.1 ENE -52.0 -34.6 -52.0 738.3 0.037 0.000 16.5 2 -33.3 13.1 0.52 .0739 23 1 100.0 1
08/07/23 4:09 -34.7 -34.6 -34.7 69 -38.4 19.1 ENE 0.32 20.9 ENE -52.8 -34.7 -52.8 738.3 0.037 0.000 16.5 2 -33.3 13.1 0.52 .0739 24 1 100.0 1
08/07/23 4:10 -34.7 -34.7 -34.7 69 -38.4 16.5 ENE 0.28 18.3 ENE -51.7 -34.7 -51.7 738.3 0.037 0.000 16.5 2 -33.3 13.1 0.52 .0739 23 1 100.0 1
08/07/23 4:11 -34.6 -34.6 -34.7 69 -38.3 18.3 ENE 0.30 20.0 ENE -52.4 -34.6 -52.4 738.2 0.037 0.000 16.5 2 -33.3 13.1 0.52 .0739 24 1 100.0 1
08/07/23 4:12 -34.6 -34.6 -34.6 69 -38.3 15.7 ENE 0.26 20.0 ENE -51.2 -34.6 -51.2 738.3 0.037 0.000 16.5 2 -33.3 13.1 0.52 .0739 23 1 100.0 1
08/07/23 4:13 -34.5 -34.5 -34.6 69 -38.2 17.4 ENE 0.29 19.1 ENE -51.9 -34.5 -51.9 738.2 0.037 0.000 16.5 2 -33.3 13.1 0.52 .0739 23 1 100.0 1
08/07/23 4:14 -34.3 -34.3 -34.5 69 -38.0 18.3 ENE 0.30 20.0 ENE -52.0 -34.3 -52.0 738.2 0.037 0.000 16.5 2 -33.3 13.1 0.52 .0739 24 1 100.0 1
08/07/23 4:15 -34.3 -34.3 -34.3 70 -37.8 17.4 ENE 0.29 19.1 ENE -51.6 -34.3 -51.6 738.3 0.037 0.000 16.5 2 -33.3 13.1 0.52 .0739 23 1 100.0 1
08/07/23 4:16 -34.3 -34.3 -34.3 70 -37.8 17.4 ENE 0.29 19.1 ENE -51.6 -34.3 -51.6 738.3 0.037 0.000 16.5 2 -33.3 13.1 0.52 .0739 24 1 100.0 1
08/07/23 4:17 -34.3 -34.3 -34.3 70 -37.9 18.3 ENE 0.30 20.0 ENE -52.0 -34.3 -52.0 738.3 0.037 0.000 16.5 2 -33.3 13.1 0.52 .0739 23 1 100.0 1
08/07/23 4:18 -34.4 -34.3 -34.4 70 -38.0 17.4 ENE 0.29 19.1 ENE -51.8 -34.4 -51.8 738.3 0.037 0.000 16.5 2 -33.3 13.1 0.52 .0739 24 1 100.0 1
08/07/23 4:19 -34.5 -34.4 -34.5 69 -38.2 18.3 ENE 0.30 20.0 ENE -52.2 -34.5 -52.2 738.2 0.037 0.000 16.5 2 -33.3 13.1 0.52 .0739 23 1 100.0 1
08/07/23 4:20 -34.6 -34.5 -34.6 69 -38.3 14.8 ENE 0.25 16.5 ENE -50.8 -34.6 -50.8 738.3 0.037 0.000 16.5 2 -33.3 13.1 0.52 .0739 23 1 100.0 1
08/07/23 4:21 -34.4 -34.4 -34.6 69 -38.1 18.3 ENE 0.30 20.0 ENE -52.2 -34.4 -52.2 738.3 0.037 0.000 16.5 2 -33.3 13.1 0.52 .0739 24 1 100.0 1
08/07/23 4:22 -34.4 -34.4 -34.4 69 -38.1 15.7 ENE 0.26 18.3 ENE -51.0 -34.4 -51.0 738.3 0.037 0.000 16.5 2 -33.3 13.1 0.52 .0739 23 1 100.0 1
08/07/23 4:23 -34.3 -34.3 -34.4 69 -38.0 17.4 ENE 0.29 19.1 ENE -51.7 -34.3 -51.7 738.3 0.037 0.000 16.5 2 -33.3 13.1 0.52 .0739 24 1 100.0 1
08/07/23 4:24 -34.3 -34.3 -34.4 69 -38.0 16.5 ENE 0.28 19.1 ENE -51.3 -34.3 -51.3 738.3 0.037 0.000 16.5 2 -33.3 13.1 0.52 .0739 23 1 100.0 1
08/07/23 4:25 -34.3 -34.3 -34.3 69 -38.0 17.4 ENE 0.29 18.3 ENE -51.7 -34.3 -51.7 738.3 0.037 0.000 16.5 2 -33.3 13.1 0.52 .0739 23 1 100.0 1
08/07/23 4:26 -34.4 -34.4 -34.4 69 -38.1 16.5 ENE 0.28 18.3 ENE -51.4 -34.4 -51.4 738.3 0.037 0.000 16.4 2 -33.3 13.0 0.52 .0739 24 1 100.0 1
08/07/23 4:27 -34.6 -34.4 -34.6 69 -38.3 16.5 ENE 0.28 17.4 ENE -51.6 -34.6 -51.6 738.3 0.037 0.000 16.4 2 -33.3 13.0 0.52 .0739 23 1 100.0 1
08/07/23 4:28 -34.6 -34.6 -34.6 69 -38.3 17.4 ENE 0.29 20.0 ENE -52.0 -34.6 -52.0 738.3 0.037 0.000 16.4 2 -33.3 13.0 0.52 .0739 24 1 100.0 1
08/07/23 4:29 -34.7 -34.6 -34.7 68 -38.6 13.9 ENE 0.23 17.4 ENE -50.6 -34.7 -50.6 738.4 0.037 0.000 16.4 2 -33.3 13.0 0.52 .0739 23 1 100.0 1
08/07/23 4:30 -34.8 -34.8 -34.8 68 -38.7 17.4 ENE 0.29 20.0 ENE -52.3 -34.8 -52.3 738.3 0.037 0.000 16.4 2 -33.3 13.0 0.52 .0739 23 1 100.0 1
08/07/23 4:31 -34.9 -34.8 -34.9 68 -38.8 14.8 ENE 0.25 16.5 ENE -51.3 -34.9 -51.3 738.4 0.037 0.000 16.4 2 -33.3 13.0 0.52 .0739 24 1 100.0 1
08/07/23 4:32 -34.9 -34.9 -34.9 68 -38.8 15.7 ENE 0.26 17.4 ENE -51.7 -34.9 -51.7 738.4 0.037 0.000 16.4 2 -33.3 13.0 0.52 .0739 23 1 100.0 1
08/07/23 4:33 -34.9 -34.9 -34.9 68 -38.8 16.5 ENE 0.28 17.4 ENE -52.1 -34.9 -52.1 738.4 0.037 0.000 16.4 2 -33.3 13.0 0.52 .0739 24 1 100.0 1
08/07/23 4:34 -34.9 -34.9 -34.9 68 -38.7 13.9 ENE 0.23 17.4 ENE -50.8 -34.9 -50.8 738.5 0.037 0.000 16.4 2 -33.3 13.0 0.52 .0739 23 1 100.0 1
08/07/23 4:35 -34.9 -34.9 -34.9 68 -38.7 14.8 ENE 0.25 19.1 ENE -51.3 -34.9 -51.3 738.5 0.037 0.000 16.4 2 -33.3 13.0 0.52 .0739 23 1 100.0 1
08/07/23 4:36 -34.9 -34.9 -34.9 68 -38.8 14.8 ENE 0.25 17.4 ENE -51.3 -34.9 -51.3 738.4 0.037 0.000 16.4 2 -33.3 13.0 0.52 .0739 24 1 100.0 1
08/07/23 4:37 -34.9 -34.9 -34.9 68 -38.8 14.8 ENE 0.25 20.0 ENE -51.3 -34.9 -51.3 738.5 0.037 0.000 16.4 2 -33.3 13.0 0.52 .0740 23 1 100.0 1
08/07/23 4:38 -34.9 -34.9 -34.9 68 -38.7 13.9 ENE 0.23 18.3 ENE -50.8 -34.9 -50.8 738.4 0.037 0.000 16.4 2 -33.3 13.0 0.52 .0739 24 1 100.0 1
08/07/23 4:39 -34.8 -34.8 -34.9 68 -38.7 16.5 ENE 0.28 17.4 ENE -51.9 -34.8 -51.9 738.5 0.037 0.000 16.4 2 -33.3 13.0 0.52 .0739 23 1 100.0 1
08/07/23 4:40 -34.7 -34.7 -34.8 68 -38.5 15.7 ENE 0.26 17.4 ENE -51.4 -34.7 -51.4 738.5 0.037 0.000 16.4 2 -33.3 13.0 0.52 .0739 24 1 100.0 1
08/07/23 4:41 -34.6 -34.6 -34.7 68 -38.4 15.7 ENE 0.26 17.4 ENE -51.2 -34.6 -51.2 738.4 0.037 0.000 16.4 2 -33.3 13.0 0.52 .0739 23 1 100.0 1
08/07/23 4:42 -34.4 -34.4 -34.5 69 -38.1 14.8 ENE 0.25 16.5 ENE -50.7 -34.4 -50.7 738.4 0.037 0.000 16.4 2 -33.3 13.0 0.52 .0739 23 1 100.0 1
08/07/23 4:43 -34.4 -34.4 -34.4 69 -38.1 16.5 ENE 0.28 19.1 ENE -51.4 -34.4 -51.4 738.4 0.037 0.000 16.4 2 -33.3 13.0 0.52 .0739 24 1 100.0 1
08/07/23 4:44 -34.4 -34.4 -34.4 68 -38.2 14.8 ENE 0.25 20.9 ENE -50.6 -34.4 -50.6 738.4 0.037 0.000 16.4 2 -33.3 13.0 0.52 .0739 23 1 100.0 1
08/07/23 4:45 -34.4 -34.4 -34.4 68 -38.3 13.0 ENE 0.22 15.7 ENE -49.8 -34.4 -49.8 738.5 0.037 0.000 16.4 2 -33.3 13.0 0.52 .0740 24 1 100.0 1
08/07/23 4:46 -34.4 -34.4 -34.4 68 -38.3 13.9 ENE 0.23 18.3 ENE -50.3 -34.4 -50.3 738.5 0.037 0.000 16.4 2 -33.3 13.0 0.52 .0740 23 1 100.0 1
08/07/23 4:47 -34.4 -34.4 -34.4 68 -38.2 14.8 ENE 0.25 19.1 ENE -50.6 -34.4 -50.6 738.5 0.037 0.000 16.4 2 -33.3 13.0 0.52 .0739 23 1 100.0 1
08/07/23 4:48 -34.4 -34.3 -34.4 68 -38.2 13.9 ENE 0.23 15.7 E -50.2 -34.4 -50.2 738.5 0.037 0.000 16.4 2 -33.3 13.0 0.52 .0740 24 1 100.0 1
08/07/23 4:49 -34.4 -34.4 -34.4 68 -38.2 15.7 E 0.26 18.3 ENE -51.0 -34.4 -51.0 738.5 0.037 0.000 16.4 2 -33.3 13.0 0.52 .0740 23 1 100.0 1
08/07/23 4:50 -34.4 -34.3 -34.4 68 -38.2 14.8 ENE 0.25 16.5 ENE -50.6 -34.4 -50.6 738.5 0.037 0.000 16.4 2 -33.3 13.0 0.52 .0739 24 1 100.0 1
08/07/23 4:51 -34.4 -34.4 -34.4 68 -38.2 15.7 ENE 0.26 16.5 ENE -51.0 -34.4 -51.0 738.5 0.037 0.000 16.4 2 -33.3 13.0 0.52 .0740 23 1 100.0 1
08/07/23 4:52 -34.4 -34.4 -34.4 68 -38.2 12.2 ENE 0.20 15.7 ENE -49.3 -34.4 -49.3 738.5 0.037 0.000 16.4 2 -33.3 13.0 0.52 .0739 24 1 100.0 1
08/07/23 4:53 -34.4 -34.4 -34.4 68 -38.2 13.0 ENE 0.22 14.8 ENE -49.8 -34.4 -49.8 738.5 0.037 0.000 16.4 2 -33.3 13.0 0.52 .0740 23 1 100.0 1
08/07/23 4:54 -34.4 -34.4 -34.4 68 -38.2 16.5 ENE 0.28 19.1 ENE -51.4 -34.4 -51.4 738.4 0.037 0.000 16.4 2 -33.3 13.0 0.52 .0739 23 1 100.0 1
08/07/23 4:55 -34.3 -34.3 -34.3 68 -38.2 13.9 ENE 0.23 17.4 ENE -50.1 -34.3 -50.1 738.5 0.037 0.000 16.4 2 -33.3 13.0 0.52 .0739 24 1 100.0 1
08/07/23 4:56 -34.4 -34.3 -34.4 68 -38.2 13.0 ENE 0.22 19.1 ENE -49.8 -34.4 -49.8 738.6 0.037 0.000 16.4 2 -33.3 13.0 0.52 .0740 23 1 100.0 1
08/07/23 4:57 -34.5 -34.4 -34.5 68 -38.3 16.5 ENE 0.28 20.0 ENE -51.5 -34.5 -51.5 738.4 0.037 0.000 16.4 2 -33.3 13.0 0.52 .0739 24 1 100.0 1
08/07/23 4:58 -34.5 -34.5 -34.5 68 -38.3 13.9 ENE 0.23 16.5 ENE -50.3 -34.5 -50.3 738.6 0.037 0.000 16.4 2 -33.3 13.0 0.52 .0740 23 1 100.0 1
08/07/23 4:59 -34.6 -34.6 -34.6 68 -38.4 15.7 ENE 0.26 18.3 ENE -51.2 -34.6 -51.2 738.5 0.037 0.000 16.4 2 -33.3 13.0 0.52 .0740 23 1 100.0 1
08/07/23 5:00 -34.6 -34.6 -34.6 68 -38.5 14.8 ENE 0.25 17.4 ENE -50.9 -34.6 -50.9 738.5 0.037 0.000 16.4 2 -33.3 13.0 0.52 .0739 24 1 100.0 1
08/07/23 5:01 -34.7 -34.6 -34.7 67 -38.7 13.9 ENE 0.23 15.7 ENE -50.6 -34.8 -50.7 738.5 0.037 0.000 16.4 2 -33.3 13.0 0.52 .0739 23 1 100.0 1
08/07/23 5:02 -34.8 -34.7 -34.8 67 -38.8 14.8 ENE 0.25 17.4 ENE -51.1 -34.8 -51.2 738.5 0.037 0.000 16.4 2 -33.3 13.0 0.52 .0740 24 1 100.0 1
08/07/23 5:03 -34.9 -34.8 -34.9 67 -38.9 16.5 ENE 0.28 18.3 ENE -52.1 -34.9 -52.1 738.5 0.037 0.000 16.4 2 -33.3 13.0 0.52 .0739 23 1 100.0 1
08/07/23 5:04 -34.9 -34.9 -34.9 68 -38.8 13.0 ENE 0.22 14.8 ENE -50.5 -34.9 -50.5 738.5 0.037 0.000 16.4 2 -33.3 13.0 0.52 .0740 23 1 100.0 1
08/07/23 5:05 -35.1 -35.0 -35.1 67 -39.0 16.5 ENE 0.28 18.3 ENE -52.2 -35.1 -52.2 738.5 0.037 0.000 16.5 2 -33.3 13.1 0.52 .0739 24 1 100.0 1
08/07/23 5:06 -35.1 -35.1 -35.1 67 -39.1 14.8 ENE 0.25 16.5 ENE -51.6 -35.1 -51.6 738.5 0.037 0.000 16.4 2 -33.3 13.0 0.52 .0740 23 1 100.0 1
08/07/23 5:07 -35.2 -35.1 -35.2 67 -39.1 15.7 ENE 0.26 16.5 ENE -52.0 -35.2 -52.0 738.5 0.037 0.000 16.4 2 -33.3 13.0 0.52 .0740 24 1 100.0 1
08/07/23 5:08 -35.2 -35.2 -35.2 67 -39.2 12.2 ENE 0.20 16.5 ENE -50.4 -35.2 -50.4 738.5 0.037 0.000 16.4 2 -33.3 13.0 0.52 .0739 23 1 100.0 1
08/07/23 5:09 -35.3 -35.2 -35.3 67 -39.2 15.7 ENE 0.26 19.1 ENE -52.2 -35.3 -52.2 738.5 0.037 0.000 16.4 2 -33.3 13.0 0.52 .0739 24 1 100.0 1
08/07/23 5:10 -35.3 -35.3 -35.3 67 -39.2 16.5 ENE 0.28 18.3 ENE -52.6 -35.3 -52.6 738.4 0.037 0.000 16.4 2 -33.3 13.0 0.52 .0739 23 1 100.0 1
08/07/23 5:11 -35.3 -35.3 -35.3 67 -39.2 14.8 ENE 0.25 17.4 ENE -51.8 -35.3 -51.8 738.4 0.037 0.000 16.4 2 -33.3 13.0 0.52 .0739 23 1 100.0 1
08/07/23 5:12 -35.3 -35.3 -35.3 67 -39.2 16.5 ENE 0.28 18.3 ENE -52.6 -35.3 -52.6 738.4 0.037 0.000 16.4 2 -33.3 13.0 0.52 .0739 24 1 100.0 1
08/07/23 5:13 -35.2 -35.2 -35.2 67 -39.1 14.8 ENE 0.25 16.5 ENE -51.6 -35.2 -51.6 738.5 0.037 0.000 16.4 2 -33.3 13.0 0.52 .0739 23 1 100.0 1
08/07/23 5:14 -35.1 -35.1 -35.1 67 -39.0 16.5 ENE 0.28 19.1 ENE -52.2 -35.1 -52.2 738.5 0.037 0.000 16.4 2 -33.3 13.0 0.52 .0739 24 1 100.0 1
08/07/23 5:15 -35.1 -35.1 -35.1 67 -39.0 13.9 ENE 0.23 16.5 ENE -51.1 -35.1 -51.1 738.5 0.037 0.000 16.4 2 -33.3 13.0 0.52 .0740 23 1 100.0 1
08/07/23 5:16 -35.1 -35.1 -35.1 67 -39.0 16.5 ENE 0.28 19.1 ENE -52.2 -35.1 -52.2 738.5 0.037 0.000 16.4 2 -33.3 13.0 0.52 .0740 23 1 100.0 1
08/07/23 5:17 -34.9 -34.9 -35.0 67 -38.9 16.5 ENE 0.28 19.1 ENE -52.1 -35.0 -52.2 738.5 0.037 0.000 16.4 2 -33.3 13.0 0.52 .0739 24 1 100.0 1
08/07/23 5:18 -34.8 -34.8 -34.9 67 -38.8 17.4 ENE 0.29 19.1 ENE -52.3 -34.9 -52.4 738.5 0.037 0.000 16.4 2 -33.3 13.0 0.52 .0739 23 1 100.0 1
08/07/23 5:19 -34.7 -34.7 -34.8 67 -38.7 17.4 ENE 0.29 18.3 ENE -52.1 -34.7 -52.2 738.5 0.037 0.000 16.4 2 -33.3 13.0 0.52 .0740 24 1 100.0 1
08/07/23 5:20 -34.4 -34.4 -34.7 67 -38.4 16.5 ENE 0.28 18.3 ENE -51.4 -34.5 -51.5 738.4 0.037 0.000 16.4 2 -33.3 13.0 0.52 .0740 23 1 100.0 1
08/07/23 5:21 -34.4 -34.4 -34.4 67 -38.4 15.7 ENE 0.26 16.5 ENE -51.1 -34.5 -51.1 738.5 0.037 0.000 16.4 2 -33.3 13.0 0.52 .0740 24 1 100.0 1
08/07/23 5:22 -34.5 -34.4 -34.5 67 -38.5 13.9 ENE 0.23 15.7 ENE -50.3 -34.6 -50.4 738.5 0.037 0.000 16.4 2 -33.3 13.0 0.52 .0740 23 1 100.0 1
08/07/23 5:23 -34.7 -34.6 -34.7 67 -38.7 16.5 E 0.28 18.3 E -51.7 -34.7 -51.8 738.5 0.037 0.000 16.4 2 -33.3 13.0 0.52 .0740 23 1 100.0 1
08/07/23 5:24 -34.8 -34.7 -34.8 66 -38.9 16.5 E 0.28 19.1 E -51.9 -34.8 -51.9 738.5 0.037 0.000 16.4 2 -33.3 13.0 0.52 .0740 24 1 100.0 1
08/07/23 5:25 -34.8 -34.8 -34.8 66 -39.0 16.5 E 0.28 18.3 ENE -51.9 -34.9 -52.0 738.4 0.037 0.000 16.4 2 -33.3 13.0 0.52 .0740 23 1 100.0 1
08/07/23 5:26 -34.9 -34.8 -34.9 66 -39.1 17.4 ENE 0.29 19.1 ENE -52.4 -35.0 -52.5 738.5 0.037 0.000 16.4 2 -33.3 13.0 0.52 .0740 24 1 100.0 1
08/07/23 5:27 -35.0 -34.9 -35.0 66 -39.1 16.5 ENE 0.28 18.3 ENE -52.2 -35.0 -52.2 738.4 0.037 0.000 16.4 2 -33.3 13.0 0.52 .0740 23 1 100.0 1
08/07/23 5:28 -35.0 -35.0 -35.0 66 -39.1 15.7 ENE 0.26 16.5 ENE -51.8 -35.0 -51.8 738.5 0.037 0.000 16.4 2 -33.3 13.0 0.52 .0740 23 1 100.0 1
08/07/23 5:29 -35.1 -35.0 -35.1 66 -39.2 16.5 ENE 0.28 17.4 ENE -52.2 -35.1 -52.2 738.5 0.037 0.000 16.4 2 -33.3 13.0 0.52 .0740 24 1 100.0 1
08/07/23 5:30 -35.1 -35.1 -35.1 66 -39.2 15.7 ENE 0.26 17.4 ENE -51.9 -35.1 -51.9 738.5 0.037 0.000 16.4 2 -33.3 13.0 0.52 .0740 23 1 100.0 1
08/07/23 5:31 -35.2 -35.1 -35.2 66 -39.3 14.8 ENE 0.25 16.5 ENE -51.6 -35.2 -51.6 738.5 0.037 0.000 16.4 2 -33.3 13.0 0.52 .0740 24 1 100.0 1
08/07/23 5:32 -35.2 -35.2 -35.2 66 -39.3 15.7 ENE 0.26 17.4 E -52.1 -35.2 -52.1 738.5 0.037 0.000 16.4 2 -33.3 13.0 0.52 .0740 23 1 100.0 1
08/07/23 5:33 -35.2 -35.2 -35.2 66 -39.3 17.4 ENE 0.29 18.3 ENE -52.8 -35.2 -52.8 738.5 0.037 0.000 16.4 2 -33.3 13.0 0.52 .0740 23 1 100.0 1
08/07/23 5:34 -35.2 -35.2 -35.2 66 -39.3 17.4 ENE 0.29 19.1 ENE -52.8 -35.2 -52.8 738.5 0.037 0.000 16.4 2 -33.3 13.0 0.52 .0740 24 1 100.0 1
08/07/23 5:35 -35.2 -35.2 -35.2 66 -39.3 17.4 ENE 0.29 18.3 ENE -52.8 -35.2 -52.8 738.5 0.037 0.000 16.4 2 -33.3 13.0 0.52 .0740 23 1 100.0 1
08/07/23 5:36 -35.3 -35.2 -35.3 66 -39.4 17.4 ENE 0.29 19.1 ENE -52.9 -35.3 -52.9 738.5 0.037 0.000 16.4 2 -33.3 13.0 0.52 .0740 24 1 100.0 1
08/07/23 5:37 -35.4 -35.3 -35.4 66 -39.5 15.7 ENE 0.26 18.3 ENE -52.3 -35.3 -52.3 738.5 0.037 0.000 16.4 2 -33.3 13.0 0.52 .0740 23 1 100.0 1
08/07/23 5:38 -35.4 -35.4 -35.4 66 -39.5 19.1 ENE 0.32 20.9 ENE -53.8 -35.4 -53.7 738.5 0.037 0.000 16.4 2 -33.3 13.0 0.52 .0740 24 1 100.0 1
08/07/23 5:39 -35.4 -35.4 -35.4 66 -39.5 16.5 ENE 0.28 18.3 ENE -52.8 -35.4 -52.7 738.6 0.037 0.000 16.4 2 -33.3 13.0 0.52 .0740 23 1 100.0 1
08/07/23 5:40 -35.5 -35.4 -35.5 66 -39.6 15.7 ENE 0.26 19.1 E -52.4 -35.4 -52.4 738.6 0.037 0.000 16.4 2 -33.3 13.0 0.52 .0740 23 1 100.0 1
08/07/23 5:41 -35.6 -35.5 -35.6 66 -39.7 18.3 ENE 0.30 20.0 E -53.6 -35.6 -53.6 738.5 0.037 0.000 16.4 2 -33.3 13.0 0.52 .0740 24 1 100.0 1
08/07/23 5:42 -35.6 -35.5 -35.6 66 -39.7 17.4 E 0.29 19.1 E -53.3 -35.6 -53.3 738.5 0.037 0.000 16.4 2 -33.3 13.0 0.52 .0740 23 1 100.0 1
08/07/23 5:43 -35.6 -35.6 -35.6 66 -39.7 17.4 ENE 0.29 19.1 E -53.3 -35.6 -53.3 738.5 0.037 0.000 16.4 2 -33.3 13.0 0.52 .0740 24 1 100.0 1
08/07/23 5:44 -35.6 -35.6 -35.6 66 -39.7 18.3 ENE 0.30 20.0 ENE -53.7 -35.6 -53.7 738.5 0.037 0.000 16.4 2 -33.3 13.0 0.52 .0740 23 1 100.0 1
08/07/23 5:45 -35.7 -35.6 -35.7 66 -39.8 17.4 E 0.29 19.1 E -53.4 -35.7 -53.4 738.5 0.038 0.000 16.4 2 -33.3 13.0 0.52 .0740 23 1 100.0 1
08/07/23 5:46 -35.7 -35.7 -35.7 66 -39.8 19.1 ENE 0.32 20.9 ENE -54.1 -35.7 -54.1 738.6 0.038 0.000 16.4 2 -33.3 13.0 0.52 .0740 24 1 100.0 1
08/07/23 5:47 -35.7 -35.7 -35.7 67 -39.6 17.4 ENE 0.29 20.9 ENE -53.4 -35.7 -53.4 738.5 0.038 0.000 16.4 2 -33.3 13.0 0.52 .0740 23 1 100.0 1
08/07/23 5:48 -35.7 -35.7 -35.7 67 -39.7 19.1 ENE 0.32 20.9 ENE -54.2 -35.7 -54.2 738.5 0.038 0.000 16.4 2 -33.3 13.0 0.52 .0740 24 1 100.0 1
08/07/23 5:49 -35.7 -35.7 -35.7 67 -39.7 17.4 E 0.29 19.1 ENE -53.5 -35.7 -53.5 738.5 0.038 0.000 16.4 2 -33.3 13.0 0.52 .0740 23 1 100.0 1
08/07/23 5:50 -35.8 -35.7 -35.8 67 -39.8 18.3 ENE 0.30 20.0 ENE -54.0 -35.8 -54.0 738.5 0.038 0.000 16.4 2 -33.3 13.0 0.52 .0739 23 1 100.0 1
08/07/23 5:51 -35.9 -35.8 -35.9 67 -39.8 18.3 E 0.30 20.0 E -54.1 -35.9 -54.1 738.5 0.038 0.000 16.4 2 -33.3 13.0 0.52 .0740 24 1 100.0 1
08/07/23 5:52 -35.9 -35.9 -35.9 67 -39.9 19.1 ENE 0.32 20.9 ENE -54.4 -35.9 -54.4 738.5 0.038 0.000 16.4 2 -33.3 13.0 0.52 .0740 23 1 100.0 1
08/07/23 5:53 -35.9 -35.9 -35.9 67 -39.9 17.4 ENE 0.29 20.0 ENE -53.8 -35.9 -53.8 738.5 0.038 0.000 16.4 2 -33.3 13.0 0.52 .0740 24 1 100.0 1
08/07/23 5:54 -35.9 -35.9 -35.9 67 -39.9 17.4 ENE 0.29 20.0 ENE -53.8 -35.9 -53.8 738.6 0.038 0.000 16.4 2 -33.3 13.0 0.52 .0740 23 1 100.0 1
08/07/23 5:55 -35.9 -35.9 -35.9 67 -39.9 19.1 ENE 0.32 20.9 E -54.4 -35.9 -54.4 738.5 0.038 0.000 16.4 2 -33.3 13.0 0.52 .0740 24 1 100.0 1
08/07/23 5:56 -35.9 -35.9 -35.9 67 -39.8 18.3 ENE 0.30 19.1 ENE -54.1 -35.9 -54.1 738.6 0.038 0.000 16.4 2 -33.3 13.0 0.52 .0740 23 1 100.0 1
08/07/23 5:57 -35.9 -35.9 -35.9 67 -39.9 16.5 ENE 0.28 19.1 E -53.4 -35.9 -53.4 738.6 0.038 0.000 16.3 2 -33.4 12.9 0.52 .0740 23 1 100.0 1
08/07/23 5:58 -35.9 -35.9 -35.9 67 -39.8 19.1 ENE 0.32 20.9 ENE -54.4 -35.9 -54.4 738.5 0.038 0.000 16.3 2 -33.4 12.9 0.52 .0740 24 1 100.0 1
08/07/23 5:59 -35.9 -35.8 -35.9 67 -39.8 18.3 ENE 0.30 20.0 ENE -54.1 -35.9 -54.1 738.6 0.038 0.000 16.3 2 -33.4 12.9 0.52 .0740 23 1 100.0 1
08/07/23 6:00 -35.8 -35.8 -35.9 67 -39.8 19.1 ENE 0.32 20.0 ENE -54.3 -35.8 -54.3 738.6 0.038 0.000 16.3 2 -33.4 12.9 0.52 .0740 24 1 100.0 1
08/07/23 6:01 -35.9 -35.8 -35.9 67 -39.8 19.1 ENE 0.32 20.9 ENE -54.4 -35.9 -54.4 738.5 0.038 0.000 16.3 2 -33.4 12.9 0.52 .0740 23 1 100.0 1
08/07/23 6:02 -35.9 -35.8 -35.9 67 -39.8 19.1 ENE 0.32 21.7 ENE -54.4 -35.9 -54.4 738.6 0.038 0.000 16.3 2 -33.4 12.9 0.52 .0740 23 1 100.0 1
08/07/23 6:03 -35.9 -35.9 -35.9 67 -39.8 19.1 E 0.32 20.9 E -54.4 -35.9 -54.4 738.5 0.038 0.000 16.3 2 -33.4 12.9 0.52 .0740 24 1 100.0 1
08/07/23 6:04 -35.9 -35.9 -35.9 67 -39.8 20.0 E 0.33 23.5 E -54.7 -35.9 -54.7 738.4 0.038 0.000 16.3 2 -33.4 12.9 0.52 .0740 23 1 100.0 1
08/07/23 6:05 -35.9 -35.9 -35.9 66 -40.0 19.1 E 0.32 20.9 E -54.4 -35.9 -54.4 738.5 0.038 0.000 16.3 2 -33.4 12.9 0.52 .0740 24 1 100.0 1
08/07/23 6:06 -35.9 -35.9 -35.9 66 -40.0 19.1 E 0.32 21.7 ENE -54.4 -35.9 -54.4 738.5 0.038 0.000 16.3 2 -33.4 12.9 0.52 .0740 23 1 100.0 1
08/07/23 6:07 -35.9 -35.9 -35.9 66 -40.0 20.9 E 0.35 21.7 E -55.1 -35.9 -55.1 738.5 0.038 0.000 16.3 2 -33.4 12.9 0.52 .0740 24 1 100.0 1
08/07/23 6:08 -35.9 -35.9 -35.9 66 -40.0 19.1 E 0.32 20.0 ENE -54.4 -35.9 -54.4 738.6 0.038 0.000 16.3 2 -33.4 12.9 0.52 .0740 23 1 100.0 1
08/07/23 6:09 -35.9 -35.9 -35.9 66 -40.0 19.1 E 0.32 20.0 E -54.4 -35.9 -54.4 738.6 0.038 0.000 16.3 2 -33.4 12.9 0.52 .0740 23 1 100.0 1
08/07/23 6:10 -35.9 -35.9 -35.9 66 -40.0 20.9 E 0.35 22.6 E -55.1 -35.9 -55.1 738.6 0.038 0.000 16.3 2 -33.4 12.9 0.52 .0740 24 1 100.0 1
08/07/23 6:11 -35.9 -35.9 -35.9 66 -40.0 16.5 E 0.28 18.3 ENE -53.4 -35.9 -53.4 738.7 0.038 0.000 16.3 2 -33.4 12.9 0.52 .0740 23 1 100.0 1
08/07/23 6:12 -36.0 -35.9 -36.0 66 -40.1 18.3 ENE 0.30 20.9 ENE -54.2 -36.0 -54.2 738.7 0.038 0.000 16.3 2 -33.4 12.9 0.52 .0740 24 1 100.0 1
08/07/23 6:13 -36.0 -36.0 -36.1 65 -40.2 19.1 ENE 0.32 20.9 ENE -54.6 -36.0 -54.6 738.7 0.038 0.000 16.3 2 -33.4 12.9 0.52 .0740 23 1 100.0 1
08/07/23 6:14 -35.9 -35.9 -36.0 65 -40.2 19.1 ENE 0.32 20.9 ENE -54.4 -35.9 -54.4 738.7 0.038 0.000 16.3 2 -33.4 12.9 0.52 .0740 23 1 100.0 1
08/07/23 6:15 -35.9 -35.9 -35.9 65 -40.2 19.1 ENE 0.32 20.0 ENE -54.4 -35.9 -54.4 738.7 0.038 0.000 16.3 2 -33.4 12.9 0.52 .0740 24 1 100.0 1
08/07/23 6:16 -35.9 -35.9 -35.9 65 -40.2 19.1 ENE 0.32 20.0 ENE -54.4 -35.9 -54.4 738.7 0.038 0.000 16.3 2 -33.4 12.9 0.52 .0740 23 1 100.0 1
08/07/23 6:17 -35.9 -35.9 -35.9 65 -40.1 19.1 ENE 0.32 20.9 E -54.4 -35.9 -54.4 738.7 0.038 0.000 16.3 2 -33.4 12.9 0.52 .0740 24 1 100.0 1
08/07/23 6:18 -35.9 -35.8 -35.9 65 -40.1 19.1 ENE 0.32 23.5 E -54.4 -35.9 -54.4 738.7 0.038 0.000 16.3 2 -33.4 12.9 0.52 .0740 23 1 100.0 1
08/07/23 6:19 -35.8 -35.8 -35.9 65 -40.1 20.9 ENE 0.35 23.5 ENE -54.9 -35.8 -54.9 738.7 0.038 0.000 16.3 2 -33.4 12.9 0.52 .0740 23 1 100.0 1
08/07/23 6:20 -35.8 -35.8 -35.9 65 -40.1 19.1 ENE 0.32 20.9 ENE -54.3 -35.8 -54.3 738.7 0.038 0.000 16.3 2 -33.4 12.9 0.52 .0740 24 1 100.0 1
08/07/23 6:21 -35.9 -35.8 -35.9 65 -40.1 19.1 ENE 0.32 20.9 ENE -54.4 -35.9 -54.4 738.8 0.038 0.000 16.3 2 -33.4 12.9 0.52 .0740 23 1 100.0 1
08/07/23 6:22 -35.8 -35.8 -35.8 65 -40.1 17.4 ENE 0.29 20.0 ENE -53.6 -35.8 -53.6 738.8 0.038 0.000 16.3 2 -33.4 12.9 0.52 .0740 24 1 100.0 1
08/07/23 6:23 -35.8 -35.8 -35.8 65 -40.0 19.1 ENE 0.32 21.7 ENE -54.2 -35.8 -54.2 738.8 0.038 0.000 16.3 2 -33.4 12.9 0.52 .0740 23 1 100.0 1
08/07/23 6:24 -35.7 -35.7 -35.8 65 -39.9 20.0 ENE 0.33 21.7 ENE -54.4 -35.7 -54.4 738.7 0.038 0.000 16.3 2 -33.4 12.9 0.52 .0740 24 1 100.0 1
08/07/23 6:25 -35.6 -35.6 -35.7 65 -39.8 18.3 ENE 0.30 20.0 ENE -53.6 -35.6 -53.6 738.8 0.037 0.000 16.3 2 -33.4 12.9 0.52 .0740 23 1 100.0 1
08/07/23 6:26 -35.6 -35.5 -35.6 65 -39.8 14.8 E 0.25 18.3 E -52.1 -35.6 -52.1 738.8 0.037 0.000 16.3 2 -33.4 12.9 0.52 .0740 23 1 100.0 1
08/07/23 6:27 -35.4 -35.4 -35.5 65 -39.6 21.7 ENE 0.36 23.5 ENE -54.7 -35.3 -54.6 738.7 0.037 0.000 16.3 2 -33.4 12.9 0.52 .0740 24 1 100.0 1
08/07/23 6:28 -35.3 -35.3 -35.4 66 -39.4 21.7 ENE 0.36 23.5 ENE -54.6 -35.3 -54.6 738.7 0.037 0.000 16.3 2 -33.4 12.9 0.52 .0740 23 1 100.0 1
08/07/23 6:29 -35.2 -35.2 -35.3 66 -39.3 17.4 ENE 0.29 22.6 ENE -52.8 -35.2 -52.8 738.7 0.037 0.000 16.3 2 -33.4 12.9 0.52 .0740 24 1 100.0 1
08/07/23 6:30 -35.3 -35.2 -35.3 66 -39.4 13.9 E 0.23 18.3 ENE -51.4 -35.3 -51.4 738.9 0.037 0.000 16.3 2 -33.4 12.9 0.52 .0740 23 1 100.0 1
08/07/23 6:31 -35.4 -35.3 -35.4 66 -39.5 19.1 ENE 0.32 20.0 ENE -53.8 -35.4 -53.7 738.8 0.037 0.000 16.3 2 -33.4 12.9 0.52 .0740 23 1 100.0 1
08/07/23 6:32 -35.4 -35.4 -35.4 66 -39.5 18.3 ENE 0.30 20.0 ENE -53.4 -35.4 -53.4 738.8 0.037 0.000 16.3 2 -33.4 12.9 0.52 .0740 24 1 100.0 1
08/07/23 6:33 -35.4 -35.4 -35.4 66 -39.5 18.3 ENE 0.30 20.0 ENE -53.4 -35.4 -53.4 738.8 0.037 0.000 16.3 2 -33.4 12.9 0.52 .0740 23 1 100.0 1
08/07/23 6:34 -35.4 -35.4 -35.4 66 -39.5 20.0 ENE 0.33 20.9 E -54.1 -35.3 -54.0 738.8 0.037 0.000 16.3 2 -33.4 12.9 0.52 .0740 24 1 100.0 1
08/07/23 6:35 -35.4 -35.4 -35.4 66 -39.5 17.4 ENE 0.29 19.1 ENE -53.1 -35.3 -53.0 738.8 0.037 0.000 16.3 2 -33.4 12.9 0.52 .0740 23 1 100.0 1
08/07/23 6:36 -35.4 -35.4 -35.4 66 -39.5 17.4 ENE 0.29 19.1 ENE -53.1 -35.3 -53.0 738.8 0.037 0.000 16.3 2 -33.4 12.9 0.52 .0740 23 1 100.0 1
08/07/23 6:37 -35.4 -35.4 -35.4 66 -39.5 18.3 ENE 0.30 19.1 ENE -53.4 -35.3 -53.3 738.8 0.037 0.000 16.3 2 -33.4 12.9 0.52 .0740 24 1 100.0 1
08/07/23 6:38 -35.4 -35.4 -35.4 66 -39.5 16.5 ENE 0.28 19.1 ENE -52.7 -35.3 -52.6 738.8 0.037 0.000 16.3 2 -33.4 12.9 0.52 .0740 23 1 100.0 1
08/07/23 6:39 -35.4 -35.4 -35.4 66 -39.5 16.5 ENE 0.28 20.0 ENE -52.8 -35.4 -52.7 738.8 0.037 0.000 16.3 2 -33.4 12.9 0.52 .0740 24 1 100.0 1
08/07/23 6:40 -35.3 -35.3 -35.4 67 -39.3 19.1 ENE 0.32 20.0 ENE -53.7 -35.3 -53.7 738.8 0.037 0.000 16.3 2 -33.4 12.9 0.52 .0740 23 1 100.0 1
08/07/23 6:41 -35.2 -35.2 -35.3 67 -39.2 19.1 ENE 0.32 20.9 ENE -53.5 -35.2 -53.5 738.7 0.037 0.000 16.3 2 -33.4 12.9 0.52 .0740 24 1 100.0 1
08/07/23 6:42 -35.2 -35.2 -35.2 67 -39.1 18.3 ENE 0.30 20.0 ENE -53.1 -35.2 -53.1 738.8 0.037 0.000 16.3 2 -33.4 12.9 0.52 .0740 23 1 100.0 1
08/07/23 6:43 -35.2 -35.2 -35.2 67 -39.2 16.5 ENE 0.28 17.4 ENE -52.4 -35.2 -52.4 738.8 0.037 0.000 16.3 2 -33.4 12.9 0.52 .0740 23 1 100.0 1
08/07/23 6:44 -35.2 -35.2 -35.2 67 -39.2 18.3 ENE 0.30 19.1 ENE -53.2 -35.2 -53.2 738.8 0.037 0.000 16.3 2 -33.4 12.9 0.52 .0740 24 1 100.0 1
08/07/23 6:45 -35.2 -35.2 -35.2 67 -39.1 18.3 ENE 0.30 20.0 ENE -53.1 -35.2 -53.1 738.7 0.037 0.000 16.3 2 -33.4 12.9 0.52 .0740 23 1 100.0 1
08/07/23 6:46 -35.1 -35.1 -35.2 67 -39.1 17.4 ENE 0.29 18.3 ENE -52.7 -35.1 -52.7 738.8 0.037 0.000 16.3 2 -33.4 12.9 0.52 .0740 24 1 100.0 1
08/07/23 6:47 -35.1 -35.1 -35.1 67 -39.0 17.4 E 0.29 19.1 ENE -52.6 -35.1 -52.6 738.8 0.037 0.000 16.3 2 -33.4 12.9 0.52 .0740 23 1 100.0 1
08/07/23 6:48 -35.0 -35.0 -35.1 67 -39.0 18.3 E 0.30 19.1 ENE -52.9 -35.0 -52.9 738.8 0.037 0.000 16.3 2 -33.4 12.9 0.52 .0740 23 1 100.0 1
08/07/23 6:49 -34.9 -34.9 -34.9 67 -38.9 16.5 ENE 0.28 18.3 ENE -52.1 -35.0 -52.2 738.8 0.037 0.000 16.3 2 -33.4 12.9 0.52 .0740 24 1 100.0 1
08/07/23 6:50 -35.0 -34.9 -35.0 67 -39.0 17.4 ENE 0.29 18.3 ENE -52.6 -35.0 -52.6 738.8 0.037 0.000 16.3 2 -33.4 12.9 0.52 .0740 23 1 100.0 1
08/07/23 6:51 -35.0 -35.0 -35.0 67 -39.0 15.7 ENE 0.26 17.4 ENE -51.8 -35.0 -51.8 738.9 0.037 0.000 16.3 2 -33.4 12.9 0.52 .0740 24 1 100.0 1
08/07/23 6:52 -35.0 -35.0 -35.1 67 -39.0 16.5 ENE 0.28 17.4 E -52.2 -35.0 -52.2 738.8 0.037 0.000 16.3 2 -33.4 12.9 0.52 .0740 23 1 100.0 1
08/07/23 6:53 -35.1 -35.0 -35.1 67 -39.0 15.7 E 0.26 17.4 E -51.9 -35.1 -51.9 738.8 0.037 0.000 16.2 2 -33.4 12.8 0.53 .0740 24 1 100.0 1
08/07/23 6:54 -35.1 -35.1 -35.1 67 -39.0 15.7 ENE 0.26 16.5 ENE -51.9 -35.1 -51.9 738.9 0.037 0.000 16.2 2 -33.4 12.8 0.53 .0740 23 1 100.0 1
08/07/23 6:55 -35.1 -35.1 -35.1 66 -39.2 14.8 ENE 0.25 16.5 E -51.6 -35.1 -51.6 738.9 0.037 0.000 16.3 2 -33.4 12.9 0.52 .0740 23 1 100.0 1
08/07/23 6:56 -35.2 -35.1 -35.2 66 -39.3 16.5 ENE 0.28 18.3 ENE -52.4 -35.2 -52.4 738.8 0.037 0.000 16.2 2 -33.4 12.8 0.53 .0740 24 1 100.0 1
08/07/23 6:57 -35.1 -35.1 -35.2 66 -39.2 17.4 ENE 0.29 19.1 ENE -52.7 -35.1 -52.7 738.8 0.037 0.000 16.2 2 -33.4 12.8 0.53 .0740 23 1 100.0 1
08/07/23 6:58 -35.2 -35.1 -35.2 66 -39.3 15.7 ENE 0.26 16.5 ENE -52.0 -35.2 -52.0 738.9 0.037 0.000 16.2 2 -33.4 12.8 0.53 .0740 24 1 100.0 1
08/07/23 6:59 -35.2 -35.2 -35.2 66 -39.3 15.7 ENE 0.26 17.4 ENE -52.0 -35.2 -52.0 738.9 0.037 0.000 16.2 2 -33.4 12.8 0.53 .0741 23 1 100.0 1
08/07/23 7:00 -35.2 -35.2 -35.2 66 -39.3 16.5 ENE 0.28 18.3 ENE -52.4 -35.2 -52.4 738.9 0.037 0.000 16.2 2 -33.4 12.8 0.53 .0740 23 1 100.0 1
08/07/23 7:01 -35.1 -35.1 -35.2 66 -39.2 16.5 ENE 0.28 17.4 ENE -52.3 -35.1 -52.3 738.9 0.037 0.000 16.2 2 -33.4 12.8 0.53 .0740 24 1 100.0 1
08/07/23 7:02 -35.1 -35.1 -35.1 66 -39.2 15.7 ENE 0.26 17.4 ENE -51.9 -35.1 -51.9 738.8 0.037 0.000 16.2 2 -33.4 12.8 0.53 .0740 23 1 100.0 1
08/07/23 7:03 -35.1 -35.0 -35.1 66 -39.2 14.8 ENE 0.25 16.5 ENE -51.5 -35.1 -51.5 738.9 0.037 0.000 16.2 2 -33.4 12.8 0.53 .0740 24 1 100.0 1
08/07/23 7:04 -35.0 -35.0 -35.0 66 -39.1 16.5 ENE 0.28 17.4 ENE -52.2 -35.0 -52.2 738.9 0.037 0.000 16.2 2 -33.4 12.8 0.53 .0740 23 1 100.0 1
08/07/23 7:05 -35.1 -35.0 -35.1 66 -39.2 15.7 ENE 0.26 18.3 E -51.9 -35.1 -51.9 738.9 0.037 0.000 16.2 2 -33.4 12.8 0.53 .0740 23 1 100.0 1
08/07/23 7:06 -35.0 -35.0 -35.1 66 -39.1 16.5 E 0.28 18.3 E -52.2 -35.0 -52.2 738.9 0.037 0.000 16.2 2 -33.4 12.8 0.53 .0740 24 1 100.0 1
08/07/23 7:07 -34.9 -34.9 -35.0 66 -39.1 16.5 E 0.28 17.4 ENE -52.1 -35.0 -52.2 738.9 0.037 0.000 16.2 2 -33.4 12.8 0.53 .0740 23 1 100.0 1
08/07/23 7:08 -34.9 -34.9 -34.9 66 -39.0 16.5 E 0.28 17.4 E -52.1 -34.9 -52.1 738.9 0.037 0.000 16.2 2 -33.4 12.8 0.53 .0740 24 1 100.0 1
08/07/23 7:09 -34.8 -34.8 -34.9 66 -39.0 15.7 E 0.26 17.4 ENE -51.6 -34.9 -51.7 738.8 0.037 0.000 16.3 2 -33.4 12.9 0.52 .0740 23 1 100.0 1
08/07/23 7:10 -34.8 -34.8 -34.8 66 -39.0 17.4 E 0.29 18.3 E -52.3 -34.9 -52.4 738.8 0.037 0.000 16.2 2 -33.4 12.8 0.53 .0740 24 1 100.0 1
08/07/23 7:11 -34.8 -34.8 -34.8 66 -38.9 15.7 E 0.26 17.4 ENE -51.5 -34.8 -51.6 738.8 0.037 0.000 16.2 2 -33.4 12.8 0.53 .0740 23 1 100.0 1
08/07/23 7:12 -34.8 -34.8 -34.8 66 -39.0 16.5 E 0.28 18.3 ENE -51.9 -34.9 -52.0 738.8 0.037 0.000 16.2 2 -33.4 12.8 0.53 .0740 23 1 100.0 1
08/07/23 7:13 -34.9 -34.8 -34.9 66 -39.0 17.4 E 0.29 19.1 ENE -52.4 -34.9 -52.4 738.8 0.037 0.000 16.2 2 -33.4 12.8 0.53 .0740 24 1 100.0 1
08/07/23 7:14 -34.9 -34.9 -34.9 65 -39.2 17.4 E 0.29 18.3 ENE -52.4 -35.0 -52.5 738.9 0.037 0.000 16.2 2 -33.4 12.8 0.53 .0741 23 1 100.0 1
08/07/23 7:15 -34.9 -34.9 -34.9 65 -39.2 17.4 ENE 0.29 18.3 ENE -52.4 -35.0 -52.5 738.9 0.037 0.000 16.2 2 -33.4 12.8 0.53 .0741 24 1 100.0 1
08/07/23 7:16 -35.0 -35.0 -35.0 65 -39.3 15.7 E 0.26 16.5 E -51.8 -35.0 -51.8 739.0 0.037 0.000 16.2 2 -33.4 12.8 0.53 .0741 23 1 100.0 1
08/07/23 7:17 -35.1 -35.0 -35.1 65 -39.3 14.8 ENE 0.25 16.5 E -51.5 -35.1 -51.5 739.0 0.037 0.000 16.3 2 -33.4 12.9 0.52 .0740 23 1 100.0 1
08/07/23 7:18 -35.1 -35.1 -35.1 65 -39.3 16.5 ENE 0.28 17.4 ENE -52.2 -35.1 -52.2 739.0 0.037 0.000 16.3 2 -33.4 12.9 0.52 .0740 24 1 100.0 1
08/07/23 7:19 -35.1 -35.1 -35.1 65 -39.4 16.5 ENE 0.28 17.4 ENE -52.3 -35.1 -52.3 739.0 0.037 0.000 16.3 2 -33.4 12.9 0.52 .0740 23 1 100.0 1
08/07/23 7:20 -35.2 -35.1 -35.2 65 -39.4 16.5 ENE 0.28 17.4 ENE -52.4 -35.2 -52.4 739.0 0.037 0.000 16.3 2 -33.4 12.9 0.52 .0740 24 1 100.0 1
08/07/23 7:21 -35.2 -35.2 -35.2 64 -39.6 17.4 ENE 0.29 18.3 ENE -52.8 -35.2 -52.8 738.9 0.037 0.000 16.3 2 -33.4 12.9 0.52 .0740 23 1 100.0 1
08/07/23 7:22 -35.2 -35.2 -35.3 64 -39.6 17.4 ENE 0.29 17.4 ENE -52.8 -35.2 -52.8 738.9 0.037 0.000 16.4 2 -33.3 13.0 0.52 .0740 24 1 100.0 1
08/07/23 7:23 -35.3 -35.2 -35.3 64 -39.7 16.5 ENE 0.28 18.3 ENE -52.6 -35.3 -52.6 739.0 0.037 0.000 16.4 3 -29.0 13.1 0.82 .0740 23 1 100.0 1
08/07/23 7:24 -35.2 -35.2 -35.3 64 -39.6 16.5 E 0.28 18.3 ENE -52.4 -35.2 -52.4 739.0 0.037 0.000 16.5 3 -29.0 13.1 0.82 .0740 23 1 100.0 1
08/07/23 7:25 -35.2 -35.2 -35.2 64 -39.6 14.8 ENE 0.25 16.5 ENE -51.7 -35.2 -51.7 739.0 0.037 0.000 16.6 3 -29.0 13.2 0.81 .0740 24 1 100.0 1
08/07/23 7:26 -35.2 -35.2 -35.2 64 -39.6 13.9 E 0.23 16.5 E -51.3 -35.2 -51.3 739.0 0.037 0.000 16.6 3 -29.0 13.2 0.81 .0740 23 1 100.0 1
08/07/23 7:27 -35.2 -35.2 -35.2 64 -39.6 15.7 E 0.26 16.5 E -52.1 -35.2 -52.1 739.0 0.037 0.000 16.6 3 -28.9 13.2 0.81 .0739 24 1 100.0 1
08/07/23 7:28 -35.2 -35.2 -35.2 64 -39.6 14.8 E 0.25 16.5 E -51.7 -35.2 -51.7 739.0 0.037 0.000 16.7 3 -28.9 13.2 0.81 .0739 23 1 100.0 1
08/07/23 7:29 -35.2 -35.2 -35.2 64 -39.6 13.9 E 0.23 14.8 E -51.3 -35.2 -51.3 739.0 0.037 0.000 16.7 3 -28.9 13.3 0.81 .0739 23 1 100.0 1
08/07/23 7:30 -35.2 -35.2 -35.2 64 -39.6 13.0 E 0.22 14.8 E -50.8 -35.2 -50.8 739.0 0.037 0.000 16.7 3 -28.9 13.3 0.81 .0739 24 1 100.0 1
08/07/23 7:31 -35.2 -35.2 -35.2 64 -39.6 15.7 E 0.26 16.5 E -52.1 -35.2 -52.1 739.0 0.037 0.000 16.8 3 -28.8 13.3 0.81 .0739 23 1 100.0 1
08/07/23 7:32 -35.2 -35.2 -35.2 64 -39.6 14.8 E 0.25 16.5 E -51.7 -35.2 -51.7 739.0 0.037 0.000 16.8 3 -28.8 13.3 0.81 .0739 24 1 100.0 1
08/07/23 7:33 -35.3 -35.2 -35.3 64 -39.7 14.8 E 0.25 15.7 E -51.8 -35.3 -51.8 739.0 0.037 0.000 16.8 3 -28.8 13.4 0.80 .0739 23 1 100.0 1
08/07/23 7:34 -35.3 -35.2 -35.3 64 -39.7 15.7 E 0.26 16.5 ENE -52.2 -35.3 -52.2 739.0 0.037 0.000 16.9 3 -28.7 13.4 0.80 .0739 23 1 100.0 1
08/07/23 7:35 -35.3 -35.3 -35.3 64 -39.7 14.8 ENE 0.25 14.8 E -51.8 -35.3 -51.8 739.0 0.037 0.000 16.9 3 -28.7 13.4 0.80 .0739 24 1 100.0 1
08/07/23 7:36 -35.4 -35.3 -35.4 64 -39.8 13.9 ENE 0.23 14.8 E -51.5 -35.4 -51.5 739.0 0.037 0.000 16.9 3 -28.7 13.5 0.80 .0739 23 1 100.0 1
08/07/23 7:37 -35.5 -35.4 -35.5 64 -39.9 14.8 ENE 0.25 14.8 ENE -52.1 -35.4 -52.0 739.0 0.037 0.000 17.0 3 -28.7 13.6 0.80 .0738 24 1 100.0 1
08/07/23 7:38 -35.6 -35.5 -35.6 64 -39.9 13.9 ENE 0.23 13.9 ENE -51.7 -35.6 -51.7 739.0 0.037 0.000 17.0 3 -28.7 13.6 0.80 .0738 23 1 100.0 1
08/07/23 7:39 -35.6 -35.6 -35.6 64 -40.0 13.9 ENE 0.23 15.7 ENE -51.8 -35.6 -51.8 739.0 0.037 0.000 17.1 3 -28.6 13.6 0.80 .0738 24 1 100.0 1
08/07/23 7:40 -35.6 -35.6 -35.6 64 -40.0 14.8 ENE 0.25 15.7 ENE -52.2 -35.6 -52.2 739.0 0.037 0.000 17.1 3 -28.6 13.6 0.80 .0738 23 1 100.0 1
08/07/23 7:41 -35.6 -35.6 -35.6 64 -40.0 13.9 ENE 0.23 14.8 ENE -51.8 -35.6 -51.8 739.0 0.037 0.000 17.1 3 -28.6 13.6 0.80 .0738 23 1 100.0 1
08/07/23 7:42 -35.7 -35.7 -35.7 64 -40.1 13.0 ENE 0.22 14.8 ENE -51.4 -35.7 -51.4 739.0 0.038 0.000 17.1 3 -28.6 13.6 0.79 .0738 24 1 100.0 1
08/07/23 7:43 -35.7 -35.7 -35.7 64 -40.1 13.9 ENE 0.23 15.7 ENE -51.8 -35.7 -51.8 739.0 0.038 0.000 17.1 3 -28.6 13.6 0.79 .0738 23 1 100.0 1
08/07/23 7:44 -35.6 -35.6 -35.6 64 -40.0 13.0 ENE 0.22 14.8 ENE -51.3 -35.6 -51.3 739.0 0.037 0.000 17.1 4 -25.5 13.7 0.99 .0738 24 1 100.0 1
08/07/23 7:45 -35.5 -35.5 -35.6 64 -39.9 15.7 ENE 0.26 16.5 ENE -52.4 -35.4 -52.4 738.9 0.037 0.000 17.1 4 -25.5 13.7 0.99 .0738 23 1 100.0 1
08/07/23 7:46 -35.4 -35.4 -35.5 64 -39.8 13.9 ENE 0.23 15.7 ENE -51.6 -35.4 -51.6 738.9 0.037 0.000 17.1 4 -25.5 13.7 0.99 .0738 23 1 100.0 1
08/07/23 7:47 -35.4 -35.4 -35.4 64 -39.8 13.0 ENE 0.22 14.8 ENE -51.1 -35.4 -51.1 738.9 0.037 0.000 17.1 4 -25.5 13.7 0.99 .0738 24 1 100.0 1
08/07/23 7:48 -35.3 -35.3 -35.4 64 -39.7 13.0 ENE 0.22 14.8 ENE -51.0 -35.3 -51.0 738.9 0.037 0.000 17.1 4 -25.5 13.7 0.99 .0738 23 1 100.0 1
08/07/23 7:49 -35.3 -35.3 -35.3 64 -39.7 10.4 ENE 0.17 14.8 ENE -49.5 -35.3 -49.5 739.0 0.037 0.000 17.1 4 -25.5 13.7 0.99 .0738 24 1 100.0 1
08/07/23 7:50 -35.3 -35.3 -35.3 64 -39.7 13.9 ENE 0.23 16.5 ENE -51.3 -35.3 -51.3 738.9 0.037 0.000 17.1 4 -25.5 13.7 0.99 .0738 23 1 100.0 1
08/07/23 7:51 -35.2 -35.2 -35.3 64 -39.6 12.2 ENE 0.20 15.7 ENE -50.4 -35.2 -50.4 739.0 0.037 0.000 17.1 4 -25.5 13.7 0.99 .0738 23 1 100.0 1
08/07/23 7:52 -35.2 -35.2 -35.2 64 -39.6 13.0 ENE 0.22 14.8 ENE -50.8 -35.2 -50.8 738.9 0.037 0.000 17.1 4 -25.5 13.7 0.99 .0738 24 1 100.0 1
08/07/23 7:53 -35.2 -35.2 -35.2 64 -39.6 12.2 ENE 0.20 13.0 ENE -50.4 -35.2 -50.4 739.0 0.037 0.000 17.1 4 -25.5 13.7 0.99 .0738 23 1 100.0 1
08/07/23 7:54 -35.2 -35.2 -35.2 64 -39.6 13.9 ENE 0.23 15.7 ENE -51.3 -35.2 -51.3 739.0 0.037 0.000 17.1 4 -25.5 13.7 0.99 .0738 24 1 100.0 1
08/07/23 7:55 -35.3 -35.3 -35.3 63 -39.8 13.0 ENE 0.22 14.8 ENE -50.9 -35.3 -50.9 739.0 0.037 0.000 17.1 4 -25.5 13.6 1.00 .0738 23 1 100.0 1
08/07/23 7:56 -35.3 -35.3 -35.3 63 -39.8 13.9 ENE 0.23 14.8 ENE -51.3 -35.3 -51.3 739.1 0.037 0.000 17.1 4 -25.5 13.6 1.00 .0738 24 1 100.0 1
08/07/23 7:57 -35.3 -35.3 -35.3 63 -39.8 13.9 ENE 0.23 15.7 ENE -51.3 -35.3 -51.3 739.1 0.037 0.000 17.0 4 -25.5 13.6 1.00 .0738 23 1 100.0 1
08/07/23 7:58 -35.3 -35.3 -35.3 63 -39.8 14.8 ENE 0.25 16.5 ENE -51.8 -35.3 -51.8 739.1 0.037 0.000 17.0 4 -25.5 13.6 1.00 .0738 23 1 100.0 1
08/07/23 7:59 -35.3 -35.3 -35.3 63 -39.8 10.4 ENE 0.17 13.9 ENE -49.4 -35.3 -49.4 739.2 0.037 0.000 17.0 4 -25.5 13.6 1.00 .0738 24 1 100.0 1
08/07/23 8:00 -35.3 -35.3 -35.3 63 -39.9 12.2 ENE 0.20 13.9 ENE -50.5 -35.3 -50.5 739.2 0.037 0.000 16.9 4 -25.6 13.6 1.00 .0739 23 1 100.0 1
08/07/23 8:01 -35.3 -35.3 -35.3 63 -39.9 12.2 ENE 0.20 13.0 ENE -50.5 -35.3 -50.5 739.1 0.037 0.000 16.9 4 -25.6 13.6 1.00 .0739 24 1 100.0 1
08/07/23 8:02 -35.3 -35.3 -35.3 63 -39.9 11.3 ENE 0.19 13.0 ENE -50.1 -35.3 -50.1 739.2 0.037 0.000 16.9 4 -25.6 13.6 1.00 .0739 23 1 100.0 1
08/07/23 8:03 -35.3 -35.3 -35.3 63 -39.9 11.3 ENE 0.19 13.0 ENE -50.1 -35.3 -50.1 739.3 0.037 0.000 16.9 4 -25.6 13.5 1.00 .0739 23 1 100.0 1
08/07/23 8:04 -35.4 -35.3 -35.4 63 -39.9 12.2 ENE 0.20 13.9 ENE -50.6 -35.4 -50.6 739.2 0.037 0.000 16.9 4 -25.6 13.5 1.00 .0739 24 1 100.0 1
08/07/23 8:05 -35.4 -35.4 -35.4 63 -39.9 11.3 ENE 0.19 13.0 ENE -50.1 -35.4 -50.1 739.3 0.037 0.000 16.9 4 -25.6 13.5 1.00 .0739 23 1 100.0 1
08/07/23 8:06 -35.3 -35.3 -35.4 63 -39.9 13.0 ENE 0.22 16.5 ENE -51.0 -35.3 -51.0 739.2 0.037 0.000 16.9 4 -25.6 13.5 1.00 .0739 24 1 100.0 1
08/07/23 8:07 -35.3 -35.3 -35.3 63 -39.9 10.4 ENE 0.17 16.5 ENE -49.5 -35.3 -49.5 739.3 0.037 0.000 16.8 4 -25.6 13.4 1.00 .0739 23 1 100.0 1
08/07/23 8:08 -35.3 -35.3 -35.3 63 -39.8 14.8 ENE 0.25 16.5 ENE -51.8 -35.3 -51.8 739.2 0.037 0.000 16.8 4 -25.6 13.4 1.00 .0739 24 1 100.0 1
08/07/23 8:09 -35.3 -35.3 -35.3 63 -39.8 13.9 ENE 0.23 16.5 ENE -51.3 -35.3 -51.3 739.3 0.037 0.000 16.8 4 -25.6 13.4 1.00 .0739 23 1 100.0 1
08/07/23 8:10 -35.3 -35.3 -35.3 63 -39.8 13.9 ENE 0.23 15.7 ENE -51.3 -35.3 -51.3 739.2 0.037 0.000 16.8 4 -25.6 13.4 1.00 .0739 23 1 100.0 1
08/07/23 8:11 -35.3 -35.3 -35.3 63 -39.9 13.9 ENE 0.23 15.7 ENE -51.4 -35.3 -51.4 739.2 0.037 0.000 16.8 4 -25.7 13.4 1.01 .0739 24 1 100.0 1
08/07/23 8:12 -35.4 -35.3 -35.4 63 -39.9 13.0 E 0.22 16.5 ENE -51.1 -35.4 -51.1 739.2 0.037 0.000 16.8 4 -25.7 13.4 1.01 .0739 23 1 100.0 1
08/07/23 8:13 -35.4 -35.4 -35.4 62 -40.1 15.7 ENE 0.26 16.5 ENE -52.4 -35.4 -52.4 739.1 0.037 0.000 16.8 4 -25.7 13.4 1.01 .0739 24 1 100.0 1
08/07/23 8:14 -35.4 -35.4 -35.4 62 -40.1 13.0 E 0.22 14.8 E -51.1 -35.4 -51.1 739.2 0.037 0.000 16.8 4 -25.7 13.4 1.01 .0739 23 1 100.0 1
08/07/23 8:15 -35.5 -35.4 -35.5 62 -40.2 13.0 ENE 0.22 14.8 ENE -51.2 -35.5 -51.2 739.2 0.037 0.000 16.8 4 -25.7 13.4 1.01 .0739 23 1 100.0 1
08/07/23 8:16 -35.5 -35.5 -35.5 62 -40.2 13.9 E 0.23 15.7 ENE -51.6 -35.5 -51.6 739.2 0.037 0.000 16.7 4 -25.7 13.3 1.01 .0739 24 1 100.0 1
08/07/23 8:17 -35.6 -35.6 -35.6 62 -40.3 13.9 E 0.23 14.8 ENE -51.7 -35.6 -51.8 739.1 0.037 0.000 16.7 4 -25.7 13.3 1.01 .0739 23 1 100.0 1
08/07/23 8:18 -35.6 -35.6 -35.6 62 -40.3 12.2 E 0.20 13.9 E -50.9 -35.7 -50.9 739.2 0.037 0.000 16.7 4 -25.7 13.3 1.01 .0739 24 1 100.0 1
08/07/23 8:19 -35.7 -35.6 -35.7 62 -40.4 13.0 ENE 0.22 13.9 ENE -51.4 -35.7 -51.4 739.2 0.038 0.000 16.7 4 -25.8 13.3 1.01 .0739 23 1 100.0 1
08/07/23 8:20 -35.8 -35.7 -35.8 62 -40.5 14.8 ENE 0.25 16.5 ENE -52.4 -35.8 -52.4 739.1 0.038 0.000 16.7 4 -25.8 13.3 1.01 .0739 23 1 100.0 1
08/07/23 8:21 -35.8 -35.8 -35.8 62 -40.5 14.8 ENE 0.25 16.5 ENE -52.5 -35.9 -52.6 739.2 0.038 0.000 16.7 4 -25.8 13.3 1.01 .0739 24 1 100.0 1
08/07/23 8:22 -35.9 -35.9 -35.9 62 -40.6 15.7 ENE 0.26 17.4 ENE -53.1 -36.0 -53.1 739.2 0.038 0.000 16.7 4 -25.8 13.3 1.01 .0739 23 1 100.0 1
08/07/23 8:23 -36.0 -36.0 -36.0 62 -40.7 14.8 ENE 0.25 17.4 ENE -52.7 -36.1 -52.8 739.2 0.038 0.000 16.7 4 -25.8 13.3 1.01 .0739 24 1 100.0 1
08/07/23 8:24 -36.1 -36.1 -36.1 62 -40.8 14.8 ENE 0.25 17.4 ENE -52.8 -36.2 -52.9 739.2 0.038 0.000 16.7 3 -28.9 13.2 0.81 .0739 23 1 100.0 1
08/07/23 8:25 -36.2 -36.1 -36.2 62 -40.8 15.7 ENE 0.26 17.4 ENE -53.3 -36.2 -53.4 739.2 0.038 0.000 16.6 3 -28.9 13.2 0.81 .0740 24 1 100.0 1
08/07/23 8:26 -36.2 -36.2 -36.2 62 -40.9 13.9 ENE 0.23 16.5 ENE -52.6 -36.3 -52.6 739.3 0.038 0.000 16.6 3 -28.9 13.2 0.81 .0740 23 1 100.0 1
08/07/23 8:27 -36.2 -36.2 -36.2 62 -40.8 16.5 ENE 0.28 19.1 ENE -53.7 -36.2 -53.8 739.2 0.038 0.000 16.6 3 -28.9 13.2 0.81 .0740 23 1 100.0 1
08/07/23 8:28 -36.2 -36.2 -36.2 62 -40.8 13.0 ENE 0.22 15.7 ENE -52.1 -36.2 -52.1 739.3 0.038 0.000 16.6 3 -28.9 13.2 0.81 .0740 24 1 100.0 1
08/07/23 8:29 -36.2 -36.2 -36.2 63 -40.7 13.9 ENE 0.23 18.3 ENE -52.5 -36.2 -52.5 739.3 0.038 0.000 16.6 3 -29.0 13.2 0.81 .0740 23 1 100.0 1
08/07/23 8:30 -36.1 -36.1 -36.1 63 -40.6 13.9 ENE 0.23 18.3 ENE -52.3 -36.1 -52.3 739.2 0.038 0.000 16.6 3 -29.0 13.2 0.81 .0740 24 1 100.0 1
08/07/23 8:31 -36.1 -36.1 -36.1 63 -40.6 16.5 ENE 0.28 18.3 ENE -53.6 -36.1 -53.6 739.3 0.038 0.000 16.6 3 -29.0 13.2 0.81 .0740 23 1 100.0 1
08/07/23 8:32 -35.9 -35.9 -36.0 63 -40.5 14.8 ENE 0.25 17.4 ENE -52.6 -35.9 -52.6 739.2 0.038 0.000 16.6 3 -29.0 13.2 0.81 .0740 23 1 100.0 1
08/07/23 8:33 -35.9 -35.9 -35.9 63 -40.4 7.8 ENE 0.13 13.0 ENE -48.3 -35.9 -48.3 739.4 0.038 0.000 16.5 3 -29.0 13.1 0.82 .0740 24 1 100.0 1
08/07/23 8:34 -35.8 -35.8 -35.9 63 -40.4 17.4 ENE 0.29 19.1 ENE -53.6 -35.8 -53.6 739.2 0.038 0.000 16.5 3 -29.0 13.1 0.82 .0740 23 1 100.0 1
08/07/23 8:35 -35.8 -35.8 -35.9 63 -40.4 12.2 ENE 0.20 15.7 ENE -51.2 -35.8 -51.2 739.3 0.038 0.000 16.5 3 -29.0 13.1 0.82 .0740 24 1 100.0 1
08/07/23 8:36 -35.8 -35.8 -35.8 63 -40.4 11.3 ENE 0.19 13.0 ENE -50.7 -35.8 -50.7 739.4 0.038 0.000 16.4 3 -29.0 13.1 0.82 .0740 23 1 100.0 1
08/07/23 8:37 -35.8 -35.8 -35.8 63 -40.4 13.0 ENE 0.22 14.8 ENE -51.6 -35.8 -51.6 739.4 0.038 0.000 16.4 3 -29.0 13.1 0.82 .0740 24 1 100.0 1
08/07/23 8:38 -35.8 -35.8 -35.8 63 -40.4 13.0 ENE 0.22 14.8 ENE -51.6 -35.8 -51.6 739.4 0.038 0.000 16.4 3 -29.0 13.1 0.82 .0740 23 1 100.0 1
08/07/23 8:39 -35.8 -35.8 -35.8 63 -40.4 12.2 ENE 0.20 13.0 ENE -51.2 -35.8 -51.2 739.4 0.038 0.000 16.4 3 -29.0 13.1 0.82 .0740 23 1 100.0 1
08/07/23 8:40 -35.8 -35.8 -35.8 63 -40.4 12.2 ENE 0.20 14.8 ENE -51.2 -35.8 -51.2 739.4 0.038 0.000 16.4 3 -29.0 13.1 0.82 .0740 24 1 100.0 1
08/07/23 8:41 -35.8 -35.8 -35.8 63 -40.3 12.2 ENE 0.20 13.9 ENE -51.1 -35.8 -51.1 739.3 0.038 0.000 16.4 3 -29.0 13.1 0.82 .0740 23 1 100.0 1
08/07/23 8:42 -35.8 -35.8 -35.8 63 -40.3 11.3 ENE 0.19 13.9 ENE -50.6 -35.8 -50.6 739.4 0.038 0.000 16.4 3 -29.0 13.1 0.82 .0740 24 1 100.0 1
08/07/23 8:43 -35.8 -35.8 -35.8 62 -40.5 11.3 ENE 0.19 13.0 E -50.6 -35.8 -50.7 739.4 0.038 0.000 16.4 3 -29.0 13.1 0.82 .0740 23 1 100.0 1
08/07/23 8:44 -35.8 -35.7 -35.8 62 -40.5 11.3 ENE 0.19 13.0 ENE -50.6 -35.8 -50.7 739.4 0.038 0.000 16.4 3 -29.1 13.0 0.82 .0740 23 1 100.0 1
08/07/23 8:45 -35.7 -35.7 -35.8 62 -40.4 11.3 ENE 0.19 12.2 ENE -50.5 -35.8 -50.6 739.4 0.038 0.000 16.4 3 -29.1 13.0 0.82 .0740 24 1 100.0 1
08/07/23 8:46 -35.7 -35.7 -35.7 62 -40.4 13.0 ENE 0.22 16.5 ENE -51.5 -35.8 -51.6 739.4 0.038 0.000 16.4 3 -29.1 13.0 0.82 .0740 23 1 100.0 1
08/07/23 8:47 -35.7 -35.7 -35.7 62 -40.4 14.8 ENE 0.25 17.4 ENE -52.3 -35.7 -52.3 739.3 0.038 0.000 16.4 3 -29.1 13.0 0.82 .0740 24 1 100.0 1
08/07/23 8:48 -35.6 -35.6 -35.6 62 -40.3 12.2 ENE 0.20 13.9 ENE -50.9 -35.7 -50.9 739.4 0.037 0.000 16.4 3 -29.1 13.0 0.82 .0740 23 1 100.0 1
08/07/23 8:49 -35.6 -35.6 -35.6 62 -40.3 11.3 ENE 0.19 13.9 E -50.4 -35.7 -50.4 739.4 0.037 0.000 16.4 3 -29.1 13.0 0.82 .0740 23 1 100.0 1
08/07/23 8:50 -35.6 -35.6 -35.7 62 -40.3 14.8 ENE 0.25 16.5 ENE -52.2 -35.7 -52.3 739.3 0.037 0.000 16.4 3 -29.1 13.0 0.82 .0740 24 1 100.0 1
08/07/23 8:51 -35.7 -35.6 -35.7 62 -40.4 13.9 ENE 0.23 16.5 ENE -51.8 -35.7 -51.9 739.4 0.038 0.000 16.4 3 -29.1 13.0 0.82 .0740 23 1 100.0 1
08/07/23 8:52 -35.6 -35.6 -35.7 62 -40.3 14.8 ENE 0.25 17.4 ENE -52.2 -35.7 -52.3 739.4 0.037 0.000 16.4 3 -29.1 13.0 0.82 .0740 24 1 100.0 1
08/07/23 8:53 -35.7 -35.6 -35.7 61 -40.5 14.8 ENE 0.25 16.5 ENE -52.3 -35.7 -52.3 739.4 0.038 0.000 16.4 3 -29.1 13.0 0.82 .0740 23 1 100.0 1
08/07/23 8:54 -35.7 -35.6 -35.7 61 -40.5 14.8 E 0.25 17.4 E -52.3 -35.7 -52.3 739.5 0.038 0.000 16.3 3 -29.1 13.0 0.82 .0741 24 1 100.0 1
08/07/23 8:55 -35.7 -35.6 -35.7 61 -40.5 14.8 ENE 0.25 17.4 ENE -52.3 -35.7 -52.3 739.4 0.038 0.000 16.3 3 -29.1 13.0 0.82 .0741 23 1 100.0 1
08/07/23 8:56 -35.7 -35.7 -35.7 61 -40.5 15.7 E 0.26 18.3 E -52.7 -35.7 -52.7 739.4 0.038 0.000 16.3 3 -29.1 13.0 0.82 .0741 23 1 100.0 1
08/07/23 8:57 -35.7 -35.7 -35.7 61 -40.5 13.0 E 0.22 15.7 ENE -51.4 -35.7 -51.4 739.5 0.038 0.000 16.3 3 -29.1 13.0 0.82 .0741 24 1 100.0 1
08/07/23 8:58 -35.7 -35.7 -35.7 61 -40.5 14.8 ENE 0.25 16.5 ENE -52.3 -35.7 -52.3 739.4 0.038 0.000 16.3 3 -29.1 13.0 0.82 .0741 23 1 100.0 1
08/07/23 8:59 -35.7 -35.7 -35.7 61 -40.6 12.2 E 0.20 14.8 E -51.0 -35.8 -51.1 739.5 0.038 0.000 16.3 3 -29.1 13.0 0.82 .0741 24 1 100.0 1
08/07/23 9:00 -35.7 -35.7 -35.8 61 -40.6 15.7 ENE 0.26 16.5 ENE -52.7 -35.8 -52.8 739.4 0.038 0.000 16.3 3 -29.1 13.0 0.82 .0741 23 1 100.0 1
08/07/23 9:01 -35.8 -35.7 -35.8 61 -40.6 14.8 E 0.25 16.5 E -52.4 -35.8 -52.4 739.5 0.038 0.000 16.3 3 -29.1 13.0 0.82 .0741 23 1 100.0 1
08/07/23 9:02 -35.8 -35.8 -35.8 61 -40.6 13.0 ENE 0.22 15.7 ENE -51.6 -35.8 -51.6 739.4 0.038 0.000 16.3 3 -29.1 13.0 0.82 .0741 24 1 100.0 1
08/07/23 9:03 -35.8 -35.8 -35.8 60 -40.8 13.9 E 0.23 16.5 E -52.0 -35.8 -52.1 739.5 0.038 0.000 16.3 3 -29.1 13.0 0.82 .0741 23 1 100.0 1
08/07/23 9:04 -35.8 -35.8 -35.8 60 -40.8 14.8 ENE 0.25 15.7 ENE -52.5 -35.9 -52.6 739.5 0.038 0.000 16.3 3 -29.1 13.0 0.82 .0741 24 1 100.0 1
08/07/23 9:05 -35.9 -35.8 -35.9 60 -40.9 13.9 E 0.23 15.7 E -52.1 -35.9 -52.2 739.5 0.038 0.000 16.3 3 -29.1 13.0 0.82 .0741 23 1 100.0 1
08/07/23 9:06 -35.9 -35.9 -35.9 60 -40.9 14.8 E 0.25 16.5 ENE -52.6 -36.0 -52.7 739.4 0.038 0.000 16.3 3 -29.1 13.0 0.82 .0741 24 1 100.0 1
08/07/23 9:07 -36.0 -35.9 -36.0 60 -41.0 13.9 ENE 0.23 15.7 ENE -52.3 -36.1 -52.3 739.5 0.038 0.000 16.3 3 -29.1 13.0 0.82 .0741 23 1 100.0 1
08/07/23 9:08 -36.0 -36.0 -36.0 60 -41.0 14.8 E 0.25 16.5 E -52.7 -36.1 -52.8 739.5 0.038 0.000 16.3 3 -29.1 13.0 0.82 .0741 23 1 100.0 1
08/07/23 9:09 -36.0 -36.0 -36.0 60 -41.0 14.8 E 0.25 16.5 E -52.7 -36.1 -52.8 739.5 0.038 0.000 16.3 3 -29.1 13.0 0.82 .0741 24 1 100.0 1
08/07/23 9:10 -36.1 -36.0 -36.1 60 -41.0 15.7 E 0.26 17.4 E -53.2 -36.1 -53.2 739.5 0.038 0.000 16.3 3 -29.1 13.0 0.82 .0741 23 1 100.0 1
08/07/23 9:11 -36.1 -36.1 -36.1 60 -41.0 13.9 ENE 0.23 15.7 ENE -52.3 -36.1 -52.4 739.5 0.038 0.000 16.3 3 -29.1 13.0 0.82 .0741 24 1 100.0 1
08/07/23 9:12 -36.1 -36.1 -36.1 60 -41.0 14.8 ENE 0.25 17.4 E -52.8 -36.1 -52.8 739.6 0.038 0.000 16.3 3 -29.1 13.0 0.82 .0741 23 1 100.0 1
08/07/23 9:13 -36.1 -36.1 -36.1 60 -41.0 15.7 ENE 0.26 17.4 E -53.2 -36.1 -53.2 739.4 0.038 0.000 16.3 3 -29.2 12.9 0.82 .0741 23 1 100.0 1
08/07/23 9:14 -36.1 -36.1 -36.1 60 -41.0 14.8 ENE 0.25 16.5 ENE -52.8 -36.1 -52.8 739.5 0.038 0.000 16.3 3 -29.2 12.9 0.82 .0741 24 1 100.0 1
08/07/23 9:15 -36.1 -36.1 -36.1 60 -41.1 15.7 E 0.26 19.1 E -53.2 -36.2 -53.3 739.5 0.038 0.000 16.3 3 -29.2 12.9 0.82 .0741 23 1 100.0 1
08/07/23 9:16 -36.1 -36.1 -36.1 60 -41.1 15.7 ENE 0.26 19.1 ENE -53.2 -36.2 -53.3 739.4 0.038 0.000 16.3 3 -29.2 12.9 0.82 .0741 24 1 100.0 1
08/07/23 9:17 -36.1 -36.1 -36.1 60 -41.1 12.2 ENE 0.20 17.4 ENE -51.5 -36.2 -51.6 739.5 0.038 0.000 16.3 3 -29.2 12.9 0.82 .0741 23 1 100.0 1
08/07/23 9:18 -36.1 -36.1 -36.1 60 -41.1 17.4 E 0.29 19.1 E -54.0 -36.2 -54.1 739.4 0.038 0.000 16.3 3 -29.2 12.9 0.82 .0741 23 1 100.0 1
08/07/23 9:19 -36.1 -36.1 -36.1 61 -40.9 14.8 ENE 0.25 16.5 E -52.8 -36.2 -52.9 739.6 0.038 0.000 16.3 3 -29.2 12.9 0.82 .0741 24 1 100.0 1
08/07/23 9:20 -36.1 -36.1 -36.1 61 -40.9 14.8 E 0.25 16.5 ENE -52.8 -36.1 -52.8 739.6 0.038 0.000 16.3 3 -29.2 12.9 0.82 .0741 23 1 100.0 1
08/07/23 9:21 -36.1 -36.1 -36.1 61 -40.9 16.5 E 0.28 18.3 E -53.6 -36.1 -53.6 739.5 0.038 0.000 16.3 3 -29.2 12.9 0.82 .0741 24 1 100.0 1
08/07/23 9:22 -36.1 -36.1 -36.1 61 -40.9 15.7 E 0.26 17.4 E -53.2 -36.1 -53.2 739.6 0.038 0.000 16.3 3 -29.2 12.9 0.82 .0741 23 1 100.0 1
08/07/23 9:23 -36.1 -36.0 -36.1 61 -40.9 18.3 E 0.30 19.1 ENE -54.3 -36.1 -54.3 739.5 0.038 0.000 16.3 3 -29.2 12.9 0.82 .0741 24 1 100.0 1
08/07/23 9:24 -36.0 -36.0 -36.0 61 -40.8 14.8 E 0.25 16.5 E -52.7 -36.1 -52.8 739.6 0.038 0.000 16.3 3 -29.2 12.9 0.82 .0741 23 1 100.0 1
08/07/23 9:25 -36.0 -36.0 -36.0 61 -40.8 16.5 E 0.28 17.4 E -53.5 -36.1 -53.6 739.5 0.038 0.000 16.3 3 -29.2 12.9 0.82 .0741 23 1 100.0 1
08/07/23 9:26 -36.0 -36.0 -36.0 61 -40.8 17.4 E 0.29 18.3 E -53.8 -36.1 -53.9 739.5 0.038 0.000 16.3 3 -29.2 12.9 0.82 .0741 24 1 100.0 1
08/07/23 9:27 -36.0 -36.0 -36.1 61 -40.8 16.5 E 0.28 17.4 E -53.5 -36.1 -53.6 739.5 0.038 0.000 16.3 3 -29.2 12.9 0.82 .0741 23 1 100.0 1
08/07/23 9:28 -36.0 -36.0 -36.0 61 -40.8 14.8 E 0.25 19.1 E -52.7 -36.1 -52.8 739.6 0.038 0.000 16.3 3 -29.2 12.9 0.82 .0741 24 1 100.0 1
08/07/23 9:29 -36.0 -36.0 -36.0 61 -40.8 18.3 E 0.30 19.1 E -54.2 -36.1 -54.3 739.5 0.038 0.000 16.3 3 -29.2 12.9 0.82 .0741 23 1 100.0 1
08/07/23 9:30 -36.0 -35.9 -36.0 61 -40.8 16.5 E 0.28 18.3 E -53.5 -36.1 -53.6 739.6 0.038 0.000 16.3 3 -29.2 12.9 0.82 .0741 23 1 100.0 1
08/07/23 9:31 -36.0 -36.0 -36.0 61 -40.8 14.8 E 0.25 15.7 E -52.7 -36.1 -52.8 739.7 0.038 0.000 16.3 3 -29.2 12.9 0.82 .0741 24 1 100.0 1
08/07/23 9:32 -36.0 -36.0 -36.0 61 -40.8 15.7 E 0.26 16.5 E -53.1 -36.1 -53.2 739.7 0.038 0.000 16.2 3 -29.2 12.9 0.83 .0741 23 1 100.0 1
08/07/23 9:33 -36.0 -36.0 -36.0 61 -40.8 16.5 E 0.28 17.4 E -53.5 -36.1 -53.6 739.6 0.038 0.000 16.3 3 -29.2 12.9 0.82 .0741 24 1 100.0 1
08/07/23 9:34 -36.0 -36.0 -36.0 61 -40.8 16.5 E 0.28 20.0 E -53.5 -36.1 -53.6 739.6 0.038 0.000 16.3 3 -29.2 12.9 0.82 .0741 23 1 100.0 1
08/07/23 9:35 -36.0 -36.0 -36.1 61 -40.8 13.0 E 0.22 15.7 E -51.8 -36.1 -51.9 739.7 0.038 0.000 16.2 3 -29.2 12.9 0.83 .0741 23 1 100.0 1
08/07/23 9:36 -36.1 -36.1 -36.1 61 -40.9 19.1 E 0.32 21.7 E -54.6 -36.1 -54.7 739.5 0.038 0.000 16.3 3 -29.2 12.9 0.82 .0741 24 1 100.0 1
08/07/23 9:37 -36.0 -36.0 -36.0 61 -40.8 16.5 E 0.28 19.1 E -53.5 -36.1 -53.6 739.5 0.038 0.000 16.2 3 -29.2 12.9 0.83 .0741 23 1 100.0 1
08/07/23 9:38 -36.0 -36.0 -36.0 61 -40.8 14.8 E 0.25 18.3 E -52.7 -36.1 -52.8 739.7 0.038 0.000 16.2 3 -29.2 12.9 0.83 .0741 24 1 100.0 1
08/07/23 9:39 -36.0 -36.0 -36.0 61 -40.8 17.4 E 0.29 18.3 E -53.8 -36.1 -53.9 739.6 0.038 0.000 16.2 3 -29.2 12.9 0.83 .0741 23 1 100.0 1
08/07/23 9:40 -36.0 -36.0 -36.0 61 -40.8 16.5 E 0.28 18.3 E -53.5 -36.1 -53.6 739.5 0.038 0.000 16.2 3 -29.2 12.9 0.83 .0741 24 1 100.0 1
08/07/23 9:41 -36.0 -36.0 -36.0 61 -40.8 14.8 E 0.25 17.4 E -52.7 -36.1 -52.8 739.6 0.038 0.000 16.2 3 -29.2 12.9 0.83 .0741 23 1 100.0 1
08/07/23 9:42 -36.1 -36.0 -36.1 61 -40.9 17.4 E 0.29 19.1 E -53.9 -36.1 -54.0 739.5 0.038 0.000 16.2 3 -29.2 12.9 0.83 .0741 23 1 100.0 1
08/07/23 9:43 -36.0 -36.0 -36.1 61 -40.8 14.8 E 0.25 15.7 E -52.7 -36.1 -52.8 739.6 0.038 0.000 16.2 3 -29.2 12.9 0.83 .0741 24 1 100.0 1
08/07/23 9:44 -36.1 -36.0 -36.1 61 -40.9 16.5 E 0.28 18.3 E -53.6 -36.1 -53.6 739.6 0.038 0.000 16.2 3 -29.2 12.9 0.83 .0741 23 1 100.0 1
08/07/23 9:45 -36.1 -36.0 -36.1 61 -40.9 14.8 E 0.25 17.4 E -52.8 -36.1 -52.8 739.6 0.038 0.000 16.2 3 -29.2 12.9 0.83 .0741 24 1 100.0 1
08/07/23 9:46 -36.1 -36.1 -36.1 61 -40.9 15.7 E 0.26 19.1 E -53.2 -36.1 -53.2 739.7 0.038 0.000 16.2 3 -29.2 12.9 0.83 .0741 23 1 100.0 1
08/07/23 9:47 -36.1 -36.1 -36.1 61 -40.9 17.4 E 0.29 20.9 E -53.9 -36.1 -54.0 739.5 0.038 0.000 16.2 3 -29.2 12.9 0.83 .0741 23 1 100.0 1
08/07/23 9:48 -36.1 -36.0 -36.1 61 -40.9 13.9 E 0.23 16.5 E -52.3 -36.1 -52.4 739.7 0.038 0.000 16.2 3 -29.2 12.9 0.83 .0741 24 1 100.0 1
08/07/23 9:49 -36.1 -36.1 -36.1 61 -40.9 17.4 E 0.29 19.1 E -53.9 -36.1 -54.0 739.6 0.038 0.000 16.2 3 -29.2 12.9 0.83 .0741 23 1 100.0 1
08/07/23 9:50 -36.0 -36.0 -36.1 61 -40.8 16.5 E 0.28 19.1 E -53.5 -36.1 -53.6 739.6 0.038 0.000 16.2 3 -29.2 12.9 0.83 .0741 24 1 100.0 1
08/07/23 9:51 -36.0 -36.0 -36.0 61 -40.8 13.9 E 0.23 15.7 E -52.3 -36.1 -52.3 739.7 0.038 0.000 16.2 3 -29.2 12.9 0.83 .0741 23 1 100.0 1
08/07/23 9:52 -36.0 -36.0 -36.0 61 -40.8 17.4 E 0.29 19.1 E -53.8 -36.1 -53.9 739.6 0.038 0.000 16.2 3 -29.2 12.9 0.83 .0741 23 1 100.0 1
08/07/23 9:53 -36.0 -36.0 -36.0 61 -40.8 19.1 E 0.32 20.9 E -54.6 -36.1 -54.6 739.6 0.038 0.000 16.2 3 -29.2 12.9 0.83 .0741 24 1 100.0 1
08/07/23 9:54 -36.0 -36.0 -36.0 61 -40.8 16.5 E 0.28 17.4 E -53.5 -36.1 -53.6 739.7 0.038 0.000 16.2 3 -29.2 12.9 0.83 .0741 23 1 100.0 1
08/07/23 9:55 -36.1 -36.0 -36.1 61 -40.9 16.5 E 0.28 18.3 E -53.6 -36.1 -53.6 739.7 0.038 0.000 16.2 3 -29.2 12.9 0.83 .0741 24 1 100.0 1
08/07/23 9:56 -36.1 -36.1 -36.1 61 -40.9 17.4 E 0.29 19.1 E -54.0 -36.2 -54.1 739.7 0.038 0.000 16.2 3 -29.2 12.9 0.83 .0741 23 1 100.0 1
08/07/23 9:57 -36.2 -36.1 -36.2 61 -41.0 14.8 E 0.25 16.5 E -52.9 -36.2 -53.0 739.8 0.038 0.000 16.2 3 -29.2 12.9 0.83 .0741 24 1 100.0 1
08/07/23 9:58 -36.2 -36.2 -36.2 61 -41.0 17.4 E 0.29 18.3 E -54.2 -36.3 -54.2 739.8 0.038 0.000 16.2 3 -29.2 12.9 0.83 .0741 23 1 100.0 1
08/07/23 9:59 -36.2 -36.2 -36.2 61 -41.0 16.5 E 0.28 19.1 E -53.8 -36.3 -53.8 739.7 0.038 0.000 16.2 3 -29.2 12.9 0.83 .0741 23 1 100.0 1
08/07/23 10:00 -36.2 -36.2 -36.3 61 -41.0 16.5 E 0.28 17.4 E -53.8 -36.3 -53.8 739.8 0.038 0.000 16.2 3 -29.2 12.9 0.83 .0741 24 1 100.0 1
08/07/23 10:01 -36.3 -36.2 -36.3 61 -41.1 14.8 E 0.25 16.5 E -53.1 -36.3 -53.1 739.8 0.038 0.000 16.2 3 -29.2 12.9 0.83 .0741 23 1 100.0 1
08/07/23 10:02 -36.3 -36.2 -36.3 61 -41.1 16.5 E 0.28 18.3 ENE -53.8 -36.3 -53.9 739.8 0.038 0.000 16.2 3 -29.2 12.9 0.83 .0741 24 1 100.0 1
08/07/23 10:03 -36.2 -36.2 -36.3 61 -41.0 15.7 E 0.26 17.4 E -53.4 -36.3 -53.4 739.8 0.038 0.000 16.2 3 -29.2 12.9 0.83 .0741 23 1 100.0 1
08/07/23 10:04 -36.2 -36.2 -36.2 61 -41.0 15.7 E 0.26 17.4 E -53.4 -36.3 -53.4 739.8 0.038 0.000 16.2 3 -29.2 12.9 0.83 .0741 23 1 100.0 1
08/07/23 10:05 -36.2 -36.2 -36.2 61 -41.0 15.7 E 0.26 16.5 ENE -53.3 -36.2 -53.4 739.8 0.038 0.000 16.2 3 -29.2 12.9 0.83 .0741 24 1 100.0 1
08/07/23 10:06 -36.2 -36.2 -36.2 61 -41.0 15.7 E 0.26 17.4 E -53.3 -36.2 -53.4 739.8 0.038 0.000 16.2 3 -29.2 12.9 0.83 .0741 23 1 100.0 1
08/07/23 10:07 -36.2 -36.2 -36.2 61 -41.0 15.7 E 0.26 17.4 ENE -53.3 -36.2 -53.4 739.7 0.038 0.000 16.2 3 -29.2 12.9 0.83 .0741 24 1 100.0 1
08/07/23 10:08 -36.2 -36.2 -36.2 61 -41.0 17.4 E 0.29 18.3 E -54.1 -36.2 -54.1 739.7 0.038 0.000 16.2 3 -29.2 12.9 0.83 .0741 23 1 100.0 1
08/07/23 10:09 -36.1 -36.1 -36.2 61 -40.9 17.4 E 0.29 18.3 E -54.0 -36.2 -54.1 739.7 0.038 0.000 16.2 3 -29.2 12.9 0.83 .0741 24 1 100.0 1
08/07/23 10:10 -36.1 -36.1 -36.1 61 -40.9 18.3 E 0.30 18.3 ENE -54.3 -36.2 -54.4 739.6 0.038 0.000 16.2 3 -29.2 12.9 0.83 .0741 23 1 100.0 1
08/07/23 10:11 -36.1 -36.1 -36.1 61 -40.9 17.4 E 0.29 19.1 E -54.0 -36.2 -54.1 739.6 0.038 0.000 16.2 3 -29.2 12.9 0.83 .0741 23 1 100.0 1
08/07/23 10:12 -36.1 -36.1 -36.1 61 -40.9 18.3 E 0.30 20.0 E -54.3 -36.2 -54.4 739.6 0.038 0.000 16.2 3 -29.2 12.8 0.83 .0741 24 1 100.0 1
08/07/23 10:13 -36.1 -36.1 -36.1 61 -40.9 18.3 E 0.30 20.0 ENE -54.3 -36.2 -54.4 739.6 0.038 0.000 16.2 3 -29.2 12.8 0.83 .0741 23 1 100.0 1
08/07/23 10:14 -36.2 -36.1 -36.2 61 -41.0 18.3 E 0.30 19.1 ENE -54.4 -36.2 -54.5 739.6 0.038 0.000 16.2 3 -29.2 12.8 0.83 .0741 24 1 100.0 1
08/07/23 10:15 -36.2 -36.2 -36.2 60 -41.2 17.4 E 0.29 19.1 E -54.1 -36.2 -54.1 739.6 0.038 0.000 16.2 3 -29.2 12.8 0.83 .0741 23 1 100.0 1
08/07/23 10:16 -36.2 -36.2 -36.2 61 -41.0 18.3 E 0.30 20.0 E -54.4 -36.2 -54.5 739.6 0.038 0.000 16.2 3 -29.2 12.8 0.83 .0741 23 1 100.0 1
08/07/23 10:17 -36.2 -36.2 -36.2 60 -41.2 17.4 E 0.29 19.1 E -54.2 -36.3 -54.2 739.6 0.038 0.000 16.2 3 -29.2 12.8 0.83 .0741 24 1 100.0 1
08/07/23 10:18 -36.2 -36.2 -36.2 60 -41.2 19.1 E 0.32 20.9 E -54.8 -36.3 -54.9 739.6 0.038 0.000 16.2 3 -29.2 12.8 0.83 .0741 23 1 100.0 1
08/07/23 10:19 -36.2 -36.2 -36.2 61 -41.0 18.3 E 0.30 20.0 E -54.5 -36.3 -54.6 739.6 0.038 0.000 16.2 3 -29.2 12.8 0.83 .0741 24 1 100.0 1
08/07/23 10:20 -36.3 -36.3 -36.3 61 -41.1 17.4 E 0.29 19.1 E -54.2 -36.3 -54.3 739.6 0.038 0.000 16.2 3 -29.2 12.8 0.83 .0741 23 1 100.0 1
08/07/23 10:21 -36.3 -36.3 -36.3 61 -41.1 18.3 E 0.30 19.1 E -54.6 -36.3 -54.6 739.6 0.038 0.000 16.2 3 -29.2 12.8 0.83 .0741 23 1 100.0 1
08/07/23 10:22 -36.3 -36.3 -36.3 61 -41.1 18.3 E 0.30 20.0 E -54.6 -36.3 -54.6 739.5 0.038 0.000 16.2 3 -29.2 12.8 0.83 .0741 24 1 100.0 1
08/07/23 10:23 -36.3 -36.3 -36.3 61 -41.1 17.4 E 0.29 19.1 E -54.2 -36.3 -54.3 739.5 0.038 0.000 16.2 3 -29.2 12.8 0.83 .0741 23 1 100.0 1
08/07/23 10:24 -36.3 -36.3 -36.3 61 -41.2 18.3 E 0.30 20.0 E -54.6 -36.4 -54.7 739.5 0.038 0.000 16.2 3 -29.2 12.8 0.83 .0741 24 1 100.0 1
08/07/23 10:25 -36.3 -36.3 -36.3 60 -41.3 17.4 E 0.29 19.1 E -54.3 -36.4 -54.3 739.5 0.038 0.000 16.2 3 -29.2 12.8 0.83 .0741 23 1 100.0 1
08/07/23 10:26 -36.4 -36.3 -36.4 60 -41.4 18.3 E 0.30 20.0 E -54.7 -36.4 -54.8 739.5 0.038 0.000 16.2 3 -29.2 12.8 0.83 .0741 24 1 100.0 1
08/07/23 10:27 -36.3 -36.3 -36.3 60 -41.3 17.4 E 0.29 19.1 E -54.3 -36.4 -54.3 739.5 0.038 0.000 16.2 3 -29.2 12.8 0.83 .0741 23 1 100.0 1
08/07/23 10:28 -36.4 -36.3 -36.4 60 -41.4 17.4 E 0.29 19.1 E -54.3 -36.4 -54.4 739.5 0.038 0.000 16.1 3 -29.3 12.8 0.83 .0741 23 1 100.0 1
08/07/23 10:29 -36.4 -36.4 -36.4 60 -41.4 18.3 E 0.30 19.1 E -54.7 -36.4 -54.8 739.5 0.038 0.000 16.2 3 -29.2 12.8 0.83 .0741 24 1 100.0 1
08/07/23 10:30 -36.4 -36.4 -36.4 60 -41.4 18.3 ENE 0.30 19.1 ENE -54.7 -36.4 -54.8 739.5 0.038 0.000 16.2 3 -29.2 12.8 0.83 .0741 23 1 100.0 1
08/07/23 10:31 -36.4 -36.4 -36.4 60 -41.4 18.3 E 0.30 19.1 E -54.7 -36.4 -54.8 739.5 0.038 0.000 16.2 3 -29.2 12.8 0.83 .0741 24 1 100.0 1
08/07/23 10:32 -36.4 -36.4 -36.4 60 -41.4 18.3 E 0.30 19.1 E -54.7 -36.4 -54.8 739.5 0.038 0.000 16.1 3 -29.3 12.8 0.83 .0741 23 1 100.0 1
08/07/23 10:33 -36.4 -36.4 -36.4 60 -41.4 20.0 E 0.33 20.9 E -55.4 -36.5 -55.5 739.5 0.038 0.000 16.1 3 -29.3 12.8 0.83 .0741 23 1 100.0 1
08/07/23 10:34 -36.4 -36.4 -36.4 60 -41.4 19.1 E 0.32 20.0 ENE -55.1 -36.5 -55.2 739.5 0.038 0.000 16.1 3 -29.3 12.8 0.83 .0741 24 1 100.0 1
08/07/23 10:35 -36.4 -36.4 -36.4 60 -41.4 19.1 E 0.32 20.9 ENE -55.1 -36.5 -55.2 739.5 0.038 0.000 16.1 3 -29.3 12.8 0.83 .0741 23 1 100.0 1
08/07/23 10:36 -36.4 -36.4 -36.4 60 -41.4 19.1 ENE 0.32 20.9 E -55.1 -36.5 -55.2 739.5 0.038 0.000 16.1 3 -29.3 12.8 0.83 .0741 24 1 100.0 1
08/07/23 10:37 -36.4 -36.4 -36.4 60 -41.4 20.0 E 0.33 20.9 ENE -55.4 -36.5 -55.5 739.6 0.038 0.000 16.1 3 -29.3 12.8 0.83 .0741 23 1 100.0 1
08/07/23 10:38 -36.4 -36.4 -36.5 60 -41.4 20.0 E 0.33 21.7 E -55.4 -36.5 -55.5 739.5 0.038 0.000 16.1 3 -29.3 12.8 0.83 .0741 24 1 100.0 1
08/07/23 10:39 -36.4 -36.4 -36.4 60 -41.4 20.0 E 0.33 20.9 ENE -55.4 -36.5 -55.5 739.6 0.038 0.000 16.1 3 -29.3 12.8 0.83 .0741 23 1 100.0 1
08/07/23 10:40 -36.4 -36.4 -36.4 60 -41.4 20.9 E 0.35 21.7 E -55.8 -36.5 -55.8 739.5 0.038 0.000 16.1 3 -29.3 12.8 0.83 .0741 23 1 100.0 1
08/07/23 10:41 -36.4 -36.4 -36.4 60 -41.4 19.1 E 0.32 20.9 ENE -55.1 -36.5 -55.2 739.5 0.038 0.000 16.1 3 -29.3 12.8 0.83 .0741 24 1 100.0 1
08/07/23 10:42 -36.4 -36.4 -36.5 60 -41.4 19.1 E 0.32 21.7 E -55.1 -36.5 -55.2 739.5 0.038 0.000 16.1 3 -29.3 12.8 0.83 .0741 23 1 100.0 1
08/07/23 10:43 -36.5 -36.5 -36.5 60 -41.5 19.1 E 0.32 20.0 E -55.2 -36.6 -55.3 739.5 0.038 0.000 16.1 3 -29.3 12.8 0.83 .0741 24 1 100.0 1
08/07/23 10:44 -36.5 -36.5 -36.6 60 -41.5 19.1 E 0.32 20.9 E -55.2 -36.6 -55.3 739.6 0.038 0.000 16.1 3 -29.3 12.8 0.83 .0741 23 1 100.0 1
08/07/23 10:45 -36.5 -36.5 -36.6 60 -41.5 20.0 E 0.33 21.7 ENE -55.5 -36.6 -55.6 739.6 0.038 0.000 16.1 3 -29.3 12.8 0.83 .0741 23 1 100.0 1
08/07/23 10:46 -36.5 -36.5 -36.5 60 -41.5 19.1 E 0.32 20.9 ENE -55.2 -36.6 -55.3 739.6 0.038 0.000 16.1 3 -29.3 12.8 0.83 .0741 24 1 100.0 1
08/07/23 10:47 -36.5 -36.5 -36.5 60 -41.5 18.3 ENE 0.30 20.0 ENE -54.8 -36.6 -54.9 739.6 0.038 0.000 16.1 3 -29.3 12.8 0.83 .0742 23 1 100.0 1
08/07/23 10:48 -36.5 -36.5 -36.5 60 -41.5 20.9 E 0.35 22.6 E -55.8 -36.6 -55.9 739.6 0.038 0.000 16.1 3 -29.3 12.8 0.83 .0741 24 1 100.0 1
08/07/23 10:49 -36.5 -36.5 -36.5 60 -41.5 18.3 ENE 0.30 20.0 ENE -54.8 -36.6 -54.9 739.6 0.038 0.000 16.1 3 -29.3 12.8 0.83 .0741 23 1 100.0 1
08/07/23 10:50 -36.6 -36.5 -36.6 60 -41.5 19.1 ENE 0.32 20.0 ENE -55.3 -36.6 -55.3 739.6 0.038 0.000 16.1 3 -29.3 12.8 0.83 .0741 23 1 100.0 1
08/07/23 10:51 -36.6 -36.6 -36.6 60 -41.5 19.1 ENE 0.32 21.7 E -55.3 -36.6 -55.3 739.6 0.038 0.000 16.1 3 -29.3 12.8 0.83 .0741 24 1 100.0 1
08/07/23 10:52 -36.5 -36.5 -36.6 60 -41.5 19.1 E 0.32 21.7 E -55.2 -36.6 -55.3 739.5 0.038 0.000 16.1 3 -29.3 12.8 0.83 .0741 23 1 100.0 1
08/07/23 10:53 -36.5 -36.5 -36.5 60 -41.5 20.0 E 0.33 20.9 ENE -55.5 -36.6 -55.6 739.5 0.038 0.000 16.1 3 -29.3 12.8 0.83 .0741 24 1 100.0 1
08/07/23 10:54 -36.5 -36.5 -36.5 60 -41.5 19.1 E 0.32 20.9 E -55.2 -36.6 -55.3 739.5 0.038 0.000 16.1 3 -29.3 12.8 0.83 .0741 23 1 100.0 1
08/07/23 10:55 -36.5 -36.5 -36.5 61 -41.3 19.1 E 0.32 22.6 ENE -55.2 -36.6 -55.3 739.5 0.038 0.000 16.1 3 -29.3 12.8 0.83 .0741 24 1 100.0 1
08/07/23 10:56 -36.5 -36.5 -36.5 61 -41.3 19.1 E 0.32 20.9 E -55.2 -36.6 -55.3 739.5 0.038 0.000 16.1 3 -29.3 12.8 0.83 .0741 23 1 100.0 1
08/07/23 10:57 -36.5 -36.5 -36.5 61 -41.3 18.3 E 0.30 20.0 E -54.8 -36.6 -54.9 739.5 0.038 0.000 16.1 3 -29.3 12.8 0.83 .0741 23 1 100.0 1
08/07/23 10:58 -36.6 -36.5 -36.6 61 -41.4 19.1 E 0.32 21.7 ENE -55.3 -36.6 -55.3 739.6 0.038 0.000 16.1 3 -29.3 12.8 0.83 .0741 24 1 100.0 1
08/07/23 10:59 -36.6 -36.6 -36.6 61 -41.4 19.1 ENE 0.32 21.7 ENE -55.3 -36.6 -55.3 739.6 0.038 0.000 16.1 3 -29.3 12.8 0.83 .0741 23 1 100.0 1
08/07/23 11:00 -36.6 -36.6 -36.6 61 -41.4 18.3 E 0.30 20.0 ENE -54.9 -36.6 -55.0 739.7 0.038 0.000 16.1 3 -29.3 12.8 0.83 .0742 24 1 100.0 1
08/07/23 11:01 -36.6 -36.6 -36.6 61 -41.4 20.9 E 0.35 21.7 E -55.9 -36.6 -55.9 739.6 0.038 0.000 16.1 3 -29.3 12.8 0.83 .0741 23 1 100.0 1
08/07/23 11:02 -36.6 -36.6 -36.6 61 -41.4 18.3 ENE 0.30 20.9 ENE -54.9 -36.6 -55.0 739.7 0.038 0.000 16.1 3 -29.3 12.8 0.83 .0742 23 1 100.0 1
08/07/23 11:03 -36.6 -36.5 -36.6 61 -41.4 19.1 ENE 0.32 20.9 ENE -55.3 -36.6 -55.3 739.7 0.038 0.000 16.1 3 -29.3 12.8 0.83 .0742 24 1 100.0 1
08/07/23 11:04 -36.6 -36.5 -36.6 62 -41.2 20.0 E 0.33 21.7 E -55.6 -36.6 -55.7 739.6 0.038 0.000 16.1 3 -29.3 12.8 0.83 .0742 23 1 100.0 1
08/07/23 11:05 -36.6 -36.5 -36.6 61 -41.4 18.3 ENE 0.30 20.9 E -54.9 -36.6 -55.0 739.6 0.038 0.000 16.1 2 -33.5 12.7 0.53 .0742 24 1 100.0 1
08/07/23 11:06 -36.6 -36.6 -36.6 61 -41.4 19.1 ENE 0.32 20.9 E -55.3 -36.6 -55.3 739.7 0.038 0.000 16.1 3 -29.3 12.8 0.83 .0742 23 1 100.0 1
08/07/23 11:07 -36.6 -36.6 -36.6 61 -41.4 20.9 E 0.35 21.7 E -55.9 -36.6 -55.9 739.6 0.038 0.000 16.1 3 -29.3 12.8 0.83 .0741 23 1 100.0 1
08/07/23 11:08 -36.6 -36.6 -36.6 61 -41.4 20.0 ENE 0.33 20.9 ENE -55.6 -36.6 -55.7 739.7 0.038 0.000 16.1 2 -33.5 12.7 0.53 .0742 24 1 100.0 1
08/07/23 11:09 -36.6 -36.6 -36.6 61 -41.4 18.3 E 0.30 20.0 E -55.0 -36.7 -55.1 739.8 0.038 0.000 16.1 2 -33.5 12.7 0.53 .0742 23 1 100.0 1
08/07/23 11:10 -36.6 -36.6 -36.6 61 -41.4 20.0 E 0.33 22.6 E -55.6 -36.6 -55.7 739.7 0.038 0.000 16.1 2 -33.5 12.7 0.53 .0742 24 1 100.0 1
08/07/23 11:11 -36.6 -36.6 -36.6 61 -41.4 19.1 ENE 0.32 22.6 ENE -55.3 -36.7 -55.4 739.6 0.038 0.000 16.1 2 -33.5 12.7 0.53 .0742 23 1 100.0 1
08/07/23 11:12 -36.6 -36.6 -36.6 61 -41.4 17.4 ENE 0.29 19.1 ENE -54.7 -36.7 -54.7 739.8 0.038 0.000 16.1 2 -33.5 12.7 0.53 .0742 24 1 100.0 1
08/07/23 11:13 -36.7 -36.7 -36.7 61 -41.5 18.3 ENE 0.30 20.0 E -55.1 -36.7 -55.1 739.7 0.038 0.000 16.0 2 -33.6 12.7 0.53 .0742 23 1 100.0 1
08/07/23 11:14 -36.7 -36.7 -36.7 61 -41.5 20.0 E 0.33 22.6 E -55.7 -36.7 -55.8 739.6 0.038 0.000 16.1 2 -33.5 12.7 0.53 .0742 23 1 100.0 1
08/07/23 11:15 -36.6 -36.6 -36.7 61 -41.4 19.1 ENE 0.32 21.7 E -55.3 -36.7 -55.4 739.7 0.038 0.000 16.1 2 -33.5 12.7 0.53 .0742 24 1 100.0 1
08/07/23 11:16 -36.7 -36.6 -36.7 61 -41.5 17.4 ENE 0.29 18.3 ENE -54.7 -36.7 -54.8 739.8 0.038 0.000 16.0 2 -33.6 12.7 0.53 .0742 23 1 100.0 1
08/07/23 11:17 -36.7 -36.7 -36.7 61 -41.5 17.4 ENE 0.29 19.1 E -54.7 -36.7 -54.8 739.8 0.038 0.000 16.0 2 -33.6 12.7 0.53 .0742 24 1 100.0 1
08/07/23 11:18 -36.7 -36.7 -36.7 61 -41.5 18.3 E 0.30 20.0 E -55.1 -36.7 -55.1 739.8 0.038 0.000 16.0 2 -33.6 12.7 0.53 .0742 23 1 100.0 1
08/07/23 11:19 -36.7 -36.7 -36.7 61 -41.5 19.1 E 0.32 20.0 E -55.4 -36.7 -55.4 739.7 0.038 0.000 16.0 2 -33.6 12.7 0.53 .0742 23 1 100.0 1
08/07/23 11:20 -36.7 -36.7 -36.7 61 -41.5 18.3 ENE 0.30 20.0 ENE -55.1 -36.7 -55.1 739.8 0.038 0.000 16.0 2 -33.6 12.7 0.53 .0742 24 1 100.0 1
08/07/23 11:21 -36.7 -36.7 -36.7 61 -41.5 18.3 ENE 0.30 19.1 ENE -55.1 -36.7 -55.1 739.8 0.038 0.000 16.0 2 -33.6 12.7 0.53 .0742 23 1 100.0 1
08/07/23 11:22 -36.7 -36.7 -36.7 60 -41.6 16.5 ENE 0.28 18.3 E -54.3 -36.7 -54.4 739.9 0.038 0.000 16.0 2 -33.6 12.7 0.53 .0742 24 1 100.0 1
08/07/23 11:23 -36.7 -36.7 -36.7 60 -41.7 18.3 ENE 0.30 20.0 ENE -55.2 -36.8 -55.2 739.9 0.038 0.000 16.0 2 -33.6 12.7 0.53 .0742 23 1 100.0 1
08/07/23 11:24 -36.7 -36.7 -36.7 60 -41.7 17.4 ENE 0.29 19.1 ENE -54.8 -36.8 -54.8 739.8 0.038 0.000 16.0 2 -33.6 12.7 0.53 .0742 24 1 100.0 1
08/07/23 11:25 -36.8 -36.7 -36.8 60 -41.7 17.4 E 0.29 21.7 E -54.9 -36.8 -54.9 739.8 0.038 0.000 16.0 2 -33.6 12.7 0.53 .0742 23 1 100.0 1
08/07/23 11:26 -36.8 -36.7 -36.8 60 -41.7 20.9 E 0.35 21.7 E -56.2 -36.8 -56.3 739.7 0.038 0.000 16.0 2 -33.6 12.7 0.53 .0742 23 1 100.0 1
08/07/23 11:27 -36.8 -36.7 -36.8 60 -41.7 18.3 E 0.30 20.0 E -55.2 -36.8 -55.3 739.8 0.038 0.000 16.0 2 -33.6 12.7 0.53 .0742 24 1 100.0 1
08/07/23 11:28 -36.8 -36.8 -36.8 60 -41.7 18.3 ENE 0.30 20.9 ENE -55.2 -36.8 -55.3 739.8 0.038 0.000 16.0 2 -33.6 12.7 0.53 .0742 23 1 100.0 1
08/07/23 11:29 -36.8 -36.8 -36.8 60 -41.8 18.3 E 0.30 20.0 E -55.3 -36.9 -55.3 739.8 0.038 0.000 16.0 2 -33.6 12.7 0.53 .0742 24 1 100.0 1
08/07/23 11:30 -36.8 -36.8 -36.8 60 -41.8 18.3 E 0.30 20.0 E -55.3 -36.9 -55.3 739.7 0.038 0.000 16.0 2 -33.6 12.7 0.53 .0742 23 1 100.0 1
08/07/23 11:31 -36.8 -36.8 -36.8 60 -41.8 17.4 E 0.29 19.1 E -54.9 -36.9 -55.0 739.9 0.038 0.000 16.0 2 -33.6 12.7 0.53 .0742 23 1 100.0 1
08/07/23 11:32 -36.9 -36.8 -36.9 60 -41.8 18.3 E 0.30 20.0 E -55.4 -36.9 -55.4 739.8 0.038 0.000 16.0 2 -33.6 12.7 0.53 .0742 24 1 100.0 1
08/07/23 11:33 -36.9 -36.9 -36.9 60 -41.8 18.3 E 0.30 19.1 E -55.4 -36.9 -55.4 739.8 0.038 0.000 16.0 2 -33.6 12.7 0.53 .0742 23 1 100.0 1
08/07/23 11:34 -36.9 -36.9 -36.9 60 -41.9 17.4 E 0.29 19.1 E -55.1 -37.0 -55.2 739.8 0.038 0.000 15.9 2 -33.6 12.6 0.54 .0742 24 1 100.0 1
08/07/23 11:35 -36.9 -36.9 -36.9 60 -41.9 20.0 E 0.33 21.7 E -56.1 -37.0 -56.2 739.8 0.038 0.000 16.0 2 -33.6 12.7 0.53 .0742 23 1 100.0 1
08/07/23 11:36 -36.9 -36.9 -36.9 60 -41.9 16.5 E 0.28 18.3 E -54.7 -37.0 -54.8 739.9 0.038 0.000 15.9 2 -33.6 12.6 0.54 .0742 23 1 100.0 1
08/07/23 11:37 -36.9 -36.9 -36.9 60 -41.9 19.1 E 0.32 21.7 E -55.8 -37.0 -55.8 739.8 0.038 0.000 15.9 2 -33.6 12.6 0.54 .0742 24 1 100.0 1
08/07/23 11:38 -36.9 -36.9 -37.0 60 -41.9 19.1 E 0.32 20.9 E -55.8 -37.0 -55.8 739.7 0.038 0.000 15.9 2 -33.6 12.6 0.54 .0742 23 1 100.0 1
08/07/23 11:39 -36.9 -36.9 -37.0 61 -41.7 19.1 E 0.32 21.7 E -55.8 -37.0 -55.8 739.8 0.038 0.000 15.9 2 -33.6 12.6 0.54 .0742 24 1 100.0 1
08/07/23 11:40 -36.9 -36.9 -36.9 61 -41.7 20.0 E 0.33 21.7 E -56.1 -37.0 -56.2 739.7 0.038 0.000 15.9 2 -33.6 12.6 0.54 .0742 23 1 100.0 1
08/07/23 11:41 -36.9 -36.9 -36.9 61 -41.7 20.0 E 0.33 20.9 E -56.1 -37.0 -56.2 739.8 0.038 0.000 15.9 2 -33.6 12.6 0.54 .0742 24 1 100.0 1
08/07/23 11:42 -36.9 -36.9 -36.9 61 -41.7 20.9 E 0.35 22.6 E -56.4 -37.0 -56.5 739.7 0.038 0.000 15.9 2 -33.6 12.6 0.54 .0742 23 1 100.0 1
08/07/23 11:43 -36.9 -36.9 -37.0 61 -41.7 20.9 E 0.35 22.6 E -56.4 -37.0 -56.5 739.7 0.038 0.000 15.9 2 -33.6 12.6 0.54 .0742 23 1 100.0 1
08/07/23 11:44 -36.9 -36.9 -36.9 61 -41.7 20.0 E 0.33 22.6 E -56.1 -37.0 -56.2 739.7 0.038 0.000 15.9 2 -33.6 12.6 0.54 .0742 24 1 100.0 1
08/07/23 11:45 -36.9 -36.9 -36.9 61 -41.7 20.9 E 0.35 24.3 E -56.4 -37.0 -56.5 739.7 0.038 0.000 15.9 2 -33.6 12.6 0.54 .0742 23 1 100.0 1
08/07/23 11:46 -36.9 -36.9 -36.9 61 -41.7 20.9 E 0.35 23.5 E -56.4 -37.0 -56.5 739.7 0.038 0.000 15.9 2 -33.6 12.6 0.54 .0742 24 1 100.0 1
08/07/23 11:47 -36.9 -36.9 -36.9 61 -41.7 20.9 E 0.35 24.3 E -56.4 -37.0 -56.5 739.8 0.038 0.000 15.9 2 -33.6 12.6 0.54 .0742 23 1 100.0 1
08/07/23 11:48 -37.0 -37.0 -37.0 61 -41.8 21.7 E 0.36 22.6 E -56.8 -37.1 -56.9 739.7 0.038 0.000 15.9 2 -33.6 12.6 0.54 .0742 23 1 100.0 1
08/07/23 11:49 -37.0 -37.0 -37.0 61 -41.8 20.0 E 0.33 22.6 E -56.2 -37.1 -56.2 739.8 0.038 0.000 15.9 2 -33.6 12.6 0.54 .0742 24 1 100.0 1
08/07/23 11:50 -37.0 -37.0 -37.0 61 -41.8 20.9 E 0.35 22.6 E -56.5 -37.1 -56.6 739.7 0.038 0.000 15.9 2 -33.6 12.6 0.54 .0742 23 1 100.0 1
08/07/23 11:51 -37.0 -37.0 -37.1 61 -41.8 21.7 E 0.36 23.5 E -56.8 -37.1 -56.9 739.7 0.038 0.000 15.9 2 -33.6 12.6 0.54 .0742 24 1 100.0 1
08/07/23 11:52 -37.0 -37.0 -37.1 61 -41.8 19.1 E 0.32 22.6 E -55.8 -37.1 -55.9 739.7 0.038 0.000 15.9 2 -33.6 12.6 0.54 .0742 23 1 100.0 1
08/07/23 11:53 -37.0 -37.0 -37.1 61 -41.8 21.7 E 0.36 25.2 E -56.8 -37.1 -56.9 739.8 0.038 0.000 15.9 2 -33.6 12.6 0.54 .0742 23 1 100.0 1
08/07/23 11:54 -37.0 -37.0 -37.0 61 -41.8 20.9 E 0.35 23.5 E -56.5 -37.1 -56.6 739.6 0.038 0.000 15.9 2 -33.6 12.6 0.54 .0742 24 1 100.0 1
08/07/23 11:55 -37.0 -37.0 -37.0 61 -41.8 20.9 E 0.35 25.2 E -56.5 -37.1 -56.6 739.8 0.038 0.000 15.9 2 -33.6 12.6 0.54 .0742 23 1 100.0 1
08/07/23 11:56 -37.0 -37.0 -37.0 61 -41.8 20.9 E 0.35 22.6 E -56.5 -37.1 -56.6 739.7 0.038 0.000 15.9 2 -33.6 12.6 0.54 .0742 24 1 100.0 1
08/07/23 11:57 -37.0 -37.0 -37.1 61 -41.8 16.5 E 0.28 19.1 E -54.8 -37.1 -54.8 739.7 0.038 0.000 15.9 2 -33.6 12.6 0.54 .0742 23 1 100.0 1
08/07/23 11:58 -37.1 -37.1 -37.1 61 -41.8 21.7 E 0.36 24.3 E -56.9 -37.1 -56.9 739.7 0.038 0.000 15.9 2 -33.6 12.6 0.54 .0742 24 1 100.0 1
08/07/23 11:59 -37.1 -37.1 -37.1 61 -41.8 19.1 E 0.32 21.7 E -55.9 -37.1 -56.0 739.7 0.038 0.000 15.9 2 -33.6 12.6 0.54 .0742 23 1 100.0 1
08/07/23 12:00 -37.1 -37.1 -37.1 61 -41.9 20.0 E 0.33 21.7 E -56.3 -37.2 -56.4 739.8 0.039 0.000 15.9 2 -33.6 12.6 0.54 .0742 23 1 100.0 1
08/07/23 12:01 -37.1 -37.1 -37.1 61 -41.9 20.9 E 0.35 23.5 E -56.7 -37.2 -56.7 739.7 0.039 0.000 15.9 2 -33.6 12.6 0.54 .0742 24 1 100.0 1
08/07/23 12:02 -37.1 -37.1 -37.1 61 -41.8 20.9 E 0.35 23.5 E -56.6 -37.1 -56.6 739.7 0.038 0.000 15.9 2 -33.6 12.6 0.54 .0742 23 1 100.0 1
08/07/23 12:03 -37.1 -37.1 -37.1 61 -41.8 19.1 E 0.32 24.3 E -55.9 -37.1 -56.0 739.8 0.038 0.000 15.9 2 -33.6 12.6 0.54 .0742 24 1 100.0 1
08/07/23 12:04 -37.0 -37.0 -37.1 61 -41.8 20.9 E 0.35 23.5 E -56.5 -37.1 -56.6 739.7 0.038 0.000 15.9 2 -33.7 12.6 0.54 .0742 23 1 100.0 1
08/07/23 12:05 -37.0 -37.0 -37.0 61 -41.8 18.3 E 0.30 20.0 E -55.5 -37.1 -55.6 739.8 0.038 0.000 15.9 2 -33.7 12.6 0.54 .0742 24 1 100.0 1
08/07/23 12:06 -37.0 -37.0 -37.0 61 -41.8 21.7 E 0.36 23.5 E -56.8 -37.1 -56.9 739.8 0.038 0.000 15.9 2 -33.7 12.6 0.54 .0742 23 1 100.0 1
08/07/23 12:07 -37.0 -37.0 -37.1 61 -41.8 20.0 E 0.33 22.6 E -56.2 -37.1 -56.2 739.7 0.038 0.000 15.9 2 -33.7 12.6 0.54 .0742 23 1 100.0 1
08/07/23 12:08 -37.1 -37.1 -37.1 61 -41.8 20.9 E 0.35 26.1 E -56.6 -37.1 -56.6 739.9 0.038 0.000 15.9 2 -33.7 12.6 0.54 .0742 24 1 100.0 1
08/07/23 12:09 -37.1 -37.0 -37.1 61 -41.8 20.9 E 0.35 25.2 E -56.6 -37.1 -56.6 739.7 0.038 0.000 15.9 2 -33.7 12.6 0.54 .0742 23 1 100.0 1
08/07/23 12:10 -37.1 -37.0 -37.1 61 -41.8 16.5 E 0.28 26.1 E -54.9 -37.1 -54.9 739.9 0.038 0.000 15.9 2 -33.7 12.6 0.54 .0742 24 1 100.0 1
08/07/23 12:11 -37.1 -37.1 -37.1 61 -41.8 20.0 E 0.33 22.6 E -56.3 -37.1 -56.3 739.8 0.038 0.000 15.9 2 -33.7 12.6 0.54 .0742 23 1 100.0 1
08/07/23 12:12 -37.1 -37.1 -37.1 61 -41.8 20.0 E 0.33 22.6 E -56.3 -37.1 -56.3 739.8 0.038 0.000 15.8 2 -33.7 12.6 0.54 .0742 23 1 100.0 1
08/07/23 12:13 -37.1 -37.1 -37.1 61 -41.9 18.3 E 0.30 20.9 E -55.7 -37.2 -55.7 739.9 0.039 0.000 15.8 2 -33.7 12.6 0.54 .0742 24 1 100.0 1
08/07/23 12:14 -37.1 -37.1 -37.1 61 -41.9 19.1 E 0.32 20.9 E -56.0 -37.2 -56.1 739.8 0.039 0.000 15.8 2 -33.7 12.6 0.54 .0742 23 1 100.0 1
08/07/23 12:15 -37.1 -37.1 -37.1 61 -41.9 17.4 E 0.29 19.1 E -55.3 -37.2 -55.3 739.8 0.039 0.000 15.8 2 -33.7 12.6 0.54 .0742 24 1 100.0 1
08/07/23 12:16 -37.1 -37.1 -37.1 61 -41.9 19.1 E 0.32 20.9 E -56.0 -37.2 -56.1 739.8 0.039 0.000 15.8 2 -33.7 12.6 0.54 .0742 23 1 100.0 1
08/07/23 12:17 -37.2 -37.1 -37.2 62 -41.8 18.3 E 0.30 20.9 E -55.7 -37.2 -55.8 739.7 0.039 0.000 15.8 2 -33.7 12.6 0.54 .0742 23 1 100.0 1
08/07/23 12:18 -37.1 -37.1 -37.2 62 -41.7 20.9 E 0.35 23.5 E -56.7 -37.2 -56.7 739.7 0.039 0.000 15.8 2 -33.7 12.6 0.54 .0742 24 1 100.0 1
08/07/23 12:19 -37.1 -37.1 -37.1 62 -41.7 19.1 E 0.32 22.6 E -55.9 -37.1 -56.0 739.7 0.038 0.000 15.8 2 -33.7 12.6 0.54 .0742 23 1 100.0 1
08/07/23 12:20 -37.0 -37.0 -37.0 62 -41.6 18.3 E 0.30 20.9 E -55.5 -37.1 -55.6 739.8 0.038 0.000 15.8 2 -33.7 12.6 0.54 .0742 24 1 100.0 1
08/07/23 12:21 -37.1 -37.0 -37.1 62 -41.7 20.0 E 0.33 22.6 E -56.3 -37.1 -56.3 739.7 0.038 0.000 15.8 2 -33.7 12.6 0.54 .0742 23 1 100.0 1
08/07/23 12:22 -37.1 -37.1 -37.1 62 -41.7 17.4 E 0.29 20.0 E -55.3 -37.2 -55.3 739.7 0.039 0.000 15.8 2 -33.7 12.6 0.54 .0742 23 1 100.0 1
08/07/23 12:23 -37.2 -37.1 -37.2 62 -41.8 20.0 E 0.33 22.6 E -56.4 -37.2 -56.4 739.7 0.039 0.000 15.8 2 -33.7 12.6 0.54 .0742 24 1 100.0 1
08/07/23 12:24 -37.2 -37.2 -37.2 62 -41.8 20.0 E 0.33 22.6 E -56.5 -37.2 -56.5 739.6 0.039 0.000 15.8 2 -33.7 12.6 0.54 .0742 23 1 100.0 1
08/07/23 12:25 -37.2 -37.2 -37.2 62 -41.8 19.1 E 0.32 21.7 E -56.2 -37.2 -56.2 739.7 0.039 0.000 15.8 2 -33.7 12.5 0.54 .0742 24 1 100.0 1
08/07/23 12:26 -37.2 -37.2 -37.2 62 -41.8 20.9 E 0.35 22.6 E -56.8 -37.2 -56.8 739.6 0.039 0.000 15.8 2 -33.7 12.5 0.54 .0742 23 1 100.0 1
08/07/23 12:27 -37.2 -37.2 -37.2 62 -41.8 20.0 E 0.33 21.7 E -56.5 -37.2 -56.5 739.6 0.039 0.000 15.8 2 -33.7 12.5 0.54 .0742 24 1 100.0 1
08/07/23 12:28 -37.2 -37.2 -37.2 62 -41.8 21.7 E 0.36 23.5 E -57.1 -37.2 -57.1 739.6 0.039 0.000 15.8 2 -33.7 12.5 0.54 .0742 23 1 100.0 1
08/07/23 12:29 -37.2 -37.2 -37.3 62 -41.8 20.9 E 0.35 22.6 E -56.8 -37.2 -56.8 739.7 0.039 0.000 15.8 2 -33.7 12.5 0.54 .0742 23 1 100.0 1
08/07/23 12:30 -37.2 -37.2 -37.3 62 -41.8 20.0 E 0.33 21.7 E -56.5 -37.2 -56.5 739.6 0.039 0.000 15.8 2 -33.7 12.5 0.54 .0742 24 1 100.0 1
08/07/23 12:31 -37.3 -37.2 -37.3 62 -41.9 20.9 E 0.35 23.5 E -56.9 -37.3 -56.9 739.6 0.039 0.000 15.8 2 -33.7 12.5 0.54 .0742 23 1 100.0 1
08/07/23 12:32 -37.3 -37.3 -37.3 62 -41.9 20.9 E 0.35 22.6 E -56.9 -37.3 -56.9 739.5 0.039 0.000 15.8 2 -33.7 12.5 0.54 .0742 24 1 100.0 1
08/07/23 12:33 -37.3 -37.3 -37.3 62 -42.0 20.0 E 0.33 23.5 E -56.6 -37.3 -56.6 739.6 0.039 0.000 15.8 2 -33.7 12.5 0.54 .0742 23 1 100.0 1
08/07/23 12:34 -37.3 -37.3 -37.3 62 -42.0 19.1 E 0.32 22.6 E -56.3 -37.3 -56.3 739.7 0.039 0.000 15.8 2 -33.7 12.5 0.54 .0742 23 1 100.0 1
08/07/23 12:35 -37.3 -37.3 -37.3 62 -42.0 23.5 E 0.39 25.2 E -57.8 -37.3 -57.8 739.5 0.039 0.000 15.8 2 -33.7 12.5 0.54 .0742 24 1 100.0 1
08/07/23 12:36 -37.3 -37.3 -37.3 62 -42.0 19.1 E 0.32 22.6 E -56.3 -37.3 -56.3 739.6 0.039 0.000 15.8 2 -33.7 12.5 0.54 .0742 23 1 100.0 1
08/07/23 12:37 -37.4 -37.4 -37.4 62 -42.1 20.9 E 0.35 25.2 E -57.1 -37.4 -57.1 739.7 0.039 0.000 15.8 2 -33.7 12.5 0.54 .0742 24 1 100.0 1
08/07/23 12:38 -37.4 -37.4 -37.4 62 -42.1 21.7 E 0.36 25.2 E -57.4 -37.4 -57.4 739.5 0.039 0.000 15.8 2 -33.7 12.5 0.54 .0742 23 1 100.0 1
08/07/23 12:39 -37.4 -37.4 -37.4 62 -42.1 18.3 E 0.30 22.6 E -56.1 -37.4 -56.1 739.6 0.039 0.000 15.8 2 -33.7 12.5 0.54 .0742 23 1 100.0 1
08/07/23 12:40 -37.4 -37.4 -37.4 62 -42.1 22.6 E 0.38 25.2 E -57.7 -37.4 -57.7 739.5 0.039 0.000 15.8 2 -33.7 12.5 0.54 .0742 24 1 100.0 1
08/07/23 12:41 -37.4 -37.4 -37.4 62 -42.1 21.7 E 0.36 23.5 E -57.4 -37.4 -57.4 739.5 0.039 0.000 15.8 2 -33.7 12.5 0.54 .0742 23 1 100.0 1
08/07/23 12:42 -37.5 -37.4 -37.5 62 -42.1 20.0 E 0.33 24.3 E -56.8 -37.5 -56.8 739.5 0.039 0.000 15.8 2 -33.7 12.5 0.54 .0742 24 1 100.0 1
08/07/23 12:43 -37.4 -37.4 -37.4 62 -42.1 23.5 E 0.39 26.1 E -58.0 -37.4 -58.0 739.4 0.039 0.000 15.8 2 -33.7 12.5 0.54 .0742 23 1 100.0 1
08/07/23 12:44 -37.4 -37.4 -37.4 62 -42.1 20.9 E 0.35 22.6 E -57.1 -37.4 -57.1 739.5 0.039 0.000 15.8 2 -33.7 12.5 0.54 .0742 24 1 100.0 1
08/07/23 12:45 -37.5 -37.4 -37.5 62 -42.1 20.0 E 0.33 25.2 E -56.8 -37.5 -56.8 739.6 0.039 0.000 15.8 2 -33.7 12.5 0.54 .0742 23 1 100.0 1
08/07/23 12:46 -37.5 -37.5 -37.5 62 -42.1 24.3 E 0.41 25.2 E -58.3 -37.5 -58.3 739.4 0.039 0.000 15.8 2 -33.7 12.5 0.54 .0742 23 1 100.0 1
08/07/23 12:47 -37.5 -37.5 -37.5 62 -42.1 20.9 E 0.35 22.6 E -57.2 -37.5 -57.2 739.5 0.039 0.000 15.8 2 -33.7 12.5 0.54 .0742 24 1 100.0 1
08/07/23 12:48 -37.5 -37.5 -37.5 62 -42.1 23.5 E 0.39 26.1 E -58.1 -37.5 -58.1 739.5 0.039 0.000 15.8 2 -33.7 12.5 0.54 .0742 23 1 100.0 1
08/07/23 12:49 -37.4 -37.4 -37.5 62 -42.1 21.7 E 0.36 24.3 E -57.4 -37.4 -57.4 739.4 0.039 0.000 15.8 2 -33.7 12.5 0.54 .0742 24 1 100.0 1
08/07/23 12:50 -37.4 -37.4 -37.4 62 -42.1 22.6 E 0.38 25.2 E -57.7 -37.4 -57.7 739.5 0.039 0.000 15.7 2 -33.8 12.4 0.54 .0742 23 1 100.0 1
08/07/23 12:51 -37.6 -37.5 -37.6 62 -42.2 20.9 E 0.35 23.5 E -57.2 -37.6 -57.2 739.5 0.039 0.000 15.7 2 -33.8 12.4 0.54 .0742 23 1 100.0 1
08/07/23 12:52 -37.6 -37.6 -37.6 62 -42.2 20.0 E 0.33 25.2 E -56.9 -37.6 -56.9 739.6 0.039 0.000 15.8 2 -33.7 12.5 0.54 .0742 24 1 100.0 1
08/07/23 12:53 -37.6 -37.6 -37.6 62 -42.2 21.7 E 0.36 24.3 E -57.6 -37.6 -57.6 739.4 0.039 0.000 15.7 2 -33.8 12.4 0.54 .0742 23 1 100.0 1
08/07/23 12:54 -37.6 -37.6 -37.6 62 -42.2 23.5 E 0.39 26.1 E -58.1 -37.6 -58.1 739.5 0.039 0.000 15.7 2 -33.8 12.4 0.54 .0742 24 1 100.0 1
08/07/23 12:55 -37.6 -37.6 -37.6 62 -42.2 19.1 E 0.32 22.6 E -56.6 -37.6 -56.6 739.6 0.039 0.000 15.7 2 -33.8 12.4 0.54 .0742 23 1 100.0 1
08/07/23 12:56 -37.6 -37.6 -37.6 62 -42.2 20.9 E 0.35 23.5 E -57.2 -37.6 -57.2 739.5 0.039 0.000 15.7 2 -33.8 12.4 0.54 .0742 24 1 100.0 1
08/07/23 12:57 -37.6 -37.6 -37.6 62 -42.2 24.3 E 0.41 28.7 E -58.5 -37.6 -58.5 739.5 0.039 0.000 15.7 2 -33.8 12.4 0.54 .0742 23 1 100.0 1
08/07/23 12:58 -37.6 -37.6 -37.6 62 -42.2 21.7 E 0.36 27.0 E -57.6 -37.6 -57.6 739.4 0.039 0.000 15.7 2 -33.8 12.4 0.54 .0742 23 1 100.0 1
08/07/23 12:59 -37.7 -37.6 -37.7 62 -42.3 15.7 E 0.26 28.7 E -55.3 -37.7 -55.3 739.7 0.039 0.000 15.7 2 -33.8 12.4 0.54 .0743 24 1 100.0 1
08/07/23 13:00 -37.6 -37.6 -37.7 62 -42.2 23.5 E 0.39 27.8 E -58.2 -37.6 -58.2 739.5 0.039 0.000 15.7 2 -33.8 12.4 0.54 .0742 23 1 100.0 1
08/07/23 13:01 -37.6 -37.6 -37.7 62 -42.2 21.7 E 0.36 24.3 E -57.6 -37.6 -57.6 739.6 0.039 0.000 15.7 2 -33.8 12.4 0.54 .0742 24 1 100.0 1
08/07/23 13:02 -37.6 -37.6 -37.6 62 -42.2 24.3 E 0.41 27.0 E -58.4 -37.6 -58.4 739.4 0.039 0.000 15.7 2 -33.8 12.4 0.54 .0742 23 1 100.0 1
08/07/23 13:03 -37.6 -37.6 -37.6 63 -42.0 20.9 E 0.35 22.6 E -57.2 -37.6 -57.2 739.6 0.039 0.000 15.7 2 -33.8 12.4 0.54 .0742 23 1 100.0 1
08/07/23 13:04 -37.6 -37.6 -37.6 62 -42.2 16.5 ESE 0.28 23.5 E -55.5 -37.6 -55.5 739.6 0.039 0.000 15.7 2 -33.8 12.4 0.54 .0743 24 1 100.0 1
08/07/23 13:05 -37.6 -37.6 -37.6 62 -42.2 25.2 E 0.42 27.8 E -58.7 -37.6 -58.7 739.4 0.039 0.000 15.7 2 -33.8 12.4 0.54 .0742 23 1 100.0 1
08/07/23 13:06 -37.6 -37.6 -37.6 63 -42.0 24.3 E 0.41 27.0 E -58.4 -37.6 -58.4 739.3 0.039 0.000 15.7 2 -33.8 12.4 0.54 .0742 24 1 100.0 1
08/07/23 13:07 -37.6 -37.6 -37.6 63 -42.1 20.0 E 0.33 21.7 E -57.0 -37.6 -57.0 739.6 0.039 0.000 15.7 2 -33.8 12.4 0.54 .0743 23 1 100.0 1
08/07/23 13:08 -37.7 -37.6 -37.7 63 -42.1 22.6 E 0.38 24.3 E -58.0 -37.7 -58.0 739.5 0.039 0.000 15.7 2 -33.8 12.4 0.54 .0742 23 1 100.0 1
08/07/23 13:09 -37.7 -37.7 -37.7 62 -42.3 21.7 E 0.36 23.5 E -57.8 -37.7 -57.7 739.5 0.039 0.000 15.7 2 -33.8 12.4 0.54 .0742 24 1 100.0 1
08/07/23 13:10 -37.7 -37.7 -37.7 62 -42.3 21.7 E 0.36 23.5 E -57.8 -37.7 -57.7 739.5 0.039 0.000 15.7 2 -33.8 12.4 0.54 .0742 23 1 100.0 1
08/07/23 13:11 -37.7 -37.7 -37.7 62 -42.3 21.7 E 0.36 25.2 E -57.8 -37.7 -57.7 739.5 0.039 0.000 15.7 2 -33.8 12.4 0.54 .0742 24 1 100.0 1
08/07/23 13:12 -37.7 -37.7 -37.7 63 -42.2 23.5 E 0.39 25.2 E -58.4 -37.7 -58.4 739.4 0.039 0.000 15.7 2 -33.8 12.4 0.55 .0742 23 1 100.0 1
08/07/23 13:13 -37.7 -37.7 -37.7 63 -42.2 23.5 E 0.39 25.2 E -58.4 -37.7 -58.4 739.4 0.039 0.000 15.7 2 -33.8 12.4 0.54 .0742 24 1 100.0 1
08/07/23 13:14 -37.7 -37.7 -37.7 63 -42.2 19.1 E 0.32 22.6 ESE -56.8 -37.7 -56.8 739.6 0.039 0.000 15.7 2 -33.8 12.4 0.55 .0743 23 1 100.0 1
08/07/23 13:15 -37.7 -37.7 -37.7 63 -42.2 22.6 E 0.38 26.1 E -58.1 -37.7 -58.1 739.5 0.039 0.000 15.7 2 -33.8 12.4 0.54 .0742 23 1 100.0 1
08/07/23 13:16 -37.7 -37.7 -37.7 63 -42.2 25.2 E 0.42 27.0 ESE -58.9 -37.7 -58.9 739.4 0.039 0.000 15.7 2 -33.8 12.4 0.55 .0742 24 1 100.0 1
08/07/23 13:17 -37.7 -37.7 -37.7 63 -42.2 22.6 E 0.38 27.0 E -58.1 -37.7 -58.1 739.4 0.039 0.000 15.7 2 -33.8 12.4 0.55 .0742 23 1 100.0 1
08/07/23 13:18 -37.7 -37.7 -37.7 63 -42.2 14.8 E 0.25 17.4 ESE -54.9 -37.7 -54.9 739.7 0.039 0.000 15.7 2 -33.8 12.4 0.54 .0743 24 1 100.0 1
08/07/23 13:19 -37.8 -37.7 -37.8 63 -42.2 23.5 E 0.39 27.8 E -58.4 -37.8 -58.4 739.6 0.039 0.000 15.7 2 -33.8 12.4 0.55 .0743 23 1 100.0 1
08/07/23 13:20 -37.7 -37.7 -37.8 63 -42.2 27.0 E 0.45 28.7 E -59.4 -37.7 -59.4 739.3 0.039 0.000 15.7 2 -33.8 12.4 0.54 .0742 23 1 100.0 1
08/07/23 13:21 -37.7 -37.7 -37.7 63 -42.2 25.2 E 0.42 27.8 E -58.9 -37.7 -58.9 739.3 0.039 0.000 15.7 2 -33.8 12.4 0.54 .0742 24 1 100.0 1
08/07/23 13:22 -37.7 -37.7 -37.7 63 -42.2 18.3 ESE 0.30 21.7 ESE -56.4 -37.7 -56.4 739.6 0.039 0.000 15.7 2 -33.8 12.4 0.54 .0742 23 1 100.0 1
08/07/23 13:23 -37.8 -37.8 -37.8 63 -42.3 16.5 ESE 0.28 20.9 ESE -55.9 -37.8 -55.9 739.6 0.039 0.000 15.7 2 -33.8 12.4 0.55 .0743 24 1 100.0 1
08/07/23 13:24 -37.9 -37.9 -37.9 63 -42.4 21.7 E 0.36 27.0 E -58.1 -37.9 -58.1 739.5 0.039 0.000 15.7 2 -33.8 12.4 0.54 .0742 23 1 100.0 1
08/07/23 13:25 -37.8 -37.8 -37.9 63 -42.2 27.0 E 0.45 27.8 E -59.5 -37.8 -59.5 739.3 0.039 0.000 15.7 2 -33.8 12.4 0.54 .0742 23 1 100.0 1
08/07/23 13:26 -37.7 -37.7 -37.8 63 -42.1 27.0 E 0.45 28.7 ESE -59.4 -37.7 -59.4 739.4 0.039 0.000 15.7 2 -33.8 12.4 0.54 .0742 24 1 100.0 1
08/07/23 13:27 -37.7 -37.6 -37.7 63 -42.1 24.3 ESE 0.41 26.1 ESE -58.6 -37.7 -58.6 739.4 0.039 0.000 15.7 2 -33.8 12.4 0.54 .0742 23 1 100.0 1
08/07/23 13:28 -37.7 -37.7 -37.7 63 -42.2 23.5 ESE 0.39 24.3 ESE -58.4 -37.7 -58.4 739.5 0.039 0.000 15.7 2 -33.8 12.4 0.54 .0742 24 1 100.0 1
08/07/23 13:29 -37.9 -37.8 -37.9 63 -42.4 21.7 ESE 0.36 24.3 E -58.1 -37.9 -58.1 739.6 0.039 0.000 15.7 2 -33.8 12.4 0.54 .0742 23 1 100.0 1
08/07/23 13:30 -38.1 -37.9 -38.1 63 -42.5 22.6 E 0.38 24.3 E -58.5 -38.1 -58.5 739.5 0.039 0.000 15.7 2 -33.8 12.4 0.54 .0742 24 1 100.0 1
08/07/23 13:31 -38.1 -38.1 -38.1 63 -42.5 24.3 E 0.41 27.0 E -59.2 -38.1 -59.2 739.4 0.039 0.000 15.7 2 -33.8 12.4 0.54 .0742 23 1 100.0 1
08/07/23 13:32 -38.1 -38.1 -38.1 63 -42.5 27.0 E 0.45 28.7 E -59.9 -38.1 -59.9 739.4 0.039 0.000 15.7 2 -33.8 12.4 0.54 .0742 23 1 100.0 1
08/07/23 13:33 -38.2 -38.1 -38.2 63 -42.6 26.1 E 0.43 27.8 E -59.8 -38.2 -59.8 739.4 0.039 0.000 15.7 2 -33.8 12.4 0.54 .0742 24 1 100.0 1
08/07/23 13:34 -38.3 -38.2 -38.3 63 -42.7 23.5 E 0.39 25.2 E -59.1 -38.3 -59.1 739.5 0.039 0.000 15.7 2 -33.8 12.4 0.54 .0742 23 1 100.0 1
08/07/23 13:35 -38.4 -38.3 -38.4 63 -42.8 25.2 E 0.42 27.0 E -59.8 -38.4 -59.8 739.4 0.039 0.000 15.7 2 -33.8 12.4 0.54 .0742 24 1 100.0 1
08/07/23 13:36 -38.4 -38.4 -38.4 63 -42.8 23.5 E 0.39 27.0 E -59.3 -38.4 -59.3 739.5 0.039 0.000 15.7 2 -33.8 12.4 0.54 .0742 23 1 100.0 1
08/07/23 13:37 -38.4 -38.3 -38.4 63 -42.8 24.3 E 0.41 26.1 E -59.6 -38.4 -59.6 739.5 0.039 0.000 15.7 2 -33.8 12.4 0.54 .0742 23 1 100.0 1
08/07/23 13:38 -38.3 -38.3 -38.4 64 -42.6 27.0 E 0.45 28.7 E -60.2 -38.3 -60.2 739.4 0.039 0.000 15.7 2 -33.8 12.4 0.54 .0742 24 1 100.0 1
08/07/23 13:39 -38.3 -38.3 -38.3 64 -42.6 25.2 E 0.42 27.8 E -59.7 -38.3 -59.7 739.4 0.039 0.000 15.7 2 -33.8 12.4 0.54 .0742 23 1 100.0 1
08/07/23 13:40 -38.4 -38.3 -38.4 64 -42.7 24.3 E 0.41 27.0 E -59.6 -38.4 -59.6 739.5 0.039 0.000 15.7 2 -33.8 12.4 0.54 .0742 24 1 100.0 1
08/07/23 13:41 -38.4 -38.4 -38.4 64 -42.7 26.1 E 0.43 27.8 E -60.2 -38.4 -60.2 739.4 0.039 0.000 15.7 2 -33.8 12.4 0.54 .0742 23 1 100.0 1
08/07/23 13:42 -38.4 -38.4 -38.4 64 -42.7 25.2 E 0.42 27.0 E -59.9 -38.4 -59.9 739.4 0.039 0.000 15.7 2 -33.8 12.4 0.54 .0742 24 1 100.0 1
08/07/23 13:43 -38.4 -38.4 -38.4 64 -42.7 23.5 E 0.39 26.1 E -59.3 -38.4 -59.3 739.5 0.039 0.000 15.7 2 -33.8 12.4 0.54 .0742 23 1 100.0 1
08/07/23 13:44 -38.5 -38.4 -38.5 64 -42.8 25.2 E 0.42 27.0 E -59.9 -38.5 -59.9 739.5 0.039 0.000 15.7 2 -33.8 12.4 0.54 .0742 23 1 100.0 1
08/07/23 13:45 -38.5 -38.5 -38.5 64 -42.8 25.2 E 0.42 27.0 E -59.9 -38.5 -59.9 739.5 0.039 0.000 15.7 2 -33.8 12.4 0.54 .0742 24 1 100.0 1
08/07/23 13:46 -38.5 -38.5 -38.5 64 -42.8 23.5 E 0.39 26.1 E -59.4 -38.5 -59.4 739.6 0.039 0.000 15.7 2 -33.8 12.4 0.54 .0742 23 1 100.0 1
08/07/23 13:47 -38.5 -38.5 -38.5 64 -42.8 25.2 E 0.42 27.0 E -59.9 -38.5 -59.9 739.4 0.039 0.000 15.7 2 -33.8 12.4 0.54 .0742 24 1 100.0 1
08/07/23 13:48 -38.6 -38.5 -38.6 64 -42.8 24.3 E 0.41 26.1 E -59.8 -38.6 -59.8 739.5 0.040 0.000 15.7 2 -33.8 12.4 0.54 .0742 23 1 100.0 1
08/07/23 13:49 -38.6 -38.6 -38.6 64 -42.9 23.5 E 0.39 24.3 ESE -59.6 -38.6 -59.6 739.5 0.040 0.000 15.7 2 -33.8 12.4 0.54 .0742 23 1 100.0 1
08/07/23 13:50 -38.7 -38.6 -38.7 65 -42.8 24.3 E 0.41 26.1 E -59.9 -38.7 -59.9 739.5 0.040 0.000 15.7 2 -33.8 12.4 0.54 .0742 24 1 100.0 1
08/07/23 13:51 -38.7 -38.7 -38.7 65 -42.8 24.3 E 0.41 25.2 E -60.0 -38.7 -60.0 739.5 0.040 0.000 15.7 2 -33.8 12.4 0.54 .0742 23 1 100.0 1
08/07/23 13:52 -38.7 -38.7 -38.7 65 -42.8 24.3 E 0.41 26.1 E -60.0 -38.7 -60.0 739.6 0.040 0.000 15.7 2 -33.8 12.4 0.54 .0742 24 1 100.0 1
08/07/23 13:53 -38.7 -38.7 -38.7 65 -42.8 24.3 E 0.41 27.0 E -60.0 -38.7 -60.0 739.4 0.040 0.000 15.7 2 -33.8 12.4 0.54 .0742 23 1 100.0 1
08/07/23 13:54 -38.7 -38.7 -38.7 65 -42.8 25.2 E 0.42 27.0 E -60.3 -38.7 -60.3 739.5 0.040 0.000 15.7 2 -33.8 12.4 0.54 .0742 23 1 100.0 1
08/07/23 13:55 -38.7 -38.7 -38.7 65 -42.8 24.3 E 0.41 26.1 E -59.9 -38.7 -59.9 739.5 0.040 0.000 15.7 2 -33.8 12.4 0.54 .0742 24 1 100.0 1
08/07/23 13:56 -38.6 -38.6 -38.6 65 -42.7 26.1 E 0.43 27.0 E -60.4 -38.6 -60.4 739.5 0.040 0.000 15.7 2 -33.8 12.4 0.55 .0742 23 1 100.0 1
08/07/23 13:57 -38.7 -38.6 -38.7 65 -42.8 23.5 E 0.39 26.1 E -59.6 -38.7 -59.6 739.5 0.040 0.000 15.7 2 -33.8 12.4 0.55 .0743 24 1 100.0 1
08/07/23 13:58 -38.7 -38.7 -38.7 65 -42.8 25.2 E 0.42 27.0 E -60.3 -38.7 -60.3 739.4 0.040 0.000 15.7 2 -33.8 12.4 0.55 .0742 23 1 100.0 1
08/07/23 13:59 -38.8 -38.7 -38.8 65 -42.9 24.3 E 0.41 26.1 E -60.1 -38.8 -60.1 739.5 0.040 0.000 15.7 2 -33.8 12.4 0.55 .0742 24 1 100.0 1
08/07/23 14:00 -38.8 -38.8 -38.8 65 -42.9 24.3 E 0.41 26.1 E -60.1 -38.8 -60.1 739.5 0.040 0.000 15.7 2 -33.8 12.4 0.55 .0742 23 1 100.0 1
08/07/23 14:01 -38.7 -38.7 -38.8 65 -42.8 26.1 E 0.43 27.8 E -60.6 -38.7 -60.6 739.5 0.040 0.000 15.7 2 -33.8 12.4 0.55 .0742 23 1 100.0 1
08/07/23 14:02 -38.7 -38.7 -38.7 65 -42.8 25.2 E 0.42 27.0 E -60.3 -38.7 -60.3 739.4 0.040 0.000 15.7 2 -33.8 12.4 0.55 .0742 24 1 100.0 1
08/07/23 14:03 -38.7 -38.7 -38.8 65 -42.8 26.1 E 0.43 27.8 E -60.6 -38.7 -60.6 739.5 0.040 0.000 15.7 2 -33.8 12.4 0.55 .0742 23 1 100.0 1
08/07/23 14:04 -38.8 -38.7 -38.8 65 -42.9 26.1 E 0.43 27.0 E -60.6 -38.8 -60.6 739.4 0.040 0.000 15.7 2 -33.8 12.4 0.55 .0742 24 1 100.0 1
08/07/23 14:05 -38.7 -38.7 -38.7 65 -42.8 26.1 E 0.43 27.0 E -60.6 -38.7 -60.6 739.4 0.040 0.000 15.7 2 -33.8 12.4 0.55 .0742 23 1 100.0 1
08/07/23 14:06 -38.6 -38.6 -38.7 66 -42.6 25.2 E 0.42 27.0 E -60.1 -38.6 -60.1 739.4 0.040 0.000 15.7 2 -33.8 12.4 0.55 .0742 23 1 100.0 1
08/07/23 14:07 -38.5 -38.5 -38.6 66 -42.5 26.1 E 0.43 29.6 E -60.2 -38.5 -60.2 739.4 0.039 0.000 15.7 2 -33.8 12.4 0.55 .0742 24 1 100.0 1
08/07/23 14:08 -38.4 -38.4 -38.5 66 -42.4 27.0 E 0.45 29.6 E -60.4 -38.4 -60.4 739.2 0.039 0.000 15.7 2 -33.8 12.4 0.55 .0742 23 1 100.0 1
08/07/23 14:09 -38.3 -38.3 -38.4 66 -42.3 26.1 E 0.43 29.6 E -60.0 -38.3 -60.0 739.3 0.039 0.000 15.6 2 -33.8 12.3 0.55 .0742 24 1 100.0 1
08/07/23 14:10 -38.2 -38.2 -38.3 66 -42.2 27.0 E 0.45 28.7 E -60.1 -38.2 -60.1 739.2 0.039 0.000 15.6 2 -33.8 12.3 0.55 .0742 23 1 100.0 1
08/07/23 14:11 -38.2 -38.2 -38.2 66 -42.2 26.1 E 0.43 27.8 E -59.8 -38.2 -59.8 739.3 0.039 0.000 15.6 2 -33.8 12.3 0.55 .0742 23 1 100.0 1
08/07/23 14:12 -38.2 -38.2 -38.2 66 -42.2 27.0 E 0.45 28.7 E -60.1 -38.2 -60.1 739.4 0.039 0.000 15.6 2 -33.8 12.3 0.55 .0743 24 1 100.0 1
08/07/23 14:13 -38.2 -38.2 -38.3 66 -42.2 27.8 E 0.46 29.6 E -60.4 -38.2 -60.4 739.2 0.039 0.000 15.6 2 -33.8 12.3 0.55 .0742 23 1 100.0 1
08/07/23 14:14 -38.2 -38.2 -38.2 66 -42.2 26.1 E 0.43 28.7 E -59.8 -38.2 -59.8 739.5 0.039 0.000 15.6 2 -33.8 12.3 0.55 .0743 24 1 100.0 1
08/07/23 14:15 -38.2 -38.2 -38.3 66 -42.2 27.0 E 0.45 28.7 E -60.1 -38.2 -60.1 739.3 0.039 0.000 15.6 2 -33.8 12.3 0.55 .0742 23 1 100.0 1
08/07/23 14:16 -38.2 -38.2 -38.2 66 -42.2 26.1 E 0.43 29.6 E -59.8 -38.2 -59.8 739.5 0.039 0.000 15.6 2 -33.8 12.3 0.55 .0743 24 1 100.0 1
08/07/23 14:17 -38.2 -38.2 -38.2 66 -42.2 26.1 E 0.43 28.7 E -59.8 -38.2 -59.8 739.3 0.039 0.000 15.6 2 -33.8 12.3 0.55 .0742 23 1 100.0 1
08/07/23 14:18 -38.2 -38.2 -38.2 66 -42.2 27.0 E 0.45 30.4 E -60.1 -38.2 -60.1 739.2 0.039 0.000 15.6 2 -33.8 12.3 0.55 .0742 23 1 100.0 1
08/07/23 14:19 -38.2 -38.2 -38.2 66 -42.2 26.1 E 0.43 30.4 E -59.8 -38.2 -59.8 739.5 0.039 0.000 15.6 2 -33.8 12.3 0.55 .0743 24 1 100.0 1
08/07/23 14:20 -38.2 -38.2 -38.2 66 -42.2 26.1 E 0.43 29.6 E -59.8 -38.2 -59.8 739.2 0.039 0.000 15.6 2 -33.8 12.3 0.55 .0742 23 1 100.0 1
08/07/23 14:21 -38.2 -38.2 -38.2 66 -42.2 26.1 E 0.43 27.8 E -59.8 -38.2 -59.8 739.3 0.039 0.000 15.6 2 -33.9 12.3 0.55 .0743 24 1 100.0 1
08/07/23 14:22 -38.3 -38.2 -38.3 66 -42.3 26.1 E 0.43 28.7 E -59.9 -38.3 -59.9 739.4 0.039 0.000 15.6 2 -33.9 12.3 0.55 .0743 23 1 100.0 1
08/07/23 14:23 -38.3 -38.2 -38.3 66 -42.3 23.5 E 0.39 27.8 E -59.1 -38.3 -59.1 739.4 0.039 0.000 15.6 2 -33.9 12.3 0.55 .0743 23 1 100.0 1
08/07/23 14:24 -38.2 -38.2 -38.3 66 -42.2 27.8 E 0.46 29.6 E -60.4 -38.2 -60.4 739.2 0.039 0.000 15.6 2 -33.9 12.3 0.55 .0743 24 1 100.0 1
08/07/23 14:25 -38.2 -38.2 -38.2 66 -42.2 22.6 E 0.38 29.6 E -58.7 -38.2 -58.7 739.5 0.039 0.000 15.6 2 -33.9 12.3 0.55 .0743 23 1 100.0 1
08/07/23 14:26 -38.2 -38.2 -38.2 66 -42.2 26.1 E 0.43 30.4 E -59.8 -38.2 -59.8 739.1 0.039 0.000 15.6 2 -33.9 12.3 0.55 .0742 24 1 100.0 1
08/07/23 14:27 -38.2 -38.2 -38.2 67 -42.1 23.5 E 0.39 33.0 E -59.1 -38.2 -59.1 739.6 0.039 0.000 15.6 2 -33.9 12.3 0.55 .0743 23 1 100.0 1
08/07/23 14:28 -38.2 -38.2 -38.2 67 -42.1 27.0 E 0.45 33.0 E -60.1 -38.2 -60.1 739.6 0.039 0.000 15.6 2 -33.9 12.3 0.55 .0743 24 1 100.0 1
08/07/23 14:29 -38.2 -38.2 -38.2 67 -42.1 21.7 E 0.36 24.3 E -58.4 -38.2 -58.4 739.6 0.039 0.000 15.6 2 -33.9 12.3 0.55 .0743 23 1 100.0 1
08/07/23 14:30 -38.2 -38.2 -38.3 67 -42.1 29.6 E 0.49 32.2 E -60.8 -38.2 -60.8 739.3 0.039 0.000 15.6 2 -33.9 12.3 0.55 .0743 23 1 100.0 1
08/07/23 14:31 -38.3 -38.2 -38.3 67 -42.1 27.0 E 0.45 28.7 E -60.2 -38.3 -60.2 739.3 0.039 0.000 15.5 2 -33.9 12.3 0.55 .0743 24 1 100.0 1
08/07/23 14:32 -38.3 -38.3 -38.3 67 -42.1 23.5 E 0.39 27.8 E -59.1 -38.3 -59.1 739.4 0.039 0.000 15.5 2 -33.9 12.3 0.55 .0743 23 1 100.0 1
08/07/23 14:33 -38.2 -38.2 -38.3 67 -42.1 28.7 E 0.48 31.3 E -60.6 -38.2 -60.6 739.2 0.039 0.000 15.5 2 -33.9 12.3 0.55 .0743 24 1 100.0 1
08/07/23 14:34 -38.2 -38.2 -38.2 67 -42.0 25.2 E 0.42 31.3 E -59.5 -38.2 -59.5 739.4 0.039 0.000 15.5 2 -33.9 12.3 0.55 .0743 23 1 100.0 1
08/07/23 14:35 -38.1 -38.1 -38.2 67 -42.0 29.6 E 0.49 32.2 E -60.7 -38.1 -60.7 739.1 0.039 0.000 15.5 2 -33.9 12.3 0.55 .0743 23 1 100.0 1
08/07/23 14:36 -38.1 -38.1 -38.1 67 -41.9 24.3 E 0.41 27.0 E -59.1 -38.1 -59.1 739.4 0.039 0.000 15.5 2 -33.9 12.3 0.55 .0743 24 1 100.0 1
08/07/23 14:37 -38.0 -38.0 -38.1 67 -41.9 27.8 E 0.46 31.3 E -60.1 -38.0 -60.1 739.4 0.039 0.000 15.5 2 -33.9 12.3 0.55 .0743 23 1 100.0 1
08/07/23 14:38 -37.9 -37.9 -38.0 67 -41.8 27.0 E 0.45 30.4 E -59.7 -37.9 -59.7 739.3 0.039 0.000 15.5 2 -33.9 12.3 0.55 .0743 24 1 100.0 1
08/07/23 14:39 -37.9 -37.9 -37.9 67 -41.8 24.3 E 0.41 27.8 E -58.9 -37.9 -58.9 739.4 0.039 0.000 15.5 2 -33.9 12.3 0.55 .0743 23 1 100.0 1
08/07/23 14:40 -37.9 -37.9 -37.9 67 -41.8 27.8 E 0.46 29.6 E -60.0 -37.9 -60.0 739.3 0.039 0.000 15.4 2 -33.9 12.2 0.55 .0743 23 1 100.0 1
08/07/23 14:41 -38.0 -37.9 -38.0 67 -41.9 26.1 E 0.43 27.8 E -59.6 -38.0 -59.6 739.4 0.039 0.000 15.5 2 -33.9 12.3 0.55 .0743 24 1 100.0 1
08/07/23 14:42 -38.1 -38.0 -38.1 67 -41.9 26.1 E 0.43 27.8 E -59.6 -38.1 -59.6 739.4 0.039 0.000 15.4 2 -33.9 12.2 0.55 .0743 23 1 100.0 1
08/07/23 14:43 -38.2 -38.1 -38.2 67 -42.0 25.2 E 0.42 27.8 E -59.5 -38.2 -59.5 739.3 0.039 0.000 15.4 2 -33.9 12.2 0.55 .0743 24 1 100.0 1
08/07/23 14:44 -38.2 -38.2 -38.2 67 -42.0 27.0 E 0.45 27.8 E -60.1 -38.2 -60.1 739.3 0.039 0.000 15.4 2 -33.9 12.2 0.55 .0743 23 1 100.0 1
08/07/23 14:45 -38.1 -38.1 -38.2 67 -42.0 26.1 E 0.43 27.8 E -59.7 -38.1 -59.7 739.3 0.039 0.000 15.4 2 -33.9 12.2 0.55 .0743 24 1 100.0 1
08/07/23 14:46 -38.1 -38.1 -38.1 67 -41.9 26.1 E 0.43 28.7 E -59.6 -38.1 -59.6 739.3 0.039 0.000 15.4 2 -33.9 12.2 0.55 .0743 23 1 100.0 1
08/07/23 14:47 -38.0 -38.0 -38.1 67 -41.9 24.3 E 0.41 27.8 E -59.0 -38.0 -59.0 739.4 0.039 0.000 15.4 2 -33.9 12.2 0.55 .0743 23 1 100.0 1
08/07/23 14:48 -37.9 -37.9 -37.9 67 -41.8 26.1 E 0.43 27.8 E -59.5 -37.9 -59.5 739.2 0.039 0.000 15.4 2 -33.9 12.2 0.55 .0743 24 1 100.0 1
08/07/23 14:49 -38.0 -37.9 -38.0 67 -41.9 25.2 E 0.42 27.0 E -59.3 -38.0 -59.3 739.3 0.039 0.000 15.4 2 -33.9 12.2 0.55 .0743 23 1 100.0 1
08/07/23 14:50 -38.1 -38.0 -38.1 67 -41.9 25.2 E 0.42 26.1 E -59.4 -38.1 -59.4 739.3 0.039 0.000 15.4 2 -33.9 12.2 0.55 .0743 24 1 100.0 1
08/07/23 14:51 -38.2 -38.1 -38.2 67 -42.0 25.2 E 0.42 27.0 E -59.5 -38.2 -59.5 739.3 0.039 0.000 15.4 2 -33.9 12.2 0.55 .0743 23 1 100.0 1
08/07/23 14:52 -38.2 -38.2 -38.2 67 -42.0 25.2 E 0.42 27.8 E -59.5 -38.2 -59.5 739.2 0.039 0.000 15.4 2 -33.9 12.2 0.55 .0743 23 1 100.0 1
08/07/23 14:53 -38.2 -38.2 -38.2 67 -42.1 26.1 E 0.43 28.7 E -59.8 -38.2 -59.8 739.4 0.039 0.000 15.4 2 -34.0 12.2 0.55 .0743 24 1 100.0 1
08/07/23 14:54 -38.2 -38.2 -38.2 67 -42.1 24.3 E 0.41 27.8 E -59.3 -38.2 -59.3 739.2 0.039 0.000 15.4 2 -34.0 12.2 0.55 .0743 23 1 100.0 1
08/07/23 14:55 -38.2 -38.2 -38.2 67 -42.1 25.2 E 0.42 27.0 E -59.6 -38.2 -59.6 739.3 0.039 0.000 15.4 2 -34.0 12.2 0.55 .0743 24 1 100.0 1
08/07/23 14:56 -38.2 -38.2 -38.2 67 -42.1 23.5 E 0.39 26.1 E -59.1 -38.2 -59.1 739.4 0.039 0.000 15.4 2 -34.0 12.2 0.55 .0743 23 1 100.0 1
08/07/23 14:57 -38.2 -38.2 -38.2 67 -42.1 24.3 E 0.41 26.1 E -59.3 -38.2 -59.3 739.2 0.039 0.000 15.4 2 -34.0 12.2 0.55 .0743 23 1 100.0 1
08/07/23 14:58 -38.2 -38.2 -38.2 67 -42.1 26.1 E 0.43 27.8 E -59.8 -38.2 -59.8 739.3 0.039 0.000 15.4 2 -34.0 12.2 0.55 .0743 24 1 100.0 1
08/07/23 14:59 -38.3 -38.2 -38.3 67 -42.1 24.3 E 0.41 25.2 E -59.4 -38.3 -59.4 739.4 0.039 0.000 15.4 2 -34.0 12.2 0.55 .0743 23 1 100.0 1
08/07/23 15:00 -38.3 -38.2 -38.3 67 -42.1 24.3 E 0.41 27.0 E -59.4 -38.3 -59.4 739.4 0.039 0.000 15.4 2 -34.0 12.2 0.55 .0743 24 1 100.0 1
08/07/23 15:01 -38.3 -38.3 -38.3 67 -42.2 25.2 E 0.42 27.8 E -59.7 -38.3 -59.7 739.3 0.039 0.000 15.4 2 -34.0 12.2 0.55 .0743 23 1 100.0 1
08/07/23 15:02 -38.3 -38.3 -38.3 67 -42.2 22.6 E 0.38 24.3 E -58.9 -38.3 -58.9 739.6 0.039 0.000 15.4 2 -34.0 12.2 0.55 .0743 24 1 100.0 1
08/07/23 15:03 -38.4 -38.3 -38.4 67 -42.3 25.2 E 0.42 27.8 E -59.9 -38.4 -59.9 739.5 0.039 0.000 15.4 2 -34.0 12.2 0.55 .0743 23 1 100.0 1
08/07/23 15:04 -38.4 -38.4 -38.4 67 -42.2 23.5 E 0.39 26.1 E -59.3 -38.4 -59.3 739.5 0.039 0.000 15.3 2 -34.0 12.1 0.55 .0743 23 1 100.0 1
08/07/23 15:05 -38.4 -38.4 -38.4 67 -42.3 24.3 E 0.41 26.1 E -59.6 -38.4 -59.6 739.6 0.039 0.000 15.3 2 -34.0 12.1 0.55 .0743 24 1 100.0 1
08/07/23 15:06 -38.4 -38.4 -38.4 67 -42.2 23.5 E 0.39 26.1 E -59.3 -38.4 -59.3 739.6 0.039 0.000 15.3 2 -34.0 12.1 0.55 .0743 23 1 100.0 1
08/07/23 15:07 -38.3 -38.3 -38.4 67 -42.2 24.3 E 0.41 26.1 E -59.4 -38.3 -59.4 739.6 0.039 0.000 15.3 2 -34.0 12.1 0.55 .0743 24 1 100.0 1
08/07/23 15:08 -38.4 -38.4 -38.4 67 -42.2 23.5 E 0.39 26.1 E -59.3 -38.4 -59.3 739.6 0.039 0.000 15.3 2 -34.0 12.1 0.55 .0743 23 1 100.0 1
08/07/23 15:09 -38.4 -38.4 -38.4 67 -42.3 22.6 E 0.38 24.3 E -59.1 -38.4 -59.1 739.7 0.039 0.000 15.3 2 -34.0 12.1 0.55 .0744 23 1 100.0 1
08/07/23 15:10 -38.5 -38.4 -38.5 67 -42.3 22.6 E 0.38 24.3 E -59.1 -38.5 -59.1 739.6 0.039 0.000 15.3 2 -34.0 12.1 0.55 .0744 24 1 100.0 1
08/07/23 15:11 -38.5 -38.5 -38.5 67 -42.3 23.5 E 0.39 24.3 E -59.4 -38.5 -59.4 739.6 0.039 0.000 15.3 2 -34.0 12.1 0.55 .0743 23 1 100.0 1
08/07/23 15:12 -38.5 -38.5 -38.5 67 -42.3 23.5 E 0.39 24.3 E -59.4 -38.5 -59.4 739.6 0.039 0.000 15.3 2 -34.0 12.1 0.55 .0743 24 1 100.0 1
08/07/23 15:13 -38.5 -38.5 -38.5 67 -42.3 23.5 E 0.39 24.3 E -59.4 -38.5 -59.4 739.6 0.039 0.000 15.3 2 -34.0 12.1 0.55 .0743 23 1 100.0 1
08/07/23 15:14 -38.5 -38.5 -38.5 67 -42.3 23.5 E 0.39 25.2 E -59.4 -38.5 -59.4 739.5 0.039 0.000 15.3 2 -34.0 12.1 0.55 .0743 24 1 100.0 1
08/07/23 15:15 -38.6 -38.6 -38.6 67 -42.4 22.6 E 0.38 24.3 E -59.2 -38.6 -59.2 739.6 0.040 0.000 15.3 2 -34.0 12.1 0.55 .0743 23 1 100.0 1
08/07/23 15:16 -38.7 -38.6 -38.7 67 -42.5 23.5 E 0.39 24.3 E -59.6 -38.7 -59.6 739.5 0.040 0.000 15.3 2 -34.1 12.1 0.55 .0744 23 1 100.0 1
08/07/23 15:17 -38.7 -38.7 -38.7 67 -42.6 23.5 E 0.39 24.3 E -59.7 -38.7 -59.7 739.5 0.040 0.000 15.3 2 -34.1 12.1 0.55 .0744 24 1 100.0 1
08/07/23 15:18 -38.7 -38.7 -38.7 67 -42.6 22.6 E 0.38 24.3 E -59.4 -38.7 -59.4 739.5 0.040 0.000 15.3 2 -34.1 12.1 0.55 .0744 23 1 100.0 1
08/07/23 15:19 -38.8 -38.7 -38.8 67 -42.6 23.5 E 0.39 25.2 E -59.8 -38.8 -59.8 739.5 0.040 0.000 15.3 2 -34.1 12.1 0.55 .0744 24 1 100.0 1
08/07/23 15:20 -38.8 -38.7 -38.8 67 -42.6 23.5 E 0.39 24.3 E -59.8 -38.8 -59.8 739.5 0.040 0.000 15.3 2 -34.1 12.1 0.55 .0743 23 1 100.0 1
08/07/23 15:21 -38.8 -38.8 -38.8 67 -42.6 24.3 E 0.41 25.2 E -60.1 -38.8 -60.1 739.5 0.040 0.000 15.3 2 -34.1 12.1 0.55 .0744 23 1 100.0 1
08/07/23 15:22 -38.8 -38.8 -38.8 67 -42.6 23.5 E 0.39 24.3 E -59.8 -38.8 -59.8 739.6 0.040 0.000 15.3 2 -34.1 12.1 0.55 .0744 24 1 100.0 1
08/07/23 15:23 -38.8 -38.8 -38.8 67 -42.6 22.6 E 0.38 23.5 E -59.5 -38.8 -59.5 739.5 0.040 0.000 15.3 2 -34.1 12.1 0.55 .0744 23 1 100.0 1
08/07/23 15:24 -38.8 -38.8 -38.8 67 -42.7 22.6 E 0.38 24.3 E -59.6 -38.8 -59.6 739.5 0.040 0.000 15.3 2 -34.1 12.1 0.55 .0744 24 1 100.0 1
08/07/23 15:25 -38.8 -38.8 -38.8 67 -42.7 22.6 E 0.38 24.3 E -59.6 -38.8 -59.6 739.5 0.040 0.000 15.3 2 -34.1 12.1 0.55 .0743 23 1 100.0 1
08/07/23 15:26 -38.8 -38.8 -38.8 68 -42.5 23.5 E 0.39 25.2 E -59.8 -38.8 -59.8 739.5 0.040 0.000 15.3 2 -34.1 12.1 0.55 .0744 23 1 100.0 1
08/07/23 15:27 -38.8 -38.8 -38.8 68 -42.5 25.2 E 0.42 26.1 E -60.4 -38.8 -60.4 739.5 0.040 0.000 15.2 2 -34.1 12.1 0.55 .0744 24 1 100.0 1
08/07/23 15:28 -38.9 -38.9 -38.9 68 -42.6 24.3 E 0.41 25.2 ESE -60.3 -38.9 -60.3 739.5 0.040 0.000 15.2 2 -34.1 12.1 0.55 .0744 23 1 100.0 1
08/07/23 15:29 -38.9 -38.9 -38.9 68 -42.6 23.5 E 0.39 24.3 E -60.0 -38.9 -60.0 739.6 0.040 0.000 15.2 2 -34.1 12.1 0.55 .0744 24 1 100.0 1
08/07/23 15:30 -39.0 -38.9 -39.0 68 -42.7 24.3 E 0.41 25.2 E -60.4 -39.0 -60.4 739.5 0.040 0.000 15.2 2 -34.1 12.1 0.55 .0744 23 1 100.0 1
08/07/23 15:31 -39.1 -39.0 -39.1 68 -42.7 24.3 E 0.41 26.1 E -60.4 -39.1 -60.4 739.6 0.040 0.000 15.2 2 -34.1 12.1 0.55 .0744 24 1 100.0 1
08/07/23 15:32 -39.1 -39.1 -39.1 68 -42.8 24.3 E 0.41 25.2 E -60.5 -39.1 -60.5 739.6 0.040 0.000 15.2 2 -34.1 12.1 0.55 .0744 23 1 100.0 1
08/07/23 15:33 -39.1 -39.1 -39.1 68 -42.7 24.3 E 0.41 26.1 E -60.4 -39.1 -60.4 739.6 0.040 0.000 15.2 2 -34.1 12.1 0.55 .0744 23 1 100.0 1
08/07/23 15:34 -39.1 -39.1 -39.1 68 -42.8 23.5 E 0.39 25.2 E -60.2 -39.1 -60.2 739.6 0.040 0.000 15.2 2 -34.1 12.1 0.55 .0744 24 1 100.0 1
08/07/23 15:35 -39.1 -39.1 -39.1 68 -42.8 23.5 E 0.39 25.2 E -60.2 -39.1 -60.2 739.6 0.040 0.000 15.2 2 -34.1 12.1 0.55 .0744 23 1 100.0 1
08/07/23 15:36 -39.1 -39.1 -39.1 68 -42.8 23.5 E 0.39 24.3 E -60.2 -39.1 -60.2 739.7 0.040 0.000 15.2 2 -34.1 12.1 0.55 .0744 24 1 100.0 1
08/07/23 15:37 -39.1 -39.1 -39.1 68 -42.8 24.3 E 0.41 25.2 E -60.5 -39.1 -60.5 739.6 0.040 0.000 15.2 2 -34.1 12.1 0.55 .0744 23 1 100.0 1
08/07/23 15:38 -39.1 -39.1 -39.1 68 -42.8 22.6 E 0.38 25.2 E -59.9 -39.1 -59.9 739.6 0.040 0.000 15.2 2 -34.1 12.0 0.55 .0744 23 1 100.0 1
08/07/23 15:39 -39.1 -39.1 -39.1 68 -42.8 23.5 E 0.39 26.1 E -60.2 -39.1 -60.2 739.6 0.040 0.000 15.2 2 -34.1 12.0 0.55 .0744 24 1 100.0 1
08/07/23 15:40 -39.2 -39.1 -39.2 68 -42.8 24.3 E 0.41 26.1 E -60.6 -39.2 -60.6 739.6 0.040 0.000 15.2 2 -34.1 12.0 0.55 .0744 23 1 100.0 1
08/07/23 15:41 -39.2 -39.1 -39.2 68 -42.8 22.6 E 0.38 25.2 E -60.0 -39.2 -60.0 739.6 0.040 0.000 15.2 2 -34.1 12.0 0.55 .0744 24 1 100.0 1
08/07/23 15:42 -39.2 -39.2 -39.2 68 -42.8 23.5 E 0.39 24.3 E -60.3 -39.2 -60.3 739.6 0.040 0.000 15.2 2 -34.1 12.0 0.55 .0744 23 1 100.0 1
08/07/23 15:43 -39.2 -39.2 -39.2 68 -42.8 23.5 E 0.39 24.3 E -60.3 -39.2 -60.3 739.6 0.040 0.000 15.2 2 -34.1 12.0 0.55 .0744 23 1 100.0 1
08/07/23 15:44 -39.2 -39.2 -39.2 68 -42.8 23.5 E 0.39 25.2 E -60.3 -39.2 -60.3 739.6 0.040 0.000 15.2 2 -34.1 12.0 0.55 .0744 24 1 100.0 1
08/07/23 15:45 -39.1 -39.1 -39.2 68 -42.8 22.6 E 0.38 24.3 E -59.9 -39.1 -59.9 739.6 0.040 0.000 15.2 2 -34.1 12.0 0.55 .0744 23 1 100.0 1
08/07/23 15:46 -39.1 -39.1 -39.1 68 -42.7 22.6 E 0.38 25.2 E -59.8 -39.1 -59.8 739.5 0.040 0.000 15.2 2 -34.1 12.0 0.55 .0744 24 1 100.0 1
08/07/23 15:47 -39.1 -39.1 -39.1 68 -42.7 23.5 E 0.39 25.2 E -60.2 -39.1 -60.2 739.6 0.040 0.000 15.2 2 -34.1 12.0 0.55 .0744 23 1 100.0 1
08/07/23 15:48 -39.1 -39.1 -39.1 68 -42.7 21.7 E 0.36 23.5 E -59.6 -39.1 -59.6 739.6 0.040 0.000 15.2 2 -34.1 12.0 0.55 .0744 24 1 100.0 1
08/07/23 15:49 -39.0 -39.0 -39.1 68 -42.7 23.5 E 0.39 25.2 E -60.1 -39.0 -60.1 739.5 0.040 0.000 15.2 2 -34.1 12.0 0.55 .0744 23 1 100.0 1
08/07/23 15:50 -38.9 -38.9 -39.0 69 -42.5 22.6 E 0.38 24.3 E -59.7 -38.9 -59.7 739.6 0.040 0.000 15.2 2 -34.1 12.0 0.55 .0744 23 1 100.0 1
08/07/23 15:51 -38.9 -38.9 -38.9 69 -42.4 22.6 E 0.38 23.5 E -59.6 -38.9 -59.6 739.6 0.040 0.000 15.2 2 -34.1 12.0 0.55 .0744 24 1 100.0 1
08/07/23 15:52 -38.9 -38.9 -38.9 69 -42.4 24.3 E 0.41 25.2 E -60.2 -38.9 -60.2 739.5 0.040 0.000 15.2 2 -34.1 12.0 0.55 .0744 23 1 100.0 1
08/07/23 15:53 -38.8 -38.8 -38.8 69 -42.3 22.6 E 0.38 23.5 E -59.5 -38.8 -59.5 739.6 0.040 0.000 15.1 2 -34.2 11.9 0.55 .0744 24 1 100.0 1
08/07/23 15:54 -38.8 -38.8 -38.8 69 -42.3 24.3 E 0.41 25.2 E -60.1 -38.8 -60.1 739.5 0.040 0.000 15.1 2 -34.2 11.9 0.55 .0744 23 1 100.0 1
08/07/23 15:55 -38.8 -38.8 -38.8 69 -42.3 21.7 E 0.36 23.5 E -59.2 -38.8 -59.2 739.6 0.040 0.000 15.1 2 -34.2 11.9 0.55 .0744 23 1 100.0 1
08/07/23 15:56 -38.8 -38.8 -38.8 69 -42.4 23.5 E 0.39 24.3 E -59.8 -38.8 -59.8 739.5 0.040 0.000 15.1 2 -34.2 11.9 0.55 .0744 24 1 100.0 1
08/07/23 15:57 -38.8 -38.8 -38.9 69 -42.4 22.6 E 0.38 24.3 E -59.6 -38.8 -59.6 739.6 0.040 0.000 15.1 2 -34.2 11.9 0.55 .0744 23 1 100.0 1
08/07/23 15:58 -38.8 -38.8 -38.8 69 -42.4 22.6 E 0.38 23.5 E -59.6 -38.8 -59.6 739.5 0.040 0.000 15.1 2 -34.2 11.9 0.55 .0744 24 1 100.0 1
08/07/23 15:59 -38.9 -38.8 -38.9 69 -42.4 22.6 E 0.38 24.3 E -59.6 -38.9 -59.6 739.5 0.040 0.000 15.1 2 -34.2 11.9 0.55 .0744 23 1 100.0 1
08/07/23 16:00 -38.8 -38.8 -38.9 69 -42.4 22.6 E 0.38 24.3 E -59.6 -38.8 -59.6 739.6 0.040 0.000 15.1 2 -34.2 11.9 0.55 .0744 24 1 100.0 1
08/07/23 16:01 -38.9 -38.9 -38.9 69 -42.5 22.6 E 0.38 24.3 E -59.7 -38.9 -59.7 739.5 0.040 0.000 15.1 2 -34.2 11.9 0.55 .0744 23 1 100.0 1
08/07/23 16:02 -39.0 -38.9 -39.0 69 -42.5 23.5 E 0.39 24.3 E -60.1 -39.0 -60.1 739.5 0.040 0.000 15.1 2 -34.2 11.9 0.55 .0744 23 1 100.0 1
08/07/23 16:03 -38.9 -38.9 -39.0 69 -42.5 22.6 E 0.38 24.3 E -59.7 -38.9 -59.7 739.5 0.040 0.000 15.1 2 -34.2 11.9 0.55 .0744 24 1 100.0 1
08/07/23 16:04 -38.9 -38.9 -38.9 69 -42.4 22.6 E 0.38 24.3 E -59.6 -38.9 -59.6 739.6 0.040 0.000 15.1 2 -34.2 11.9 0.55 .0744 23 1 100.0 1
08/07/23 16:05 -38.8 -38.8 -38.8 69 -42.4 22.6 E 0.38 24.3 E -59.6 -38.8 -59.6 739.6 0.040 0.000 15.1 2 -34.2 11.9 0.55 .0744 24 1 100.0 1
08/07/23 16:06 -38.8 -38.8 -38.9 69 -42.4 23.5 E 0.39 25.2 E -59.8 -38.8 -59.8 739.6 0.040 0.000 15.1 2 -34.2 11.9 0.55 .0744 23 1 100.0 1
08/07/23 16:07 -38.8 -38.8 -38.8 69 -42.4 22.6 E 0.38 24.3 E -59.6 -38.8 -59.6 739.6 0.040 0.000 15.1 2 -34.2 11.9 0.55 .0744 23 1 100.0 1
08/07/23 16:08 -38.8 -38.8 -38.8 69 -42.3 22.6 E 0.38 24.3 E -59.5 -38.8 -59.5 739.6 0.040 0.000 15.1 2 -34.2 11.9 0.55 .0744 24 1 100.0 1
08/07/23 16:09 -38.7 -38.7 -38.8 69 -42.3 22.6 E 0.38 24.3 E -59.4 -38.7 -59.4 739.6 0.040 0.000 15.1 2 -34.2 11.9 0.55 .0744 23 1 100.0 1
08/07/23 16:10 -38.8 -38.7 -38.8 69 -42.3 22.6 E 0.38 24.3 E -59.5 -38.8 -59.5 739.6 0.040 0.000 15.1 2 -34.2 11.9 0.55 .0744 24 1 100.0 1
08/07/23 16:11 -38.9 -38.8 -38.9 69 -42.4 22.6 E 0.38 24.3 E -59.6 -38.9 -59.6 739.6 0.040 0.000 15.1 2 -34.2 11.9 0.55 .0744 23 1 100.0 1
08/07/23 16:12 -39.0 -38.9 -39.0 69 -42.5 22.6 E 0.38 23.5 E -59.8 -39.0 -59.8 739.6 0.040 0.000 15.1 2 -34.2 11.9 0.55 .0744 23 1 100.0 1
08/07/23 16:13 -39.1 -39.1 -39.1 69 -42.6 22.6 E 0.38 23.5 E -59.8 -39.1 -59.8 739.5 0.040 0.000 15.1 2 -34.2 11.9 0.55 .0744 24 1 100.0 1
08/07/23 16:14 -39.1 -39.1 -39.1 68 -42.8 23.5 E 0.39 24.3 E -60.2 -39.1 -60.2 739.5 0.040 0.000 15.1 2 -34.2 11.9 0.55 .0744 23 1 100.0 1
08/07/23 16:15 -39.2 -39.1 -39.2 68 -42.8 22.6 E 0.38 23.5 E -60.0 -39.2 -60.0 739.6 0.040 0.000 15.1 2 -34.2 11.9 0.55 .0744 24 1 100.0 1
08/07/23 16:16 -39.2 -39.2 -39.2 68 -42.8 21.7 E 0.36 22.6 E -59.7 -39.2 -59.7 739.6 0.040 0.000 15.0 2 -34.2 11.9 0.55 .0744 23 1 100.0 1
08/07/23 16:17 -39.2 -39.2 -39.2 68 -42.9 21.7 E 0.36 22.6 E -59.8 -39.2 -59.8 739.5 0.040 0.000 15.0 2 -34.2 11.9 0.55 .0744 24 1 100.0 1
08/07/23 16:18 -39.2 -39.2 -39.2 68 -42.8 21.7 E 0.36 22.6 E -59.7 -39.2 -59.7 739.6 0.040 0.000 15.0 2 -34.2 11.9 0.55 .0744 23 1 100.0 1
08/07/23 16:19 -39.1 -39.1 -39.2 68 -42.8 20.9 E 0.35 22.6 E -59.3 -39.1 -59.3 739.6 0.040 0.000 15.0 2 -34.2 11.9 0.55 .0744 23 1 100.0 1
08/07/23 16:20 -39.1 -39.1 -39.1 68 -42.7 21.7 E 0.36 23.5 E -59.6 -39.1 -59.6 739.6 0.040 0.000 15.0 2 -34.2 11.9 0.55 .0744 24 1 100.0 1
08/07/23 16:21 -39.1 -39.1 -39.1 68 -42.7 20.9 E 0.35 22.6 E -59.2 -39.1 -59.2 739.5 0.040 0.000 15.0 2 -34.2 11.9 0.55 .0744 23 1 100.0 1
08/07/23 16:22 -39.1 -39.1 -39.1 68 -42.7 21.7 E 0.36 22.6 E -59.6 -39.1 -59.6 739.6 0.040 0.000 15.0 2 -34.2 11.9 0.55 .0744 24 1 100.0 1
08/07/23 16:23 -38.9 -38.9 -39.1 69 -42.5 21.7 E 0.36 23.5 E -59.4 -38.9 -59.4 739.5 0.040 0.000 15.0 2 -34.2 11.9 0.55 .0744 23 1 100.0 1
08/07/23 16:24 -38.9 -38.8 -38.9 69 -42.4 21.7 E 0.36 22.6 E -59.3 -38.9 -59.3 739.5 0.040 0.000 15.0 2 -34.2 11.9 0.55 .0744 23 1 100.0 1
08/07/23 16:25 -38.8 -38.8 -38.8 69 -42.3 21.7 E 0.36 23.5 E -59.2 -38.8 -59.2 739.5 0.040 0.000 15.0 2 -34.2 11.9 0.55 .0744 24 1 100.0 1
08/07/23 16:26 -38.8 -38.7 -38.8 69 -42.3 20.9 E 0.35 22.6 E -58.9 -38.8 -58.9 739.5 0.040 0.000 14.9 2 -34.3 11.8 0.55 .0744 23 1 100.0 1
08/07/23 16:27 -38.8 -38.8 -38.8 69 -42.4 21.7 E 0.36 23.5 E -59.3 -38.8 -59.3 739.5 0.040 0.000 15.0 2 -34.2 11.9 0.55 .0744 24 1 100.0 1
08/07/23 16:28 -38.9 -38.8 -38.9 69 -42.4 21.7 E 0.36 22.6 E -59.3 -38.9 -59.3 739.5 0.040 0.000 14.9 2 -34.3 11.8 0.55 .0744 23 1 100.0 1
08/07/23 16:29 -39.0 -38.9 -39.0 69 -42.5 21.7 E 0.36 22.6 E -59.5 -39.0 -59.5 739.5 0.040 0.000 14.9 2 -34.3 11.8 0.55 .0744 23 1 100.0 1
08/07/23 16:30 -39.1 -39.0 -39.1 69 -42.6 21.7 E 0.36 23.5 E -59.6 -39.1 -59.6 739.5 0.040 0.000 14.9 2 -34.3 11.8 0.55 .0744 24 1 100.0 1
08/07/23 16:31 -39.1 -39.1 -39.1 69 -42.6 20.9 E 0.35 23.5 E -59.2 -39.1 -59.2 739.6 0.040 0.000 14.9 2 -34.3 11.8 0.55 .0744 23 1 100.0 1
08/07/23 16:32 -39.0 -39.0 -39.1 68 -42.7 21.7 E 0.36 23.5 E -59.5 -39.0 -59.5 739.6 0.040 0.000 14.9 2 -34.3 11.8 0.55 .0745 24 1 100.0 1
08/07/23 16:33 -38.9 -38.9 -39.0 69 -42.5 20.9 E 0.35 22.6 E -59.1 -38.9 -59.1 739.6 0.040 0.000 14.9 2 -34.3 11.8 0.55 .0744 23 1 100.0 1
08/07/23 16:34 -38.9 -38.9 -38.9 69 -42.4 22.6 E 0.38 23.5 E -59.6 -38.9 -59.6 739.6 0.040 0.000 14.9 2 -34.3 11.8 0.55 .0745 24 1 100.0 1
08/07/23 16:35 -38.8 -38.8 -38.9 69 -42.4 21.7 E 0.36 23.5 E -59.3 -38.8 -59.3 739.7 0.040 0.000 14.9 2 -34.3 11.8 0.55 .0745 23 1 100.0 1
08/07/23 16:36 -38.8 -38.8 -38.8 69 -42.3 22.6 E 0.38 24.3 E -59.5 -38.8 -59.5 739.6 0.040 0.000 14.9 2 -34.3 11.8 0.55 .0745 23 1 100.0 1
08/07/23 16:37 -38.9 -38.8 -38.9 69 -42.4 21.7 E 0.36 23.5 E -59.3 -38.9 -59.3 739.6 0.040 0.000 14.9 2 -34.3 11.8 0.55 .0745 24 1 100.0 1
08/07/23 16:38 -39.0 -38.9 -39.0 69 -42.5 20.9 E 0.35 22.6 E -59.2 -39.0 -59.2 739.6 0.040 0.000 14.9 2 -34.3 11.8 0.55 .0745 23 1 100.0 1
08/07/23 16:39 -39.1 -39.0 -39.1 69 -42.6 21.7 E 0.36 22.6 E -59.6 -39.1 -59.6 739.6 0.040 0.000 14.9 2 -34.3 11.8 0.55 .0745 24 1 100.0 1
08/07/23 16:40 -39.1 -39.1 -39.1 69 -42.7 21.7 E 0.36 22.6 E -59.6 -39.1 -59.6 739.6 0.040 0.000 14.9 2 -34.3 11.8 0.55 .0745 23 1 100.0 1
08/07/23 16:41 -39.2 -39.1 -39.2 69 -42.7 21.7 E 0.36 22.6 E -59.7 -39.2 -59.7 739.5 0.040 0.000 14.9 2 -34.3 11.8 0.55 .0745 23 1 100.0 1
08/07/23 16:42 -39.2 -39.2 -39.2 68 -42.8 20.9 E 0.35 22.6 E -59.4 -39.2 -59.4 739.5 0.040 0.000 14.9 2 -34.3 11.8 0.55 .0745 24 1 100.0 1
08/07/23 16:43 -39.0 -39.0 -39.1 68 -42.7 20.9 E 0.35 22.6 E -59.2 -39.0 -59.2 739.5 0.040 0.000 14.9 2 -34.3 11.8 0.55 .0745 23 1 100.0 1
08/07/23 16:44 -38.9 -38.9 -39.0 69 -42.4 20.9 E 0.35 22.6 E -59.0 -38.9 -59.0 739.5 0.040 0.000 14.9 2 -34.3 11.8 0.55 .0745 24 1 100.0 1
08/07/23 16:45 -38.7 -38.7 -38.8 69 -42.3 20.9 E 0.35 21.7 E -58.8 -38.7 -58.8 739.6 0.040 0.000 14.9 2 -34.3 11.8 0.55 .0745 23 1 100.0 1
08/07/23 16:46 -38.6 -38.6 -38.7 69 -42.1 20.9 E 0.35 21.7 E -58.6 -38.6 -58.6 739.5 0.040 0.000 14.9 2 -34.3 11.8 0.55 .0745 24 1 100.0 1
08/07/23 16:47 -38.4 -38.4 -38.6 69 -42.0 20.0 E 0.33 21.7 E -58.1 -38.4 -58.1 739.6 0.039 0.000 14.9 2 -34.3 11.8 0.55 .0745 23 1 100.0 1
08/07/23 16:48 -38.4 -38.4 -38.4 69 -42.0 20.9 E 0.35 21.7 E -58.3 -38.4 -58.3 739.5 0.039 0.000 14.9 2 -34.3 11.8 0.55 .0745 23 1 100.0 1
08/07/23 16:49 -38.4 -38.3 -38.4 69 -42.0 20.0 E 0.33 21.7 E -58.1 -38.4 -58.1 739.5 0.039 0.000 14.8 2 -34.3 11.7 0.55 .0745 24 1 100.0 1
08/07/23 16:50 -38.3 -38.3 -38.4 69 -41.9 20.9 E 0.35 22.6 E -58.3 -38.3 -58.3 739.6 0.039 0.000 14.9 2 -34.3 11.8 0.55 .0745 23 1 100.0 1
08/07/23 16:51 -38.3 -38.3 -38.3 69 -41.8 21.7 E 0.36 22.6 E -58.5 -38.3 -58.5 739.6 0.039 0.000 14.8 2 -34.3 11.7 0.55 .0745 24 1 100.0 1
08/07/23 16:52 -38.2 -38.2 -38.3 70 -41.7 21.7 E 0.36 22.6 E -58.4 -38.2 -58.4 739.6 0.039 0.000 14.8 2 -34.3 11.7 0.55 .0745 23 1 100.0 1
08/07/23 16:53 -38.2 -38.2 -38.2 70 -41.6 20.9 E 0.35 22.6 E -58.1 -38.2 -58.1 739.6 0.039 0.000 14.8 2 -34.3 11.7 0.55 .0745 23 1 100.0 1
08/07/23 16:54 -38.1 -38.1 -38.2 70 -41.6 21.7 E 0.36 23.5 E -58.3 -38.1 -58.3 739.6 0.039 0.000 14.8 2 -34.3 11.7 0.55 .0745 24 1 100.0 1
08/07/23 16:55 -38.1 -38.1 -38.1 70 -41.5 21.7 E 0.36 22.6 E -58.2 -38.1 -58.2 739.6 0.039 0.000 14.8 2 -34.3 11.7 0.55 .0745 23 1 100.0 1
08/07/23 16:56 -37.9 -37.9 -38.0 70 -41.4 22.6 E 0.38 23.5 E -58.4 -37.9 -58.4 739.6 0.039 0.000 14.8 2 -34.3 11.7 0.55 .0745 24 1 100.0 1
08/07/23 16:57 -37.9 -37.9 -37.9 70 -41.3 20.9 E 0.35 21.7 E -57.7 -37.9 -57.7 739.7 0.039 0.000 14.8 2 -34.3 11.7 0.55 .0745 23 1 100.0 1
08/07/23 16:58 -37.8 -37.8 -37.8 70 -41.3 20.9 E 0.35 22.6 E -57.6 -37.8 -57.6 739.7 0.039 0.000 14.8 2 -34.3 11.7 0.55 .0745 23 1 100.0 1
08/07/23 16:59 -37.9 -37.8 -37.9 70 -41.3 20.0 E 0.33 22.6 E -57.4 -37.9 -57.4 739.6 0.039 0.000 14.8 2 -34.3 11.7 0.55 .0745 24 1 100.0 1
08/07/23 17:00 -38.0 -37.9 -38.0 70 -41.4 19.1 E 0.32 20.9 E -57.2 -38.0 -57.2 739.8 0.039 0.000 14.8 2 -34.3 11.7 0.55 .0745 24 1 100.0 1
08/07/23 17:01 -38.1 -38.0 -38.1 70 -41.5 20.0 E 0.33 21.7 E -57.6 -38.1 -57.6 739.6 0.039 0.000 14.8 2 -34.3 11.7 0.55 .0745 23 1 100.0 1
08/07/23 17:02 -38.1 -38.1 -38.1 70 -41.6 16.5 E 0.28 20.0 E -56.2 -38.1 -56.2 739.7 0.039 0.000 14.8 2 -34.4 11.7 0.55 .0745 23 1 100.0 1
08/07/23 17:03 -38.2 -38.1 -38.2 69 -41.7 21.7 E 0.36 23.5 E -58.4 -38.2 -58.4 739.6 0.039 0.000 14.8 2 -34.3 11.7 0.55 .0745 24 1 100.0 1
08/07/23 17:04 -38.2 -38.2 -38.2 69 -41.7 18.3 E 0.30 20.9 E -57.1 -38.2 -57.1 739.7 0.039 0.000 14.8 2 -34.4 11.7 0.55 .0745 23 1 100.0 1
08/07/23 17:05 -38.2 -38.2 -38.2 69 -41.7 19.1 E 0.32 22.6 E -57.4 -38.2 -57.4 739.7 0.039 0.000 14.8 2 -34.3 11.7 0.55 .0745 23 1 100.0 1
08/07/23 17:06 -38.1 -38.1 -38.2 69 -41.6 22.6 E 0.38 24.3 E -58.5 -38.1 -58.5 739.6 0.039 0.000 14.8 2 -34.4 11.7 0.55 .0745 24 1 100.0 1
08/07/23 17:07 -38.1 -38.1 -38.1 69 -41.6 18.3 E 0.30 19.1 E -56.9 -38.1 -56.9 739.8 0.039 0.000 14.8 2 -34.4 11.7 0.55 .0745 23 1 100.0 1
08/07/23 17:08 -38.1 -38.1 -38.1 69 -41.6 21.7 E 0.36 24.3 E -58.2 -38.1 -58.2 739.7 0.039 0.000 14.8 2 -34.4 11.7 0.55 .0745 24 1 100.0 1
08/07/23 17:09 -38.1 -38.1 -38.1 69 -41.6 20.0 E 0.33 23.5 E -57.6 -38.1 -57.6 739.7 0.039 0.000 14.8 2 -34.4 11.7 0.55 .0745 23 1 100.0 1
08/07/23 17:10 -38.1 -38.0 -38.1 69 -41.6 19.1 E 0.32 23.5 E -57.3 -38.1 -57.3 739.8 0.039 0.000 14.8 2 -34.4 11.7 0.55 .0745 23 1 100.0 1
08/07/23 17:11 -38.0 -38.0 -38.1 70 -41.4 21.7 E 0.36 23.5 E -58.2 -38.0 -58.2 739.6 0.039 0.000 14.8 2 -34.4 11.7 0.55 .0745 24 1 100.0 1
08/07/23 17:12 -37.9 -37.9 -37.9 69 -41.5 19.1 E 0.32 23.5 E -57.1 -37.9 -57.1 739.7 0.039 0.000 14.8 2 -34.4 11.7 0.55 .0745 23 1 100.0 1
08/07/23 17:13 -37.8 -37.8 -37.9 70 -41.3 21.7 E 0.36 22.6 E -57.9 -37.8 -57.9 739.6 0.039 0.000 14.8 2 -34.4 11.7 0.55 .0745 24 1 100.0 1
08/07/23 17:14 -37.8 -37.8 -37.8 70 -41.2 20.9 E 0.35 21.7 E -57.6 -37.8 -57.6 739.6 0.039 0.000 14.8 2 -34.4 11.7 0.55 .0745 23 1 100.0 1
08/07/23 17:15 -37.8 -37.8 -37.8 70 -41.2 20.9 E 0.35 22.6 E -57.6 -37.8 -57.6 739.6 0.039 0.000 14.8 2 -34.4 11.7 0.55 .0745 23 1 100.0 1
08/07/23 17:16 -37.8 -37.8 -37.8 70 -41.2 20.0 E 0.33 22.6 E -57.2 -37.8 -57.2 739.6 0.039 0.000 14.8 2 -34.4 11.7 0.55 .0745 24 1 100.0 1
08/07/23 17:17 -37.8 -37.8 -37.8 70 -41.3 20.0 E 0.33 22.6 E -57.3 -37.8 -57.3 739.7 0.039 0.000 14.8 2 -34.4 11.7 0.55 .0745 23 1 100.0 1
08/07/23 17:18 -37.8 -37.8 -37.8 70 -41.2 20.9 E 0.35 22.6 E -57.6 -37.8 -57.6 739.6 0.039 0.000 14.7 2 -34.4 11.7 0.55 .0745 24 1 100.0 1
08/07/23 17:19 -37.8 -37.8 -37.8 70 -41.3 20.9 E 0.35 21.7 E -57.6 -37.8 -57.6 739.7 0.039 0.000 14.8 2 -34.4 11.7 0.55 .0745 23 1 100.0 1
08/07/23 17:20 -37.8 -37.8 -37.8 70 -41.3 20.9 E 0.35 22.6 E -57.6 -37.8 -57.6 739.7 0.039 0.000 14.7 2 -34.4 11.7 0.55 .0745 24 1 100.0 1
08/07/23 17:21 -37.9 -37.8 -37.9 70 -41.4 18.3 E 0.30 19.1 E -56.8 -37.9 -56.8 739.8 0.039 0.000 14.7 2 -34.4 11.7 0.55 .0745 23 1 100.0 1
08/07/23 17:22 -38.0 -37.9 -38.0 69 -41.6 20.9 E 0.35 21.7 E -57.8 -38.0 -57.8 739.7 0.039 0.000 14.7 2 -34.4 11.7 0.55 .0745 23 1 100.0 1
08/07/23 17:23 -38.0 -38.0 -38.0 69 -41.6 19.1 E 0.32 21.7 E -57.2 -38.0 -57.2 739.7 0.039 0.000 14.7 2 -34.4 11.7 0.55 .0745 24 1 100.0 1
08/07/23 17:24 -38.1 -38.1 -38.1 69 -41.6 20.9 E 0.35 22.6 E -57.9 -38.1 -57.9 739.8 0.039 0.000 14.7 2 -34.4 11.7 0.55 .0745 23 1 100.0 1
08/07/23 17:25 -38.0 -38.0 -38.1 69 -41.6 19.1 E 0.32 21.7 E -57.2 -38.0 -57.2 739.7 0.039 0.000 14.7 2 -34.4 11.7 0.55 .0745 24 1 100.0 1
08/07/23 17:26 -37.9 -37.9 -38.0 69 -41.5 20.0 E 0.33 21.7 E -57.4 -37.9 -57.4 739.8 0.039 0.000 14.7 2 -34.4 11.7 0.55 .0745 23 1 100.0 1
08/07/23 17:27 -37.8 -37.8 -37.9 69 -41.4 20.0 E 0.33 22.6 E -57.2 -37.8 -57.2 739.7 0.039 0.000 14.7 2 -34.4 11.7 0.55 .0745 23 1 100.0 1
08/07/23 17:28 -37.7 -37.7 -37.8 70 -41.1 19.1 E 0.32 20.9 E -56.7 -37.7 -56.7 739.7 0.039 0.000 14.7 2 -34.4 11.7 0.55 .0745 24 1 100.0 1
08/07/23 17:29 -37.7 -37.7 -37.7 70 -41.1 20.0 E 0.33 21.7 E -57.1 -37.7 -57.1 739.7 0.039 0.000 14.7 2 -34.4 11.7 0.55 .0745 23 1 100.0 1
08/07/23 17:30 -37.6 -37.6 -37.6 70 -41.1 19.1 E 0.32 20.9 E -56.7 -37.6 -56.7 739.7 0.039 0.000 14.7 2 -34.4 11.7 0.55 .0745 24 1 100.0 1
08/07/23 17:31 -37.7 -37.6 -37.7 70 -41.1 16.5 E 0.28 18.3 E -55.7 -37.7 -55.7 739.8 0.039 0.000 14.7 2 -34.5 11.6 0.55 .0745 23 1 100.0 1
08/07/23 17:32 -37.7 -37.7 -37.7 70 -41.1 20.9 E 0.35 22.6 E -57.4 -37.7 -57.4 739.7 0.039 0.000 14.7 2 -34.5 11.6 0.55 .0745 24 1 100.0 1
08/07/23 17:33 -37.6 -37.6 -37.7 70 -41.1 17.4 E 0.29 20.0 E -55.9 -37.6 -55.9 739.8 0.039 0.000 14.7 2 -34.4 11.7 0.55 .0745 23 1 100.0 1
08/07/23 17:34 -37.7 -37.7 -37.7 70 -41.1 18.3 E 0.30 20.9 E -56.4 -37.7 -56.4 739.9 0.039 0.000 14.7 2 -34.4 11.7 0.55 .0745 23 1 100.0 1
08/07/23 17:35 -37.6 -37.6 -37.7 70 -41.1 18.3 E 0.30 20.0 E -56.3 -37.6 -56.3 739.7 0.039 0.000 14.7 2 -34.5 11.6 0.55 .0745 24 1 100.0 1
08/07/23 17:36 -37.6 -37.6 -37.7 70 -41.1 20.9 E 0.35 24.3 E -57.3 -37.6 -57.3 739.7 0.039 0.000 14.7 2 -34.5 11.6 0.55 .0745 23 1 100.0 1
08/07/23 17:37 -37.6 -37.6 -37.6 70 -41.0 18.3 E 0.30 21.7 E -56.2 -37.6 -56.2 739.7 0.039 0.000 14.7 2 -34.5 11.6 0.55 .0745 24 1 100.0 1
08/07/23 17:38 -37.6 -37.6 -37.6 70 -41.0 17.4 E 0.29 19.1 E -55.9 -37.6 -55.9 739.9 0.039 0.000 14.7 2 -34.5 11.6 0.55 .0746 23 1 100.0 1
08/07/23 17:39 -37.5 -37.5 -37.6 70 -41.0 20.0 E 0.33 21.7 E -56.8 -37.5 -56.8 739.8 0.039 0.000 14.7 2 -34.5 11.6 0.55 .0745 23 1 100.0 1
08/07/23 17:40 -37.4 -37.4 -37.5 70 -40.9 18.3 E 0.30 20.9 E -56.1 -37.4 -56.1 739.8 0.039 0.000 14.7 2 -34.5 11.6 0.55 .0745 24 1 100.0 1
08/07/23 17:41 -37.4 -37.4 -37.4 70 -40.9 18.3 E 0.30 19.1 E -56.1 -37.4 -56.1 739.9 0.039 0.000 14.7 2 -34.5 11.6 0.55 .0745 23 1 100.0 1
08/07/23 17:42 -37.3 -37.3 -37.4 70 -40.8 17.4 E 0.29 19.1 E -55.6 -37.3 -55.6 739.9 0.039 0.000 14.7 2 -34.5 11.6 0.55 .0745 24 1 100.0 1
08/07/23 17:43 -37.3 -37.3 -37.3 70 -40.7 15.7 E 0.26 18.3 E -54.8 -37.3 -54.8 739.9 0.039 0.000 14.7 2 -34.5 11.6 0.55 .0746 23 1 100.0 1
08/07/23 17:44 -37.2 -37.2 -37.3 70 -40.7 20.9 E 0.35 23.5 E -56.8 -37.2 -56.8 739.8 0.039 0.000 14.7 2 -34.5 11.6 0.55 .0745 23 1 100.0 1
08/07/23 17:45 -37.1 -37.1 -37.2 70 -40.6 15.7 E 0.26 19.1 E -54.6 -37.1 -54.6 739.9 0.039 0.000 14.7 2 -34.5 11.6 0.55 .0745 24 1 100.0 1
08/07/23 17:46 -37.1 -37.1 -37.1 70 -40.6 15.7 E 0.26 20.0 ESE -54.6 -37.1 -54.6 739.9 0.039 0.000 14.7 2 -34.5 11.6 0.55 .0746 23 1 100.0 1
08/07/23 17:47 -37.2 -37.1 -37.2 70 -40.6 19.1 E 0.32 20.9 E -56.1 -37.2 -56.1 739.7 0.039 0.000 14.7 2 -34.5 11.6 0.55 .0745 24 1 100.0 1
08/07/23 17:48 -37.2 -37.2 -37.2 70 -40.7 16.5 E 0.28 18.3 E -55.1 -37.2 -55.1 739.8 0.039 0.000 14.7 2 -34.5 11.6 0.55 .0745 23 1 100.0 1
08/07/23 17:49 -37.3 -37.2 -37.3 70 -40.7 20.0 E 0.33 21.7 E -56.6 -37.3 -56.6 739.8 0.039 0.000 14.6 1 -41.3 11.6 0.28 .0746 24 1 100.0 1
08/07/23 17:50 -37.3 -37.3 -37.3 70 -40.7 17.4 E 0.29 20.0 E -55.5 -37.3 -55.5 739.8 0.039 0.000 14.6 2 -34.5 11.6 0.55 .0746 23 1 100.0 1
08/07/23 17:51 -37.3 -37.3 -37.3 70 -40.8 16.5 E 0.28 20.0 E -55.2 -37.3 -55.2 739.9 0.039 0.000 14.6 2 -34.5 11.6 0.55 .0746 23 1 100.0 1
08/07/23 17:52 -37.4 -37.4 -37.4 70 -40.9 20.9 E 0.35 21.7 E -57.1 -37.4 -57.1 739.7 0.039 0.000 14.6 2 -34.5 11.6 0.55 .0746 24 1 100.0 1
08/07/23 17:53 -37.4 -37.4 -37.4 70 -40.9 16.5 E 0.28 19.1 E -55.4 -37.4 -55.4 739.9 0.039 0.000 14.6 1 -41.3 11.6 0.28 .0746 23 1 100.0 1
08/07/23 17:54 -37.4 -37.4 -37.4 70 -40.9 16.5 E 0.28 19.1 E -55.4 -37.4 -55.4 740.0 0.039 0.000 14.6 2 -34.5 11.6 0.55 .0746 24 1 100.0 1
08/07/23 17:55 -37.5 -37.5 -37.5 70 -41.0 20.0 E 0.33 20.9 E -56.8 -37.5 -56.8 739.8 0.039 0.000 14.6 2 -34.5 11.6 0.55 .0746 23 1 100.0 1
08/07/23 17:56 -37.5 -37.5 -37.5 70 -41.0 18.3 E 0.30 20.0 E -56.2 -37.5 -56.2 739.9 0.039 0.000 14.6 2 -34.5 11.6 0.55 .0746 23 1 100.0 1
08/07/23 17:57 -37.5 -37.5 -37.5 70 -41.0 18.3 E 0.30 20.0 E -56.2 -37.5 -56.2 739.9 0.039 0.000 14.6 1 -41.3 11.6 0.28 .0746 24 1 100.0 1
08/07/23 17:58 -37.6 -37.5 -37.6 70 -41.0 16.5 E 0.28 18.3 E -55.5 -37.6 -55.5 739.9 0.039 0.000 14.6 2 -34.5 11.6 0.55 .0746 23 1 100.0 1
08/07/23 17:59 -37.7 -37.6 -37.7 70 -41.1 17.4 E 0.29 19.1 E -56.1 -37.7 -56.1 739.9 0.039 0.000 14.6 2 -34.5 11.6 0.55 .0746 24 1 100.0 1
08/07/23 18:00 -37.6 -37.6 -37.7 70 -41.0 17.4 E 0.29 19.1 E -55.9 -37.6 -55.9 739.9 0.039 0.000 14.6 2 -34.5 11.6 0.55 .0746 23 1 100.0 1
08/07/23 18:01 -37.5 -37.5 -37.6 70 -41.0 15.7 E 0.26 17.4 E -55.1 -37.5 -55.1 740.1 0.039 0.000 14.6 2 -34.5 11.6 0.55 .0746 23 1 100.0 1
08/07/23 18:02 -37.6 -37.5 -37.6 70 -41.0 18.3 E 0.30 19.1 E -56.2 -37.6 -56.2 739.9 0.039 0.000 14.6 2 -34.5 11.6 0.55 .0746 24 1 100.0 1
08/07/23 18:03 -37.5 -37.5 -37.6 70 -41.0 16.5 ENE 0.28 19.1 E -55.4 -37.5 -55.4 739.9 0.039 0.000 14.6 1 -41.3 11.5 0.29 .0746 23 1 100.0 1
08/07/23 18:04 -37.5 -37.5 -37.5 70 -41.0 13.9 E 0.23 15.7 E -54.2 -37.5 -54.2 740.1 0.039 0.000 14.6 2 -34.5 11.6 0.55 .0746 24 1 100.0 1
08/07/23 18:05 -37.6 -37.5 -37.6 70 -41.0 16.5 E 0.28 18.3 E -55.5 -37.6 -55.5 740.0 0.039 0.000 14.6 2 -34.5 11.6 0.55 .0746 23 1 100.0 1
08/07/23 18:06 -37.7 -37.6 -37.7 70 -41.1 17.4 E 0.29 20.0 E -56.1 -37.7 -56.1 739.9 0.039 0.000 14.6 2 -34.5 11.6 0.55 .0746 24 1 100.0 1
08/07/23 18:07 -37.7 -37.7 -37.7 70 -41.1 17.4 E 0.29 20.0 E -56.1 -37.7 -56.1 739.9 0.039 0.000 14.6 1 -41.3 11.5 0.29 .0746 23 1 100.0 1
08/07/23 18:08 -37.7 -37.7 -37.7 70 -41.2 13.9 E 0.23 16.5 E -54.5 -37.7 -54.5 740.1 0.039 0.000 14.6 1 -41.3 11.5 0.29 .0746 23 1 100.0 1
08/07/23 18:09 -37.8 -37.7 -37.8 70 -41.2 17.4 E 0.29 18.3 E -56.2 -37.8 -56.2 739.9 0.039 0.000 14.6 1 -41.3 11.5 0.29 .0746 24 1 100.0 1
08/07/23 18:10 -37.8 -37.8 -37.8 70 -41.2 16.5 E 0.28 17.4 E -55.8 -37.8 -55.8 740.0 0.039 0.000 14.6 2 -34.5 11.6 0.55 .0746 23 1 100.0 1
08/07/23 18:11 -37.8 -37.8 -37.8 70 -41.2 15.7 E 0.26 17.4 E -55.4 -37.8 -55.4 740.0 0.039 0.000 14.6 2 -34.5 11.6 0.55 .0746 24 1 100.0 1
08/07/23 18:12 -37.8 -37.8 -37.8 70 -41.2 18.3 E 0.30 19.1 E -56.6 -37.8 -56.6 740.0 0.039 0.000 14.6 1 -41.3 11.5 0.29 .0746 23 1 100.0 1
08/07/23 18:13 -37.7 -37.7 -37.7 70 -41.1 15.7 E 0.26 18.3 E -55.3 -37.7 -55.3 740.0 0.039 0.000 14.5 1 -41.4 11.4 0.29 .0746 23 1 100.0 1
08/07/23 18:14 -37.7 -37.6 -37.7 70 -41.2 15.7 E 0.26 17.4 E -55.3 -37.7 -55.3 740.0 0.039 0.000 14.6 1 -41.3 11.5 0.29 .0746 24 1 100.0 1
08/07/23 18:15 -37.8 -37.7 -37.8 70 -41.2 17.4 E 0.29 18.3 E -56.2 -37.8 -56.2 739.9 0.039 0.000 14.6 1 -41.3 11.5 0.29 .0746 23 1 100.0 1
08/07/23 18:16 -37.7 -37.7 -37.8 70 -41.2 17.4 E 0.29 18.3 ENE -56.1 -37.7 -56.1 740.0 0.039 0.000 14.6 1 -41.3 11.5 0.29 .0746 24 1 100.0 1
08/07/23 18:17 -37.8 -37.7 -37.8 70 -41.2 15.7 E 0.26 17.4 E -55.4 -37.8 -55.4 740.0 0.039 0.000 14.6 2 -34.5 11.6 0.55 .0746 23 1 100.0 1
08/07/23 18:18 -37.8 -37.8 -37.8 70 -41.3 17.4 E 0.29 18.3 E -56.3 -37.8 -56.3 739.9 0.039 0.000 14.5 1 -41.4 11.4 0.29 .0746 24 1 100.0 1
08/07/23 18:19 -37.9 -37.8 -37.9 69 -41.5 14.8 E 0.25 16.5 E -55.2 -37.9 -55.2 740.1 0.039 0.000 14.5 1 -41.4 11.4 0.29 .0746 23 1 100.0 1
08/07/23 18:20 -38.1 -37.9 -38.1 69 -41.7 16.5 E 0.28 18.3 E -56.2 -38.1 -56.2 740.0 0.039 0.000 14.5 1 -41.4 11.4 0.29 .0746 23 1 100.0 1
08/07/23 18:21 -38.3 -38.2 -38.3 69 -41.9 16.5 ENE 0.28 17.4 ENE -56.6 -38.3 -56.6 740.0 0.039 0.000 14.5 1 -41.4 11.4 0.29 .0746 24 1 100.0 1
08/07/23 18:22 -38.7 -38.3 -38.7 69 -42.2 15.7 ENE 0.26 16.5 ENE -56.6 -38.7 -56.6 740.1 0.040 0.000 14.5 2 -34.6 11.5 0.55 .0746 23 1 100.0 1
08/07/23 18:23 -38.8 -38.7 -38.8 69 -42.4 15.7 ENE 0.26 16.5 ENE -56.8 -38.8 -56.8 740.0 0.040 0.000 14.5 1 -41.4 11.4 0.29 .0746 24 1 100.0 1
08/07/23 18:24 -38.9 -38.8 -38.9 69 -42.4 15.7 ENE 0.26 16.5 ENE -56.8 -38.9 -56.8 740.0 0.040 0.000 14.5 1 -41.4 11.4 0.29 .0746 23 1 100.0 1
08/07/23 18:25 -38.8 -38.8 -38.9 69 -42.4 16.5 E 0.28 17.4 E -57.2 -38.8 -57.2 740.0 0.040 0.000 14.5 1 -41.4 11.4 0.29 .0746 23 1 100.0 1
08/07/23 18:26 -38.8 -38.8 -38.8 69 -42.3 15.7 E 0.26 17.4 ENE -56.7 -38.8 -56.7 740.1 0.040 0.000 14.5 1 -41.4 11.4 0.29 .0746 24 1 100.0 1
08/07/23 18:27 -38.7 -38.7 -38.8 69 -42.2 17.4 E 0.29 20.0 ENE -57.3 -38.7 -57.3 740.1 0.040 0.000 14.5 1 -41.4 11.4 0.29 .0746 23 1 100.0 1
08/07/23 18:28 -38.1 -38.1 -38.6 69 -41.6 17.4 ENE 0.29 19.1 ENE -56.6 -38.1 -56.6 740.0 0.039 0.000 14.5 1 -41.4 11.4 0.29 .0746 24 1 100.0 1
08/07/23 18:29 -37.4 -37.4 -37.9 70 -40.9 13.9 ENE 0.23 15.7 ENE -54.2 -37.4 -54.2 740.2 0.039 0.000 14.4 1 -41.4 11.4 0.29 .0746 23 1 100.0 1
08/07/23 18:30 -37.3 -37.3 -37.4 70 -40.8 13.9 E 0.23 15.7 E -54.0 -37.3 -54.0 740.2 0.039 0.000 14.5 1 -41.4 11.4 0.29 .0746 23 1 100.0 1
08/07/23 18:31 -37.4 -37.3 -37.4 70 -40.9 15.7 E 0.26 17.4 E -55.0 -37.4 -55.0 740.0 0.039 0.000 14.5 1 -41.4 11.4 0.29 .0746 24 1 100.0 1
08/07/23 18:32 -37.7 -37.4 -37.7 70 -41.1 18.3 E 0.30 19.1 E -56.4 -37.7 -56.4 740.0 0.039 0.000 14.4 1 -41.4 11.4 0.29 .0746 23 1 100.0 1
08/07/23 18:33 -37.6 -37.6 -37.7 70 -41.1 13.9 ENE 0.23 16.5 E -54.3 -37.6 -54.3 740.2 0.039 0.000 14.4 1 -41.4 11.4 0.29 .0746 24 1 100.0 1
08/07/23 18:34 -37.6 -37.6 -37.7 70 -41.1 13.9 ENE 0.23 15.7 E -54.3 -37.6 -54.3 740.2 0.039 0.000 14.4 1 -41.4 11.4 0.29 .0746 23 1 100.0 1
08/07/23 18:35 -37.5 -37.5 -37.6 70 -41.0 13.9 E 0.23 15.7 E -54.2 -37.5 -54.2 740.1 0.039 0.000 14.4 1 -41.4 11.4 0.29 .0746 24 1 100.0 1
08/07/23 18:36 -37.3 -37.3 -37.4 70 -40.7 12.2 ENE 0.20 13.9 E -53.0 -37.3 -53.0 740.1 0.039 0.000 14.4 1 -41.4 11.4 0.29 .0746 23 1 100.0 1
08/07/23 18:37 -37.3 -37.3 -37.3 70 -40.7 18.3 E 0.30 20.9 E -55.9 -37.3 -55.9 740.0 0.039 0.000 14.4 1 -41.4 11.4 0.29 .0746 23 1 100.0 1
08/07/23 18:38 -37.0 -37.0 -37.2 70 -40.5 17.4 E 0.29 18.3 E -55.2 -37.0 -55.2 740.0 0.038 0.000 14.4 1 -41.4 11.4 0.29 .0746 24 1 100.0 1
08/07/23 18:39 -36.9 -36.9 -37.0 70 -40.4 12.2 E 0.20 14.8 E -52.5 -36.9 -52.5 740.1 0.038 0.000 14.4 1 -41.4 11.4 0.29 .0746 23 1 100.0 1
08/07/23 18:40 -36.8 -36.8 -36.8 71 -40.2 7.0 ENE 0.12 11.3 E -48.8 -36.8 -48.8 740.2 0.038 0.000 14.4 1 -41.4 11.4 0.29 .0747 24 1 100.0 1
08/07/23 18:41 -36.9 -36.9 -36.9 71 -40.3 17.4 E 0.29 19.1 E -55.1 -36.9 -55.1 740.1 0.038 0.000 14.4 1 -41.4 11.4 0.29 .0746 23 1 100.0 1
08/07/23 18:42 -37.0 -36.9 -37.0 71 -40.3 15.7 E 0.26 17.4 E -54.4 -37.0 -54.4 740.0 0.038 0.000 14.4 1 -41.4 11.4 0.29 .0746 23 1 100.0 1
08/07/23 18:43 -37.2 -37.0 -37.2 71 -40.5 13.9 E 0.23 15.7 E -53.8 -37.2 -53.8 740.1 0.039 0.000 14.4 1 -41.4 11.4 0.29 .0746 24 1 100.0 1
08/07/23 18:44 -37.3 -37.2 -37.3 70 -40.7 13.0 E 0.22 14.8 E -53.5 -37.3 -53.5 740.2 0.039 0.000 14.4 1 -41.4 11.4 0.29 .0747 23 1 100.0 1
08/07/23 18:45 -37.4 -37.3 -37.4 70 -40.9 15.7 E 0.26 17.4 E -54.9 -37.4 -54.9 740.1 0.039 0.000 14.4 1 -41.4 11.4 0.29 .0746 24 1 100.0 1
08/07/23 18:46 -37.3 -37.3 -37.4 70 -40.8 16.5 ENE 0.28 17.4 E -55.2 -37.3 -55.2 740.1 0.039 0.000 14.4 1 -41.4 11.4 0.29 .0746 23 1 100.0 1
08/07/23 18:47 -37.3 -37.3 -37.3 70 -40.7 13.9 ENE 0.23 15.7 ENE -53.9 -37.3 -53.9 740.2 0.039 0.000 14.4 1 -41.4 11.4 0.29 .0747 24 1 100.0 1
08/07/23 18:48 -37.1 -37.1 -37.2 70 -40.5 13.0 ENE 0.22 13.9 ENE -53.2 -37.1 -53.2 740.2 0.038 0.000 14.4 1 -41.4 11.4 0.29 .0747 23 1 100.0 1
08/07/23 18:49 -37.0 -36.9 -37.0 70 -40.5 13.0 ENE 0.22 14.8 E -53.1 -37.0 -53.1 740.2 0.038 0.000 14.4 1 -41.4 11.4 0.29 .0746 23 1 100.0 1
08/07/23 18:50 -37.2 -37.0 -37.2 70 -40.7 15.7 ENE 0.26 16.5 ENE -54.7 -37.2 -54.7 740.1 0.039 0.000 14.4 1 -41.4 11.4 0.29 .0746 24 1 100.0 1
08/07/23 18:51 -37.3 -37.3 -37.3 70 -40.7 15.7 ENE 0.26 15.7 ENE -54.8 -37.3 -54.8 740.1 0.039 0.000 14.4 1 -41.4 11.4 0.29 .0746 23 1 100.0 1
08/07/23 18:52 -37.1 -37.1 -37.3 70 -40.5 13.9 ENE 0.23 14.8 ENE -53.7 -37.1 -53.7 740.1 0.038 0.000 14.4 1 -41.4 11.4 0.29 .0746 24 1 100.0 1
08/07/23 18:53 -36.9 -36.9 -37.0 70 -40.4 12.2 ENE 0.20 13.9 ENE -52.5 -36.9 -52.5 740.2 0.038 0.000 14.4 1 -41.4 11.4 0.29 .0746 23 1 100.0 1
08/07/23 18:54 -37.0 -36.9 -37.0 70 -40.5 13.9 E 0.23 16.5 E -53.6 -37.0 -53.6 740.1 0.038 0.000 14.4 1 -41.4 11.4 0.29 .0746 23 1 100.0 1
08/07/23 18:55 -37.2 -37.0 -37.2 70 -40.6 16.5 E 0.28 17.4 E -55.0 -37.2 -55.0 740.0 0.039 0.000 14.4 1 -41.4 11.4 0.29 .0746 24 1 100.0 1
08/07/23 18:56 -37.2 -37.2 -37.2 70 -40.7 16.5 E 0.28 17.4 E -55.1 -37.2 -55.1 740.0 0.039 0.000 14.4 1 -41.4 11.4 0.29 .0746 23 1 100.0 1
08/07/23 18:57 -37.2 -37.2 -37.2 70 -40.6 13.0 E 0.22 15.7 ENE -53.3 -37.2 -53.3 740.2 0.039 0.000 14.4 1 -41.4 11.4 0.29 .0747 24 1 100.0 1
08/07/23 18:58 -37.1 -37.1 -37.1 70 -40.5 11.3 E 0.19 12.2 E -52.2 -37.1 -52.2 740.2 0.038 0.000 14.4 1 -41.4 11.4 0.29 .0747 23 1 100.0 1
08/07/23 18:59 -37.1 -37.1 -37.1 70 -40.5 13.0 E 0.22 13.9 E -53.2 -37.1 -53.2 740.2 0.038 0.000 14.4 1 -41.4 11.4 0.29 .0747 23 1 100.0 1
08/07/23 19:00 -37.2 -37.1 -37.2 70 -40.6 13.9 E 0.23 14.8 E -53.8 -37.2 -53.8 740.1 0.039 0.000 14.4 1 -41.4 11.4 0.29 .0747 24 1 100.0 1
08/07/23 19:01 -37.2 -37.2 -37.2 70 -40.7 15.7 E 0.26 16.5 E -54.7 -37.2 -54.7 740.1 0.039 0.000 14.4 1 -41.4 11.4 0.29 .0747 23 1 100.0 1
08/07/23 19:02 -37.1 -37.1 -37.2 70 -40.6 13.9 ENE 0.23 15.7 ENE -53.7 -37.1 -53.7 740.2 0.039 0.000 14.4 1 -41.4 11.4 0.29 .0747 24 1 100.0 1
08/07/23 19:03 -37.0 -37.0 -37.1 70 -40.5 13.0 ENE 0.22 14.8 E -53.1 -37.0 -53.1 740.3 0.038 0.000 14.4 1 -41.4 11.4 0.29 .0747 23 1 100.0 1
08/07/23 19:04 -37.1 -37.0 -37.1 70 -40.5 13.9 E 0.23 14.8 E -53.7 -37.1 -53.7 740.2 0.038 0.000 14.4 1 -41.4 11.4 0.29 .0747 24 1 100.0 1
08/07/23 19:05 -37.1 -37.1 -37.1 70 -40.6 15.7 ENE 0.26 17.4 ENE -54.6 -37.1 -54.6 740.2 0.039 0.000 14.4 1 -41.4 11.4 0.29 .0747 23 1 100.0 1
08/07/23 19:06 -36.9 -36.9 -37.1 70 -40.4 15.7 ENE 0.26 17.4 ENE -54.3 -36.9 -54.3 740.2 0.038 0.000 14.4 1 -41.4 11.4 0.29 .0747 23 1 100.0 1
08/07/23 19:07 -36.7 -36.7 -36.9 70 -40.2 12.2 ENE 0.20 13.9 ENE -52.3 -36.7 -52.3 740.3 0.038 0.000 14.4 1 -41.4 11.4 0.29 .0747 24 1 100.0 1
08/07/23 19:08 -36.7 -36.7 -36.7 70 -40.2 11.3 ENE 0.19 13.0 ENE -51.7 -36.7 -51.7 740.3 0.038 0.000 14.4 1 -41.4 11.4 0.29 .0747 23 1 100.0 1
08/07/23 19:09 -36.7 -36.7 -36.7 70 -40.2 16.5 E 0.28 18.3 E -54.4 -36.7 -54.4 740.1 0.038 0.000 14.4 1 -41.4 11.4 0.29 .0747 24 1 100.0 1
08/07/23 19:10 -36.7 -36.7 -36.7 70 -40.2 15.7 ENE 0.26 17.4 E -54.1 -36.7 -54.1 740.1 0.038 0.000 14.4 1 -41.4 11.4 0.29 .0747 23 1 100.0 1
08/07/23 19:11 -36.7 -36.7 -36.7 70 -40.2 11.3 ENE 0.19 14.8 ENE -51.8 -36.7 -51.8 740.3 0.038 0.000 14.3 1 -41.5 11.3 0.29 .0747 23 1 100.0 1
08/07/23 19:12 -36.9 -36.7 -36.9 70 -40.4 8.7 ENE 0.14 10.4 ENE -50.3 -36.9 -50.3 740.3 0.038 0.000 14.3 1 -41.5 11.3 0.29 .0747 24 1 100.0 1
08/07/23 19:13 -37.1 -36.9 -37.1 70 -40.6 10.4 ENE 0.17 10.4 ENE -51.7 -37.1 -51.7 740.3 0.039 0.000 14.3 1 -41.5 11.3 0.29 .0747 23 1 100.0 1
08/07/23 19:14 -37.4 -37.2 -37.4 70 -40.9 12.2 ENE 0.20 14.8 ENE -53.2 -37.4 -53.2 740.3 0.039 0.000 14.3 1 -41.5 11.3 0.29 .0747 24 1 100.0 1
08/07/23 19:15 -37.8 -37.5 -37.8 70 -41.3 15.7 ENE 0.26 16.5 E -55.5 -37.8 -55.5 740.2 0.039 0.000 14.3 1 -41.5 11.3 0.29 .0747 23 1 100.0 1
08/07/23 19:16 -37.8 -37.8 -37.9 69 -41.4 14.8 ENE 0.25 16.5 ENE -55.1 -37.8 -55.1 740.2 0.039 0.000 14.3 1 -41.5 11.3 0.29 .0747 23 1 100.0 1
08/07/23 19:17 -37.6 -37.6 -37.8 69 -41.2 10.4 ENE 0.17 13.0 ENE -52.3 -37.6 -52.3 740.3 0.039 0.000 14.3 1 -41.5 11.3 0.29 .0747 24 1 100.0 1
08/07/23 19:18 -37.3 -37.3 -37.5 69 -40.9 7.0 NE 0.12 9.6 NE -49.4 -37.3 -49.4 740.3 0.039 0.000 14.3 1 -41.5 11.3 0.29 .0747 23 1 100.0 1
08/07/23 19:19 -37.4 -37.3 -37.4 69 -41.0 13.9 E 0.23 17.4 E -54.2 -37.4 -54.2 740.2 0.039 0.000 14.3 1 -41.5 11.3 0.29 .0747 24 1 100.0 1
08/07/23 19:20 -37.3 -37.3 -37.4 69 -40.9 13.9 E 0.23 16.5 E -54.0 -37.3 -54.0 740.2 0.039 0.000 14.3 1 -41.5 11.3 0.29 .0747 23 1 100.0 1
08/07/23 19:21 -37.1 -37.1 -37.3 70 -40.6 8.7 ENE 0.14 11.3 ENE -50.6 -37.1 -50.6 740.3 0.039 0.000 14.3 1 -41.5 11.3 0.29 .0747 24 1 100.0 1
08/07/23 19:22 -37.2 -37.1 -37.2 70 -40.6 7.0 ENE 0.12 9.6 ENE -49.2 -37.2 -49.2 740.4 0.039 0.000 14.3 1 -41.5 11.3 0.29 .0747 23 1 100.0 1
08/07/23 19:23 -37.6 -37.2 -37.6 70 -41.0 10.4 ENE 0.17 13.9 E -52.3 -37.6 -52.3 740.3 0.039 0.000 14.3 1 -41.5 11.3 0.29 .0747 23 1 100.0 1
08/07/23 19:24 -37.9 -37.7 -37.9 70 -41.3 13.9 E 0.23 14.8 E -54.7 -37.9 -54.7 740.2 0.039 0.000 14.3 1 -41.5 11.3 0.29 .0747 24 1 100.0 1
08/07/23 19:25 -37.8 -37.8 -37.9 70 -41.3 11.3 ENE 0.19 13.0 E -53.2 -37.8 -53.2 740.2 0.039 0.000 14.3 1 -41.5 11.3 0.29 .0747 23 1 100.0 1
08/07/23 19:26 -37.6 -37.6 -37.8 70 -41.1 8.7 ENE 0.14 9.6 ENE -51.2 -37.6 -51.2 740.4 0.039 0.000 14.3 1 -41.5 11.3 0.29 .0747 24 1 100.0 1
08/07/23 19:27 -37.6 -37.6 -37.6 70 -41.0 12.2 E 0.20 16.5 E -53.3 -37.6 -53.3 740.3 0.039 0.000 14.3 1 -41.5 11.3 0.29 .0747 23 1 100.0 1
08/07/23 19:28 -37.5 -37.5 -37.6 70 -41.0 14.8 E 0.25 16.5 E -54.7 -37.5 -54.7 740.1 0.039 0.000 14.3 1 -41.5 11.3 0.29 .0747 23 1 100.0 1
08/07/23 19:29 -37.3 -37.3 -37.4 70 -40.8 10.4 E 0.17 12.2 E -52.0 -37.3 -52.0 740.3 0.039 0.000 14.3 1 -41.5 11.3 0.29 .0747 24 1 100.0 1
08/07/23 19:30 -37.4 -37.3 -37.4 70 -40.9 13.9 ENE 0.23 19.1 ENE -54.2 -37.4 -54.2 740.3 0.039 0.000 14.3 1 -41.5 11.3 0.29 .0747 23 1 100.0 1
08/07/23 19:31 -37.2 -37.2 -37.4 70 -40.7 15.7 ENE 0.26 18.3 ENE -54.7 -37.2 -54.7 740.2 0.039 0.000 14.3 1 -41.5 11.3 0.29 .0747 24 1 100.0 1
08/07/23 19:32 -37.1 -37.1 -37.2 70 -40.5 11.3 E 0.19 13.9 ENE -52.2 -37.1 -52.2 740.3 0.038 0.000 14.3 1 -41.5 11.3 0.29 .0747 23 1 100.0 1
08/07/23 19:33 -37.0 -37.0 -37.0 70 -40.5 12.2 E 0.20 14.8 ENE -52.7 -37.0 -52.7 740.3 0.038 0.000 14.3 1 -41.5 11.3 0.29 .0747 23 1 100.0 1
08/07/23 19:34 -37.2 -37.0 -37.2 70 -40.6 15.7 ENE 0.26 16.5 E -54.6 -37.2 -54.6 740.2 0.039 0.000 14.3 1 -41.5 11.3 0.29 .0747 24 1 100.0 1
08/07/23 19:35 -37.4 -37.2 -37.4 70 -40.9 15.7 ENE 0.26 16.5 ENE -54.9 -37.4 -54.9 740.2 0.039 0.000 14.3 1 -41.5 11.3 0.29 .0747 23 1 100.0 1
08/07/23 19:36 -37.4 -37.4 -37.4 70 -40.9 16.5 ENE 0.28 18.3 ENE -55.3 -37.4 -55.3 740.2 0.039 0.000 14.3 1 -41.5 11.3 0.29 .0747 24 1 100.0 1
08/07/23 19:37 -37.2 -37.2 -37.4 70 -40.7 12.2 ENE 0.20 13.9 ENE -52.9 -37.2 -52.9 740.4 0.039 0.000 14.3 1 -41.5 11.3 0.29 .0747 23 1 100.0 1
08/07/23 19:38 -37.1 -37.1 -37.2 70 -40.6 11.3 ENE 0.19 12.2 E -52.3 -37.1 -52.3 740.3 0.039 0.000 14.3 1 -41.5 11.3 0.29 .0747 24 1 100.0 1
08/07/23 19:39 -37.2 -37.1 -37.2 70 -40.7 13.9 E 0.23 15.7 ENE -53.8 -37.2 -53.8 740.3 0.039 0.000 14.3 1 -41.5 11.3 0.29 .0747 23 1 100.0 1
08/07/23 19:40 -37.6 -37.3 -37.6 70 -41.0 17.4 ENE 0.29 18.3 ENE -55.9 -37.6 -55.9 740.1 0.039 0.000 14.3 1 -41.5 11.3 0.30 .0747 23 1 100.0 1
08/07/23 19:41 -37.3 -37.3 -37.6 70 -40.8 16.5 ENE 0.28 17.4 ENE -55.2 -37.3 -55.2 740.2 0.039 0.000 14.3 1 -41.5 11.3 0.29 .0747 24 1 100.0 1
08/07/23 19:42 -36.9 -36.9 -37.2 70 -40.4 14.8 ENE 0.25 16.5 ENE -53.8 -36.9 -53.8 740.3 0.038 0.000 14.3 1 -41.5 11.3 0.30 .0747 23 1 100.0 1
08/07/23 19:43 -36.6 -36.6 -36.8 70 -40.1 9.6 ENE 0.16 11.3 ENE -50.6 -36.6 -50.6 740.4 0.038 0.000 14.3 1 -41.5 11.3 0.30 .0747 24 1 100.0 1
08/07/23 19:44 -36.6 -36.6 -36.6 71 -40.0 9.6 ENE 0.16 17.4 ENE -50.6 -36.6 -50.6 740.4 0.038 0.000 14.3 1 -41.5 11.3 0.30 .0747 23 1 100.0 1
08/07/23 19:45 -36.7 -36.6 -36.7 71 -40.0 18.3 ENE 0.30 19.1 E -55.1 -36.7 -55.1 740.2 0.038 0.000 14.3 1 -41.5 11.3 0.30 .0747 24 1 100.0 1
08/07/23 19:46 -36.6 -36.6 -36.7 71 -39.9 14.8 ENE 0.25 17.4 ENE -53.4 -36.6 -53.4 740.3 0.038 0.000 14.3 1 -41.5 11.3 0.30 .0747 23 1 100.0 1
08/07/23 19:47 -36.4 -36.4 -36.6 71 -39.8 9.6 ENE 0.16 12.2 ENE -50.3 -36.4 -50.3 740.5 0.038 0.000 14.3 1 -41.5 11.3 0.30 .0747 23 1 100.0 1
08/07/23 19:48 -36.4 -36.4 -36.4 71 -39.8 7.0 ENE 0.12 8.7 ENE -48.2 -36.4 -48.2 740.5 0.038 0.000 14.3 1 -41.5 11.3 0.30 .0747 24 1 100.0 1
08/07/23 19:49 -36.6 -36.4 -36.6 71 -39.9 10.4 ENE 0.17 13.0 ENE -51.1 -36.6 -51.1 740.4 0.038 0.000 14.3 1 -41.5 11.3 0.30 .0747 23 1 100.0 1
08/07/23 19:50 -36.7 -36.6 -36.7 71 -40.0 12.2 ENE 0.20 13.9 ENE -52.2 -36.7 -52.2 740.3 0.038 0.000 14.3 1 -41.5 11.3 0.30 .0747 24 1 100.0 1
08/07/23 19:51 -36.7 -36.7 -36.7 71 -40.1 12.2 ENE 0.20 13.9 ENE -52.3 -36.7 -52.3 740.4 0.038 0.000 14.3 1 -41.5 11.3 0.30 .0747 23 1 100.0 1
08/07/23 19:52 -36.7 -36.7 -36.7 70 -40.2 10.4 ENE 0.17 11.3 ENE -51.3 -36.7 -51.3 740.5 0.038 0.000 14.3 1 -41.5 11.3 0.30 .0747 23 1 100.0 1
08/07/23 19:53 -36.8 -36.8 -36.8 70 -40.3 13.0 ENE 0.22 14.8 ENE -52.8 -36.8 -52.8 740.4 0.038 0.000 14.3 1 -41.5 11.3 0.30 .0747 24 1 100.0 1
08/07/23 19:54 -36.7 -36.7 -36.7 70 -40.2 12.2 ENE 0.20 13.0 ENE -52.2 -36.7 -52.2 740.4 0.038 0.000 14.3 1 -41.5 11.3 0.30 .0747 23 1 100.0 1
08/07/23 19:55 -36.7 -36.7 -36.7 70 -40.2 10.4 ENE 0.17 12.2 ENE -51.3 -36.7 -51.3 740.3 0.038 0.000 14.3 1 -41.5 11.3 0.30 .0747 24 1 100.0 1
08/07/23 19:56 -36.9 -36.7 -36.9 70 -40.4 13.0 E 0.22 13.9 ENE -53.0 -36.9 -53.0 740.3 0.038 0.000 14.3 1 -41.5 11.3 0.30 .0747 23 1 100.0 1
08/07/23 19:57 -37.1 -36.9 -37.1 70 -40.6 11.3 E 0.19 13.0 ENE -52.3 -37.1 -52.3 740.3 0.039 0.000 14.3 1 -41.5 11.3 0.30 .0747 23 1 100.0 1
08/07/23 19:58 -37.1 -37.1 -37.1 70 -40.6 13.9 ENE 0.23 14.8 ENE -53.7 -37.1 -53.7 740.3 0.039 0.000 14.3 1 -41.5 11.3 0.30 .0747 24 1 100.0 1
08/07/23 19:59 -37.1 -37.1 -37.1 70 -40.5 11.3 ENE 0.19 12.2 ENE -52.2 -37.1 -52.2 740.4 0.038 0.000 14.3 1 -41.5 11.3 0.30 .0747 23 1 100.0 1
08/07/23 20:00 -37.0 -37.0 -37.1 70 -40.5 10.4 ENE 0.17 11.3 ENE -51.6 -37.0 -51.6 740.4 0.038 0.000 14.3 1 -41.5 11.3 0.30 .0747 24 1 100.0 1
08/07/23 20:01 -37.1 -37.0 -37.1 70 -40.5 10.4 ENE 0.17 14.8 E -51.7 -37.1 -51.7 740.4 0.038 0.000 14.3 1 -41.5 11.3 0.30 .0747 23 1 100.0 1
08/07/23 20:02 -37.0 -37.0 -37.1 70 -40.5 14.8 E 0.25 15.7 E -54.0 -37.0 -54.0 740.3 0.038 0.000 14.3 1 -41.5 11.3 0.30 .0747 23 1 100.0 1
08/07/23 20:03 -36.8 -36.8 -36.9 70 -40.3 13.0 ENE 0.22 14.8 E -52.8 -36.8 -52.8 740.3 0.038 0.000 14.3 1 -41.5 11.3 0.30 .0747 24 1 100.0 1
08/07/23 20:04 -36.7 -36.7 -36.7 70 -40.2 8.7 ENE 0.14 10.4 ENE -50.0 -36.7 -50.0 740.4 0.038 0.000 14.3 1 -41.5 11.3 0.30 .0747 23 1 100.0 1
08/07/23 20:05 -36.7 -36.7 -36.7 70 -40.2 7.8 E 0.13 16.5 ENE -49.4 -36.7 -49.4 740.4 0.038 0.000 14.3 1 -41.5 11.3 0.30 .0747 24 1 100.0 1
08/07/23 20:06 -36.7 -36.7 -36.8 70 -40.2 16.5 E 0.28 17.4 E -54.4 -36.7 -54.4 740.3 0.038 0.000 14.2 1 -41.5 11.2 0.30 .0747 23 1 100.0 1
08/07/23 20:07 -36.7 -36.7 -36.7 70 -40.2 13.9 ENE 0.23 15.7 ENE -53.2 -36.7 -53.2 740.4 0.038 0.000 14.2 1 -41.5 11.2 0.30 .0747 24 1 100.0 1
08/07/23 20:08 -36.6 -36.6 -36.7 71 -40.0 10.4 ENE 0.17 11.3 ENE -51.1 -36.6 -51.1 740.5 0.038 0.000 14.3 1 -41.5 11.3 0.30 .0747 23 1 100.0 1
08/07/23 20:09 -36.7 -36.6 -36.7 71 -40.0 13.0 ENE 0.22 13.9 ENE -52.7 -36.7 -52.7 740.5 0.038 0.000 14.2 1 -41.5 11.2 0.30 .0747 23 1 100.0 1
08/07/23 20:10 -36.7 -36.7 -36.7 71 -40.1 12.2 ENE 0.20 13.9 NE -52.3 -36.7 -52.3 740.5 0.038 0.000 14.2 1 -41.5 11.2 0.30 .0747 24 1 100.0 1
08/07/23 20:11 -36.9 -36.7 -36.9 70 -40.4 14.8 E 0.25 15.7 E -53.8 -36.9 -53.8 740.4 0.038 0.000 14.2 1 -41.5 11.2 0.30 .0747 23 1 100.0 1
08/07/23 20:12 -37.0 -36.9 -37.0 70 -40.5 13.9 E 0.23 14.8 E -53.6 -37.0 -53.6 740.4 0.038 0.000 14.2 1 -41.5 11.2 0.30 .0747 24 1 100.0 1
08/07/23 20:13 -36.8 -36.8 -37.0 70 -40.3 13.0 ENE 0.22 13.9 E -52.9 -36.8 -52.9 740.5 0.038 0.000 14.2 1 -41.5 11.2 0.30 .0747 23 1 100.0 1
08/07/23 20:14 -36.8 -36.8 -36.8 70 -40.3 11.3 ENE 0.19 12.2 ENE -51.8 -36.8 -51.8 740.5 0.038 0.000 14.2 1 -41.5 11.2 0.30 .0747 23 1 100.0 1
08/07/23 20:15 -36.8 -36.7 -36.8 70 -40.3 13.9 E 0.23 15.7 E -53.3 -36.8 -53.3 740.5 0.038 0.000 14.2 1 -41.5 11.2 0.30 .0747 24 1 100.0 1
08/07/23 20:16 -36.7 -36.7 -36.7 70 -40.2 13.0 ENE 0.22 14.8 ENE -52.7 -36.7 -52.7 740.5 0.038 0.000 14.2 1 -41.5 11.2 0.30 .0747 23 1 100.0 1
08/07/23 20:17 -36.7 -36.7 -36.7 70 -40.2 12.2 ENE 0.20 13.0 ENE -52.2 -36.7 -52.2 740.6 0.038 0.000 14.2 1 -41.5 11.2 0.30 .0747 24 1 100.0 1
08/07/23 20:18 -36.6 -36.6 -36.7 70 -40.1 13.9 ENE 0.23 16.5 E -53.1 -36.6 -53.1 740.5 0.038 0.000 14.2 1 -41.5 11.2 0.30 .0747 23 1 100.0 1
08/07/23 20:19 -36.5 -36.5 -36.6 70 -40.0 14.8 ENE 0.25 17.4 E -53.3 -36.5 -53.3 740.4 0.038 0.000 14.2 1 -41.5 11.2 0.30 .0747 24 1 100.0 1
08/07/23 20:20 -36.4 -36.4 -36.4 70 -39.9 9.6 E 0.16 12.2 ENE -50.3 -36.4 -50.3 740.5 0.038 0.000 14.2 1 -41.5 11.2 0.30 .0747 23 1 100.0 1
08/07/23 20:21 -36.4 -36.3 -36.4 71 -39.8 5.2 E 0.09 7.0 E -46.5 -36.4 -46.5 740.6 0.038 0.000 14.2 1 -41.5 11.2 0.30 .0747 23 1 100.0 1
08/07/23 20:22 -36.5 -36.4 -36.5 71 -39.9 10.4 ENE 0.17 11.3 E -50.9 -36.5 -50.9 740.5 0.038 0.000 14.2 1 -41.5 11.2 0.30 .0747 24 1 100.0 1
08/07/23 20:23 -36.6 -36.6 -36.6 71 -40.0 11.3 ENE 0.19 12.2 E -51.7 -36.6 -51.7 740.4 0.038 0.000 14.2 1 -41.5 11.2 0.30 .0747 23 1 100.0 1
08/07/23 20:24 -36.7 -36.6 -36.7 71 -40.1 11.3 ENE 0.19 12.2 E -51.8 -36.7 -51.8 740.4 0.038 0.000 14.2 1 -41.5 11.2 0.30 .0747 24 1 100.0 1
08/07/23 20:25 -36.7 -36.7 -36.7 70 -40.2 11.3 ENE 0.19 12.2 E -51.8 -36.7 -51.8 740.5 0.038 0.000 14.2 1 -41.5 11.2 0.30 .0747 23 1 100.0 1
08/07/23 20:26 -36.7 -36.7 -36.7 70 -40.2 11.3 ENE 0.19 12.2 ENE -51.8 -36.7 -51.8 740.5 0.038 0.000 14.2 1 -41.5 11.2 0.30 .0747 23 1 100.0 1
08/07/23 20:27 -36.8 -36.7 -36.8 70 -40.3 12.2 ENE 0.20 13.0 ENE -52.4 -36.8 -52.4 740.4 0.038 0.000 14.2 1 -41.5 11.2 0.30 .0747 24 1 100.0 1
08/07/23 20:28 -36.7 -36.7 -36.8 70 -40.2 11.3 ENE 0.19 13.0 ENE -51.7 -36.7 -51.7 740.4 0.038 0.000 14.2 1 -41.5 11.2 0.30 .0747 23 1 100.0 1
08/07/23 20:29 -36.6 -36.6 -36.7 70 -40.0 9.6 E 0.16 10.4 E -50.4 -36.6 -50.4 740.4 0.038 0.000 14.2 1 -41.5 11.2 0.30 .0747 24 1 100.0 1
08/07/23 20:30 -36.7 -36.6 -36.7 70 -40.2 10.4 ENE 0.17 12.2 ENE -51.2 -36.7 -51.2 740.5 0.038 0.000 14.2 1 -41.5 11.2 0.30 .0747 23 1 100.0 1
08/07/23 20:31 -36.7 -36.7 -36.7 70 -40.2 11.3 ENE 0.19 12.2 E -51.7 -36.7 -51.7 740.4 0.038 0.000 14.2 1 -41.5 11.2 0.30 .0747 23 1 100.0 1
08/07/23 20:32 -36.6 -36.6 -36.7 70 -40.1 11.3 ENE 0.19 12.2 ENE -51.7 -36.6 -51.7 740.5 0.038 0.000 14.2 1 -41.5 11.2 0.30 .0747 24 1 100.0 1
08/07/23 20:33 -36.5 -36.5 -36.6 70 -40.0 11.3 ENE 0.19 11.3 ENE -51.5 -36.5 -51.5 740.5 0.038 0.000 14.2 1 -41.5 11.2 0.30 .0747 23 1 100.0 1
08/07/23 20:34 -36.5 -36.5 -36.5 70 -40.0 10.4 E 0.17 13.0 E -50.9 -36.5 -50.9 740.4 0.038 0.000 14.2 1 -41.5 11.2 0.30 .0747 24 1 100.0 1
08/07/23 20:35 -36.6 -36.5 -36.6 70 -40.1 12.2 ENE 0.20 13.0 E -52.2 -36.6 -52.2 740.4 0.038 0.000 14.2 1 -41.5 11.2 0.30 .0747 23 1 100.0 1
08/07/23 20:36 -36.7 -36.6 -36.7 70 -40.2 12.2 ENE 0.20 12.2 ENE -52.2 -36.7 -52.2 740.4 0.038 0.000 14.2 1 -41.5 11.2 0.30 .0747 24 1 100.0 1
08/07/23 20:37 -36.6 -36.6 -36.7 70 -40.1 11.3 ENE 0.19 11.3 ENE -51.7 -36.6 -51.7 740.4 0.038 0.000 14.2 1 -41.5 11.2 0.30 .0747 23 1 100.0 1
08/07/23 20:38 -36.6 -36.6 -36.6 70 -40.0 10.4 ENE 0.17 11.3 ENE -51.1 -36.6 -51.1 740.4 0.038 0.000 14.2 1 -41.5 11.2 0.30 .0747 23 1 100.0 1
08/07/23 20:39 -36.6 -36.6 -36.6 70 -40.0 9.6 ENE 0.16 10.4 ENE -50.4 -36.6 -50.4 740.4 0.038 0.000 14.2 1 -41.5 11.2 0.30 .0747 24 1 100.0 1
08/07/23 20:40 -36.7 -36.6 -36.7 70 -40.2 11.3 E 0.19 13.0 E -51.7 -36.7 -51.7 740.4 0.038 0.000 14.2 1 -41.6 11.2 0.30 .0747 23 1 100.0 1
08/07/23 20:41 -36.7 -36.7 -36.7 70 -40.2 13.0 E 0.22 13.9 ENE -52.8 -36.7 -52.8 740.3 0.038 0.000 14.2 1 -41.6 11.2 0.30 .0747 24 1 100.0 1
08/07/23 20:42 -36.7 -36.7 -36.7 70 -40.2 11.3 ENE 0.19 11.3 ENE -51.7 -36.7 -51.7 740.4 0.038 0.000 14.2 1 -41.6 11.2 0.30 .0747 23 1 100.0 1
08/07/23 20:43 -36.6 -36.6 -36.7 70 -40.1 11.3 ENE 0.19 11.3 ENE -51.7 -36.6 -51.7 740.4 0.038 0.000 14.2 1 -41.5 11.2 0.30 .0747 23 1 100.0 1
08/07/23 20:44 -36.5 -36.5 -36.6 70 -40.0 10.4 ENE 0.17 11.3 ENE -50.9 -36.5 -50.9 740.5 0.038 0.000 14.2 1 -41.6 11.2 0.30 .0748 24 1 100.0 1
08/07/23 20:45 -36.4 -36.4 -36.5 70 -39.9 10.4 ENE 0.17 11.3 ENE -50.9 -36.4 -50.9 740.5 0.038 0.000 14.2 1 -41.6 11.2 0.30 .0748 23 1 100.0 1
08/07/23 20:46 -36.3 -36.3 -36.4 70 -39.8 11.3 ENE 0.19 11.3 ENE -51.3 -36.3 -51.3 740.5 0.038 0.000 14.2 1 -41.6 11.2 0.30 .0748 24 1 100.0 1
08/07/23 20:47 -36.3 -36.3 -36.3 70 -39.8 10.4 ENE 0.17 10.4 ENE -50.7 -36.3 -50.7 740.5 0.038 0.000 14.2 1 -41.6 11.2 0.30 .0748 23 1 100.0 1
08/07/23 20:48 -36.3 -36.3 -36.3 70 -39.8 9.6 ENE 0.16 10.4 ENE -50.2 -36.3 -50.2 740.6 0.038 0.000 14.2 1 -41.6 11.2 0.30 .0748 23 1 100.0 1
08/07/23 20:49 -36.5 -36.3 -36.5 70 -40.0 8.7 ENE 0.14 9.6 ENE -49.8 -36.5 -49.8 740.6 0.038 0.000 14.2 1 -41.6 11.2 0.30 .0748 24 1 100.0 1
08/07/23 20:50 -36.6 -36.5 -36.6 70 -40.0 10.4 ENE 0.17 12.2 ENE -51.1 -36.6 -51.1 740.6 0.038 0.000 14.2 1 -41.6 11.2 0.30 .0748 23 1 100.0 1
08/07/23 20:51 -36.5 -36.5 -36.6 70 -40.0 11.3 ENE 0.19 12.2 ENE -51.5 -36.5 -51.5 740.5 0.038 0.000 14.2 1 -41.6 11.2 0.30 .0748 24 1 100.0 1
08/07/23 20:52 -36.4 -36.4 -36.5 70 -39.9 11.3 ENE 0.19 12.2 ENE -51.4 -36.4 -51.4 740.5 0.038 0.000 14.2 1 -41.6 11.2 0.30 .0748 23 1 100.0 1
08/07/23 20:53 -36.3 -36.3 -36.4 70 -39.8 11.3 ENE 0.19 12.2 ENE -51.3 -36.3 -51.3 740.5 0.038 0.000 14.2 1 -41.6 11.2 0.30 .0748 24 1 100.0 1
08/07/23 20:54 -36.3 -36.3 -36.3 70 -39.8 11.3 ENE 0.19 12.2 ENE -51.2 -36.3 -51.2 740.5 0.038 0.000 14.2 1 -41.6 11.2 0.30 .0748 23 1 100.0 1
08/07/23 20:55 -36.2 -36.2 -36.2 70 -39.7 10.4 ENE 0.17 11.3 ENE -50.6 -36.2 -50.6 740.5 0.038 0.000 14.2 1 -41.6 11.2 0.30 .0748 23 1 100.0 1
08/07/23 20:56 -36.2 -36.2 -36.2 71 -39.6 10.4 ENE 0.17 11.3 E -50.6 -36.2 -50.6 740.5 0.038 0.000 14.2 1 -41.6 11.2 0.30 .0748 24 1 100.0 1
08/07/23 20:57 -36.3 -36.2 -36.3 70 -39.8 11.3 ENE 0.19 12.2 E -51.3 -36.3 -51.3 740.5 0.038 0.000 14.2 1 -41.6 11.2 0.30 .0748 23 1 100.0 1
08/07/23 20:58 -36.3 -36.3 -36.3 70 -39.8 10.4 ENE 0.17 11.3 ENE -50.8 -36.3 -50.8 740.5 0.038 0.000 14.2 1 -41.6 11.2 0.30 .0748 24 1 100.0 1
08/07/23 20:59 -36.4 -36.4 -36.4 70 -39.9 11.3 ENE 0.19 13.0 E -51.4 -36.4 -51.4 740.5 0.038 0.000 14.2 1 -41.6 11.2 0.30 .0748 23 1 100.0 1
08/07/23 21:00 -36.4 -36.4 -36.4 70 -39.9 12.2 ENE 0.20 13.0 ENE -51.9 -36.4 -51.9 740.4 0.038 0.000 14.2 1 -41.6 11.2 0.30 .0747 23 1 100.0 1
08/07/23 21:01 -36.3 -36.3 -36.4 70 -39.8 10.4 ENE 0.17 11.3 ENE -50.8 -36.3 -50.8 740.5 0.038 0.000 14.2 1 -41.6 11.2 0.30 .0748 24 1 100.0 1
08/07/23 21:02 -36.3 -36.3 -36.3 70 -39.8 11.3 ENE 0.19 11.3 ENE -51.3 -36.3 -51.3 740.5 0.038 0.000 14.2 1 -41.6 11.2 0.30 .0748 23 1 100.0 1
08/07/23 21:03 -36.3 -36.3 -36.3 70 -39.8 11.3 ENE 0.19 12.2 ENE -51.3 -36.3 -51.3 740.5 0.038 0.000 14.2 1 -41.6 11.2 0.30 .0748 24 1 100.0 1
08/07/23 21:04 -36.3 -36.3 -36.3 70 -39.8 9.6 ENE 0.16 10.4 ENE -50.2 -36.3 -50.2 740.5 0.038 0.000 14.2 1 -41.6 11.2 0.30 .0748 23 1 100.0 1
08/07/23 21:05 -36.3 -36.3 -36.3 70 -39.8 10.4 ENE 0.17 11.3 ENE -50.8 -36.3 -50.8 740.5 0.038 0.000 14.2 1 -41.6 11.2 0.30 .0748 24 1 100.0 1
08/07/23 21:06 -36.3 -36.3 -36.3 70 -39.8 10.4 ENE 0.17 11.3 ENE -50.8 -36.3 -50.8 740.5 0.038 0.000 14.2 1 -41.6 11.2 0.30 .0748 23 1 100.0 1
08/07/23 21:07 -36.4 -36.3 -36.4 70 -39.9 9.6 ENE 0.16 11.3 E -50.3 -36.4 -50.3 740.5 0.038 0.000 14.2 1 -41.6 11.2 0.30 .0748 23 1 100.0 1
08/07/23 21:08 -36.3 -36.3 -36.4 70 -39.8 10.4 ENE 0.17 11.3 ENE -50.8 -36.3 -50.8 740.4 0.038 0.000 14.2 1 -41.6 11.2 0.30 .0747 24 1 100.0 1
08/07/23 21:09 -36.3 -36.3 -36.4 70 -39.8 11.3 ENE 0.19 11.3 ENE -51.3 -36.3 -51.3 740.4 0.038 0.000 14.2 1 -41.6 11.2 0.30 .0747 23 1 100.0 1
08/07/23 21:10 -36.3 -36.3 -36.3 70 -39.8 10.4 ENE 0.17 11.3 ENE -50.7 -36.3 -50.7 740.4 0.038 0.000 14.1 1 -41.6 11.2 0.30 .0748 24 1 100.0 1
08/07/23 21:11 -36.3 -36.3 -36.3 70 -39.8 9.6 ENE 0.16 10.4 ENE -50.1 -36.3 -50.1 740.5 0.038 0.000 14.1 1 -41.6 11.2 0.30 .0748 23 1 100.0 1
08/07/23 21:12 -36.3 -36.3 -36.3 70 -39.8 9.6 ENE 0.16 11.3 ENE -50.1 -36.3 -50.1 740.4 0.038 0.000 14.1 1 -41.6 11.2 0.30 .0748 23 1 100.0 1
08/07/23 21:13 -36.3 -36.3 -36.3 70 -39.8 10.4 ENE 0.17 11.3 ENE -50.8 -36.3 -50.8 740.4 0.038 0.000 14.1 1 -41.6 11.2 0.30 .0748 24 1 100.0 1
08/07/23 21:14 -36.4 -36.3 -36.4 70 -39.9 10.4 ENE 0.17 11.3 ENE -50.8 -36.4 -50.8 740.4 0.038 0.000 14.1 1 -41.6 11.2 0.30 .0748 23 1 100.0 1
08/07/23 21:15 -36.4 -36.4 -36.4 70 -39.9 10.4 ENE 0.17 11.3 ENE -50.8 -36.4 -50.8 740.4 0.038 0.000 14.1 1 -41.6 11.2 0.30 .0748 24 1 100.0 1
08/07/23 21:16 -36.3 -36.3 -36.4 70 -39.8 10.4 ENE 0.17 11.3 ENE -50.8 -36.3 -50.8 740.4 0.038 0.000 14.1 1 -41.6 11.2 0.30 .0748 23 1 100.0 1
08/07/23 21:17 -36.3 -36.3 -36.3 70 -39.8 10.4 ENE 0.17 11.3 ENE -50.7 -36.3 -50.7 740.4 0.038 0.000 14.1 1 -41.6 11.2 0.30 .0748 23 1 100.0 1
08/07/23 21:18 -36.2 -36.2 -36.2 70 -39.7 9.6 E 0.16 11.3 E -50.1 -36.2 -50.1 740.4 0.038 0.000 14.1 1 -41.6 11.2 0.30 .0748 24 1 100.0 1
08/07/23 21:19 -36.2 -36.2 -36.2 70 -39.7 12.2 E 0.20 13.0 E -51.7 -36.2 -51.7 740.3 0.038 0.000 14.1 1 -41.6 11.2 0.30 .0748 23 1 100.0 1
08/07/23 21:20 -36.1 -36.1 -36.2 70 -39.6 10.4 ENE 0.17 12.2 E -50.5 -36.1 -50.5 740.3 0.038 0.000 14.1 1 -41.6 11.2 0.30 .0748 24 1 100.0 1
08/07/23 21:21 -36.1 -36.1 -36.1 70 -39.6 10.4 E 0.17 11.3 ENE -50.4 -36.1 -50.4 740.4 0.038 0.000 14.1 1 -41.6 11.2 0.30 .0748 23 1 100.0 1
08/07/23 21:22 -36.0 -36.0 -36.1 70 -39.5 10.4 ENE 0.17 11.3 E -50.3 -36.0 -50.3 740.4 0.038 0.000 14.1 1 -41.6 11.2 0.30 .0748 24 1 100.0 1
08/07/23 21:23 -36.0 -36.0 -36.1 71 -39.4 12.2 ENE 0.20 13.0 ENE -51.4 -36.0 -51.4 740.3 0.038 0.000 14.1 1 -41.6 11.2 0.30 .0748 23 1 100.0 1
08/07/23 21:24 -36.0 -36.0 -36.0 70 -39.5 9.6 ENE 0.16 11.3 ENE -49.8 -36.0 -49.8 740.4 0.038 0.000 14.1 1 -41.6 11.2 0.30 .0748 23 1 100.0 1
08/07/23 21:25 -36.1 -36.0 -36.1 70 -39.6 8.7 ENE 0.14 11.3 ENE -49.3 -36.1 -49.3 740.4 0.038 0.000 14.1 1 -41.6 11.2 0.30 .0748 24 1 100.0 1
08/07/23 21:26 -36.2 -36.1 -36.2 70 -39.7 11.3 ENE 0.19 12.2 ENE -51.1 -36.2 -51.1 740.3 0.038 0.000 14.1 1 -41.6 11.2 0.30 .0748 23 1 100.0 1
08/07/23 21:27 -36.1 -36.1 -36.1 70 -39.6 9.6 ENE 0.16 11.3 ENE -49.9 -36.1 -49.9 740.4 0.038 0.000 14.1 1 -41.6 11.2 0.30 .0748 24 1 100.0 1
08/07/23 21:28 -36.2 -36.1 -36.2 70 -39.7 9.6 ENE 0.16 12.2 ENE -50.1 -36.2 -50.1 740.4 0.038 0.000 14.1 1 -41.6 11.2 0.30 .0748 23 1 100.0 1
08/07/23 21:29 -36.3 -36.2 -36.3 70 -39.8 12.2 ENE 0.20 13.0 ENE -51.7 -36.3 -51.7 740.4 0.038 0.000 14.1 1 -41.6 11.2 0.30 .0748 23 1 100.0 1
08/07/23 21:30 -36.1 -36.1 -36.2 70 -39.6 9.6 ENE 0.16 12.2 ENE -49.8 -36.1 -49.8 740.4 0.038 0.000 14.1 1 -41.6 11.2 0.30 .0748 24 1 100.0 1
08/07/23 21:31 -35.9 -35.9 -36.1 70 -39.5 7.8 ENE 0.13 8.7 ENE -48.4 -35.9 -48.4 740.4 0.038 0.000 14.1 1 -41.6 11.2 0.30 .0748 23 1 100.0 1
08/07/23 21:32 -36.0 -35.9 -36.0 70 -39.5 9.6 ENE 0.16 10.4 ENE -49.8 -36.0 -49.8 740.4 0.038 0.000 14.1 1 -41.6 11.2 0.30 .0748 24 1 100.0 1
08/07/23 21:33 -36.1 -36.0 -36.1 70 -39.6 10.4 ENE 0.17 11.3 ENE -50.4 -36.1 -50.4 740.4 0.038 0.000 14.1 1 -41.6 11.2 0.30 .0748 23 1 100.0 1
08/07/23 21:34 -36.1 -36.1 -36.1 70 -39.6 11.3 ENE 0.19 12.2 ENE -50.9 -36.1 -50.9 740.3 0.038 0.000 14.1 1 -41.6 11.2 0.30 .0748 23 1 100.0 1
08/07/23 21:35 -36.0 -36.0 -36.1 70 -39.5 8.7 ENE 0.14 9.6 ENE -49.2 -36.0 -49.2 740.4 0.038 0.000 14.1 1 -41.6 11.2 0.30 .0748 24 1 100.0 1
08/07/23 21:36 -36.1 -36.0 -36.1 70 -39.6 10.4 ENE 0.17 11.3 ENE -50.4 -36.1 -50.4 740.3 0.038 0.000 14.1 1 -41.6 11.2 0.30 .0747 23 1 100.0 1
08/07/23 21:37 -36.1 -36.1 -36.1 70 -39.6 10.4 ENE 0.17 11.3 ENE -50.4 -36.1 -50.4 740.3 0.038 0.000 14.1 1 -41.6 11.2 0.30 .0748 24 1 100.0 1
08/07/23 21:38 -36.1 -36.1 -36.1 70 -39.6 10.4 ENE 0.17 11.3 ENE -50.4 -36.1 -50.4 740.3 0.038 0.000 14.1 1 -41.6 11.2 0.30 .0748 23 1 100.0 1
08/07/23 21:39 -36.1 -36.1 -36.1 70 -39.6 10.4 ENE 0.17 11.3 ENE -50.4 -36.1 -50.4 740.3 0.038 0.000 14.1 1 -41.6 11.2 0.30 .0748 24 1 100.0 1
08/07/23 21:40 -36.1 -36.1 -36.1 70 -39.6 10.4 ENE 0.17 11.3 ENE -50.4 -36.1 -50.4 740.3 0.038 0.000 14.1 1 -41.6 11.2 0.30 .0748 23 1 100.0 1
08/07/23 21:41 -36.0 -36.0 -36.1 70 -39.5 10.4 ENE 0.17 10.4 ENE -50.3 -36.0 -50.3 740.4 0.038 0.000 14.1 1 -41.6 11.2 0.30 .0748 23 1 100.0 1
08/07/23 21:42 -36.0 -36.0 -36.0 70 -39.5 10.4 ENE 0.17 10.4 ENE -50.3 -36.0 -50.3 740.4 0.038 0.000 14.1 1 -41.6 11.2 0.30 .0748 24 1 100.0 1
08/07/23 21:43 -36.0 -36.0 -36.0 70 -39.5 9.6 ENE 0.16 11.3 ENE -49.8 -36.0 -49.8 740.4 0.038 0.000 14.1 1 -41.6 11.2 0.30 .0748 23 1 100.0 1
08/07/23 21:44 -36.0 -36.0 -36.0 70 -39.5 11.3 ENE 0.19 12.2 ENE -50.9 -36.0 -50.9 740.4 0.038 0.000 14.1 1 -41.6 11.2 0.30 .0748 24 1 100.0 1
08/07/23 21:45 -35.9 -35.9 -35.9 70 -39.4 11.3 ENE 0.19 12.2 ENE -50.7 -35.9 -50.7 740.4 0.038 0.000 14.1 1 -41.6 11.2 0.30 .0748 23 1 100.0 1
08/07/23 21:46 -35.8 -35.8 -35.8 70 -39.4 10.4 ENE 0.17 11.3 ENE -50.1 -35.8 -50.1 740.4 0.038 0.000 14.1 1 -41.6 11.2 0.30 .0748 24 1 100.0 1
08/07/23 21:47 -35.8 -35.8 -35.9 70 -39.4 9.6 ENE 0.16 10.4 ENE -49.6 -35.8 -49.6 740.4 0.038 0.000 14.1 1 -41.6 11.1 0.30 .0748 23 1 100.0 1
08/07/23 21:48 -35.9 -35.9 -35.9 70 -39.4 10.4 ENE 0.17 12.2 ENE -50.2 -35.9 -50.2 740.5 0.038 0.000 14.1 1 -41.6 11.2 0.30 .0748 23 1 100.0 1
08/07/23 21:49 -35.9 -35.9 -35.9 70 -39.4 11.3 ENE 0.19 12.2 ENE -50.7 -35.9 -50.7 740.4 0.038 0.000 14.1 1 -41.6 11.2 0.30 .0748 24 1 100.0 1
08/07/23 21:50 -35.9 -35.9 -35.9 70 -39.4 9.6 ENE 0.16 11.3 ENE -49.6 -35.9 -49.6 740.5 0.038 0.000 14.1 1 -41.6 11.2 0.30 .0748 23 1 100.0 1
08/07/23 21:51 -35.9 -35.8 -35.9 70 -39.5 8.7 ENE 0.14 10.4 ENE -49.1 -35.9 -49.1 740.5 0.038 0.000 14.1 1 -41.6 11.2 0.30 .0748 24 1 100.0 1
08/07/23 21:52 -35.9 -35.9 -35.9 70 -39.5 10.4 ENE 0.17 11.3 ENE -50.3 -35.9 -50.3 740.4 0.038 0.000 14.1 1 -41.6 11.2 0.30 .0748 23 1 100.0 1
08/07/23 21:53 -36.0 -35.9 -36.0 70 -39.5 11.3 ENE 0.19 12.2 ENE -50.9 -36.0 -50.9 740.4 0.038 0.000 14.1 1 -41.6 11.2 0.30 .0748 23 1 100.0 1
08/07/23 21:54 -35.9 -35.9 -36.0 70 -39.5 12.2 ENE 0.20 13.0 ENE -51.3 -35.9 -51.3 740.4 0.038 0.000 14.1 1 -41.6 11.2 0.30 .0748 24 1 100.0 1
08/07/23 21:55 -35.9 -35.9 -35.9 70 -39.4 10.4 ENE 0.17 12.2 ENE -50.2 -35.9 -50.2 740.5 0.038 0.000 14.1 1 -41.6 11.2 0.30 .0748 23 1 100.0 1
08/07/23 21:56 -35.8 -35.8 -35.8 70 -39.3 8.7 ENE 0.14 10.4 ENE -48.9 -35.8 -48.9 740.5 0.038 0.000 14.1 1 -41.6 11.2 0.30 .0748 24 1 100.0 1
08/07/23 21:57 -35.7 -35.7 -35.8 71 -39.1 7.8 ENE 0.13 10.4 ENE -48.2 -35.7 -48.2 740.5 0.038 0.000 14.1 1 -41.6 11.1 0.30 .0748 23 1 100.0 1
08/07/23 21:58 -35.8 -35.7 -35.8 71 -39.2 9.6 E 0.16 11.3 E -49.5 -35.8 -49.5 740.4 0.038 0.000 14.1 1 -41.6 11.2 0.30 .0748 23 1 100.0 1
08/07/23 21:59 -35.8 -35.8 -35.8 71 -39.2 12.2 ENE 0.20 12.2 ENE -51.1 -35.8 -51.1 740.4 0.038 0.000 14.1 1 -41.6 11.1 0.30 .0748 24 1 100.0 1
08/07/23 22:00 -35.8 -35.8 -35.8 71 -39.2 10.4 ENE 0.17 11.3 ENE -50.1 -35.8 -50.1 740.4 0.038 0.000 14.1 1 -41.6 11.1 0.30 .0748 23 1 100.0 1
08/07/23 22:01 -35.8 -35.8 -35.8 71 -39.2 9.6 ENE 0.16 9.6 ENE -49.6 -35.8 -49.6 740.4 0.038 0.000 14.1 1 -41.6 11.1 0.30 .0748 24 1 100.0 1
08/07/23 22:02 -35.9 -35.8 -35.9 71 -39.3 9.6 ENE 0.16 10.4 ENE -49.7 -35.9 -49.7 740.4 0.038 0.000 14.1 1 -41.6 11.1 0.30 .0748 23 1 100.0 1
08/07/23 22:03 -36.0 -35.9 -36.0 71 -39.4 9.6 ENE 0.16 10.4 ENE -49.8 -36.0 -49.8 740.4 0.038 0.000 14.1 1 -41.6 11.1 0.30 .0748 23 1 100.0 1
08/07/23 22:04 -36.0 -36.0 -36.0 71 -39.4 9.6 ENE 0.16 10.4 ENE -49.8 -36.0 -49.8 740.3 0.038 0.000 14.1 1 -41.6 11.1 0.30 .0748 24 1 100.0 1
08/07/23 22:05 -35.9 -35.9 -36.0 70 -39.5 9.6 ENE 0.16 10.4 ENE -49.7 -35.9 -49.7 740.3 0.038 0.000 14.1 1 -41.6 11.1 0.30 .0748 23 1 100.0 1
08/07/23 22:06 -35.9 -35.9 -35.9 70 -39.5 9.6 ENE 0.16 10.4 ENE -49.7 -35.9 -49.7 740.3 0.038 0.000 14.1 1 -41.6 11.1 0.30 .0748 24 1 100.0 1
08/07/23 22:07 -35.9 -35.9 -35.9 71 -39.3 10.4 ENE 0.17 10.4 ENE -50.2 -35.9 -50.2 740.3 0.038 0.000 14.1 1 -41.6 11.1 0.30 .0748 23 1 100.0 1
08/07/23 22:08 -35.9 -35.9 -35.9 71 -39.3 10.4 ENE 0.17 11.3 ENE -50.2 -35.9 -50.2 740.3 0.038 0.000 14.1 1 -41.6 11.2 0.30 .0747 24 1 100.0 1
08/07/23 22:09 -35.9 -35.9 -35.9 71 -39.3 10.4 ENE 0.17 10.4 ENE -50.2 -35.9 -50.2 740.3 0.038 0.000 14.1 1 -41.6 11.1 0.30 .0748 23 1 100.0 1
08/07/23 22:10 -35.9 -35.9 -35.9 71 -39.3 9.6 ENE 0.16 10.4 ENE -49.7 -35.9 -49.7 740.3 0.038 0.000 14.1 1 -41.6 11.1 0.30 .0748 23 1 100.0 1
08/07/23 22:11 -36.1 -35.9 -36.1 71 -39.4 9.6 ENE 0.16 10.4 ENE -49.8 -36.1 -49.8 740.3 0.038 0.000 14.1 1 -41.6 11.1 0.30 .0748 24 1 100.0 1
08/07/23 22:12 -36.1 -36.1 -36.1 71 -39.4 10.4 ENE 0.17 11.3 ENE -50.4 -36.1 -50.4 740.3 0.038 0.000 14.1 1 -41.6 11.1 0.30 .0748 23 1 100.0 1
08/07/23 22:13 -36.0 -36.0 -36.1 71 -39.4 10.4 ENE 0.17 11.3 ENE -50.3 -36.0 -50.3 740.4 0.038 0.000 14.1 1 -41.6 11.1 0.30 .0748 24 1 100.0 1
08/07/23 22:14 -35.9 -35.9 -36.0 71 -39.3 10.4 ENE 0.17 11.3 ENE -50.3 -35.9 -50.3 740.4 0.038 0.000 14.1 1 -41.6 11.2 0.30 .0748 23 1 100.0 1
08/07/23 22:15 -35.9 -35.9 -35.9 71 -39.3 8.7 ENE 0.14 9.6 ENE -49.1 -35.9 -49.1 740.4 0.038 0.000 14.1 1 -41.6 11.1 0.30 .0748 23 1 100.0 1
08/07/23 22:16 -35.9 -35.9 -36.0 71 -39.3 10.4 ENE 0.17 11.3 E -50.3 -35.9 -50.3 740.4 0.038 0.000 14.1 1 -41.6 11.1 0.30 .0748 24 1 100.0 1
08/07/23 22:17 -35.8 -35.8 -35.9 71 -39.2 11.3 ENE 0.19 12.2 ENE -50.7 -35.8 -50.7 740.3 0.038 0.000 14.1 1 -41.6 11.1 0.30 .0748 23 1 100.0 1
08/07/23 22:18 -35.8 -35.8 -35.8 71 -39.2 10.4 ENE 0.17 10.4 ENE -50.1 -35.8 -50.1 740.4 0.038 0.000 14.1 1 -41.6 11.1 0.30 .0748 24 1 100.0 1
08/07/23 22:19 -35.8 -35.8 -35.8 71 -39.2 8.7 ENE 0.14 9.6 ENE -48.9 -35.8 -48.9 740.4 0.038 0.000 14.1 1 -41.6 11.1 0.30 .0748 23 1 100.0 1
08/07/23 22:20 -35.9 -35.8 -35.9 71 -39.3 8.7 ENE 0.14 10.4 ENE -49.1 -35.9 -49.1 740.4 0.038 0.000 14.1 1 -41.6 11.1 0.30 .0748 24 1 100.0 1
08/07/23 22:21 -36.0 -35.9 -36.0 71 -39.4 11.3 ENE 0.19 11.3 ENE -50.9 -36.0 -50.9 740.4 0.038 0.000 14.1 1 -41.6 11.1 0.30 .0748 23 1 100.0 1
08/07/23 22:22 -36.0 -36.0 -36.0 71 -39.4 10.4 ENE 0.17 11.3 ENE -50.3 -36.0 -50.3 740.4 0.038 0.000 14.1 1 -41.6 11.1 0.30 .0748 23 1 100.0 1
08/07/23 22:23 -35.9 -35.9 -36.0 71 -39.3 8.7 ENE 0.14 8.7 ENE -49.1 -35.9 -49.1 740.4 0.038 0.000 14.1 1 -41.6 11.1 0.30 .0748 24 1 100.0 1
08/07/23 22:24 -36.1 -36.0 -36.1 71 -39.4 7.8 ENE 0.13 9.6 ENE -48.6 -36.1 -48.6 740.4 0.038 0.000 14.1 1 -41.6 11.1 0.30 .0748 23 1 100.0 1
08/07/23 22:25 -36.2 -36.2 -36.2 71 -39.6 9.6 ENE 0.16 10.4 ENE -50.1 -36.2 -50.1 740.3 0.038 0.000 14.1 1 -41.6 11.1 0.30 .0748 24 1 100.0 1
08/07/23 22:26 -36.3 -36.3 -36.3 70 -39.8 8.7 ENE 0.14 9.6 ENE -49.6 -36.3 -49.6 740.3 0.038 0.000 14.1 1 -41.6 11.1 0.30 .0748 23 1 100.0 1
08/07/23 22:27 -36.3 -36.3 -36.3 70 -39.8 8.7 ENE 0.14 9.6 ENE -49.6 -36.3 -49.6 740.4 0.038 0.000 14.1 1 -41.6 11.1 0.30 .0748 23 1 100.0 1
08/07/23 22:28 -36.4 -36.4 -36.4 70 -39.9 9.6 ENE 0.16 10.4 ENE -50.3 -36.4 -50.3 740.3 0.038 0.000 14.1 1 -41.6 11.1 0.30 .0748 24 1 100.0 1
08/07/23 22:29 -36.5 -36.4 -36.5 70 -40.0 8.7 ENE 0.14 10.4 ENE -49.8 -36.5 -49.8 740.3 0.038 0.000 14.1 1 -41.6 11.1 0.30 .0748 23 1 100.0 1
08/07/23 22:30 -36.6 -36.5 -36.6 70 -40.0 9.6 ENE 0.16 10.4 ENE -50.4 -36.6 -50.4 740.3 0.038 0.000 14.1 1 -41.6 11.1 0.30 .0748 24 1 100.0 1
08/07/23 22:31 -36.7 -36.6 -36.7 70 -40.2 9.6 ENE 0.16 10.4 ENE -50.6 -36.7 -50.6 740.3 0.038 0.000 14.1 1 -41.6 11.1 0.30 .0748 23 1 100.0 1
08/07/23 22:32 -36.6 -36.6 -36.7 70 -40.1 10.4 ENE 0.17 11.3 ENE -51.1 -36.6 -51.1 740.3 0.038 0.000 14.1 1 -41.6 11.1 0.30 .0748 23 1 100.0 1
08/07/23 22:33 -36.5 -36.5 -36.6 70 -40.0 10.4 ENE 0.17 11.3 E -50.9 -36.5 -50.9 740.3 0.038 0.000 14.1 1 -41.6 11.1 0.30 .0748 24 1 100.0 1
08/07/23 22:34 -36.2 -36.2 -36.4 70 -39.7 9.6 ENE 0.16 10.4 ENE -50.1 -36.2 -50.1 740.2 0.038 0.000 14.1 1 -41.6 11.1 0.30 .0748 23 1 100.0 1
08/07/23 22:35 -36.0 -36.0 -36.2 71 -39.4 9.6 ENE 0.16 10.4 ENE -49.8 -36.0 -49.8 740.3 0.038 0.000 14.1 1 -41.6 11.1 0.30 .0748 24 1 100.0 1
08/07/23 22:36 -35.9 -35.9 -36.0 71 -39.3 9.6 ENE 0.16 11.3 ENE -49.7 -35.9 -49.7 740.3 0.038 0.000 14.1 1 -41.6 11.1 0.30 .0748 23 1 100.0 1
08/07/23 22:37 -35.8 -35.8 -35.9 71 -39.2 9.6 ENE 0.16 10.4 ENE -49.5 -35.8 -49.5 740.3 0.038 0.000 14.1 1 -41.6 11.1 0.30 .0748 24 1 100.0 1
08/07/23 22:38 -35.7 -35.7 -35.8 71 -39.1 7.8 ENE 0.13 8.7 ENE -48.1 -35.7 -48.1 740.3 0.038 0.000 14.1 1 -41.6 11.1 0.30 .0748 23 1 100.0 1
08/07/23 22:39 -35.7 -35.7 -35.7 71 -39.1 8.7 ENE 0.14 8.7 ENE -48.7 -35.7 -48.7 740.3 0.038 0.000 14.1 1 -41.6 11.1 0.30 .0748 23 1 100.0 1
08/07/23 22:40 -35.7 -35.7 -35.7 71 -39.1 8.7 ENE 0.14 9.6 ENE -48.8 -35.7 -48.8 740.3 0.038 0.000 14.1 1 -41.6 11.1 0.30 .0748 24 1 100.0 1
08/07/23 22:41 -35.8 -35.7 -35.8 71 -39.2 9.6 ENE 0.16 10.4 ENE -49.5 -35.8 -49.5 740.2 0.038 0.000 14.1 1 -41.6 11.1 0.30 .0748 23 1 100.0 1
08/07/23 22:42 -35.8 -35.8 -35.8 71 -39.2 9.6 ENE 0.16 10.4 ENE -49.5 -35.8 -49.5 740.2 0.038 0.000 14.1 1 -41.6 11.1 0.30 .0748 24 1 100.0 1
08/07/23 22:43 -35.8 -35.8 -35.8 71 -39.2 8.7 ENE 0.14 9.6 ENE -48.9 -35.8 -48.9 740.2 0.038 0.000 14.1 1 -41.6 11.1 0.30 .0748 23 1 100.0 1
08/07/23 22:44 -35.9 -35.9 -35.9 71 -39.3 8.7 ENE 0.14 9.6 ENE -49.1 -35.9 -49.1 740.2 0.038 0.000 14.1 1 -41.6 11.1 0.30 .0748 23 1 100.0 1
08/07/23 22:45 -36.0 -35.9 -36.0 71 -39.4 7.8 ENE 0.13 8.7 ENE -48.5 -36.0 -48.5 740.3 0.038 0.000 14.1 1 -41.6 11.1 0.30 .0748 24 1 100.0 1
08/07/23 22:46 -36.1 -36.0 -36.1 71 -39.4 8.7 ENE 0.14 8.7 ENE -49.2 -36.1 -49.2 740.3 0.038 0.000 14.1 1 -41.6 11.1 0.30 .0748 23 1 100.0 1
08/07/23 22:47 -36.2 -36.1 -36.2 71 -39.5 8.7 ENE 0.14 9.6 ENE -49.4 -36.2 -49.4 740.2 0.038 0.000 14.1 1 -41.6 11.1 0.30 .0748 24 1 100.0 1
08/07/23 22:48 -36.2 -36.2 -36.2 71 -39.6 9.6 ENE 0.16 10.4 ENE -50.1 -36.2 -50.1 740.3 0.038 0.000 14.1 1 -41.6 11.1 0.30 .0748 23 1 100.0 1
08/07/23 22:49 -36.2 -36.2 -36.2 70 -39.7 9.6 ENE 0.16 10.4 ENE -50.1 -36.2 -50.1 740.3 0.038 0.000 14.1 1 -41.6 11.1 0.30 .0748 23 1 100.0 1
08/07/23 22:50 -36.2 -36.2 -36.2 70 -39.7 9.6 ENE 0.16 10.4 ENE -50.1 -36.2 -50.1 740.3 0.038 0.000 14.1 1 -41.6 11.1 0.30 .0748 24 1 100.0 1
08/07/23 22:51 -36.3 -36.2 -36.3 70 -39.8 9.6 ENE 0.16 11.3 ENE -50.1 -36.3 -50.1 740.3 0.038 0.000 14.1 1 -41.6 11.1 0.30 .0748 23 1 100.0 1
08/07/23 22:52 -36.2 -36.2 -36.2 70 -39.7 11.3 ENE 0.19 12.2 ENE -51.1 -36.2 -51.1 740.3 0.038 0.000 14.1 1 -41.6 11.1 0.30 .0748 24 1 100.0 1
08/07/23 22:53 -36.1 -36.1 -36.2 71 -39.4 9.6 ENE 0.16 10.4 ENE -49.8 -36.1 -49.8 740.3 0.038 0.000 14.1 1 -41.6 11.1 0.30 .0748 23 1 100.0 1
08/07/23 22:54 -36.1 -36.1 -36.1 71 -39.4 9.6 ENE 0.16 9.6 ENE -49.8 -36.1 -49.8 740.3 0.038 0.000 14.1 1 -41.6 11.1 0.30 .0748 24 1 100.0 1
08/07/23 22:55 -36.0 -36.0 -36.1 71 -39.4 8.7 ENE 0.14 9.6 ENE -49.2 -36.0 -49.2 740.3 0.038 0.000 14.1 1 -41.6 11.1 0.30 .0748 23 1 100.0 1
08/07/23 22:56 -36.0 -36.0 -36.0 71 -39.4 7.8 ENE 0.13 8.7 ENE -48.5 -36.0 -48.5 740.3 0.038 0.000 14.1 1 -41.6 11.1 0.30 .0748 23 1 100.0 1
08/07/23 22:57 -36.1 -36.0 -36.1 71 -39.4 8.7 ENE 0.14 9.6 ENE -49.2 -36.1 -49.2 740.3 0.038 0.000 14.1 1 -41.6 11.1 0.30 .0748 24 1 100.0 1
08/07/23 22:58 -36.2 -36.1 -36.2 71 -39.5 9.6 ENE 0.16 9.6 ENE -50.0 -36.2 -50.0 740.2 0.038 0.000 14.1 1 -41.6 11.1 0.30 .0748 23 1 100.0 1
08/07/23 22:59 -36.1 -36.1 -36.2 71 -39.5 8.7 ENE 0.14 9.6 ENE -49.3 -36.1 -49.3 740.3 0.038 0.000 14.1 1 -41.6 11.1 0.30 .0748 24 1 100.0 1
08/07/23 23:00 -36.1 -36.1 -36.1 71 -39.4 8.7 ENE 0.14 8.7 E -49.2 -36.1 -49.2 740.2 0.038 0.000 14.1 1 -41.6 11.1 0.30 .0748 23 1 100.0 1
08/07/23 23:01 -36.1 -36.1 -36.1 71 -39.4 8.7 ENE 0.14 9.6 ENE -49.2 -36.1 -49.2 740.2 0.038 0.000 14.0 1 -41.7 11.1 0.31 .0748 23 1 100.0 1
08/07/23 23:02 -36.0 -36.0 -36.1 71 -39.4 8.7 ENE 0.14 9.6 ENE -49.2 -36.0 -49.2 740.2 0.038 0.000 14.1 1 -41.6 11.1 0.30 .0748 24 1 100.0 1
08/07/23 23:03 -36.1 -36.0 -36.1 71 -39.4 7.8 ENE 0.13 8.7 ENE -48.6 -36.1 -48.6 740.2 0.038 0.000 14.1 1 -41.6 11.1 0.30 .0748 23 1 100.0 1
08/07/23 23:04 -36.1 -36.1 -36.1 71 -39.5 7.8 ENE 0.13 8.7 E -48.6 -36.1 -48.6 740.2 0.038 0.000 14.1 1 -41.6 11.1 0.30 .0748 24 1 100.0 1
08/07/23 23:05 -36.2 -36.1 -36.2 71 -39.5 7.8 ENE 0.13 8.7 E -48.7 -36.2 -48.7 740.2 0.038 0.000 14.1 1 -41.6 11.1 0.30 .0748 23 1 100.0 1
08/07/23 23:06 -36.2 -36.2 -36.2 71 -39.5 8.7 ENE 0.14 9.6 ENE -49.4 -36.2 -49.4 740.2 0.038 0.000 14.1 1 -41.6 11.1 0.30 .0748 24 1 100.0 1
08/07/23 23:07 -36.1 -36.1 -36.2 71 -39.5 7.8 ENE 0.13 8.7 ENE -48.6 -36.1 -48.6 740.2 0.038 0.000 14.1 1 -41.6 11.1 0.30 .0748 23 1 100.0 1
08/07/23 23:08 -36.1 -36.1 -36.1 71 -39.4 8.7 E 0.14 9.6 E -49.2 -36.1 -49.2 740.2 0.038 0.000 14.1 1 -41.6 11.1 0.30 .0748 23 1 100.0 1
08/07/23 23:09 -36.0 -36.0 -36.1 71 -39.4 8.7 E 0.14 9.6 E -49.2 -36.0 -49.2 740.2 0.038 0.000 14.1 1 -41.6 11.1 0.30 .0748 24 1 100.0 1
08/07/23 23:10 -36.1 -36.0 -36.1 71 -39.4 7.8 E 0.13 8.7 E -48.6 -36.1 -48.6 740.2 0.038 0.000 14.1 1 -41.6 11.1 0.30 .0748 23 1 100.0 1
08/07/23 23:11 -36.2 -36.1 -36.2 71 -39.5 7.8 E 0.13 8.7 ENE -48.7 -36.2 -48.7 740.2 0.038 0.000 14.1 1 -41.6 11.1 0.30 .0748 24 1 100.0 1
08/07/23 23:12 -36.2 -36.2 -36.2 71 -39.6 7.8 E 0.13 8.7 ENE -48.8 -36.2 -48.8 740.2 0.038 0.000 14.1 1 -41.6 11.1 0.30 .0748 23 1 100.0 1
08/07/23 23:13 -36.3 -36.3 -36.3 71 -39.7 8.7 E 0.14 9.6 E -49.6 -36.3 -49.6 740.2 0.038 0.000 14.1 1 -41.6 11.1 0.30 .0748 23 1 100.0 1
08/07/23 23:14 -36.4 -36.3 -36.4 71 -39.8 8.7 ENE 0.14 8.7 E -49.7 -36.4 -49.7 740.2 0.038 0.000 14.1 1 -41.6 11.1 0.30 .0748 24 1 100.0 1
08/07/23 23:15 -36.5 -36.4 -36.5 71 -39.9 7.8 ENE 0.13 8.7 ENE -49.1 -36.5 -49.1 740.2 0.038 0.000 14.1 1 -41.6 11.1 0.30 .0748 23 1 100.0 1
08/07/23 23:16 -36.6 -36.6 -36.6 71 -40.0 9.6 ENE 0.16 10.4 ENE -50.6 -36.6 -50.6 740.2 0.038 0.000 14.0 1 -41.7 11.1 0.31 .0748 24 1 100.0 1
08/07/23 23:17 -36.7 -36.7 -36.7 70 -40.2 10.4 E 0.17 10.4 E -51.2 -36.7 -51.2 740.2 0.038 0.000 14.1 1 -41.6 11.1 0.30 .0748 23 1 100.0 1
08/07/23 23:18 -36.6 -36.6 -36.7 70 -40.0 10.4 ENE 0.17 10.4 ENE -51.1 -36.6 -51.1 740.2 0.038 0.000 14.1 1 -41.6 11.1 0.30 .0748 23 1 100.0 1
08/07/23 23:19 -36.5 -36.5 -36.6 70 -40.0 10.4 ENE 0.17 10.4 ENE -50.9 -36.5 -50.9 740.2 0.038 0.000 14.1 1 -41.6 11.1 0.30 .0748 24 1 100.0 1
08/07/23 23:20 -36.4 -36.4 -36.5 71 -39.8 9.6 E 0.16 10.4 ENE -50.3 -36.4 -50.3 740.2 0.038 0.000 14.1 1 -41.6 11.1 0.30 .0748 23 1 100.0 1
08/07/23 23:21 -36.4 -36.4 -36.4 70 -39.9 9.6 E 0.16 10.4 E -50.3 -36.4 -50.3 740.2 0.038 0.000 14.1 1 -41.6 11.1 0.30 .0748 24 1 100.0 1
08/07/23 23:22 -36.4 -36.4 -36.4 71 -39.8 9.6 ENE 0.16 10.4 E -50.3 -36.4 -50.3 740.2 0.038 0.000 14.1 1 -41.6 11.1 0.30 .0748 23 1 100.0 1
08/07/23 23:23 -36.4 -36.4 -36.4 71 -39.8 10.4 ENE 0.17 10.4 ENE -50.8 -36.4 -50.8 740.2 0.038 0.000 14.1 1 -41.6 11.1 0.30 .0748 24 1 100.0 1
08/07/23 23:24 -36.4 -36.4 -36.4 71 -39.8 9.6 ENE 0.16 10.4 E -50.3 -36.4 -50.3 740.2 0.038 0.000 14.1 1 -41.6 11.1 0.30 .0748 23 1 100.0 1
08/07/23 23:25 -36.4 -36.4 -36.4 71 -39.8 9.6 ENE 0.16 10.4 ENE -50.3 -36.4 -50.3 740.2 0.038 0.000 14.1 1 -41.6 11.1 0.30 .0748 23 1 100.0 1
08/07/23 23:26 -36.6 -36.5 -36.6 71 -39.9 9.6 ENE 0.16 10.4 ENE -50.4 -36.6 -50.4 740.2 0.038 0.000 14.1 1 -41.6 11.1 0.30 .0748 24 1 100.0 1
08/07/23 23:27 -36.7 -36.6 -36.7 71 -40.0 8.7 ENE 0.14 9.6 ENE -50.0 -36.7 -50.0 740.2 0.038 0.000 14.1 1 -41.6 11.1 0.30 .0748 23 1 100.0 1
08/07/23 23:28 -36.7 -36.7 -36.7 71 -40.1 9.6 E 0.16 10.4 E -50.7 -36.7 -50.7 740.2 0.038 0.000 14.1 1 -41.6 11.1 0.30 .0748 24 1 100.0 1
08/07/23 23:29 -36.7 -36.7 -36.7 71 -40.1 9.6 E 0.16 10.4 E -50.7 -36.7 -50.7 740.2 0.038 0.000 14.0 1 -41.7 11.1 0.31 .0748 23 1 100.0 1
08/07/23 23:30 -36.7 -36.7 -36.7 71 -40.1 9.6 E 0.16 10.4 E -50.7 -36.7 -50.7 740.2 0.038 0.000 14.1 1 -41.6 11.1 0.30 .0748 23 1 100.0 1
08/07/23 23:31 -36.7 -36.7 -36.7 71 -40.1 10.4 E 0.17 11.3 E -51.3 -36.7 -51.3 740.2 0.038 0.000 14.1 1 -41.6 11.1 0.30 .0748 24 1 100.0 1
08/07/23 23:32 -36.8 -36.7 -36.8 71 -40.1 10.4 E 0.17 11.3 E -51.3 -36.8 -51.3 740.2 0.038 0.000 14.1 1 -41.6 11.1 0.30 .0748 23 1 100.0 1
08/07/23 23:33 -36.7 -36.7 -36.7 71 -40.1 10.4 E 0.17 10.4 ENE -51.3 -36.7 -51.3 740.2 0.038 0.000 14.1 1 -41.6 11.1 0.30 .0748 24 1 100.0 1
08/07/23 23:34 -36.7 -36.7 -36.7 71 -40.1 10.4 E 0.17 11.3 ENE -51.3 -36.7 -51.3 740.2 0.038 0.000 14.1 1 -41.6 11.1 0.30 .0748 23 1 100.0 1
08/07/23 23:35 -36.7 -36.7 -36.7 71 -40.1 10.4 E 0.17 11.3 E -51.3 -36.7 -51.3 740.2 0.038 0.000 14.1 1 -41.6 11.1 0.30 .0748 23 1 100.0 1
08/07/23 23:36 -36.7 -36.7 -36.7 71 -40.1 10.4 E 0.17 11.3 E -51.3 -36.7 -51.3 740.2 0.038 0.000 14.1 1 -41.6 11.1 0.30 .0748 24 1 100.0 1
08/07/23 23:37 -36.7 -36.7 -36.7 71 -40.1 9.6 ENE 0.16 10.4 ENE -50.7 -36.7 -50.7 740.2 0.038 0.000 14.1 1 -41.6 11.1 0.30 .0748 23 1 100.0 1
08/07/23 23:38 -36.7 -36.7 -36.7 71 -40.1 9.6 ENE 0.16 10.4 ENE -50.7 -36.7 -50.7 740.2 0.038 0.000 14.1 1 -41.6 11.1 0.30 .0748 24 1 100.0 1
08/07/23 23:39 -36.8 -36.7 -36.8 71 -40.1 9.6 ENE 0.16 10.4 ENE -50.7 -36.8 -50.7 740.2 0.038 0.000 14.1 1 -41.6 11.1 0.30 .0747 23 1 100.0 1
08/07/23 23:40 -36.8 -36.8 -36.8 71 -40.1 9.6 ENE 0.16 9.6 E -50.7 -36.8 -50.7 740.2 0.038 0.000 14.1 1 -41.6 11.1 0.30 .0748 24 1 100.0 1
08/07/23 23:41 -36.8 -36.8 -36.8 71 -40.1 8.7 ENE 0.14 9.6 ENE -50.1 -36.8 -50.1 740.2 0.038 0.000 14.1 1 -41.6 11.1 0.30 .0748 23 1 100.0 1
08/07/23 23:42 -36.8 -36.8 -36.8 71 -40.1 9.6 ENE 0.16 10.4 ENE -50.7 -36.8 -50.7 740.2 0.038 0.000 14.0 1 -41.7 11.1 0.31 .0748 23 1 100.0 1
08/07/23 23:43 -36.7 -36.7 -36.8 71 -40.1 9.6 ENE 0.16 10.4 E -50.7 -36.7 -50.7 740.2 0.038 0.000 14.1 1 -41.6 11.1 0.30 .0748 24 1 100.0 1
08/07/23 23:44 -36.8 -36.8 -36.8 71 -40.1 9.6 ENE 0.16 11.3 ENE -50.7 -36.8 -50.7 740.2 0.038 0.000 14.0 1 -41.7 11.1 0.31 .0748 23 1 100.0 1
08/07/23 23:45 -36.7 -36.7 -36.8 71 -40.1 9.6 ENE 0.16 10.4 ENE -50.7 -36.7 -50.7 740.3 0.038 0.000 14.0 1 -41.7 11.1 0.31 .0748 24 1 100.0 1
08/07/23 23:46 -36.8 -36.7 -36.8 71 -40.1 7.8 ENE 0.13 8.7 ENE -49.4 -36.8 -49.4 740.3 0.038 0.000 14.0 1 -41.7 11.1 0.31 .0748 23 1 100.0 1
08/07/23 23:47 -36.9 -36.8 -36.9 71 -40.2 7.8 ENE 0.13 8.7 ENE -49.6 -36.9 -49.6 740.3 0.038 0.000 14.1 1 -41.6 11.1 0.30 .0748 23 1 100.0 1
08/07/23 23:48 -36.9 -36.9 -36.9 71 -40.3 7.8 ENE 0.13 9.6 ENE -49.7 -36.9 -49.7 740.3 0.038 0.000 14.0 1 -41.7 11.1 0.31 .0748 24 1 100.0 1
08/07/23 23:49 -37.1 -37.0 -37.1 71 -40.4 9.6 ENE 0.16 10.4 ENE -51.1 -37.1 -51.1 740.3 0.038 0.000 14.0 1 -41.7 11.1 0.31 .0748 23 1 100.0 1
08/07/23 23:50 -37.1 -37.1 -37.1 71 -40.4 8.7 ENE 0.14 10.4 ENE -50.4 -37.1 -50.4 740.3 0.038 0.000 14.1 1 -41.6 11.1 0.30 .0748 24 1 100.0 1
08/07/23 23:51 -37.0 -37.0 -37.1 71 -40.3 7.0 ENE 0.12 8.7 ENE -49.0 -37.0 -49.0 740.4 0.038 0.000 14.0 1 -41.7 11.1 0.31 .0748 23 1 100.0 1
08/07/23 23:52 -37.1 -37.0 -37.1 71 -40.4 7.8 ENE 0.13 9.6 ENE -49.8 -37.1 -49.8 740.3 0.038 0.000 14.0 1 -41.7 11.1 0.31 .0748 24 1 100.0 1
08/07/23 23:53 -37.1 -37.1 -37.1 71 -40.4 9.6 ENE 0.16 11.3 ENE -51.2 -37.1 -51.2 740.3 0.039 0.000 14.0 1 -41.7 11.1 0.31 .0748 23 1 100.0 1
08/07/23 23:54 -37.1 -37.1 -37.1 71 -40.4 11.3 ENE 0.19 12.2 ENE -52.2 -37.1 -52.2 740.3 0.038 0.000 14.0 1 -41.7 11.1 0.31 .0748 23 1 100.0 1
08/07/23 23:55 -37.0 -37.0 -37.1 71 -40.3 10.4 ENE 0.17 11.3 ENE -51.6 -37.0 -51.6 740.3 0.038 0.000 14.0 1 -41.7 11.1 0.31 .0748 24 1 100.0 1
08/07/23 23:56 -37.0 -36.9 -37.0 71 -40.3 8.7 ENE 0.14 9.6 ENE -50.4 -37.0 -50.4 740.3 0.038 0.000 14.0 1 -41.7 11.1 0.31 .0748 23 1 100.0 1
08/07/23 23:57 -37.0 -37.0 -37.1 71 -40.3 9.6 ENE 0.16 11.3 ENE -51.0 -37.0 -51.0 740.2 0.038 0.000 14.0 1 -41.7 11.1 0.31 .0748 24 1 100.0 1
08/07/23 23:58 -37.1 -37.1 -37.1 71 -40.4 10.4 ENE 0.17 12.2 ENE -51.7 -37.1 -51.7 740.2 0.038 0.000 14.0 1 -41.7 11.1 0.31 .0748 23 1 100.0 1
08/07/23 23:59 -37.1 -37.1 -37.1 71 -40.4 12.2 ENE 0.20 13.0 ENE -52.7 -37.1 -52.7 740.2 0.038 0.000 14.0 1 -41.7 11.1 0.31 .0748 23 1 100.0 1
08/08/23 00:00 -37.2 -37.1 -37.2 71 -40.6 10.4 ENE 0.17 11.3 ENE -51.9 -37.2 -51.9 740.2 0.039 0.000 14.1 1 -41.6 11.1 0.30 .0747 24 1 100.0 1